# Wetter Temperatur Luftdruck Luftfeuchtigkeit Sichtweite Windgeschwindigkeit Windrichtung Zeit
1 Rain 4 987 93 0 8.2 300 21:54 28.01.2020
2 Rain 4 988 86 6000 7.7 290 21:36 28.01.2020
3 Rain 4 987 93 10000 3.1 240 21:18 28.01.2020
4 Rain 4 987 93 0 5.7 250 20:45 28.01.2020
5 Drizzle 4 986 93 10000 4.1 220 20:26 28.01.2020
6 Clouds 4 986 93 0 4.1 260 19:55 28.01.2020
7 Clouds 4 987 93 5000 3.6 230 19:37 28.01.2020
8 Clouds 4 986 93 10000 1.5 210 19:19 28.01.2020
9 Clouds 4 986 93 10000 1.5 210 19:19 28.01.2020
10 Clouds 4 986 93 0 3.1 270 18:42 28.01.2020
11 Rain 4 985 93 10000 1.5 270 18:23 28.01.2020
12 Clouds 4 985 100 0 4.6 270 17:59 28.01.2020
13 Clouds 4 985 93 10000 1 250 17:40 28.01.2020
14 Clouds 5 985 87 10000 2.1 210 17:21 28.01.2020
15 Rain 5 985 87 0 3.1 250 16:59 28.01.2020
16 Rain 5 985 87 0 3.1 250 16:41 28.01.2020
17 Rain 5 985 93 9000 3.1 220 16:22 28.01.2020
18 Rain 5 984 87 0 4.6 240 15:55 28.01.2020
19 Rain 6 985 93 7000 4.6 220 15:37 28.01.2020
20 Clouds 6 984 81 10000 7.2 240 15:18 28.01.2020
21 Rain 6 984 87 0 3.6 240 14:43 28.01.2020
22 Rain 6 984 87 10000 5.1 230 14:20 28.01.2020
23 Rain 6 984 87 0 5.7 240 13:42 28.01.2020
24 Clouds 6 984 81 10000 4.6 220 13:24 28.01.2020
25 Rain 6 984 81 0 7.7 240 12:45 28.01.2020
26 Clouds 6 984 87 10000 5.1 220 12:25 28.01.2020
27 Rain 6 985 87 0 7.2 220 11:59 28.01.2020
28 Rain 6 985 87 0 7.2 220 11:41 28.01.2020
29 Clouds 6 985 87 10000 5.1 200 11:22 28.01.2020
30 Rain 6 985 87 0 6.2 220 10:55 28.01.2020
31 Clouds 6 986 87 10000 6.2 210 10:36 28.01.2020
32 Clouds 6 985 93 8000 3.6 200 10:18 28.01.2020
33 Clouds 6 986 87 10000 5.7 200 09:41 28.01.2020
34 Rain 5 985 93 3000 5.1 210 09:20 28.01.2020
35 Rain 5 985 93 0 7.2 230 08:46 28.01.2020
36 Clouds 6 986 87 9000 6.2 220 08:26 28.01.2020
37 Rain 6 986 93 0 5.7 200 07:56 28.01.2020
38 Clouds 6 986 87 8000 5.7 210 07:35 28.01.2020
39 Rain 5 986 100 0 5.7 150 06:48 28.01.2020
40 Rain 5 986 100 0 5.7 150 06:48 28.01.2020
41 Rain 6 986 87 3000 5.7 150 06:25 28.01.2020
42 Rain 6 988 93 0 6.2 160 05:40 28.01.2020
43 Rain 6 988 93 0 6.2 160 05:40 28.01.2020
44 Rain 6 988 93 2500 4.6 120 05:22 28.01.2020
45 Clouds 6 991 93 0 5.1 160 03:51 28.01.2020
46 Clouds 6 992 100 0 3.1 170 02:55 28.01.2020
47 Mist 6 993 93 2600 3.6 150 02:25 28.01.2020
48 Clouds 6 994 100 0 3.6 160 01:56 28.01.2020
49 Mist 6 994 100 0 2.6 170 01:22 28.01.2020
50 Clouds 6 995 100 0 4.6 180 00:45 28.01.2020
51 Clouds 7 996 93 0 3.1 180 00:24 28.01.2020
52 Clouds 7 996 93 0 5.1 190 23:46 27.01.2020
53 Clouds 7 997 93 6000 2.6 180 23:28 27.01.2020
54 Clouds 7 997 93 6000 2.6 180 23:28 27.01.2020
55 Rain 7 997 93 0 6.2 190 22:46 27.01.2020
56 Mist 7 998 93 5000 1.5 0 22:22 27.01.2020
57 Mist 7 998 93 5000 1.5 0 22:22 27.01.2020
58 Rain 7 998 93 0 5.7 180 21:59 27.01.2020
59 Clouds 7 998 93 6000 4.1 170 21:39 27.01.2020
60 Clouds 7 999 93 6000 4.1 160 21:19 27.01.2020
61 Rain 7 999 93 0 5.1 190 20:59 27.01.2020
62 Clouds 7 999 93 7000 2.6 180 20:40 27.01.2020
63 Mist 7 999 93 5000 5.1 190 20:21 27.01.2020
64 Rain 7 1000 93 0 5.1 200 19:58 27.01.2020
65 Clouds 7 1000 93 7000 4.6 180 19:40 27.01.2020
66 Rain 7 1000 93 7000 3.1 180 19:21 27.01.2020
67 Rain 7 1000 93 7000 3.1 180 19:21 27.01.2020
68 Rain 7 1000 93 0 5.1 210 18:55 27.01.2020
69 Clouds 7 1001 93 7000 4.1 190 18:37 27.01.2020
70 Clouds 7 1001 93 7000 4.1 190 18:37 27.01.2020
71 Clouds 7 1001 93 7000 4.1 190 18:37 27.01.2020
72 Rain 7 1000 100 4000 2.1 200 18:19 27.01.2020
73 Rain 7 1000 100 4000 2.1 190 17:39 27.01.2020
74 Clouds 7 1001 93 0 4.6 230 17:19 27.01.2020
75 Clouds 8 1001 93 0 4.6 230 16:58 27.01.2020
76 Rain 8 1001 87 10000 2.6 200 16:40 27.01.2020
77 Rain 8 1001 93 10000 2.6 200 16:22 27.01.2020
78 -273 0 0 0 0 0 16:22 27.01.2020
79 Clouds 8 1002 87 0 5.1 220 15:55 27.01.2020
80 Rain 8 1002 87 6000 4.6 200 15:36 27.01.2020
81 Rain 8 1002 93 7000 2.6 190 15:18 27.01.2020
82 Clouds 8 1002 87 0 4.6 210 14:41 27.01.2020
83 Clouds 8 1002 87 10000 3.6 210 14:22 27.01.2020
84 Clouds 8 1003 87 0 5.1 230 13:57 27.01.2020
85 Clouds 8 1003 87 8000 4.6 210 13:37 27.01.2020
86 Clouds 7 1003 93 8000 3.6 210 13:18 27.01.2020
87 Clouds 7 1003 93 0 6.7 240 12:44 27.01.2020
88 Drizzle 7 1003 93 5000 4.1 210 12:23 27.01.2020
89 Clouds 7 1003 93 0 7.2 240 11:58 27.01.2020
90 Clouds 7 1003 93 0 7.2 240 11:40 27.01.2020
91 Drizzle 7 1004 93 4000 4.6 210 11:20 27.01.2020
92 Rain 6 1003 93 0 5.7 220 10:43 27.01.2020
93 Drizzle 6 1003 93 3000 4.6 200 10:24 27.01.2020
94 Rain 6 1003 93 0 7.2 210 09:56 27.01.2020
95 Drizzle 6 1004 93 3500 6.2 200 09:38 27.01.2020
96 Drizzle 6 1004 93 3500 4.6 190 09:18 27.01.2020
97 Rain 5 1004 100 0 7.2 200 08:42 27.01.2020
98 Rain 5 1004 93 4000 4.1 180 08:20 27.01.2020
99 Rain 5 1004 93 0 6.7 190 07:53 27.01.2020
100 Rain 5 1004 93 0 6.7 190 07:53 27.01.2020
101 Rain 5 1005 93 4000 6.2 180 07:33 27.01.2020
102 Rain 5 1005 93 0 8.2 190 06:52 27.01.2020
103 Rain 5 1004 93 4000 6.2 180 06:24 27.01.2020
104 Rain 4 1006 93 0 5.1 170 05:23 27.01.2020
105 Clouds 4 1007 93 0 7.2 190 03:47 27.01.2020
106 Clouds 4 1009 86 8000 4.6 170 02:36 27.01.2020
107 Clouds 4 1009 93 0 3.1 150 01:29 27.01.2020
108 Clouds 4 1009 93 0 6.7 190 00:57 27.01.2020
109 Clouds 3 1010 93 6000 4.6 160 00:36 27.01.2020
110 Clouds 3 1010 93 0 3.1 140 00:18 27.01.2020
111 Clouds 3 1010 93 0 3.1 140 00:18 27.01.2020
112 Clouds 3 1010 93 0 6.2 190 23:41 26.01.2020
113 Clouds 3 1011 93 0 3.1 170 23:19 26.01.2020
114 Clouds 3 1010 93 0 4.6 200 22:55 26.01.2020
115 Clouds 3 1011 93 7000 4.1 180 22:36 26.01.2020
116 Clouds 3 1011 93 0 2.1 180 22:18 26.01.2020
117 Clouds 3 1011 93 0 2.1 180 22:18 26.01.2020
118 Clouds 3 1011 93 0 4.1 220 21:55 26.01.2020
119 Clouds 3 1012 93 6000 3.1 190 21:37 26.01.2020
120 Clouds 3 1012 86 0 2.6 220 21:19 26.01.2020
121 Clouds 3 1011 93 0 4.6 220 20:55 26.01.2020
122 Clouds 3 1012 93 7000 3.6 200 20:36 26.01.2020
123 Mist 3 1011 93 2500 4.1 200 20:18 26.01.2020
124 Clouds 3 1011 93 0 3.6 210 19:56 26.01.2020
125 Clouds 3 1012 86 7000 4.6 180 19:37 26.01.2020
126 Clouds 3 1012 86 7000 4.6 180 19:37 26.01.2020
127 Clouds 3 1011 93 5000 4.1 180 19:18 26.01.2020
128 Clouds 3 1012 93 0 4.6 200 18:41 26.01.2020
129 Clouds 3 1012 93 6000 3.1 180 18:22 26.01.2020
130 Clouds 3 1012 86 0 3.1 200 17:58 26.01.2020
131 Clouds 3 1013 86 7000 5.1 170 17:39 26.01.2020
132 Mist 3 1013 93 4500 3.6 180 17:20 26.01.2020
133 Clouds 3 1012 86 0 3.1 190 16:58 26.01.2020
134 Clouds 3 1013 93 9000 4.6 170 16:40 26.01.2020
135 Clouds 3 1012 93 7000 4.1 200 16:21 26.01.2020
136 Clouds 4 1013 86 8000 3.1 170 15:58 26.01.2020
137 Clouds 4 1013 86 8000 3.1 170 15:39 26.01.2020
138 Clouds 3 1014 86 8000 4.6 160 15:19 26.01.2020
139 Clouds 3 1014 86 8000 4.6 160 14:41 26.01.2020
140 Mist 4 1014 86 5000 3.6 180 14:22 26.01.2020
141 Mist 4 1014 86 5000 3.6 180 13:57 26.01.2020
142 Clouds 4 1014 86 8000 4.6 180 13:37 26.01.2020
143 Clouds 4 1015 86 8000 4.6 170 13:18 26.01.2020
144 Clouds 3 1016 93 7000 4.6 190 12:42 26.01.2020
145 Clouds 3 1016 93 7000 4.6 190 12:24 26.01.2020
146 Clouds 3 1016 93 7000 4.6 190 11:58 26.01.2020
147 Clouds 3 1016 93 7000 4.6 190 11:40 26.01.2020
148 Clouds 3 1016 93 6000 4.1 170 11:19 26.01.2020
149 Clouds 3 1016 93 6000 4.1 170 10:59 26.01.2020
150 Clouds 2 1016 93 0 4.6 200 10:39 26.01.2020
151 Clouds 2 1016 93 0 4.6 200 10:21 26.01.2020
152 Clouds 2 1016 86 0 4.1 190 09:58 26.01.2020
153 Clouds 2 1016 86 0 4.1 190 09:40 26.01.2020
154 Mist 2 1016 93 0 5.1 210 09:21 26.01.2020
155 Clouds 2 1016 93 0 4.1 210 08:45 26.01.2020
156 Mist 2 1015 93 0 4.6 210 08:23 26.01.2020
157 Clouds 2 1015 93 0 4.6 220 07:59 26.01.2020
158 Clouds 2 1015 93 0 4.6 220 07:41 26.01.2020
159 Mist 2 1015 93 0 5.1 210 07:22 26.01.2020
160 Rain 3 1016 93 0 4.1 200 06:32 26.01.2020
161 Clouds 3 1016 93 3300 3.6 200 05:37 26.01.2020
162 Clouds 3 1016 93 0 4.6 210 04:58 26.01.2020
163 Clouds 3 1016 100 0 4.6 220 02:59 26.01.2020
164 Clouds 3 1016 100 0 4.6 220 02:59 26.01.2020
165 Clouds 3 1017 93 0 5.7 230 01:59 26.01.2020
166 Mist 3 1016 93 0 4.1 220 01:39 26.01.2020
167 Mist 3 1017 93 0 4.1 210 01:19 26.01.2020
168 Mist 3 1017 93 0 3.6 210 00:39 26.01.2020
169 Mist 3 1017 100 0 4.6 210 00:20 26.01.2020
170 Clouds 3 1018 93 2700 6.2 220 23:38 25.01.2020
171 Clouds 3 1018 93 2700 6.2 220 23:20 25.01.2020
172 Clouds 3 1018 93 2700 6.2 220 22:43 25.01.2020
173 Clouds 4 1017 94 0 2.68 219 22:20 25.01.2020
174 Clouds 4 1017 94 0 2.24 210 21:59 25.01.2020
175 Clouds 4 1018 100 2500 4.6 230 21:41 25.01.2020
176 Clouds 5 1017 91 0 5.23 230 21:22 25.01.2020
177 Clouds 5 1017 91 0 5.23 230 20:54 25.01.2020
178 Clouds 4 1018 93 3300 4.6 230 20:36 25.01.2020
179 Clouds 4 1018 93 3300 4.6 230 20:18 25.01.2020
180 Clouds 4 1016 93 0 4.02 225 19:41 25.01.2020
181 Clouds 4 1016 93 0 3.13 232 19:19 25.01.2020
182 Clouds 4 1016 93 0 3.13 228 18:56 25.01.2020
183 Clouds 4 1018 93 3500 5.1 220 18:38 25.01.2020
184 Clouds 4 1018 93 3500 5.1 220 18:20 25.01.2020
185 Clouds 4 1018 93 3500 5.1 220 17:40 25.01.2020
186 Clouds 4 1018 93 3600 5.1 230 17:19 25.01.2020
187 Clouds 4 1018 93 3600 5.1 230 16:57 25.01.2020
188 Clouds 4 1018 93 3600 5.1 230 16:38 25.01.2020
189 Clouds 4 1018 93 3600 5.1 230 16:19 25.01.2020
190 Clouds 5 1019 100 3400 6.7 240 15:47 25.01.2020
191 Clouds 5 1019 100 3400 6.7 240 15:25 25.01.2020
192 Clouds 5 1019 100 3400 6.7 240 14:59 25.01.2020
193 Clouds 5 1019 100 3400 6.7 240 14:40 25.01.2020
194 Clouds 5 1019 93 3600 5.7 230 14:18 25.01.2020
195 Mist 5 1019 93 3300 3.6 230 13:42 25.01.2020
196 Mist 5 1019 93 3300 3.6 230 13:42 25.01.2020
197 Mist 5 1019 100 3500 3.6 230 13:23 25.01.2020
198 Clouds 5 1018 93 0 6.2 260 12:46 25.01.2020
199 Clouds 5 1018 93 0 6.2 260 12:26 25.01.2020
200 Clouds 5 1018 93 0 6.2 260 11:46 25.01.2020
201 Clouds 5 1018 93 10000 2.6 240 11:22 25.01.2020
202 Clouds 5 1018 93 0 4.6 250 11:00 25.01.2020
203 Clouds 5 1018 93 0 4.6 250 10:40 25.01.2020
204 Clouds 5 1018 93 0 4.6 250 10:40 25.01.2020
205 Drizzle 5 1018 100 4000 2.6 230 10:21 25.01.2020
206 Clouds 5 1018 100 0 6.2 260 09:57 25.01.2020
207 Clouds 5 1018 93 2600 5.7 240 09:37 25.01.2020
208 Drizzle 5 1017 100 4000 2.6 240 09:18 25.01.2020
209 Clouds 5 1017 93 0 6.7 260 08:42 25.01.2020
210 Clouds 5 1017 93 0 6.7 260 08:42 25.01.2020
211 Clouds 5 1017 93 0 6.7 260 07:53 25.01.2020
212 Clouds 5 1017 93 10000 3.6 250 07:21 25.01.2020
213 Clouds 5 1016 100 8000 5.1 250 06:31 25.01.2020
214 Clouds 5 1017 100 0 7.2 270 05:51 25.01.2020
215 Rain 5 1016 93 0 4.1 260 05:32 25.01.2020
216 Rain 5 1017 100 0 7.2 270 03:56 25.01.2020
217 Rain 5 1018 100 1600 6.7 250 03:37 25.01.2020
218 Rain 5 1018 93 1600 7.2 250 02:36 25.01.2020
219 Rain 5 1017 100 0 7.2 260 01:56 25.01.2020
220 Rain 5 1017 100 0 3.1 250 01:21 25.01.2020
221 Rain 5 1018 93 1200 7.7 240 00:37 25.01.2020
222 Drizzle 5 1018 100 2200 5.1 230 00:18 25.01.2020
223 Rain 5 1017 100 0 7.2 260 23:42 24.01.2020
224 Mist 5 1017 100 0 4.1 250 23:23 24.01.2020
225 Rain 5 1017 100 0 7.7 260 22:46 24.01.2020
226 Rain 5 1017 100 0 7.7 260 22:46 24.01.2020
227 Clouds 5 1017 100 10000 3.6 250 22:28 24.01.2020
228 Rain 5 1018 100 0 6.7 260 21:59 24.01.2020
229 Rain 5 1018 100 0 6.7 260 21:40 24.01.2020
230 Mist 5 1017 93 2000 4.6 250 21:19 24.01.2020
231 Rain 5 1018 100 0 6.7 260 20:44 24.01.2020
232 Drizzle 5 1017 93 2000 5.1 250 20:22 24.01.2020
233 Rain 5 1018 100 0 7.2 260 19:59 24.01.2020
234 Rain 5 1018 100 0 7.2 260 19:40 24.01.2020
235 Drizzle 5 1017 93 7000 3.6 240 19:22 24.01.2020
236 Rain 5 1018 100 0 7.7 270 18:57 24.01.2020
237 Drizzle 5 1017 93 4500 3.6 250 18:39 24.01.2020
238 Clouds 5 1017 100 6000 5.1 250 18:21 24.01.2020
239 Rain 5 1017 100 0 8.7 260 17:44 24.01.2020
240 Drizzle 5 1017 93 2500 3.1 250 17:22 24.01.2020
241 Clouds 6 1017 93 0 6.7 260 16:57 24.01.2020
242 Clouds 5 1018 93 2200 6.7 250 16:38 24.01.2020
243 Drizzle 6 1017 93 5000 3.6 250 16:19 24.01.2020
244 Clouds 6 1017 93 0 8.2 270 15:41 24.01.2020
245 Clouds 6 1017 93 10000 4.6 260 15:21 24.01.2020
246 Clouds 6 1018 93 0 8.2 280 14:55 24.01.2020
247 Clouds 6 1018 93 1800 7.7 250 14:36 24.01.2020
248 Clouds 6 1017 93 10000 4.1 260 14:18 24.01.2020
249 Clouds 6 1018 93 0 7.7 280 13:41 24.01.2020
250 Clouds 5 1017 93 9000 4.1 260 13:21 24.01.2020
251 Clouds 5 1018 100 0 7.2 280 12:43 24.01.2020
252 Clouds 5 1018 93 7000 3.1 250 12:21 24.01.2020
253 Clouds 5 1019 100 0 7.7 270 11:45 24.01.2020
254 Mist 5 1020 93 3000 6.7 240 11:19 24.01.2020
255 Mist 5 1020 93 3000 6.7 240 11:19 24.01.2020
256 Mist 5 1020 93 3000 6.7 240 11:19 24.01.2020
257 Clouds 5 1019 100 0 7.7 270 10:58 24.01.2020
258 Clouds 5 1019 100 6000 3.6 250 10:40 24.01.2020
259 Drizzle 5 1019 100 6000 3.1 240 10:19 24.01.2020
260 Clouds 5 1019 93 0 7.7 260 09:41 24.01.2020
261 Drizzle 4 1019 93 4000 3.1 240 09:23 24.01.2020
262 Clouds 4 1019 100 0 6.2 250 08:41 24.01.2020
263 Drizzle 4 1019 93 3000 3.1 230 08:21 24.01.2020
264 Clouds 4 1020 100 0 6.7 250 08:00 24.01.2020
265 Clouds 4 1020 100 0 6.7 250 07:41 24.01.2020
266 Drizzle 4 1019 93 3500 3.6 250 07:18 24.01.2020
267 Clouds 4 1019 100 0 7.2 250 06:42 24.01.2020
268 Drizzle 4 1020 100 800 6.2 220 06:18 24.01.2020
269 Drizzle 5 1020 93 0 3.1 230 05:20 24.01.2020
270 Rain 5 1021 93 0 3.6 240 03:29 24.01.2020
271 Rain 5 1022 93 0 3.6 230 02:39 24.01.2020
272 Clouds 5 1022 93 0 3.1 230 02:19 24.01.2020
273 Fog 5 1023 93 800 3.1 230 01:38 24.01.2020
274 Clouds 5 1023 93 0 3.6 240 00:40 24.01.2020
275 Mist 5 1023 93 0 3.6 240 00:19 24.01.2020
276 Clouds 5 1024 93 0 6.7 240 23:41 23.01.2020
277 Drizzle 5 1023 100 2000 6.7 240 23:21 23.01.2020
278 Clouds 5 1024 100 0 5.1 250 22:58 23.01.2020
279 Clouds 5 1025 93 900 5.1 230 22:37 23.01.2020
280 Clouds 5 1025 93 900 5.1 230 22:37 23.01.2020
281 Clouds 5 1024 93 8000 5.1 220 22:18 23.01.2020
282 Clouds 5 1025 100 0 6.2 240 21:55 23.01.2020
283 Clouds 5 1026 93 1400 6.2 230 21:37 23.01.2020
284 Mist 5 1024 93 4000 5.1 220 21:19 23.01.2020
285 Clouds 5 1025 100 0 6.2 250 20:55 23.01.2020
286 Mist 4 1026 100 3000 3.1 230 20:37 23.01.2020
287 Drizzle 5 1025 93 5000 4.6 230 20:18 23.01.2020
288 Clouds 5 1026 100 0 4.6 250 19:42 23.01.2020
289 Mist 5 1026 93 3000 4.6 230 19:23 23.01.2020
290 Clouds 5 1026 100 0 5.7 240 18:58 23.01.2020
291 Clouds 5 1027 100 1800 5.1 230 18:38 23.01.2020
292 Drizzle 5 1025 93 1400 5.1 230 18:20 23.01.2020
293 Clouds 5 1027 100 0 5.7 260 17:56 23.01.2020
294 Drizzle 5 1027 93 1800 3.1 230 17:37 23.01.2020
295 Mist 5 1026 93 1700 5.1 240 17:18 23.01.2020
296 Drizzle 5 1028 93 2800 5.1 240 16:39 23.01.2020
297 Drizzle 5 1027 93 8000 3.1 250 16:20 23.01.2020
298 Clouds 5 1027 93 0 8.2 260 15:58 23.01.2020
299 Clouds 5 1028 93 9000 5.1 250 15:40 23.01.2020
300 Clouds 6 1027 93 10000 5.1 240 15:19 23.01.2020
301 Clouds 6 1028 93 0 5.7 260 14:59 23.01.2020
302 Clouds 6 1029 93 10000 5.7 250 14:41 23.01.2020
303 Clouds 6 1028 93 10000 5.1 250 14:23 23.01.2020
304 Clouds 6 1029 93 0 7.7 260 13:59 23.01.2020
305 Clouds 6 1029 87 10000 5.7 250 13:38 23.01.2020
306 Clouds 6 1029 93 10000 5.1 250 13:19 23.01.2020
307 Clouds 6 1030 93 0 8.7 260 12:46 23.01.2020
308 Drizzle 6 1029 100 1800 5.1 240 12:25 23.01.2020
309 Clouds 6 1031 93 0 6.7 270 11:58 23.01.2020
310 Clouds 5 1031 87 10000 3.6 240 11:38 23.01.2020
311 Clouds 5 1031 93 10000 5.1 260 11:19 23.01.2020
312 Clouds 5 1031 93 0 7.7 260 10:44 23.01.2020
313 Clouds 5 1032 86 10000 3.6 230 10:22 23.01.2020
314 Clouds 5 1031 93 0 6.2 270 09:59 23.01.2020
315 Clouds 5 1032 93 10000 3.6 240 09:37 23.01.2020
316 Mist 5 1031 100 2500 4.6 250 09:19 23.01.2020
317 Clouds 4 1031 87 0 6.2 270 08:41 23.01.2020
318 Clouds 4 1032 93 10000 3.6 270 08:22 23.01.2020
319 Clouds 4 1031 93 0 5.1 260 07:45 23.01.2020
320 Clouds 4 1031 93 10000 2.6 240 07:26 23.01.2020
321 Clouds 4 1032 93 0 6.2 260 06:54 23.01.2020
322 Clouds 3 1032 100 0 3.1 250 06:23 23.01.2020
323 Clouds 3 1032 100 0 5.1 270 05:58 23.01.2020
324 Clouds 3 1032 100 0 5.1 270 05:58 23.01.2020
325 Fog 3 1033 100 0 3.1 260 04:24 23.01.2020
326 Clouds 3 1034 93 800 2.6 230 02:35 23.01.2020
327 Mist 2 1033 93 0 3.1 250 01:41 23.01.2020
328 Clouds 3 1033 93 0 3.1 270 00:28 23.01.2020
329 Clouds 3 1034 100 0 4.6 320 23:54 22.01.2020
330 Clouds 3 1034 93 200 3.1 270 23:36 22.01.2020
331 Clouds 3 1033 93 10000 3.1 270 23:18 22.01.2020
332 Clouds 3 1033 100 0 6.2 310 22:41 22.01.2020
333 Clouds 3 1033 93 10000 3.1 260 22:23 22.01.2020
334 Clouds 3 1033 100 0 5.7 310 21:56 22.01.2020
335 Clouds 3 1034 100 300 3.1 270 21:36 22.01.2020
336 Clouds 3 1033 93 6000 3.6 280 21:18 22.01.2020
337 Clouds 3 1033 100 0 6.2 310 20:41 22.01.2020
338 Clouds 4 1033 86 10000 2.6 270 20:23 22.01.2020
339 Clouds 4 1033 100 0 5.1 310 19:58 22.01.2020
340 Clouds 4 1033 100 0 5.1 310 19:58 22.01.2020
341 Clouds 4 1033 100 0 5.1 310 19:40 22.01.2020
342 Clouds 4 1032 86 10000 3.1 260 19:20 22.01.2020
343 Clouds 4 1033 93 0 4.6 300 18:58 22.01.2020
344 Clouds 5 1033 93 10000 2.6 280 18:39 22.01.2020
345 Clouds 5 1032 87 10000 2.6 270 18:20 22.01.2020
346 Clouds 5 1032 93 0 5.7 310 17:56 22.01.2020
347 Clouds 6 1032 87 10000 3.1 290 17:38 22.01.2020
348 Clouds 6 1032 93 10000 3.1 300 17:19 22.01.2020
349 Clouds 6 1031 93 0 5.1 300 16:44 22.01.2020
350 Clouds 7 1032 81 10000 3.1 290 16:24 22.01.2020
351 Clouds 7 1031 87 0 5.7 320 15:59 22.01.2020
352 Clouds 7 1031 87 0 5.7 320 15:41 22.01.2020
353 Clouds 7 1031 81 10000 4.1 300 15:23 22.01.2020
354 Clouds 7 1031 81 0 6.7 320 14:58 22.01.2020
355 Clouds 7 1032 81 10000 4.6 290 14:37 22.01.2020
356 Clouds 7 1031 81 10000 4.6 300 14:19 22.01.2020
357 Clouds 7 1031 81 0 7.7 320 13:55 22.01.2020
358 Clouds 7 1032 81 10000 5.1 300 13:37 22.01.2020
359 Clouds 7 1031 81 10000 5.7 300 13:19 22.01.2020
360 Clouds 7 1031 87 0 8.2 320 12:56 22.01.2020
361 Clouds 7 1032 81 10000 4.6 300 12:37 22.01.2020
362 Clouds 7 1031 81 10000 6.2 300 12:18 22.01.2020
363 Clouds 7 1031 93 0 7.2 310 11:56 22.01.2020
364 Clouds 7 1032 81 10000 5.1 310 11:38 22.01.2020
365 Clouds 6 1030 81 10000 5.7 300 11:19 22.01.2020
366 Clouds 6 1031 87 0 6.7 300 10:44 22.01.2020
367 Clouds 5 1030 87 10000 5.7 290 10:21 22.01.2020
368 Clouds 5 1031 93 0 6.7 310 09:57 22.01.2020
369 Clouds 5 1031 93 10000 4.1 280 09:39 22.01.2020
370 Clouds 5 1030 87 10000 6.2 290 09:20 22.01.2020
371 Clouds 5 1030 87 0 8.7 290 08:54 22.01.2020
372 Clouds 5 1031 93 10000 4.6 280 08:36 22.01.2020
373 Clouds 5 1029 87 10000 4.6 280 08:18 22.01.2020
374 Clouds 6 1030 93 0 8.2 300 07:42 22.01.2020
375 Clouds 6 1029 87 10000 5.7 290 07:23 22.01.2020
376 Drizzle 6 1030 100 4500 5.7 290 06:34 22.01.2020
377 Clouds 6 1030 93 0 7.7 310 05:54 22.01.2020
378 Clouds 6 1030 93 0 7.7 300 04:25 22.01.2020
379 Rain 7 1030 93 0 5.1 280 03:26 22.01.2020
380 Clouds 6 1031 100 0 10.3 300 02:42 22.01.2020
381 Clouds 6 1031 93 0 9.3 280 00:47 22.01.2020
382 Clouds 6 1031 100 0 4.6 270 00:27 22.01.2020
383 Clouds 6 1032 93 0 9.3 280 23:57 21.01.2020
384 Clouds 6 1033 93 1400 6.7 270 23:37 21.01.2020
385 Rain 6 1031 100 0 4.6 260 23:19 21.01.2020
386 Clouds 6 1032 93 0 8.2 280 22:41 21.01.2020
387 Drizzle 6 1032 93 2000 4.6 260 22:23 21.01.2020
388 Clouds 6 1033 93 0 8.2 280 21:58 21.01.2020
389 Drizzle 6 1032 93 2000 4.1 260 21:39 21.01.2020
390 Drizzle 6 1033 93 1800 3.6 280 21:20 21.01.2020
391 Clouds 6 1033 93 0 10.3 280 20:57 21.01.2020
392 Clouds 6 1034 93 5000 5.7 260 20:39 21.01.2020
393 Mist 6 1033 93 3000 5.1 270 20:20 21.01.2020
394 Clouds 6 1033 93 0 10.8 280 19:58 21.01.2020
395 Clouds 6 1033 93 0 10.8 280 19:58 21.01.2020
396 Clouds 6 1034 93 3100 6.2 250 19:39 21.01.2020
397 Clouds 6 1033 93 10000 6.2 260 19:21 21.01.2020
398 Clouds 6 1034 93 0 10.3 280 18:57 21.01.2020
399 Clouds 6 1035 93 3400 6.2 260 18:38 21.01.2020
400 Mist 6 1033 100 3000 8.7 260 18:20 21.01.2020
401 Clouds 6 1034 100 0 10.3 280 17:56 21.01.2020
402 Clouds 6 1035 87 6000 7.7 270 17:37 21.01.2020
403 Clouds 6 1034 87 7000 8.2 260 17:18 21.01.2020
404 Clouds 6 1035 87 10000 7.7 260 16:37 21.01.2020
405 Drizzle 6 1034 93 4500 7.2 260 16:19 21.01.2020
406 Clouds 6 1034 87 0 10.3 270 15:58 21.01.2020
407 Clouds 6 1035 81 10000 8.2 260 15:38 21.01.2020
408 Clouds 6 1036 87 8000 5.7 250 15:19 21.01.2020
409 Drizzle 6 1035 100 3000 6.7 260 14:39 21.01.2020
410 Drizzle 6 1035 100 3000 6.7 260 14:39 21.01.2020
411 Drizzle 6 1035 100 3500 6.7 250 14:21 21.01.2020
412 Clouds 7 1036 87 0 10.3 280 13:43 21.01.2020
413 Clouds 7 1035 87 10000 5.1 260 13:20 21.01.2020
414 Clouds 6 1036 87 0 9.3 260 12:59 21.01.2020
415 Clouds 6 1036 87 0 9.3 260 12:41 21.01.2020
416 Clouds 6 1036 87 10000 6.2 250 12:23 21.01.2020
417 Clouds 6 1036 93 0 8.2 270 11:56 21.01.2020
418 Clouds 6 1038 87 10000 8.7 270 11:37 21.01.2020
419 Clouds 6 1036 87 10000 4.6 270 11:18 21.01.2020
420 Clouds 6 1037 81 10000 8.7 270 10:42 21.01.2020
421 Clouds 6 1036 93 10000 7.7 270 10:22 21.01.2020
422 Clouds 6 1036 93 10000 7.7 270 10:22 21.01.2020
423 Clouds 6 1036 93 10000 7.7 270 10:22 21.01.2020
424 Clouds 6 1036 87 0 10.8 270 09:56 21.01.2020
425 Clouds 6 1037 81 10000 7.7 270 09:38 21.01.2020
426 Clouds 6 1035 87 10000 6.7 260 09:19 21.01.2020
427 Clouds 6 1037 81 10000 10.8 270 08:41 21.01.2020
428 Clouds 6 1036 87 10000 6.2 260 08:22 21.01.2020
429 Clouds 6 1036 87 0 10.3 270 07:43 21.01.2020
430 Clouds 6 1036 87 10000 6.2 260 07:24 21.01.2020
431 Clouds 6 1036 87 0 11.8 270 06:57 21.01.2020
432 Clouds 6 1037 81 10000 9.3 270 06:38 21.01.2020
433 Clouds 6 1037 81 0 13.9 280 05:55 21.01.2020
434 Clouds 6 1038 93 9000 4.6 250 05:32 21.01.2020
435 Clouds 6 1038 81 10000 7.7 260 04:38 21.01.2020
436 Clouds 6 1038 87 0 6.2 250 02:27 21.01.2020
437 Clouds 5 1040 93 10000 7.7 250 01:36 21.01.2020
438 Clouds 5 1039 87 0 11.8 270 00:45 21.01.2020
439 Clouds 6 1039 87 10000 7.2 250 00:25 21.01.2020
440 Clouds 6 1039 87 0 10.3 260 23:56 20.01.2020
441 Clouds 6 1040 93 10000 6.7 250 23:36 20.01.2020
442 Clouds 6 1039 87 10000 6.2 250 23:18 20.01.2020
443 Clear 6 1041 87 10000 7.2 250 22:40 20.01.2020
444 Clouds 6 1040 87 10000 4.1 250 22:21 20.01.2020
445 Clear 6 1040 87 0 10.3 260 21:58 20.01.2020
446 Clear 6 1041 87 10000 7.2 250 21:38 20.01.2020
447 Clouds 6 1040 87 10000 6.2 250 21:20 20.01.2020
448 Clear 6 1041 93 0 9.3 270 20:59 20.01.2020
449 Clear 6 1041 93 0 9.3 270 20:41 20.01.2020
450 Clouds 6 1040 93 10000 5.1 250 20:20 20.01.2020
451 Clouds 6 1041 93 0 9.8 260 19:58 20.01.2020
452 Clouds 6 1041 93 0 9.8 260 19:40 20.01.2020
453 Clouds 6 1041 87 10000 4.6 240 19:19 20.01.2020
454 Clouds 6 1041 93 0 9.3 260 18:56 20.01.2020
455 Clouds 6 1042 87 7000 7.2 250 18:38 20.01.2020
456 Clouds 6 1041 87 10000 3.6 240 18:19 20.01.2020
457 Clouds 6 1042 87 10000 6.7 250 17:38 20.01.2020
458 Clouds 6 1041 81 10000 3.6 240 17:19 20.01.2020
459 Clouds 6 1041 81 0 7.2 260 16:47 20.01.2020
460 Clouds 6 1041 81 0 7.2 260 16:47 20.01.2020
461 Clouds 6 1040 81 10000 4.6 250 16:26 20.01.2020
462 Clouds 6 1041 87 0 10.3 260 15:59 20.01.2020
463 Clouds 7 1041 87 0 10.3 260 15:59 20.01.2020
464 Clouds 7 1041 87 0 10.3 260 15:40 20.01.2020
465 Clouds 7 1041 87 10000 6.2 250 15:22 20.01.2020
466 Clouds 7 1042 87 0 9.3 270 14:59 20.01.2020
467 Clouds 7 1043 87 10000 7.2 250 14:40 20.01.2020
468 Clouds 7 1043 87 10000 7.2 250 14:21 20.01.2020
469 Clouds 7 1042 87 0 7.7 260 13:57 20.01.2020
470 Clouds 7 1043 87 10000 7.2 250 13:38 20.01.2020
471 Clouds 7 1042 93 10000 3.6 240 13:20 20.01.2020
472 Clouds 7 1042 87 0 9.3 260 12:42 20.01.2020
473 Clouds 7 1042 87 10000 3.6 240 12:23 20.01.2020
474 Clouds 7 1043 87 0 8.2 260 11:56 20.01.2020
475 Clouds 6 1044 93 8000 5.7 240 11:37 20.01.2020
476 Clouds 6 1043 87 10000 4.6 250 11:18 20.01.2020
477 Clouds 6 1043 93 0 7.2 260 10:46 20.01.2020
478 Clouds 6 1042 93 10000 3.6 250 10:21 20.01.2020
479 Clouds 6 1043 93 0 7.2 260 09:42 20.01.2020
480 Clouds 5 1042 93 10000 3.6 240 09:24 20.01.2020
481 Clouds 5 1043 87 0 5.1 260 08:56 20.01.2020
482 Clouds 5 1044 93 10000 3.6 230 08:35 20.01.2020
483 Clouds 5 1042 87 0 7.2 270 07:59 20.01.2020
484 Clouds 5 1042 87 0 7.2 270 07:41 20.01.2020
485 Clouds 5 1042 93 10000 2.1 230 07:21 20.01.2020
486 Clouds 4 1042 93 0 6.2 270 06:44 20.01.2020
487 Clouds 4 1042 93 0 3.1 250 06:24 20.01.2020
488 Clouds 4 1042 93 0 5.1 270 05:41 20.01.2020
489 Clouds 4 1042 100 0 3.1 260 05:20 20.01.2020
490 Mist 4 1042 93 0 3.1 250 04:24 20.01.2020
491 Clouds 4 1043 93 8000 2.1 230 02:33 20.01.2020
492 Clouds 4 1042 93 0 6.7 310 01:42 20.01.2020
493 Clouds 4 1042 100 0 3.1 280 01:23 20.01.2020
494 Clouds 4 1042 100 0 5.7 300 00:43 20.01.2020
495 Fog 3 1042 100 900 3.1 290 00:22 20.01.2020
496 Clouds 3 1042 93 9000 2.1 250 23:39 19.01.2020
497 Clear 3 1041 93 0 2.6 240 23:19 19.01.2020
498 Clear 3 1041 100 0 4.1 290 22:56 19.01.2020
499 Clear 3 1041 93 10000 2.6 300 22:37 19.01.2020
500 Clouds 3 1041 93 10000 2.6 270 22:19 19.01.2020
501 Clear 3 1040 93 0 4.1 290 21:56 19.01.2020
502 Clear 3 1041 86 10000 1 280 21:38 19.01.2020
503 Clear 3 1040 86 0 2.6 260 21:19 19.01.2020
504 Clear 3 1040 93 0 4.1 310 20:57 19.01.2020
505 Clear 3 1040 94 10000 2.1 310 20:38 19.01.2020
506 Clouds 3 1039 80 10000 3.1 290 20:20 19.01.2020
507 Clear 3 1040 93 0 5.1 320 19:56 19.01.2020
508 Clear 3 1040 86 10000 3.1 280 19:38 19.01.2020
509 Clouds 4 1039 80 10000 2.1 280 19:19 19.01.2020
510 Clear 4 1038 86 0 5.1 320 18:56 19.01.2020
511 Clear 4 1038 80 10000 2.1 290 18:37 19.01.2020
512 Clear 4 1038 92 10000 2.6 280 18:19 19.01.2020
513 Clear 4 1038 86 0 4.6 320 17:58 19.01.2020
514 Clear 4 1037 92 10000 3.6 300 17:39 19.01.2020
515 Clear 4 1037 79 10000 3.6 310 17:20 19.01.2020
516 Clear 5 1037 75 0 4.1 340 16:58 19.01.2020
517 Clear 5 1037 79 10000 4.1 330 16:38 19.01.2020
518 Clear 6 1036 70 10000 4.1 310 16:20 19.01.2020
519 Clear 6 1036 79 0 6.2 350 15:58 19.01.2020
520 Clear 6 1036 79 10000 4.6 340 15:38 19.01.2020
521 Clear 6 1035 70 0 5.1 320 15:20 19.01.2020
522 Clear 7 1034 75 0 5.1 320 14:58 19.01.2020
523 Clear 7 1034 75 0 5.1 320 14:39 19.01.2020
524 Clear 7 1034 65 0 5.7 320 14:18 19.01.2020
525 Clear 7 1034 70 0 6.7 320 13:57 19.01.2020
526 Clear 7 1034 65 10000 5.1 340 13:38 19.01.2020
527 Clear 7 1033 70 0 6.7 320 13:19 19.01.2020
528 Clear 7 1034 65 0 6.2 330 12:55 19.01.2020
529 Clear 6 1034 70 10000 5.1 320 12:37 19.01.2020
530 Clear 6 1034 70 10000 5.1 320 12:37 19.01.2020
531 Clear 6 1033 70 0 7.2 310 12:19 19.01.2020
532 Clear 6 1033 70 0 6.2 330 11:42 19.01.2020
533 Clear 5 1032 70 0 6.7 300 11:21 19.01.2020
534 Clear 5 1032 75 0 6.7 320 10:57 19.01.2020
535 Clear 4 1033 86 10000 4.1 300 10:39 19.01.2020
536 Clear 4 1031 80 0 5.7 300 10:19 19.01.2020
537 Clear 3 1031 86 0 6.2 310 09:56 19.01.2020
538 Clear 3 1031 86 0 6.2 310 09:56 19.01.2020
539 Clear 3 1031 86 0 6.2 310 09:56 19.01.2020
540 Clear 3 1031 86 0 6.2 310 09:56 19.01.2020
541 Clear 3 1031 86 0 6.2 310 09:56 19.01.2020
542 Clear 3 1031 85 10000 3.6 290 09:37 19.01.2020
543 Clear 3 1030 80 0 4.1 300 09:19 19.01.2020
544 Clear 3 1029 93 0 8.2 310 08:52 19.01.2020
545 Clear 3 1028 80 0 4.6 280 08:30 19.01.2020
546 Clear 3 1028 93 0 7.7 310 07:46 19.01.2020
547 Clear 3 1027 80 0 5.1 280 07:26 19.01.2020
548 Clear 3 1027 93 0 7.7 310 06:54 19.01.2020
549 Clear 3 1027 86 0 3.6 270 06:21 19.01.2020
550 Clear 2 1025 93 0 6.7 290 03:51 19.01.2020
551 Clear 3 1023 86 0 3.6 260 02:28 19.01.2020
552 Clouds 2 1024 93 10000 3.6 250 01:38 19.01.2020
553 Clouds 3 1023 86 0 4.1 260 01:18 19.01.2020
554 Clouds 3 1023 86 0 4.1 260 01:18 19.01.2020
555 Clouds 3 1023 93 0 7.7 280 00:41 19.01.2020
556 Clouds 3 1023 93 0 7.7 280 00:41 19.01.2020
557 Clouds 3 1022 86 0 3.6 260 00:19 19.01.2020
558 Clouds 3 1022 86 0 3.6 260 23:42 18.01.2020
559 Clouds 3 1021 86 0 3.6 250 23:24 18.01.2020
560 Clouds 3 1021 86 0 6.7 280 22:58 18.01.2020
561 Clouds 3 1021 86 0 3.6 250 22:39 18.01.2020
562 Clouds 4 1021 80 0 3.6 260 22:21 18.01.2020
563 Clouds 4 1021 86 0 6.7 290 21:57 18.01.2020
564 Clouds 3 1022 93 10000 3.6 260 21:38 18.01.2020
565 Clouds 4 1020 86 0 4.1 250 21:20 18.01.2020
566 Clouds 4 1021 86 0 6.7 270 20:55 18.01.2020
567 Clouds 4 1021 86 10000 3.1 240 20:36 18.01.2020
568 Clouds 4 1020 93 0 3.6 240 20:18 18.01.2020
569 Clouds 4 1019 86 0 3.1 250 19:42 18.01.2020
570 Clouds 4 1019 93 10000 4.1 260 19:24 18.01.2020
571 Clouds 5 1019 86 0 7.7 270 18:43 18.01.2020
572 Rain 5 1020 86 10000 2.6 280 18:24 18.01.2020
573 Clouds 5 1018 86 0 8.7 270 17:58 18.01.2020
574 Rain 5 1018 81 0 4.1 240 17:40 18.01.2020
575 Rain 5 1018 93 7000 3.6 300 17:20 18.01.2020
576 Rain 5 1018 87 0 8.2 280 16:56 18.01.2020
577 Rain 5 1016 87 0 4.6 250 16:38 18.01.2020
578 Rain 5 1016 87 0 4.6 250 16:19 18.01.2020
579 Rain 5 1017 87 0 9.8 260 15:44 18.01.2020
580 Rain 5 1016 87 4500 6.7 250 15:25 18.01.2020
581 Rain 5 1016 87 0 9.3 270 14:59 18.01.2020
582 Rain 5 1016 87 0 5.1 250 14:40 18.01.2020
583 Rain 6 1016 87 10000 5.1 240 14:19 18.01.2020
584 Rain 6 1016 87 0 6.2 240 13:56 18.01.2020
585 Rain 6 1016 87 0 6.2 240 13:56 18.01.2020
586 Rain 5 1017 93 10000 8.7 230 13:36 18.01.2020
587 Clouds 6 1015 87 10000 5.7 250 13:18 18.01.2020
588 Clouds 6 1015 87 10000 5.7 250 13:18 18.01.2020
589 Rain 5 1016 81 0 12.3 270 12:41 18.01.2020
590 Rain 5 1014 86 10000 7.7 260 12:21 18.01.2020
591 Rain 5 1015 87 0 9.3 260 11:56 18.01.2020
592 Rain 5 1016 86 10000 10.8 230 11:38 18.01.2020
593 Clouds 6 1014 87 10000 5.1 230 11:19 18.01.2020
594 Rain 5 1014 87 0 10.3 250 10:42 18.01.2020
595 Clouds 5 1016 86 10000 6.7 230 10:21 18.01.2020
596 Rain 5 1014 87 0 9.8 250 09:55 18.01.2020
597 Rain 5 1015 86 10000 8.7 220 09:37 18.01.2020
598 Rain 5 1013 87 0 9.8 230 08:59 18.01.2020
599 Rain 5 1013 87 0 9.8 230 08:41 18.01.2020
600 Rain 5 1015 86 10000 9.8 230 08:41 18.01.2020
601 Rain 5 1013 87 10000 4.6 220 08:20 18.01.2020
602 Rain 5 1013 87 10000 4.6 220 08:20 18.01.2020
603 Rain 5 1013 81 0 7.7 230 07:56 18.01.2020
604 Rain 5 1015 86 10000 9.3 220 07:37 18.01.2020
605 Rain 5 1012 81 0 9.8 250 06:50 18.01.2020
606 Rain 5 1012 81 0 6.7 240 06:27 18.01.2020
607 Rain 5 1012 81 0 13.4 260 05:45 18.01.2020
608 Rain 6 1010 93 4000 9.3 230 04:24 18.01.2020
609 Rain 6 1012 87 10000 10.8 230 02:33 18.01.2020
610 Clouds 7 1012 81 10000 7.7 230 01:39 18.01.2020
611 Clouds 7 1011 93 10000 8.2 230 00:39 18.01.2020
612 Clouds 7 1011 93 10000 8.2 230 00:39 18.01.2020
613 Clouds 7 1010 87 0 5.1 240 00:19 18.01.2020
614 Clouds 7 1010 87 0 8.7 250 23:58 17.01.2020
615 Clouds 8 1011 93 10000 6.2 230 23:38 17.01.2020
616 Rain 8 1010 93 0 3.1 230 23:18 17.01.2020
617 Rain 8 1010 93 0 6.7 250 22:41 17.01.2020
618 Drizzle 8 1010 93 4000 3.6 210 22:20 17.01.2020
619 Rain 8 1010 93 0 4.6 210 21:56 17.01.2020
620 Rain 8 1010 93 3900 5.1 220 21:37 17.01.2020
621 Rain 8 1010 93 6000 3.1 210 21:19 17.01.2020
622 Rain 7 1011 100 4800 3.1 200 20:41 17.01.2020
623 Rain 8 1010 93 10000 2.6 190 20:21 17.01.2020
624 Rain 8 1010 93 0 4.6 210 19:58 17.01.2020
625 Rain 8 1011 93 7000 3.1 200 19:39 17.01.2020
626 Drizzle 8 1010 93 5000 5.7 210 19:20 17.01.2020
627 Rain 8 1010 87 0 5.1 210 18:58 17.01.2020
628 Rain 8 1010 93 6000 5.1 210 18:39 17.01.2020
629 Clouds 8 1010 87 10000 5.1 210 18:21 17.01.2020
630 Clouds 9 1010 76 10000 3.1 170 17:40 17.01.2020
631 Clouds 9 1011 76 10000 3.1 170 17:22 17.01.2020
632 Clouds 9 1010 76 0 5.1 210 16:57 17.01.2020
633 Clouds 9 1010 76 10000 2.6 170 16:39 17.01.2020
634 Clouds 9 1011 76 10000 2.1 170 16:19 17.01.2020
635 Clouds 9 1011 76 0 4.6 200 15:48 17.01.2020
636 Clouds 9 1011 76 10000 2.6 170 15:26 17.01.2020
637 Clouds 9 1011 71 0 4.6 200 14:54 17.01.2020
638 Clouds 9 1011 71 10000 4.1 190 14:36 17.01.2020
639 Clouds 9 1012 76 10000 2.6 150 14:18 17.01.2020
640 Clouds 9 1012 76 0 5.7 200 14:18 17.01.2020
641 Clouds 9 1012 71 10000 4.6 190 13:39 17.01.2020
642 Clouds 9 1012 76 10000 3.1 170 13:20 17.01.2020
643 Clouds 9 1012 70 0 6.7 190 12:45 17.01.2020
644 Clouds 8 1013 70 10000 4.1 180 12:22 17.01.2020
645 Clouds 8 1013 75 0 6.7 190 11:41 17.01.2020
646 Clouds 7 1013 81 10000 4.6 160 11:19 17.01.2020
647 Clouds 7 1013 81 0 8.7 170 10:54 17.01.2020
648 Clouds 6 1013 81 10000 6.2 150 10:36 17.01.2020
649 Clouds 6 1014 81 10000 4.6 160 10:18 17.01.2020
650 Clouds 6 1014 81 10000 4.6 160 09:41 17.01.2020
651 Clouds 6 1014 87 10000 3.1 160 09:20 17.01.2020
652 Clouds 6 1014 81 0 9.3 180 08:55 17.01.2020
653 Clouds 6 1015 81 10000 4.6 150 08:36 17.01.2020
654 Clouds 6 1015 81 10000 4.1 160 08:18 17.01.2020
655 Clouds 5 1015 87 10000 3.6 160 07:42 17.01.2020
656 Clouds 6 1015 87 10000 2.6 160 07:24 17.01.2020
657 Clouds 6 1015 87 0 8.2 180 06:43 17.01.2020
658 Clouds 6 1016 87 0 3.6 150 06:20 17.01.2020
659 Clouds 5 1018 86 10000 4.6 150 04:26 17.01.2020
660 Clouds 5 1018 87 10000 5.1 150 02:55 17.01.2020
661 Clouds 5 1019 93 10000 4.1 150 02:31 17.01.2020
662 Clouds 5 1019 93 10000 4.1 150 01:33 17.01.2020
663 Clouds 5 1020 87 10000 4.1 160 00:59 17.01.2020
664 Clouds 5 1020 87 10000 4.1 160 00:37 17.01.2020
665 Clouds 5 1020 86 10000 4.6 160 23:59 16.01.2020
666 Clouds 5 1020 87 0 4.1 160 23:41 16.01.2020
667 Clouds 5 1020 87 0 4.1 160 23:22 16.01.2020
668 Clouds 6 1020 81 0 7.7 180 22:41 16.01.2020
669 Clouds 5 1021 87 10000 5.1 160 22:21 16.01.2020
670 Clouds 5 1021 87 0 6.7 180 21:57 16.01.2020
671 Clouds 5 1022 86 10000 4.6 160 21:38 16.01.2020
672 Clouds 5 1022 87 10000 4.6 160 21:19 16.01.2020
673 Clouds 5 1022 93 0 6.2 170 20:57 16.01.2020
674 Clouds 5 1022 86 10000 4.6 160 20:38 16.01.2020
675 Clouds 5 1022 87 10000 3.6 160 20:19 16.01.2020
676 Clouds 5 1022 93 0 5.7 170 19:56 16.01.2020
677 Clouds 5 1023 86 10000 4.6 160 19:37 16.01.2020
678 Clouds 5 1023 93 8000 3.6 140 19:19 16.01.2020
679 Clouds 5 1023 93 0 5.1 160 18:55 16.01.2020
680 Clouds 5 1023 93 10000 4.1 160 18:37 16.01.2020
681 Clouds 5 1023 93 8000 3.1 140 18:18 16.01.2020
682 Clouds 6 1023 87 10000 3.6 160 17:42 16.01.2020
683 Clouds 6 1023 93 7000 2.6 150 17:23 16.01.2020
684 Clear 6 1023 87 0 4.6 190 16:57 16.01.2020
685 Clouds 6 1024 87 10000 3.1 180 16:39 16.01.2020
686 Clouds 7 1024 87 9000 2.6 200 16:20 16.01.2020
687 Clear 7 1024 87 0 3.1 220 15:44 16.01.2020
688 Clouds 7 1023 87 10000 3.1 210 15:24 16.01.2020
689 Clear 7 1023 87 0 3.6 240 14:59 16.01.2020
690 Clear 7 1023 87 0 3.6 240 14:41 16.01.2020
691 Clouds 7 1024 87 10000 3.6 230 14:22 16.01.2020
692 Clouds 7 1024 87 0 7.7 250 13:45 16.01.2020
693 Clouds 7 1023 87 10000 4.1 230 13:26 16.01.2020
694 Clouds 7 1024 87 0 6.7 240 12:57 16.01.2020
695 Clouds 7 1024 87 8000 5.1 220 12:38 16.01.2020
696 Clouds 7 1023 87 10000 4.1 220 12:20 16.01.2020
697 Clouds 7 1023 87 0 6.7 240 11:41 16.01.2020
698 Clouds 7 1023 87 10000 4.6 230 11:23 16.01.2020
699 Clear 6 1022 87 0 6.2 240 10:55 16.01.2020
700 Clear 6 1022 87 0 6.2 240 10:55 16.01.2020
701 Clouds 6 1024 87 8000 6.2 220 10:37 16.01.2020
702 Clouds 6 1022 87 10000 4.1 230 10:19 16.01.2020
703 Clear 6 1022 87 0 8.2 250 09:43 16.01.2020
704 Clouds 6 1021 93 10000 6.7 230 09:24 16.01.2020
705 Clear 6 1021 87 0 8.7 250 08:58 16.01.2020
706 Clouds 6 1021 87 10000 4.6 240 08:40 16.01.2020
707 Clouds 6 1020 93 10000 4.6 230 08:20 16.01.2020
708 Clear 6 1020 87 0 9.3 250 07:42 16.01.2020
709 Clouds 6 1019 93 10000 5.7 230 07:24 16.01.2020
710 Clear 6 1019 93 0 9.8 250 06:54 16.01.2020
711 Clouds 6 1021 87 10000 8.2 230 06:34 16.01.2020
712 Clear 6 1019 87 0 10.3 250 05:51 16.01.2020
713 Clear 7 1018 87 0 6.2 240 05:25 16.01.2020
714 Clear 6 1017 87 0 5.1 230 04:21 16.01.2020
715 Clear 6 1016 87 0 6.2 240 03:27 16.01.2020
716 Clear 6 1015 87 0 6.2 240 02:23 16.01.2020
717 Clouds 6 1014 87 0 9.8 250 00:44 16.01.2020
718 Clouds 6 1013 93 10000 6.7 230 00:23 16.01.2020
719 Clouds 6 1013 93 0 9.3 240 23:46 15.01.2020
720 Clouds 6 1013 93 0 9.3 240 23:46 15.01.2020
721 Clouds 6 1012 87 10000 7.2 230 23:22 15.01.2020
722 Clouds 6 1012 87 0 7.7 240 22:57 15.01.2020
723 Clouds 6 1014 87 10000 7.2 240 22:39 15.01.2020
724 Clouds 6 1011 87 10000 4.1 230 22:19 15.01.2020
725 Clouds 6 1011 87 0 7.2 250 21:57 15.01.2020
726 Clouds 6 1013 87 10000 6.7 240 21:37 15.01.2020
727 Clouds 6 1010 81 10000 4.6 240 21:19 15.01.2020
728 Clouds 6 1010 93 0 9.8 270 20:57 15.01.2020
729 Clouds 7 1010 87 10000 4.6 260 20:39 15.01.2020
730 Clouds 7 1010 87 10000 4.6 260 20:39 15.01.2020
731 Clouds 7 1009 87 10000 4.6 270 20:20 15.01.2020
732 Rain 7 1008 93 0 10.3 280 19:55 15.01.2020
733 Rain 7 1009 93 10000 7.2 280 19:37 15.01.2020
734 Rain 8 1007 87 10000 5.7 280 19:19 15.01.2020
735 Rain 8 1007 93 0 13.4 280 18:56 15.01.2020
736 Rain 9 1007 81 10000 13.4 240 18:38 15.01.2020
737 Rain 9 1007 81 10000 13.4 240 18:38 15.01.2020
738 Rain 9 1005 87 8000 6.7 230 18:19 15.01.2020
739 Rain 9 1005 93 0 12.3 240 17:57 15.01.2020
740 Rain 10 1006 81 8000 10.3 220 17:38 15.01.2020
741 Rain 10 1004 87 8000 7.2 220 17:19 15.01.2020
742 Rain 10 1004 87 0 9.3 230 16:41 15.01.2020
743 Rain 10 1004 87 0 9.3 230 16:41 15.01.2020
744 Rain 10 1004 87 10000 7.7 220 16:22 15.01.2020
745 Rain 10 1004 81 0 8.7 230 15:59 15.01.2020
746 Rain 10 1004 81 0 8.7 230 15:41 15.01.2020
747 Drizzle 10 1003 93 8000 10.8 220 15:20 15.01.2020
748 Rain 11 1004 76 0 11.3 230 14:44 15.01.2020
749 Rain 11 1004 81 10000 7.7 220 14:21 15.01.2020
750 Rain 11 1004 76 0 14.4 230 13:56 15.01.2020
751 Drizzle 11 1005 66 10000 10.8 220 13:38 15.01.2020
752 Rain 11 1003 71 10000 8.2 230 13:19 15.01.2020
753 Rain 11 1004 66 0 11.3 230 12:41 15.01.2020
754 Clouds 11 1003 71 10000 8.7 220 12:20 15.01.2020
755 Rain 11 1003 66 0 11.8 230 11:59 15.01.2020
756 Clouds 12 1004 66 10000 9.3 220 11:38 15.01.2020
757 Clouds 12 1004 66 10000 9.3 220 11:38 15.01.2020
758 Rain 12 1002 71 10000 97.7 220 11:19 15.01.2020
759 Rain 11 1003 71 0 12.3 230 10:47 15.01.2020
760 Clouds 11 1002 71 10000 97.7 220 10:28 15.01.2020
761 Rain 11 1002 71 0 13.4 230 09:57 15.01.2020
762 Rain 11 1002 71 0 13.4 230 09:57 15.01.2020
763 Clouds 12 1003 71 10000 9.3 210 09:38 15.01.2020
764 Clouds 11 1001 76 10000 9.8 210 09:19 15.01.2020
765 Rain 11 1001 71 0 12.9 230 08:44 15.01.2020
766 Clouds 11 1000 76 10000 9.3 210 08:24 15.01.2020
767 Rain 11 1001 76 0 12.3 230 07:54 15.01.2020
768 Clouds 11 1002 76 10000 10.3 210 07:33 15.01.2020
769 Rain 11 1000 76 0 14.4 230 06:52 15.01.2020
770 Rain 11 999 93 5000 13.4 220 06:28 15.01.2020
771 Clouds 11 1000 87 0 13.9 230 04:56 15.01.2020
772 Rain 11 998 87 3000 15.4 220 03:20 15.01.2020
773 Rain 11 999 87 0 11.3 220 01:48 15.01.2020
774 Rain 11 997 87 2500 14.9 210 01:21 15.01.2020
775 Rain 11 1000 81 10000 10.8 210 00:37 15.01.2020
776 Rain 11 997 93 4500 14.4 210 00:19 15.01.2020
777 Rain 11 998 81 0 12.3 210 23:46 14.01.2020
778 Rain 11 997 87 3500 12.9 210 23:27 14.01.2020
779 Rain 11 998 87 0 11.3 210 22:57 14.01.2020
780 Rain 10 1000 81 10000 10.3 200 22:39 14.01.2020
781 Clouds 10 1000 81 10000 8.2 200 22:18 14.01.2020
782 Rain 10 998 87 0 10.8 210 21:57 14.01.2020
783 Clouds 9 1000 81 10000 8.7 200 21:39 14.01.2020
784 Rain 9 996 93 2500 12.3 190 21:19 14.01.2020
785 Rain 9 998 93 0 10.3 210 20:54 14.01.2020
786 Drizzle 9 1000 87 4000 8.7 200 20:36 14.01.2020
787 Drizzle 9 1000 87 4000 8.7 200 20:18 14.01.2020
788 Rain 9 999 93 0 9.3 200 19:55 14.01.2020
789 Drizzle 9 1000 87 8000 7.7 190 19:37 14.01.2020
790 Rain 9 1001 87 10000 4.6 180 19:18 14.01.2020
791 Rain 9 1001 87 10000 4.6 180 19:18 14.01.2020
792 Rain 9 1000 87 0 7.7 190 18:41 14.01.2020
793 Drizzle 9 1002 87 10000 6.7 190 18:20 14.01.2020
794 Rain 9 1001 87 0 5.7 200 17:58 14.01.2020
795 Clouds 9 1002 87 10000 5.1 190 17:37 14.01.2020
796 Clouds 9 1001 87 10000 3.6 200 17:18 14.01.2020
797 Clouds 8 1001 87 0 5.1 220 16:43 14.01.2020
798 Clouds 8 1001 81 10000 4.6 220 16:23 14.01.2020
799 Clouds 8 1001 81 10000 4.6 220 16:23 14.01.2020
800 Clouds 8 1001 81 0 6.2 240 15:58 14.01.2020
801 Clouds 8 1001 81 0 6.2 240 15:40 14.01.2020
802 Clouds 8 1002 81 10000 7.2 230 15:19 14.01.2020
803 Clouds 9 1001 87 0 9.3 250 14:45 14.01.2020
804 Clouds 9 1001 87 10000 5.1 230 14:21 14.01.2020
805 Clouds 8 1001 81 0 8.7 250 13:57 14.01.2020
806 Clouds 8 1002 81 10000 8.7 240 13:39 14.01.2020
807 Clouds 8 1000 81 10000 5.1 230 13:19 14.01.2020
808 Clouds 8 1001 81 0 8.2 250 12:42 14.01.2020
809 Clouds 8 1000 81 0 5.1 230 12:22 14.01.2020
810 Clouds 8 1000 81 0 7.7 240 11:56 14.01.2020
811 Drizzle 7 1001 87 10000 7.7 230 11:37 14.01.2020
812 Drizzle 7 1001 87 10000 7.7 230 11:37 14.01.2020
813 Rain 7 1001 93 10000 5.1 230 11:19 14.01.2020
814 Rain 7 999 87 0 8.7 240 10:55 14.01.2020
815 Clouds 7 1000 87 10000 8.7 240 10:36 14.01.2020
816 Clouds 8 1000 93 10000 10.8 240 10:18 14.01.2020
817 Clouds 8 1000 93 10000 10.8 240 10:18 14.01.2020
818 Rain 8 998 93 0 8.7 240 09:42 14.01.2020
819 Rain 8 997 87 10000 7.7 200 09:21 14.01.2020
820 Rain 8 998 93 0 9.8 210 08:57 14.01.2020
821 Rain 8 999 93 8000 8.7 200 08:39 14.01.2020
822 Rain 8 998 93 10000 6.7 190 08:20 14.01.2020
823 Rain 8 998 93 0 10.8 200 07:40 14.01.2020
824 Rain 8 999 87 8000 8.7 190 07:18 14.01.2020
825 Rain 7 998 93 0 11.3 190 06:42 14.01.2020
826 Rain 7 999 87 0 10.8 190 05:56 14.01.2020
827 Rain 7 999 93 7000 9.3 170 04:24 14.01.2020
828 Rain 6 1001 81 0 8.7 190 03:45 14.01.2020
829 Rain 6 1003 87 0 9.8 180 02:32 14.01.2020
830 Clouds 6 1005 81 0 9.3 180 01:19 14.01.2020
831 Clouds 6 1005 81 0 9.3 180 00:47 14.01.2020
832 Clouds 5 1004 86 10000 7.7 170 00:21 14.01.2020
833 Clouds 5 1004 86 10000 7.7 170 00:21 14.01.2020
834 Clouds 5 1006 81 0 9.3 180 23:42 13.01.2020
835 Clouds 5 1006 86 8000 7.2 170 23:19 13.01.2020
836 Clouds 5 1007 86 0 8.2 180 22:57 13.01.2020
837 Clouds 5 1007 93 10000 5.7 160 22:39 13.01.2020
838 Clouds 5 1008 93 10000 5.1 170 22:19 13.01.2020
839 Clouds 5 1008 86 0 6.2 180 21:55 13.01.2020
840 Clouds 5 1009 86 10000 5.7 160 21:36 13.01.2020
841 Clouds 5 1010 87 10000 5.1 170 21:18 13.01.2020
842 Clouds 5 1009 87 0 6.7 190 20:55 13.01.2020
843 Clouds 5 1010 86 10000 5.7 180 20:37 13.01.2020
844 Clouds 5 1010 87 10000 4.1 170 20:19 13.01.2020
845 Clouds 5 1010 87 0 7.2 180 19:41 13.01.2020
846 Clouds 6 1011 87 10000 3.1 160 19:21 13.01.2020
847 Clouds 6 1012 87 0 5.7 180 18:58 13.01.2020
848 Clouds 6 1012 87 10000 4.6 170 18:38 13.01.2020
849 Clouds 6 1012 87 10000 3.1 180 18:19 13.01.2020
850 Clouds 6 1012 87 10000 3.1 180 18:19 13.01.2020
851 Clouds 6 1012 87 10000 3.1 180 18:19 13.01.2020
852 Clouds 6 1012 87 10000 3.1 180 18:19 13.01.2020
853 Clouds 6 1012 87 0 4.6 200 17:58 13.01.2020
854 Clouds 6 1012 87 10000 3.1 190 17:39 13.01.2020
855 Clouds 6 1013 87 10000 2.6 200 17:21 13.01.2020
856 Clouds 6 1013 87 10000 2.6 200 17:21 13.01.2020
857 Clouds 6 1012 87 10000 4.1 190 16:55 13.01.2020
858 Clouds 6 1013 87 10000 3.6 210 16:36 13.01.2020
859 Clouds 6 1013 87 9000 2.6 200 16:18 13.01.2020
860 Clouds 6 1012 90 0 3.13 202 15:42 13.01.2020
861 Clouds 6 1012 90 0 2.68 213 15:22 13.01.2020
862 Clouds 6 1012 91 0 2.68 210 14:56 13.01.2020
863 Clouds 6 1015 93 10000 6.7 230 14:36 13.01.2020
864 Clouds 6 1015 93 10000 6.7 230 14:18 13.01.2020
865 Clouds 6 1015 93 10000 6.7 230 13:40 13.01.2020
866 Clouds 6 1015 93 10000 6.7 230 13:40 13.01.2020
867 Rain 6 1013 92 0 2.68 222 13:22 13.01.2020
868 Clouds 6 1016 93 8000 4.6 200 12:58 13.01.2020
869 Clouds 6 1015 93 0 3.6 210 12:40 13.01.2020
870 Clouds 6 1015 93 0 3.6 210 12:21 13.01.2020
871 Clouds 6 1015 93 0 3.6 210 11:56 13.01.2020
872 Clouds 6 1016 93 7000 4.1 200 11:37 13.01.2020
873 Rain 6 1015 100 8000 4.1 200 11:18 13.01.2020
874 Clouds 5 1016 93 0 4.6 220 10:55 13.01.2020
875 Rain 5 1016 93 6000 3.1 190 10:36 13.01.2020
876 Clouds 5 1017 93 8000 2.6 190 10:18 13.01.2020
877 Rain 5 1016 93 6000 4.1 200 09:40 13.01.2020
878 Mist 5 1015 93 2500 3.6 200 09:22 13.01.2020
879 Clouds 5 1015 93 0 4.1 230 08:44 13.01.2020
880 Clouds 5 1016 93 10000 3.1 220 08:21 13.01.2020
881 Clouds 5 1016 93 10000 3.6 190 07:59 13.01.2020
882 Clouds 5 1016 93 10000 3.6 190 07:59 13.01.2020
883 Clouds 5 1016 93 0 6.2 230 07:40 13.01.2020
884 Clouds 5 1015 93 10000 3.1 200 07:18 13.01.2020
885 Clouds 5 1016 93 10000 5.7 230 06:37 13.01.2020
886 Clouds 5 1016 93 10000 5.7 230 06:37 13.01.2020
887 Clouds 5 1016 93 8000 4.6 230 05:36 13.01.2020
888 Clouds 5 1015 93 10000 4.1 240 04:25 13.01.2020
889 Clear 5 1016 93 10000 5.1 250 03:35 13.01.2020
890 Clear 6 1015 93 0 6.7 270 02:49 13.01.2020
891 Clouds 6 1015 93 10000 4.6 250 02:29 13.01.2020
892 Clouds 6 1016 93 10000 6.7 270 01:33 13.01.2020
893 Clouds 7 1014 93 0 7.2 280 00:44 13.01.2020
894 Clouds 7 1014 93 10000 5.7 260 00:25 13.01.2020
895 Clouds 7 1014 93 0 7.7 280 23:57 12.01.2020
896 Clouds 7 1014 93 10000 4.6 270 23:38 12.01.2020
897 Clouds 7 1013 100 10000 5.1 260 23:20 12.01.2020
898 Clouds 7 1013 100 0 6.2 280 22:43 12.01.2020
899 Clouds 7 1012 100 10000 5.1 260 22:25 12.01.2020
900 Clouds 7 1012 93 0 6.2 280 21:59 12.01.2020
901 Clouds 7 1012 93 0 6.2 280 21:40 12.01.2020
902 Clouds 7 1011 93 0 6.2 280 21:20 12.01.2020
903 Clouds 7 1011 93 0 6.2 280 20:59 12.01.2020
904 Drizzle 7 1012 100 6000 5.7 250 20:39 12.01.2020
905 Rain 7 1010 93 7000 3.6 270 20:21 12.01.2020
906 Rain 7 1010 100 0 7.7 290 19:57 12.01.2020
907 Rain 7 1011 100 5000 8.2 250 19:38 12.01.2020
908 Rain 7 1010 100 2000 3.6 270 19:19 12.01.2020
909 Rain 7 1010 100 2000 3.6 270 19:19 12.01.2020
910 Rain 7 1008 100 0 12.9 280 18:58 12.01.2020
911 Rain 7 1009 100 1300 3.1 270 18:40 12.01.2020
912 Rain 7 1008 93 5000 1.5 230 18:21 12.01.2020
913 Rain 7 1008 93 0 7.7 230 17:59 12.01.2020
914 Rain 7 1008 93 0 7.7 230 17:41 12.01.2020
915 Drizzle 6 1009 93 2000 3.6 200 17:19 12.01.2020
916 Rain 6 1009 93 0 6.2 220 16:56 12.01.2020
917 Rain 6 1010 93 4700 10.3 220 16:37 12.01.2020
918 Rain 6 1009 93 7000 5.1 210 16:19 12.01.2020
919 Rain 6 1010 93 0 7.7 230 15:43 12.01.2020
920 Rain 6 1010 93 6000 5.7 210 15:25 12.01.2020
921 Rain 5 1010 100 0 7.2 230 14:59 12.01.2020
922 Rain 5 1011 93 4100 7.2 220 14:41 12.01.2020
923 Rain 5 1010 93 6000 7.2 220 14:21 12.01.2020
924 Rain 5 1011 93 0 7.7 230 13:56 12.01.2020
925 Rain 5 1012 93 2500 7.7 220 13:38 12.01.2020
926 Rain 5 1010 93 6000 8.2 220 13:20 12.01.2020
927 Rain 5 1012 93 0 7.7 240 12:43 12.01.2020
928 Rain 5 1011 100 7000 8.2 220 12:21 12.01.2020
929 Rain 5 1012 93 0 9.8 230 11:59 12.01.2020
930 Rain 5 1012 93 0 9.8 230 11:59 12.01.2020
931 Rain 5 1013 93 2000 8.2 220 11:40 12.01.2020
932 Rain 5 1012 100 4500 8.2 230 11:22 12.01.2020
933 Rain 5 1013 93 0 9.3 240 10:56 12.01.2020
934 Rain 6 1014 93 2900 9.8 230 10:37 12.01.2020
935 Rain 6 1011 100 6000 7.7 230 10:18 12.01.2020
936 Rain 5 1012 93 0 8.7 240 09:41 12.01.2020
937 Rain 6 1011 100 4500 8.2 230 09:22 12.01.2020
938 Rain 6 1012 93 0 8.7 240 08:48 12.01.2020
939 Rain 6 1013 93 0 11.3 240 08:22 12.01.2020
940 Rain 6 1013 93 0 11.3 240 07:47 12.01.2020
941 Rain 6 1012 100 5000 9.8 230 07:26 12.01.2020
942 Rain 6 1012 100 5000 9.8 230 07:26 12.01.2020
943 Rain 6 1013 93 0 10.3 240 06:59 12.01.2020
944 Rain 6 1013 93 0 10.3 240 06:59 12.01.2020
945 Rain 6 1015 87 2300 11.3 230 06:36 12.01.2020
946 Rain 6 1014 93 0 11.8 240 05:52 12.01.2020
947 Rain 6 1014 87 0 10.8 240 04:56 12.01.2020
948 Rain 7 1014 87 0 10.8 240 03:43 12.01.2020
949 Rain 7 1015 87 0 10.8 240 02:48 12.01.2020
950 Drizzle 6 1013 93 6000 12.9 230 02:24 12.01.2020
951 Clouds 6 1017 87 10000 10.3 230 01:34 12.01.2020
952 Clouds 6 1016 81 0 11.3 240 00:46 12.01.2020
953 Drizzle 7 1018 75 4000 7.7 220 00:22 12.01.2020
954 Clouds 7 1017 81 0 10.3 230 23:59 11.01.2020
955 Clouds 7 1017 81 0 10.3 230 23:41 11.01.2020
956 Clouds 6 1016 87 10000 10.8 220 23:18 11.01.2020
957 Clouds 6 1017 81 0 10.8 230 22:56 11.01.2020
958 Clouds 6 1019 81 10000 10.3 220 22:38 11.01.2020
959 Clouds 6 1016 87 10000 11.3 210 22:20 11.01.2020
960 Clouds 6 1018 81 0 12.3 230 21:54 11.01.2020
961 Clouds 6 1019 75 10000 9.8 220 21:36 11.01.2020
962 Clouds 6 1017 87 8000 10.8 220 21:18 11.01.2020
963 Clouds 6 1020 75 10000 9.8 220 20:39 11.01.2020
964 Clouds 6 1017 81 10000 12.3 210 20:20 11.01.2020
965 Clouds 6 1019 81 0 11.3 220 19:58 11.01.2020
966 Clouds 6 1020 75 10000 9.3 210 19:38 11.01.2020
967 Clouds 6 1018 81 10000 11.3 210 19:20 11.01.2020
968 Clouds 6 1019 81 0 11.3 220 18:57 11.01.2020
969 Clouds 6 1021 80 10000 7.7 210 18:37 11.01.2020
970 Clouds 6 1018 81 10000 11.8 210 18:19 11.01.2020
971 Clouds 6 1020 81 0 10.8 230 17:57 11.01.2020
972 Clouds 5 1022 80 10000 8.2 210 17:39 11.01.2020
973 Clouds 5 1019 87 10000 9.8 220 17:19 11.01.2020
974 Clouds 5 1020 86 0 10.3 220 16:44 11.01.2020
975 Clouds 5 1019 87 10000 10.3 220 16:25 11.01.2020
976 Clouds 5 1021 81 0 11.3 230 15:57 11.01.2020
977 Clouds 5 1023 80 10000 8.2 220 15:39 11.01.2020
978 Clouds 6 1020 87 10000 10.8 220 15:20 11.01.2020
979 Clouds 6 1020 87 10000 10.8 220 15:20 11.01.2020
980 Clouds 6 1021 81 0 8.7 230 14:56 11.01.2020
981 Clouds 6 1023 75 10000 9.3 220 14:37 11.01.2020
982 Clouds 5 1022 81 10000 6.2 210 14:19 11.01.2020
983 Clouds 5 1024 80 10000 9.3 220 13:39 11.01.2020
984 Clouds 5 1022 81 10000 6.7 210 13:20 11.01.2020
985 Clouds 5 1023 86 0 8.7 220 12:57 11.01.2020
986 Clouds 5 1024 80 10000 6.7 210 12:38 11.01.2020
987 Clouds 5 1023 81 10000 6.7 210 12:20 11.01.2020
988 Clouds 5 1024 86 0 6.2 220 11:46 11.01.2020
989 Clouds 5 1024 86 10000 5.7 210 11:25 11.01.2020
990 Clouds 4 1024 86 0 6.2 220 10:50 11.01.2020
991 Clouds 4 1024 93 10000 4.6 210 10:30 11.01.2020
992 Clouds 4 1024 86 0 6.7 220 09:57 11.01.2020
993 Clouds 4 1026 86 10000 5.1 210 09:37 11.01.2020
994 Clouds 4 1025 86 10000 4.1 200 09:19 11.01.2020
995 Clouds 4 1025 93 0 5.7 220 08:42 11.01.2020
996 Clouds 4 1025 93 10000 3.1 200 08:21 11.01.2020
997 Clouds 4 1025 93 0 5.7 220 07:44 11.01.2020
998 Clouds 3 1025 86 10000 2.6 190 07:25 11.01.2020
999 Clouds 3 1025 93 0 6.2 220 06:50 11.01.2020
1000 Clouds 2 1026 93 0 3.6 240 05:40 11.01.2020
1001 Clouds 1 1026 100 0 4.1 240 04:46 11.01.2020
1002 Clouds 1 1025 88 10000 2.1 190 04:27 11.01.2020
1003 Clouds 1 1025 100 0 3.1 290 02:49 11.01.2020
1004 Clouds 1 1025 100 0 3.1 290 02:49 11.01.2020
1005 Clouds 1 1025 88 10000 1.5 220 02:27 11.01.2020
1006 Clouds 2 1025 86 0 4.1 310 01:43 11.01.2020
1007 Clouds 2 1025 93 10000 2.6 290 01:19 11.01.2020
1008 Clear 3 1025 89 10000 2.6 260 00:38 11.01.2020
1009 Clear 4 1024 75 0 6.2 340 23:59 10.01.2020
1010 Clear 4 1024 80 10000 3.6 330 23:40 10.01.2020
1011 Clouds 5 1023 80 10000 3.1 320 23:21 10.01.2020
1012 Clouds 5 1023 80 0 6.7 320 22:58 10.01.2020
1013 Clouds 5 1022 80 10000 6.7 320 22:40 10.01.2020
1014 Clouds 5 1021 80 10000 6.7 320 22:20 10.01.2020
1015 Clouds 5 1022 86 0 5.7 310 21:57 10.01.2020
1016 Clouds 4 1022 86 10000 4.1 300 21:37 10.01.2020
1017 Clouds 4 1020 80 10000 6.7 330 21:19 10.01.2020
1018 Clouds 4 1020 80 0 6.7 350 20:43 10.01.2020
1019 Clouds 4 1019 86 10000 7.2 330 20:24 10.01.2020
1020 Clouds 4 1019 86 0 7.7 340 19:58 10.01.2020
1021 Clouds 4 1019 86 10000 6.7 320 19:38 10.01.2020
1022 Clouds 4 1019 86 10000 6.7 320 19:38 10.01.2020
1023 Clouds 4 1018 86 10000 8.2 310 19:19 10.01.2020
1024 Clouds 4 1019 86 10000 5.1 310 18:43 10.01.2020
1025 Clouds 4 1017 86 10000 8.7 310 18:19 10.01.2020
1026 Clouds 4 1017 86 0 8.7 340 17:58 10.01.2020
1027 Clouds 4 1017 93 8000 6.2 340 17:39 10.01.2020
1028 Clouds 5 1015 86 10000 8.7 320 17:20 10.01.2020
1029 Rain 5 1015 80 0 8.7 350 16:58 10.01.2020
1030 Rain 5 1016 86 10000 6.7 330 16:39 10.01.2020
1031 Clouds 5 1015 93 8000 7.2 320 16:20 10.01.2020
1032 Rain 5 1013 93 0 7.7 350 15:56 10.01.2020
1033 Clouds 5 1012 93 10000 7.2 330 15:37 10.01.2020
1034 Clouds 5 1012 93 10000 7.2 330 15:18 10.01.2020
1035 Rain 5 1012 100 0 8.2 360 14:56 10.01.2020
1036 Clouds 5 1012 100 10000 7.7 310 14:38 10.01.2020
1037 Rain 6 1010 93 6000 7.7 340 14:18 10.01.2020
1038 Rain 7 1010 100 0 8.2 10 13:44 10.01.2020
1039 Drizzle 7 1010 100 4000 5.1 250 13:26 10.01.2020
1040 Rain 7 1009 100 0 4.6 280 12:59 10.01.2020
1041 Drizzle 7 1009 100 3800 7.2 250 12:39 10.01.2020
1042 Drizzle 7 1009 100 4000 6.2 260 12:21 10.01.2020
1043 Rain 7 1008 100 0 4.6 280 11:57 10.01.2020
1044 Drizzle 7 1009 100 2000 6.2 260 11:39 10.01.2020
1045 Drizzle 7 1009 100 3900 6.2 260 11:19 10.01.2020
1046 Rain 7 1008 100 0 3.6 260 10:58 10.01.2020
1047 Clouds 7 1008 93 6000 5.1 250 10:38 10.01.2020
1048 Clouds 7 1008 93 6000 5.1 250 10:18 10.01.2020
1049 Rain 8 1007 100 0 3.1 280 09:45 10.01.2020
1050 Drizzle 8 1007 100 4000 1.5 240 09:26 10.01.2020
1051 Rain 8 1007 100 0 3.1 270 08:57 10.01.2020
1052 Drizzle 8 1007 100 5000 9.3 250 08:37 10.01.2020
1053 Rain 8 1006 100 8000 1.5 210 08:18 10.01.2020
1054 Rain 8 1006 100 0 3.1 240 07:41 10.01.2020
1055 Rain 8 1006 93 5000 2.1 250 07:21 10.01.2020
1056 Rain 8 1006 93 0 3.6 250 06:41 10.01.2020
1057 Drizzle 8 1005 93 3000 1 280 06:23 10.01.2020
1058 Rain 8 1005 100 3000 1 220 05:25 10.01.2020
1059 Fog 8 1005 100 900 3.6 210 03:32 10.01.2020
1060 Rain 8 1005 100 0 2.1 240 02:54 10.01.2020
1061 Rain 8 1005 100 6000 2.6 240 02:33 10.01.2020
1062 Clouds 8 1004 87 10000 4.1 220 01:33 10.01.2020
1063 Clouds 8 1004 93 0 5.1 240 00:56 10.01.2020
1064 Clouds 8 1005 93 8000 5.7 250 00:38 10.01.2020
1065 Clouds 9 1005 93 0 7.2 260 23:57 09.01.2020
1066 Clouds 9 1005 87 10000 6.2 250 23:37 09.01.2020
1067 Clouds 9 1004 93 8000 5.1 240 23:19 09.01.2020
1068 Clouds 9 1004 87 0 8.7 260 22:56 09.01.2020
1069 Clouds 9 1005 87 10000 6.2 250 22:37 09.01.2020
1070 Clouds 10 1004 87 10000 3.1 240 22:18 09.01.2020
1071 Clouds 10 1004 87 0 8.7 250 21:56 09.01.2020
1072 Clouds 10 1005 87 10000 7.2 240 21:37 09.01.2020
1073 Clouds 10 1005 87 10000 7.2 240 21:37 09.01.2020
1074 Clouds 10 1004 87 10000 5.1 240 21:37 09.01.2020
1075 Clouds 10 1004 87 10000 5.1 240 21:18 09.01.2020
1076 Clouds 10 1004 93 0 9.3 250 20:56 09.01.2020
1077 Clouds 10 1004 93 0 9.3 250 20:38 09.01.2020
1078 Clouds 10 1004 87 10000 5.1 240 20:19 09.01.2020
1079 Clouds 10 1004 87 0 9.8 250 19:55 09.01.2020
1080 Clouds 10 1004 87 0 9.8 250 19:36 09.01.2020
1081 Clouds 10 1004 87 10000 4.6 230 19:18 09.01.2020
1082 Clouds 11 1004 87 0 8.7 250 18:54 09.01.2020
1083 Clouds 11 1004 87 0 8.7 250 18:36 09.01.2020
1084 Rain 11 1004 87 10000 5.1 240 18:18 09.01.2020
1085 Rain 11 1004 87 10000 5.1 240 18:18 09.01.2020
1086 Clouds 11 1004 87 0 8.7 250 17:40 09.01.2020
1087 Rain 11 1004 87 10000 5.7 240 17:18 09.01.2020
1088 Rain 11 1005 93 0 9.8 250 16:47 09.01.2020
1089 Rain 10 1004 100 2500 5.7 210 16:22 09.01.2020
1090 Rain 10 1004 93 0 8.7 230 15:56 09.01.2020
1091 Rain 10 1004 93 0 8.7 230 15:38 09.01.2020
1092 Drizzle 10 1004 93 2000 5.7 200 15:18 09.01.2020
1093 Rain 10 1005 100 0 7.7 220 14:41 09.01.2020
1094 Drizzle 10 1005 100 4500 4.1 190 14:21 09.01.2020
1095 Rain 10 1005 100 0 7.7 210 13:57 09.01.2020
1096 Drizzle 9 1006 93 4500 3.6 170 13:39 09.01.2020
1097 Drizzle 9 1006 93 4000 4.6 150 13:20 09.01.2020
1098 Drizzle 9 1006 93 4000 4.6 150 12:58 09.01.2020
1099 Rain 9 1007 93 0 6.7 180 12:38 09.01.2020
1100 Rain 9 1008 100 2000 6.2 180 12:19 09.01.2020
1101 Rain 8 1008 100 0 5.7 150 11:56 09.01.2020
1102 Rain 8 1008 100 0 5.7 150 11:37 09.01.2020
1103 Rain 8 1009 100 2800 6.2 160 11:19 09.01.2020
1104 Rain 7 1010 100 0 5.1 150 10:43 09.01.2020
1105 Drizzle 7 1011 100 2500 4.6 120 10:22 09.01.2020
1106 Rain 6 1011 93 0 5.1 130 09:56 09.01.2020
1107 Rain 6 1011 93 0 5.1 130 09:38 09.01.2020
1108 Drizzle 6 1013 100 2200 3.6 130 09:18 09.01.2020
1109 Rain 6 1013 100 0 3.6 130 08:55 09.01.2020
1110 Rain 6 1013 100 0 3.6 130 08:37 09.01.2020
1111 Rain 6 1014 93 3500 3.1 150 08:19 09.01.2020
1112 Rain 5 1014 100 0 3.1 160 07:42 09.01.2020
1113 Rain 5 1015 93 8000 3.1 150 07:23 09.01.2020
1114 Rain 5 1015 100 0 3.6 170 06:38 09.01.2020
1115 Drizzle 4 1016 100 1600 2.1 120 06:19 09.01.2020
1116 Rain 4 1016 93 0 3.1 180 05:44 09.01.2020
1117 Clouds 4 1017 93 0 1.5 0 04:43 09.01.2020
1118 Clouds 4 1018 100 0 1.5 230 03:31 09.01.2020
1119 Clouds 4 1019 100 0 5.1 220 02:53 09.01.2020
1120 Mist 4 1019 100 4500 3.1 210 02:24 09.01.2020
1121 Clouds 4 1019 86 0 6.2 230 01:39 09.01.2020
1122 Clouds 4 1019 86 0 5.1 220 00:43 09.01.2020
1123 Clouds 5 1019 100 5000 3.6 220 00:21 09.01.2020
1124 Clouds 5 1019 100 5000 3.6 220 00:21 09.01.2020
1125 Clouds 5 1019 87 0 4.6 250 23:44 08.01.2020
1126 Clouds 5 1019 86 10000 3.6 220 23:25 08.01.2020
1127 Clouds 5 1019 86 10000 3.6 220 22:59 08.01.2020
1128 Clouds 5 1019 87 0 5.7 250 22:39 08.01.2020
1129 Clouds 5 1019 87 10000 2.6 230 22:21 08.01.2020
1130 Clouds 5 1019 87 10000 2.6 230 21:57 08.01.2020
1131 Clouds 5 1019 87 0 5.1 240 21:38 08.01.2020
1132 Clouds 6 1019 87 10000 4.1 250 21:20 08.01.2020
1133 Clouds 6 1019 87 10000 4.1 250 20:58 08.01.2020
1134 Clouds 6 1019 87 0 4.6 260 20:39 08.01.2020
1135 Clouds 6 1019 87 10000 3.1 260 20:20 08.01.2020
1136 Clouds 6 1019 87 0 4.6 260 19:56 08.01.2020
1137 Clouds 6 1019 87 0 4.6 260 19:56 08.01.2020
1138 Clouds 6 1019 87 0 4.6 260 19:37 08.01.2020
1139 Clouds 6 1018 87 10000 4.1 260 19:19 08.01.2020
1140 Clouds 6 1018 87 10000 4.1 260 19:19 08.01.2020
1141 Clouds 7 1018 87 0 7.2 280 18:56 08.01.2020
1142 Clouds 7 1018 87 0 7.2 280 18:37 08.01.2020
1143 Clouds 7 1018 87 0 7.2 280 18:37 08.01.2020
1144 Clouds 7 1018 81 10000 4.1 260 18:18 08.01.2020
1145 Clouds 7 1018 81 0 7.7 280 17:55 08.01.2020
1146 Clouds 7 1018 81 0 7.7 280 17:36 08.01.2020
1147 Clouds 8 1017 81 10000 3.6 270 17:18 08.01.2020
1148 Clouds 8 1017 87 0 8.7 280 16:54 08.01.2020
1149 Clouds 8 1017 87 0 8.7 280 16:36 08.01.2020
1150 Clouds 8 1016 87 10000 5.7 270 16:18 08.01.2020
1151 Clouds 9 1017 81 0 9.3 300 15:40 08.01.2020
1152 Clouds 9 1016 87 10000 8.2 270 15:20 08.01.2020
1153 Clouds 9 1016 87 10000 8.2 270 14:57 08.01.2020
1154 Clouds 9 1016 87 0 10.3 280 14:39 08.01.2020
1155 Clouds 9 1015 87 10000 5.1 260 14:20 08.01.2020
1156 Clouds 9 1015 93 0 9.3 270 13:40 08.01.2020
1157 Clouds 9 1015 93 0 9.3 270 13:40 08.01.2020
1158 Clouds 9 1015 87 10000 5.1 260 13:19 08.01.2020
1159 Clouds 9 1015 93 0 9.8 270 12:42 08.01.2020
1160 Clouds 9 1014 87 10000 7.2 260 12:20 08.01.2020
1161 Clouds 9 1014 87 10000 7.2 260 11:59 08.01.2020
1162 Clouds 9 1014 93 0 10.3 270 11:40 08.01.2020
1163 Clouds 9 1015 93 6000 8.7 250 11:19 08.01.2020
1164 Clouds 9 1014 93 0 11.3 270 10:56 08.01.2020
1165 Clouds 9 1014 93 0 11.3 270 10:37 08.01.2020
1166 Mist 9 1015 93 2800 11.3 250 10:19 08.01.2020
1167 Clouds 9 1014 93 0 11.3 260 09:42 08.01.2020
1168 Mist 9 1014 93 3500 10.3 240 09:20 08.01.2020
1169 Clouds 9 1013 100 0 9.3 250 08:57 08.01.2020
1170 Clouds 9 1013 100 0 9.3 250 08:38 08.01.2020
1171 Mist 9 1012 93 4500 5.7 240 08:20 08.01.2020
1172 Rain 8 1013 100 0 10.8 260 07:50 08.01.2020
1173 Rain 8 1013 100 0 10.8 260 07:32 08.01.2020
1174 Rain 8 1013 93 0 10.8 250 06:50 08.01.2020
1175 Mist 8 1012 100 2000 10.3 230 06:32 08.01.2020
1176 Rain 8 1013 93 0 11.3 240 05:54 08.01.2020
1177 Rain 7 1012 93 3000 11.3 230 05:25 08.01.2020
1178 Rain 7 1013 93 0 11.8 240 04:35 08.01.2020
1179 Rain 7 1014 81 0 10.8 240 02:46 08.01.2020
1180 Drizzle 7 1013 87 5000 10.3 220 02:28 08.01.2020
1181 Rain 7 1013 81 0 10.8 220 01:55 08.01.2020
1182 Clouds 7 1013 87 6000 10.3 220 01:29 08.01.2020
1183 Rain 7 1015 87 0 9.3 230 00:51 08.01.2020
1184 Drizzle 7 1014 93 4000 10.3 210 00:22 08.01.2020
1185 Rain 7 1016 87 0 10.3 220 23:46 07.01.2020
1186 Drizzle 6 1015 93 4000 10.3 210 23:21 07.01.2020
1187 Drizzle 6 1015 93 4000 10.3 210 23:21 07.01.2020
1188 Rain 6 1017 87 0 9.8 220 22:41 07.01.2020
1189 Clouds 6 1017 87 10000 7.2 210 22:21 07.01.2020
1190 Clouds 6 1017 87 10000 7.2 210 21:59 07.01.2020
1191 Rain 6 1018 87 0 9.8 220 21:41 07.01.2020
1192 Clouds 6 1018 87 10000 6.7 210 21:21 07.01.2020
1193 Clouds 6 1018 87 10000 6.7 210 21:21 07.01.2020
1194 Rain 6 1018 81 0 7.7 220 20:58 07.01.2020
1195 Rain 6 1018 81 0 7.7 220 20:39 07.01.2020
1196 Clouds 6 1019 87 10000 6.2 200 20:21 07.01.2020
1197 Clouds 6 1019 87 0 8.2 220 19:57 07.01.2020
1198 Clouds 6 1019 87 0 8.2 220 19:37 07.01.2020
1199 Clouds 6 1018 93 7000 9.3 210 19:19 07.01.2020
1200 Clouds 6 1019 87 0 7.2 220 18:56 07.01.2020
1201 Clouds 6 1019 87 0 7.2 220 18:38 07.01.2020
1202 Clouds 6 1018 93 8000 8.7 210 18:18 07.01.2020
1203 Clouds 6 1020 93 0 8.2 230 17:55 07.01.2020
1204 Clouds 6 1020 93 0 8.2 230 17:36 07.01.2020
1205 Clouds 6 1020 87 10000 5.1 210 17:18 07.01.2020
1206 Clear 6 1021 87 0 7.2 230 16:55 07.01.2020
1207 Clear 6 1021 87 0 7.2 230 16:36 07.01.2020
1208 Clouds 7 1022 93 8000 7.7 230 16:18 07.01.2020
1209 Clear 7 1020 87 0 6.2 230 15:42 07.01.2020
1210 Clouds 7 1022 87 10000 5.7 250 15:24 07.01.2020
1211 Clear 7 1021 81 0 6.2 260 14:58 07.01.2020
1212 Clouds 7 1021 87 10000 7.2 230 14:40 07.01.2020
1213 Clouds 7 1020 81 10000 3.6 240 14:20 07.01.2020
1214 Clouds 7 1020 81 0 8.7 260 13:46 07.01.2020
1215 Clouds 8 1020 81 10000 5.1 250 13:21 07.01.2020
1216 Clouds 8 1020 87 0 6.7 270 12:56 07.01.2020
1217 Clouds 8 1020 87 0 6.7 270 12:37 07.01.2020
1218 Clouds 8 1020 87 10000 4.1 250 12:19 07.01.2020
1219 Clouds 8 1020 87 0 9.3 270 11:41 07.01.2020
1220 Clouds 7 1021 87 10000 3.1 250 11:23 07.01.2020
1221 Clouds 7 1019 81 0 8.7 270 10:57 07.01.2020
1222 Clouds 7 1019 81 0 8.7 270 10:57 07.01.2020
1223 Clouds 7 1019 81 0 8.7 270 10:39 07.01.2020
1224 Clouds 7 1019 81 0 8.7 270 10:39 07.01.2020
1225 Clouds 7 1019 81 0 8.7 270 10:39 07.01.2020
1226 Clouds 7 1019 81 0 8.7 270 10:39 07.01.2020
1227 Clouds 7 1019 81 0 8.7 270 10:39 07.01.2020
1228 Clouds 7 1019 87 10000 4.6 260 10:21 07.01.2020
1229 Clouds 7 1019 93 0 8.7 270 09:55 07.01.2020
1230 Clouds 7 1019 93 0 8.7 270 09:37 07.01.2020
1231 Mist 7 1019 93 5000 6.7 260 09:19 07.01.2020
1232 Clouds 7 1018 93 0 10.3 270 08:41 07.01.2020
1233 Clouds 7 1017 93 8000 3.6 240 08:18 07.01.2020
1234 Clouds 7 1017 93 0 8.2 260 07:49 07.01.2020
1235 Clouds 7 1017 93 0 8.2 260 07:49 07.01.2020
1236 Mist 6 1016 100 2300 3.6 210 07:25 07.01.2020
1237 Clouds 6 1016 93 0 6.7 230 06:52 07.01.2020
1238 Clouds 5 1016 93 0 6.7 230 06:32 07.01.2020
1239 Clouds 4 1016 100 0 5.7 200 05:42 07.01.2020
1240 Clouds 3 1015 100 0 4.6 200 03:52 07.01.2020
1241 Mist 3 1015 93 3000 4.6 200 03:25 07.01.2020
1242 Clouds 3 1017 86 10000 4.1 200 02:21 07.01.2020
1243 Clouds 3 1016 86 0 5.1 220 01:45 07.01.2020
1244 Clouds 3 1015 86 8000 4.6 200 01:21 07.01.2020
1245 Clouds 3 1015 86 8000 5.1 200 00:22 07.01.2020
1246 Clouds 3 1016 80 0 5.1 200 23:58 06.01.2020
1247 Clouds 3 1016 80 0 5.1 200 23:39 06.01.2020
1248 Clouds 4 1016 86 8000 4.6 210 23:21 06.01.2020
1249 Clouds 4 1016 80 0 4.6 210 22:56 06.01.2020
1250 Clouds 4 1016 80 0 4.6 210 22:37 06.01.2020
1251 Clouds 4 1016 80 8000 5.7 220 22:19 06.01.2020
1252 Clouds 5 1017 86 0 4.1 230 21:55 06.01.2020
1253 Clouds 5 1017 86 0 4.1 230 21:37 06.01.2020
1254 Drizzle 5 1017 86 7000 5.7 210 21:18 06.01.2020
1255 Clouds 5 1018 80 10000 4.6 200 20:55 06.01.2020
1256 Clouds 5 1018 80 10000 4.6 200 20:37 06.01.2020
1257 Clouds 5 1018 87 9000 4.6 210 20:19 06.01.2020
1258 Clouds 5 1018 87 9000 4.6 210 20:19 06.01.2020
1259 Clouds 6 1018 87 0 4.1 210 19:55 06.01.2020
1260 Clouds 5 1018 87 0 4.1 210 19:37 06.01.2020
1261 Drizzle 6 1018 93 4000 6.2 210 19:18 06.01.2020
1262 Clouds 6 1019 87 0 4.6 220 18:44 06.01.2020
1263 Clouds 6 1019 93 7000 4.56 204 18:21 06.01.2020
1264 Clouds 6 1019 93 0 4.6 210 17:40 06.01.2020
1265 Clouds 6 1020 87 6000 4.1 200 17:20 06.01.2020
1266 Clouds 6 1020 93 5000 3.6 200 16:59 06.01.2020
1267 Clouds 6 1020 93 0 4.6 210 16:41 06.01.2020
1268 Mist 6 1020 93 5000 5.1 210 16:23 06.01.2020
1269 Mist 6 1020 93 5000 5.1 210 15:59 06.01.2020
1270 Clouds 6 1020 93 0 4.6 230 15:37 06.01.2020
1271 Mist 6 1022 93 4500 4.1 220 15:18 06.01.2020
1272 Clouds 6 1021 93 0 5.7 230 14:42 06.01.2020
1273 Clouds 6 1022 93 6000 4.1 220 14:23 06.01.2020
1274 Clouds 6 1022 93 0 6.7 250 14:00 06.01.2020
1275 Clouds 6 1022 93 0 6.7 250 13:40 06.01.2020
1276 Mist 6 1023 93 3500 4.1 220 13:22 06.01.2020
1277 Mist 6 1022 93 4000 4.1 230 12:59 06.01.2020
1278 Clouds 6 1022 93 0 6.7 250 12:41 06.01.2020
1279 Drizzle 6 1022 93 2000 3.6 230 12:20 06.01.2020
1280 Clouds 6 1023 93 0 7.2 250 11:55 06.01.2020
1281 Clouds 6 1023 93 0 7.2 250 11:37 06.01.2020
1282 Drizzle 6 1022 93 1800 3.1 230 11:19 06.01.2020
1283 Clouds 6 1023 93 0 6.2 250 10:42 06.01.2020
1284 Drizzle 6 1022 100 1800 6.2 240 10:21 06.01.2020
1285 Clouds 6 1023 93 0 7.2 260 09:42 06.01.2020
1286 Drizzle 6 1024 93 4400 4.6 240 09:24 06.01.2020
1287 Clouds 6 1023 100 6000 3.6 240 08:58 06.01.2020
1288 Clouds 6 1023 100 6000 3.6 240 08:58 06.01.2020
1289 Clouds 6 1023 100 6000 3.6 240 08:58 06.01.2020
1290 Clouds 6 1023 93 0 7.2 260 08:39 06.01.2020
1291 Drizzle 6 1024 93 2200 5.1 240 08:21 06.01.2020
1292 Clouds 6 1023 93 0 7.2 260 07:46 06.01.2020
1293 Drizzle 6 1025 93 4000 5.1 240 07:21 06.01.2020
1294 Clouds 6 1023 93 0 6.2 260 06:38 06.01.2020
1295 Clouds 6 1024 100 0 6.7 250 05:49 06.01.2020
1296 Drizzle 6 1023 100 1500 5.7 230 05:29 06.01.2020
1297 Drizzle 6 1023 100 3500 6.7 240 04:25 06.01.2020
1298 Rain 6 1024 93 0 6.7 250 03:52 06.01.2020
1299 Rain 5 1024 93 0 7.7 250 02:32 06.01.2020
1300 Clouds 5 1025 93 0 8.2 250 01:55 06.01.2020
1301 Clouds 6 1025 93 0 8.2 250 01:32 06.01.2020
1302 Clouds 6 1025 93 0 8.7 250 00:57 06.01.2020
1303 Clouds 6 1025 93 0 8.7 250 00:39 06.01.2020
1304 Clouds 6 1024 93 10000 7.2 230 00:18 06.01.2020
1305 Clouds 6 1025 93 0 7.2 250 23:40 05.01.2020
1306 Clouds 6 1024 87 10000 5.1 230 23:21 05.01.2020
1307 Clouds 6 1026 93 0 7.2 250 22:55 05.01.2020
1308 Clouds 6 1026 93 0 7.2 250 22:37 05.01.2020
1309 Clouds 6 1025 87 10000 6.2 230 22:18 05.01.2020
1310 Clouds 6 1026 93 0 6.7 250 21:41 05.01.2020
1311 Clouds 6 1025 87 10000 5.7 230 21:21 05.01.2020
1312 Clouds 6 1025 87 10000 5.7 230 20:58 05.01.2020
1313 Clouds 6 1026 93 0 7.7 250 20:39 05.01.2020
1314 Clouds 6 1026 87 10000 4.1 230 20:20 05.01.2020
1315 Clouds 6 1026 87 10000 4.1 230 20:20 05.01.2020
1316 Clouds 6 1026 87 10000 4.1 230 19:59 05.01.2020
1317 Clouds 6 1027 93 0 6.7 250 19:41 05.01.2020
1318 Clouds 6 1027 93 10000 3.6 220 19:21 05.01.2020
1319 Clouds 6 1027 93 0 7.2 250 18:56 05.01.2020
1320 Clouds 6 1027 93 0 7.2 250 18:38 05.01.2020
1321 Clouds 6 1027 87 10000 3.1 220 18:20 05.01.2020
1322 Clouds 6 1027 87 10000 3.1 220 17:59 05.01.2020
1323 Clouds 6 1027 93 0 6.7 240 17:39 05.01.2020
1324 Clouds 6 1027 93 10000 1.5 230 17:20 05.01.2020
1325 Clouds 6 1027 93 0 7.7 260 16:57 05.01.2020
1326 Clouds 6 1027 93 0 7.7 260 16:39 05.01.2020
1327 Mist 6 1027 93 3500 3.1 230 16:20 05.01.2020
1328 Clouds 6 1028 93 0 6.2 250 15:41 05.01.2020
1329 Clouds 6 1029 86 10000 3.6 210 15:22 05.01.2020
1330 Clouds 6 1029 86 10000 3.6 210 15:22 05.01.2020
1331 Clouds 6 1027 93 10000 5.7 240 14:58 05.01.2020
1332 Clouds 6 1028 100 0 6.2 250 14:40 05.01.2020
1333 Clouds 6 1027 100 7000 5.7 230 14:22 05.01.2020
1334 Clouds 6 1027 100 7000 5.7 230 13:59 05.01.2020
1335 Clouds 5 1028 93 0 7.2 240 13:39 05.01.2020
1336 Drizzle 5 1028 100 3000 5.1 220 13:20 05.01.2020
1337 Rain 5 1029 87 0 4.6 240 12:57 05.01.2020
1338 Rain 5 1029 87 0 4.6 240 12:38 05.01.2020
1339 Drizzle 5 1028 93 5000 4.6 210 12:20 05.01.2020
1340 Rain 4 1030 86 0 4.6 220 11:55 05.01.2020
1341 Rain 4 1030 86 0 4.6 220 11:37 05.01.2020
1342 Rain 4 1030 86 0 4.6 220 11:37 05.01.2020
1343 Rain 4 1030 86 0 4.6 220 11:37 05.01.2020
1344 Rain 4 1030 86 0 4.6 220 11:37 05.01.2020
1345 Clouds 4 1029 86 10000 3.6 210 11:18 05.01.2020
1346 Clouds 4 1030 86 0 5.7 240 10:41 05.01.2020
1347 Clouds 3 1030 88 0 2.1 190 10:20 05.01.2020
1348 Clouds 2 1030 88 0 6.2 240 09:57 05.01.2020
1349 Clouds 2 1030 88 0 6.2 240 09:39 05.01.2020
1350 Clouds 2 1030 88 0 2.6 210 09:21 05.01.2020
1351 Clouds 2 1030 88 0 3.1 210 08:45 05.01.2020
1352 Clouds 2 1031 80 10000 2.6 220 08:25 05.01.2020
1353 Clear 2 1030 74 0 4.1 240 07:50 05.01.2020
1354 Clear 2 1030 92 0 2.6 220 07:29 05.01.2020
1355 Clear 2 1030 92 0 4.6 260 06:56 05.01.2020
1356 Clear 3 1030 92 0 5.1 270 05:53 05.01.2020
1357 Clear 3 1030 92 0 2.1 240 05:28 05.01.2020
1358 Clear 3 1029 74 0 3.1 250 04:24 05.01.2020
1359 Clear 3 1030 90 0 4.1 270 03:45 05.01.2020
1360 Clear 2 1029 80 0 4.6 290 02:43 05.01.2020
1361 Clear 2 1029 74 0 3.1 270 02:20 05.01.2020
1362 Clear 2 1029 89 0 5.7 300 01:40 05.01.2020
1363 Clear 1 1028 74 0 2.6 270 01:18 05.01.2020
1364 Clear 2 1028 80 0 5.1 310 00:41 05.01.2020
1365 Clear 2 1027 74 0 4.1 290 00:22 05.01.2020
1366 Clear 2 1027 74 0 4.1 290 23:59 04.01.2020
1367 Clear 1 1027 88 0 5.7 310 23:39 04.01.2020
1368 Clear 2 1027 80 0 3.1 270 23:19 04.01.2020
1369 Clear 2 1027 83 0 4.6 310 22:39 04.01.2020
1370 Clear 2 1026 69 0 4.6 300 22:21 04.01.2020
1371 Clear 2 1026 86 0 3.1 320 21:57 04.01.2020
1372 Clear 2 1026 86 0 3.1 320 21:38 04.01.2020
1373 Clear 3 1025 83 0 7.2 320 21:19 04.01.2020
1374 Clear 3 1025 83 0 5.7 340 20:57 04.01.2020
1375 Clear 3 1025 83 0 5.7 340 20:38 04.01.2020
1376 Clear 3 1024 75 0 6.2 310 20:20 04.01.2020
1377 Clear 3 1023 75 0 9.8 330 19:56 04.01.2020
1378 Clear 3 1023 75 0 9.8 330 19:37 04.01.2020
1379 Clear 4 1023 75 0 7.7 310 19:18 04.01.2020
1380 Clear 4 1022 75 0 10.8 320 18:54 04.01.2020
1381 Clear 4 1022 75 0 10.8 320 18:36 04.01.2020
1382 Clear 4 1021 75 0 8.7 310 18:18 04.01.2020
1383 Clear 4 1021 80 0 10.8 320 17:40 04.01.2020
1384 Clear 4 1019 75 0 9.8 300 17:22 04.01.2020
1385 Clear 5 1020 75 0 10.3 330 16:57 04.01.2020
1386 Clear 5 1020 75 0 10.3 330 16:39 04.01.2020
1387 Clear 5 1018 75 0 8.7 300 16:21 04.01.2020
1388 Clear 5 1018 71 0 10.8 330 15:43 04.01.2020
1389 Clouds 5 1017 71 10000 9.8 310 15:20 04.01.2020
1390 Clouds 6 1017 71 10000 9.8 310 14:59 04.01.2020
1391 Clear 6 1017 71 0 10.3 320 14:41 04.01.2020
1392 Clouds 6 1016 62 10000 8.7 300 14:20 04.01.2020
1393 Clouds 6 1016 62 10000 8.7 300 14:20 04.01.2020
1394 Clouds 6 1016 62 10000 8.7 300 13:59 04.01.2020
1395 Snow 6 1016 70 0 11.3 330 13:38 04.01.2020
1396 Clouds 6 1015 62 10000 9.8 310 13:19 04.01.2020
1397 Snow 6 1016 75 0 12.3 330 12:57 04.01.2020
1398 Snow 6 1016 75 0 12.3 330 12:39 04.01.2020
1399 Clouds 5 1015 80 10000 8.2 300 12:18 04.01.2020
1400 Snow 5 1015 93 0 8.7 330 11:56 04.01.2020
1401 Snow 5 1015 93 0 8.7 330 11:37 04.01.2020
1402 Rain 5 1014 86 10000 8.7 300 11:18 04.01.2020
1403 Rain 6 1014 93 0 11.3 310 10:40 04.01.2020
1404 Rain 6 1013 86 5000 11.3 290 10:21 04.01.2020
1405 Rain 6 1012 87 0 18 280 09:47 04.01.2020
1406 Rain 7 1014 93 6000 9.8 280 09:26 04.01.2020
1407 Rain 7 1013 87 0 17.5 290 08:49 04.01.2020
1408 Rain 7 1012 81 10000 8.7 270 08:29 04.01.2020
1409 Rain 7 1012 81 10000 9.3 270 07:59 04.01.2020
1410 Rain 7 1014 87 0 16.5 280 07:40 04.01.2020
1411 Rain 6 1014 81 0 13.9 280 06:46 04.01.2020
1412 Rain 6 1015 87 0 14.9 280 05:59 04.01.2020
1413 Clear 6 1014 75 0 7.7 260 05:18 04.01.2020
1414 Clear 6 1015 87 0 13.4 270 04:32 04.01.2020
1415 Clear 5 1015 81 0 13.4 280 03:39 04.01.2020
1416 Clear 5 1015 81 0 6.7 260 03:18 04.01.2020
1417 Clouds 5 1015 75 0 7.2 260 02:21 04.01.2020
1418 Clouds 5 1016 81 0 12.3 280 01:53 04.01.2020
1419 Clouds 5 1015 75 0 6.7 270 01:30 04.01.2020
1420 Clouds 5 1016 81 0 12.3 290 00:41 04.01.2020
1421 Clouds 5 1016 80 0 5.7 260 00:22 04.01.2020
1422 Clouds 5 1018 75 0 6.7 280 23:42 03.01.2020
1423 Clouds 5 1015 80 0 6.2 270 23:23 03.01.2020
1424 Clouds 5 1016 81 0 10.8 290 22:41 03.01.2020
1425 Clouds 5 1015 86 0 4.1 260 22:20 03.01.2020
1426 Clouds 4 1014 86 0 3.6 270 21:59 03.01.2020
1427 Clouds 5 1015 81 0 10.3 300 21:38 03.01.2020
1428 Clouds 5 1014 86 0 3.6 270 21:19 03.01.2020
1429 Clouds 5 1014 86 0 3.6 270 20:58 03.01.2020
1430 Clouds 4 1014 86 0 3.6 260 20:40 03.01.2020
1431 Clouds 4 1014 86 0 3.6 260 20:18 03.01.2020
1432 Clouds 5 1014 93 0 7.7 300 19:57 03.01.2020
1433 Clouds 5 1014 93 0 7.7 300 19:38 03.01.2020
1434 Clouds 5 1013 86 10000 3.6 270 19:19 03.01.2020
1435 Clouds 5 1013 93 0 7.2 310 18:44 03.01.2020
1436 Clouds 5 1012 87 10000 4.6 300 18:25 03.01.2020
1437 Clouds 5 1012 100 0 6.2 320 17:56 03.01.2020
1438 Clouds 5 1012 100 0 6.2 320 17:38 03.01.2020
1439 Clouds 5 1012 100 0 6.2 320 17:37 03.01.2020
1440 Rain 5 1012 86 10000 3.6 290 17:19 03.01.2020
1441 Rain 5 1011 100 0 3.1 300 16:42 03.01.2020
1442 Clouds 6 1010 87 10000 3.1 310 16:24 03.01.2020
1443 Rain 6 1010 87 0 3.1 360 15:58 03.01.2020
1444 Rain 6 1010 87 0 3.1 360 15:40 03.01.2020
1445 Rain 6 1010 100 4500 6.2 260 15:18 03.01.2020
1446 Rain 7 1009 100 0 7.7 350 14:39 03.01.2020
1447 Drizzle 7 1009 100 2300 6.2 250 14:20 03.01.2020
1448 Rain 7 1008 100 0 7.7 270 13:56 03.01.2020
1449 Rain 7 1008 100 0 7.7 270 13:37 03.01.2020
1450 Drizzle 7 1009 93 3500 7.2 240 13:19 03.01.2020
1451 Rain 7 1008 93 0 7.2 260 12:40 03.01.2020
1452 Drizzle 7 1008 93 2000 4.1 240 12:21 03.01.2020
1453 Rain 7 1009 100 0 7.7 250 11:49 03.01.2020
1454 Drizzle 7 1010 93 3300 5.1 230 11:30 03.01.2020
1455 Rain 7 1009 100 0 9.3 250 10:48 03.01.2020
1456 Drizzle 7 1011 93 2500 6.2 230 10:28 03.01.2020
1457 Rain 7 1009 100 0 9.3 250 09:59 03.01.2020
1458 Rain 7 1009 100 0 9.3 250 09:41 03.01.2020
1459 Drizzle 7 1010 93 3700 6.2 220 09:23 03.01.2020
1460 Rain 7 1009 93 0 9.8 240 08:57 03.01.2020
1461 Rain 6 1009 93 0 9.8 240 08:39 03.01.2020
1462 Drizzle 6 1009 93 2300 5.7 230 08:21 03.01.2020
1463 Rain 6 1009 100 0 9.8 230 07:42 03.01.2020
1464 Drizzle 6 1009 93 3000 6.2 220 07:19 03.01.2020
1465 Rain 6 1009 93 0 9.8 230 06:57 03.01.2020
1466 Rain 6 1009 93 0 9.8 230 06:39 03.01.2020
1467 Rain 6 1009 93 0 6.2 220 06:20 03.01.2020
1468 Clouds 5 1010 87 0 10.3 230 04:45 03.01.2020
1469 Clouds 5 1011 87 0 10.3 230 03:38 03.01.2020
1470 Clouds 5 1012 93 0 9.8 230 02:53 03.01.2020
1471 Clouds 4 1013 93 0 8.2 220 01:51 03.01.2020
1472 Clouds 4 1013 93 0 5.7 210 01:31 03.01.2020
1473 Clouds 4 1014 93 0 8.2 220 00:40 03.01.2020
1474 Mist 3 1014 93 0 6.2 210 00:20 03.01.2020
1475 Clouds 3 1015 93 0 7.2 230 23:39 02.01.2020
1476 Mist 3 1015 93 0 6.2 210 23:20 02.01.2020
1477 Clouds 3 1016 93 0 9.3 230 22:59 02.01.2020
1478 Clouds 2 1016 93 0 9.3 230 22:41 02.01.2020
1479 Mist 2 1016 93 0 5.7 210 22:20 02.01.2020
1480 Clouds 2 1016 100 0 6.2 220 21:57 02.01.2020
1481 Clouds 2 1016 100 0 6.2 220 21:38 02.01.2020
1482 Mist 2 1017 100 0 4.6 200 21:19 02.01.2020
1483 Clouds 2 1017 100 0 6.7 210 20:56 02.01.2020
1484 Clouds 2 1017 100 0 6.7 210 20:37 02.01.2020
1485 Rain 2 1018 93 0 4.1 200 20:19 02.01.2020
1486 Clouds 2 1018 100 0 6.2 230 19:54 02.01.2020
1487 Clouds 2 1018 100 0 6.2 230 19:36 02.01.2020
1488 Drizzle 2 1018 93 0 5.7 200 19:18 02.01.2020
1489 Clouds 1 1018 93 0 7.7 230 18:54 02.01.2020
1490 Clouds 1 1018 93 0 7.7 230 18:36 02.01.2020
1491 Drizzle 1 1018 100 3000 5.1 220 18:18 02.01.2020
1492 Clouds 1 1019 100 0 7.2 230 17:55 02.01.2020
1493 Clouds 1 1019 100 0 7.2 230 17:36 02.01.2020
1494 Drizzle 1 1019 100 2500 5.7 220 17:18 02.01.2020
1495 Clouds 1 1019 90 0 7.7 230 16:41 02.01.2020
1496 Drizzle 1 1019 93 2200 6.2 210 16:21 02.01.2020
1497 Drizzle 1 1019 93 2200 6.2 210 15:59 02.01.2020
1498 Drizzle 1 1019 93 2000 5.7 210 15:40 02.01.2020
1499 Drizzle 1 1019 93 2000 5.7 210 15:40 02.01.2020
1500 Drizzle 1 1020 93 2000 5.1 220 15:22 02.01.2020
1501 Clouds 1 1020 93 0 6.2 230 14:57 02.01.2020
1502 Mist 1 1020 93 2000 4.6 210 14:37 02.01.2020
1503 Mist 1 1020 93 2500 4.1 220 14:18 02.01.2020
1504 Clouds 1 1021 100 0 4.6 220 13:55 02.01.2020
1505 Clouds 1 1021 100 0 4.6 220 13:36 02.01.2020
1506 Clouds 1 1022 93 0 6.7 240 12:58 02.01.2020
1507 Clouds 1 1022 93 0 6.7 240 12:39 02.01.2020
1508 Clouds 1 1023 93 0 5.1 250 12:20 02.01.2020
1509 Mist 1 1023 93 4500 3.6 240 11:41 02.01.2020
1510 Mist 1 1023 93 4000 4.6 230 11:21 02.01.2020
1511 Clouds 1 1024 93 0 5.1 250 10:45 02.01.2020
1512 Mist 1 1023 93 4000 3.6 230 10:27 02.01.2020
1513 Clouds 1 1024 93 0 7.2 250 09:56 02.01.2020
1514 Clouds 1 1024 93 0 7.2 250 09:35 02.01.2020
1515 Clouds 1 1024 93 0 5.7 240 08:58 02.01.2020
1516 Clouds 1 1024 93 0 5.7 240 08:39 02.01.2020
1517 Mist 1 1025 100 1800 3.6 220 08:19 02.01.2020
1518 Clouds 1 1024 100 0 6.2 240 07:47 02.01.2020
1519 Mist 1 1024 93 2500 3.6 230 07:26 02.01.2020
1520 Clouds 1 1024 100 0 5.7 240 06:41 02.01.2020
1521 Clouds 1 1024 100 0 5.7 240 06:41 02.01.2020
1522 Clouds 1 1024 93 0 6.2 250 05:40 02.01.2020
1523 Clouds 1 1025 93 0 5.7 250 04:34 02.01.2020
1524 Mist 2 1025 93 0 3.1 240 03:29 02.01.2020
1525 Mist 2 1025 93 0 3.1 240 03:29 02.01.2020
1526 Mist 2 1026 93 0 3.1 260 02:21 02.01.2020
1527 Clouds 1 1026 93 0 5.1 250 01:53 02.01.2020
1528 Clouds 1 1025 94 0 4.1 230 01:25 02.01.2020
1529 Clouds 1 1026 92 0 6.7 250 00:45 02.01.2020
1530 Clouds 1 1026 92 0 4.1 230 00:26 02.01.2020
1531 Clouds 1 1027 93 0 7.2 260 23:43 01.01.2020
1532 Clouds 1 1027 92 0 4.1 250 23:23 01.01.2020
1533 Clouds 1 1027 93 0 8.2 270 22:39 01.01.2020
1534 Clouds 1 1027 93 0 8.2 270 22:39 01.01.2020
1535 Clouds 1 1028 92 0 3.1 270 22:20 01.01.2020
1536 Clouds 1 1028 92 0 3.1 270 21:58 01.01.2020
1537 Clouds 1 1028 92 0 3.1 270 21:58 01.01.2020
1538 Clouds 0 1027 92 0 7.2 260 21:39 01.01.2020
1539 Clouds 1 1027 93 0 3.6 250 21:20 01.01.2020
1540 Clouds 1 1027 93 0 3.6 250 21:20 01.01.2020
1541 Clouds 1 1027 93 0 3.6 250 20:58 01.01.2020
1542 Clouds 1 1027 93 0 7.2 260 20:38 01.01.2020
1543 Clear 1 1027 93 0 3.6 250 20:20 01.01.2020
1544 Clear 1 1027 93 0 3.6 250 20:20 01.01.2020
1545 Clear 1 1027 93 0 6.7 250 19:57 01.01.2020
1546 Clear 1 1027 93 0 6.7 250 19:38 01.01.2020
1547 Clear 2 1028 86 0 3.1 230 19:20 01.01.2020
1548 Clear 2 1028 86 0 6.2 250 18:57 01.01.2020
1549 Clear 2 1028 86 0 6.2 250 18:38 01.01.2020
1550 Clear 2 1028 86 0 3.1 240 18:20 01.01.2020
1551 Clear 2 1028 86 0 3.1 240 17:58 01.01.2020
1552 Clear 2 1028 86 0 7.7 250 17:40 01.01.2020
1553 Clouds 2 1028 86 8000 5.7 240 17:19 01.01.2020
1554 Clear 2 1029 93 0 7.2 260 16:57 01.01.2020
1555 Clear 2 1029 93 0 7.2 260 16:38 01.01.2020
1556 Clear 2 1029 93 0 7.2 260 16:38 01.01.2020
1557 Clouds 3 1029 80 9000 5.1 250 16:19 01.01.2020
1558 Clear 3 1029 86 0 8.2 260 15:57 01.01.2020
1559 Clear 3 1029 86 0 8.2 260 15:57 01.01.2020
1560 Clear 3 1029 86 0 8.2 260 15:37 01.01.2020
1561 Clouds 3 1029 86 10000 3.6 260 15:19 01.01.2020
1562 Clear 4 1030 86 0 8.2 260 14:56 01.01.2020
1563 Clear 4 1030 86 0 8.2 260 14:37 01.01.2020
1564 Clouds 4 1029 80 10000 7.2 260 14:19 01.01.2020
1565 Clouds 4 1030 80 0 8.2 270 13:55 01.01.2020
1566 Clouds 4 1030 80 0 8.2 270 13:55 01.01.2020
1567 Clouds 4 1030 80 0 8.2 270 13:36 01.01.2020
1568 Clouds 5 1030 81 10000 7.2 240 13:18 01.01.2020
1569 Clouds 5 1030 86 0 9.3 270 12:40 01.01.2020
1570 Clouds 5 1030 81 0 4.6 260 12:19 01.01.2020
1571 Clouds 5 1031 81 0 9.8 270 11:57 01.01.2020
1572 Clouds 5 1031 81 0 9.8 270 11:39 01.01.2020
1573 Clear 5 1031 75 0 5.7 260 11:20 01.01.2020
1574 Clear 5 1031 86 0 8.7 280 10:55 01.01.2020
1575 Clear 5 1031 86 0 8.7 280 10:37 01.01.2020
1576 Clear 5 1031 75 0 5.1 260 10:18 01.01.2020
1577 Clear 5 1031 86 0 8.2 270 09:40 01.01.2020
1578 Clear 5 1031 75 0 4.6 270 09:22 01.01.2020
1579 Clear 5 1031 86 0 6.7 280 08:57 01.01.2020
1580 Clear 5 1031 86 0 6.7 280 08:38 01.01.2020
1581 Clear 5 1031 75 0 4.1 270 08:20 01.01.2020
1582 Clear 5 1031 75 0 4.1 270 07:58 01.01.2020
1583 Clear 5 1031 75 0 8.7 280 07:39 01.01.2020
1584 Clear 5 1031 75 0 4.1 260 07:19 01.01.2020
1585 Clear 5 1031 75 0 9.8 280 06:36 01.01.2020
1586 Clear 5 1031 80 0 7.7 280 05:51 01.01.2020
1587 Clear 4 1032 86 0 8.7 280 04:36 01.01.2020
1588 Clear 4 1032 86 0 8.7 280 03:40 01.01.2020
1589 Clear 4 1032 80 0 2.6 260 03:21 01.01.2020
1590 Clear 3 1032 86 0 6.7 280 02:43 01.01.2020
1591 Clear 3 1032 80 0 2.6 270 02:24 01.01.2020
1592 Clouds 3 1032 86 0 5.7 280 01:45 01.01.2020
1593 Clouds 3 1032 86 0 4.1 270 01:23 01.01.2020
1594 Clouds 2 1033 93 0 4.6 280 00:54 01.01.2020
1595 Clouds 2 1033 93 0 4.6 280 00:36 01.01.2020
1596 Clouds 2 1033 93 0 3.6 260 00:18 01.01.2020
1597 Clouds 2 1033 93 0 4.1 270 23:38 31.12.2019
1598 Clouds 2 1033 93 0 3.6 250 23:19 31.12.2019
1599 Clouds 2 1033 86 0 4.1 280 22:56 31.12.2019
1600 Clouds 2 1033 86 0 4.1 280 22:37 31.12.2019
1601 Clouds 2 1032 86 0 3.1 250 22:18 31.12.2019
1602 Clouds 2 1032 93 0 3.6 290 21:54 31.12.2019
1603 Clouds 2 1032 93 0 3.6 290 21:36 31.12.2019
1604 Clouds 2 1032 86 0 3.1 300 21:18 31.12.2019
1605 Clouds 2 1032 93 0 6.2 300 20:40 31.12.2019
1606 Clouds 2 1032 85 10000 3.1 290 20:21 31.12.2019
1607 Clouds 3 1032 93 0 6.2 300 19:59 31.12.2019
1608 Clouds 3 1032 93 0 6.2 300 19:40 31.12.2019
1609 Clouds 3 1031 80 0 6.2 300 19:22 31.12.2019
1610 Clouds 4 1031 86 10000 6.7 300 18:57 31.12.2019
1611 Clouds 4 1031 86 10000 6.7 300 18:39 31.12.2019
1612 Clouds 4 1031 80 0 5.7 290 18:19 31.12.2019
1613 Clouds 4 1031 86 10000 5.7 310 17:56 31.12.2019
1614 Clouds 4 1031 86 10000 5.7 310 17:37 31.12.2019
1615 Clouds 5 1031 86 10000 4.1 290 17:19 31.12.2019
1616 Clouds 5 1031 86 10000 4.1 290 17:19 31.12.2019
1617 Clouds 5 1031 86 10000 5.1 310 16:56 31.12.2019
1618 Clouds 5 1031 86 10000 5.1 310 16:38 31.12.2019
1619 Clouds 6 1030 75 0 5.1 300 16:19 31.12.2019
1620 Clouds 6 1030 81 10000 5.7 310 15:56 31.12.2019
1621 Clouds 6 1030 81 10000 5.7 310 15:38 31.12.2019
1622 Clouds 6 1030 81 10000 5.7 310 15:38 31.12.2019
1623 Clouds 7 1029 75 0 6.7 300 15:20 31.12.2019
1624 Clouds 7 1029 75 0 6.7 300 14:57 31.12.2019
1625 Clouds 7 1029 75 10000 7.7 320 14:38 31.12.2019
1626 Clear 7 1029 75 0 7.7 310 14:19 31.12.2019
1627 Clouds 7 1029 75 10000 9.3 330 13:57 31.12.2019
1628 Clouds 7 1029 75 10000 9.3 330 13:39 31.12.2019
1629 Clouds 7 1028 75 0 8.2 310 13:21 31.12.2019
1630 Clouds 7 1028 75 0 8.2 310 13:21 31.12.2019
1631 Clouds 7 1029 75 10000 9.3 330 12:58 31.12.2019
1632 Clouds 7 1029 75 10000 9.3 330 12:39 31.12.2019
1633 Clouds 7 1028 81 0 6.7 300 12:20 31.12.2019
1634 Clouds 7 1028 81 10000 10.3 320 11:56 31.12.2019
1635 Clouds 7 1028 81 10000 10.3 320 11:38 31.12.2019
1636 Clouds 7 1027 75 0 6.7 300 11:20 31.12.2019
1637 Clouds 7 1026 81 10000 10.3 320 10:57 31.12.2019
1638 Clouds 7 1026 81 10000 10.3 320 10:57 31.12.2019
1639 Clouds 6 1026 81 10000 10.3 320 10:38 31.12.2019
1640 Clouds 6 1026 81 0 6.7 290 10:20 31.12.2019
1641 Clouds 6 1026 87 10000 10.8 320 09:59 31.12.2019
1642 Clouds 6 1026 87 10000 10.8 320 09:39 31.12.2019
1643 Clouds 6 1024 81 0 6.7 290 09:20 31.12.2019
1644 Clouds 6 1024 81 10000 13.4 310 08:57 31.12.2019
1645 Clouds 6 1024 81 10000 13.4 310 08:39 31.12.2019
1646 Clouds 6 1023 81 0 7.7 280 08:19 31.12.2019
1647 Clouds 6 1024 81 10000 11.3 300 07:43 31.12.2019
1648 Clouds 6 1023 81 10000 6.2 280 07:20 31.12.2019
1649 Clouds 6 1023 87 10000 9.8 310 06:50 31.12.2019
1650 Clouds 6 1023 81 10000 9.8 310 05:57 31.12.2019
1651 Clouds 6 1021 81 0 7.2 290 04:29 31.12.2019
1652 Clouds 6 1021 93 10000 10.3 310 03:38 31.12.2019
1653 Clouds 7 1020 87 10000 9.8 310 02:55 31.12.2019
1654 Clouds 7 1019 81 0 6.7 290 02:19 31.12.2019
1655 Clouds 7 1019 93 10000 10.8 310 01:48 31.12.2019
1656 Clouds 7 1019 87 0 6.2 290 01:27 31.12.2019
1657 Clouds 7 1019 93 10000 10.8 310 00:46 31.12.2019
1658 Clouds 7 1019 93 8000 11.8 290 00:22 31.12.2019
1659 Drizzle 7 1019 93 3000 12.3 290 23:57 30.12.2019
1660 Drizzle 7 1019 93 3000 12.3 290 23:38 30.12.2019
1661 Drizzle 7 1019 93 4500 9.8 280 23:20 30.12.2019
1662 Drizzle 7 1019 87 8000 10.3 280 22:58 30.12.2019
1663 Drizzle 7 1019 87 8000 10.3 280 22:39 30.12.2019
1664 Clouds 7 1018 93 0 5.7 250 22:20 30.12.2019
1665 Clouds 7 1019 93 8000 8.7 260 21:57 30.12.2019
1666 Clouds 7 1019 93 8000 8.7 260 21:38 30.12.2019
1667 Clouds 7 1018 87 0 6.7 260 21:19 30.12.2019
1668 Clouds 6 1019 93 8000 12.9 270 20:57 30.12.2019
1669 Clouds 6 1019 93 8000 12.9 270 20:39 30.12.2019
1670 Clouds 6 1018 87 0 7.7 260 20:20 30.12.2019
1671 Clouds 6 1018 93 8000 7.7 250 19:58 30.12.2019
1672 Clouds 6 1019 93 8000 11.3 260 19:38 30.12.2019
1673 Clouds 6 1018 87 0 7.2 260 19:19 30.12.2019
1674 Clouds 6 1018 87 0 7.2 260 18:58 30.12.2019
1675 Clouds 6 1019 93 0 10.3 260 18:40 30.12.2019
1676 Clouds 6 1018 87 0 6.2 240 18:20 30.12.2019
1677 Clouds 6 1019 87 0 8.7 250 17:56 30.12.2019
1678 Clouds 6 1019 87 0 8.7 250 17:38 30.12.2019
1679 Clouds 6 1019 87 10000 5.1 250 17:19 30.12.2019
1680 Clouds 6 1020 81 0 8.2 250 16:58 30.12.2019
1681 Clouds 6 1020 81 0 8.2 250 16:37 30.12.2019
1682 Clouds 6 1019 87 10000 7.2 240 16:19 30.12.2019
1683 Clouds 6 1020 81 0 8.7 240 15:56 30.12.2019
1684 Clouds 6 1020 81 0 8.7 240 15:37 30.12.2019
1685 Clouds 7 1019 81 10000 4.6 240 15:18 30.12.2019
1686 Clouds 7 1020 81 0 8.7 250 14:43 30.12.2019
1687 Clouds 7 1020 81 10000 3.6 240 14:20 30.12.2019
1688 Clouds 7 1020 81 10000 3.6 240 13:58 30.12.2019
1689 Clouds 7 1021 81 0 8.7 250 13:40 30.12.2019
1690 Clouds 7 1021 81 10000 5.7 250 13:21 30.12.2019
1691 Clouds 7 1022 75 0 10.8 260 12:56 30.12.2019
1692 Clouds 7 1022 75 0 10.8 260 12:37 30.12.2019
1693 Clouds 7 1022 81 0 5.1 250 12:18 30.12.2019
1694 Clouds 6 1022 81 0 8.2 260 11:45 30.12.2019
1695 Clouds 6 1021 81 0 4.6 230 11:20 30.12.2019
1696 Clouds 6 1022 81 0 10.8 250 10:59 30.12.2019
1697 Clouds 6 1022 81 0 10.8 250 10:40 30.12.2019
1698 Clouds 6 1021 93 10000 8.2 230 10:19 30.12.2019
1699 Clouds 6 1022 75 0 8.2 250 09:42 30.12.2019
1700 Clouds 6 1022 75 0 4.1 230 09:21 30.12.2019
1701 Clouds 6 1023 70 0 10.3 250 08:57 30.12.2019
1702 Clouds 6 1023 70 0 10.3 250 08:38 30.12.2019
1703 Clouds 6 1022 70 0 4.1 240 08:19 30.12.2019
1704 Clouds 6 1023 70 0 8.7 260 07:46 30.12.2019
1705 Clouds 6 1023 65 0 5.7 230 07:23 30.12.2019
1706 Clouds 6 1023 70 0 5.7 240 06:30 30.12.2019
1707 Clouds 5 1024 78 0 5.1 230 04:31 30.12.2019
1708 Clouds 5 1025 60 0 9.8 250 03:47 30.12.2019
1709 Clouds 5 1026 60 0 9.8 260 02:47 30.12.2019
1710 Clouds 5 1026 60 0 4.6 240 02:26 30.12.2019
1711 Clouds 4 1026 60 0 4.6 220 01:27 30.12.2019
1712 Clouds 4 1026 60 0 4.6 220 00:59 30.12.2019
1713 Clouds 4 1026 60 0 8.2 240 00:39 30.12.2019
1714 Clouds 4 1027 64 0 8.2 230 23:55 29.12.2019
1715 Clouds 4 1027 64 0 8.2 230 23:36 29.12.2019
1716 Clouds 4 1027 64 0 4.1 210 23:18 29.12.2019
1717 Clouds 3 1028 64 0 7.7 230 22:40 29.12.2019
1718 Clouds 3 1028 64 0 5.1 210 22:21 29.12.2019
1719 Clouds 3 1029 64 0 6.7 230 21:56 29.12.2019
1720 Clouds 3 1029 64 0 6.7 230 21:38 29.12.2019
1721 Clouds 3 1029 69 0 5.7 210 21:19 29.12.2019
1722 Clouds 3 1029 69 0 7.2 240 20:55 29.12.2019
1723 Clouds 3 1029 69 0 7.2 240 20:37 29.12.2019
1724 Clouds 3 1029 69 0 6.2 210 20:18 29.12.2019
1725 Clouds 3 1030 69 0 7.2 240 19:56 29.12.2019
1726 Clouds 3 1030 69 0 7.2 240 19:37 29.12.2019
1727 Clouds 3 1029 69 0 4.1 220 19:19 29.12.2019
1728 Clouds 3 1029 79 10000 7.7 230 18:55 29.12.2019
1729 Clouds 3 1029 79 10000 7.7 230 18:37 29.12.2019
1730 Clouds 3 1029 80 0 6.2 200 18:18 29.12.2019
1731 Clouds 3 1031 86 10000 7.7 240 17:56 29.12.2019
1732 Clouds 3 1031 86 10000 7.7 240 17:38 29.12.2019
1733 Clouds 3 1030 93 6000 6.7 220 17:19 29.12.2019
1734 Clouds 3 1031 86 8000 6.2 240 16:56 29.12.2019
1735 Clouds 3 1031 86 8000 6.2 240 16:36 29.12.2019
1736 Clouds 2 1031 86 8000 4.6 220 16:18 29.12.2019
1737 Clouds 2 1031 86 8000 6.7 230 15:56 29.12.2019
1738 Clouds 2 1031 86 8000 6.7 230 15:38 29.12.2019
1739 Clouds 2 1032 86 10000 4.1 200 15:19 29.12.2019
1740 Clouds 2 1032 86 8000 6.7 250 14:55 29.12.2019
1741 Clouds 2 1032 86 8000 6.7 250 14:37 29.12.2019
1742 Clouds 2 1032 86 8000 6.7 250 14:37 29.12.2019
1743 Clouds 2 1032 86 10000 3.6 220 14:18 29.12.2019
1744 Clouds 2 1033 73 8000 5.7 250 13:55 29.12.2019
1745 Clouds 2 1033 73 8000 5.7 250 13:37 29.12.2019
1746 Clouds 2 1033 75 10000 5.1 210 13:18 29.12.2019
1747 Clouds 2 1033 75 8000 4.6 240 12:42 29.12.2019
1748 Clouds 1 1033 75 0 5.7 210 12:24 29.12.2019
1749 Clouds 1 1034 80 8000 4.6 220 11:56 29.12.2019
1750 Clouds 1 1034 80 8000 4.6 220 11:37 29.12.2019
1751 Clouds 1 1034 80 8000 4.6 220 11:37 29.12.2019
1752 Clouds 1 1034 80 8000 4.6 220 11:37 29.12.2019
1753 Clouds 1 1034 85 0 4.6 210 11:19 29.12.2019
1754 Clouds 1 1034 86 8000 4.1 210 10:42 29.12.2019
1755 Clouds 1 1034 80 0 4.1 210 10:23 29.12.2019
1756 Clouds 1 1034 86 8000 4.6 220 09:57 29.12.2019
1757 Clouds 1 1034 86 8000 4.6 220 09:38 29.12.2019
1758 Clouds 1 1035 85 0 3.6 210 09:20 29.12.2019
1759 Clouds 1 1035 86 10000 4.1 240 08:47 29.12.2019
1760 Clouds 0 1036 85 10000 4.1 210 08:24 29.12.2019
1761 Clouds 0 1035 86 10000 4.6 220 07:55 29.12.2019
1762 Clouds 0 1035 86 0 5.1 200 07:28 29.12.2019
1763 Clouds 0 1035 90 0 4.6 210 06:55 29.12.2019
1764 Clouds 0 1035 86 0 3.6 200 06:25 29.12.2019
1765 Clouds 0 1036 90 0 5.1 220 05:51 29.12.2019
1766 Clouds 0 1036 91 0 4.6 210 04:36 29.12.2019
1767 Clouds 0 1037 91 0 4.6 190 03:51 29.12.2019
1768 Clouds -1 1037 86 0 3.6 190 03:20 29.12.2019
1769 Clouds -1 1038 90 0 3.1 200 02:20 29.12.2019
1770 Clouds -1 1037 90 0 4.6 210 01:31 29.12.2019
1771 Clouds -1 1037 90 0 4.6 210 01:31 29.12.2019
1772 Clouds -1 1037 90 0 4.6 210 01:31 29.12.2019
1773 Clouds -1 1038 88 0 3.6 210 00:58 29.12.2019
1774 Clouds -1 1038 88 0 3.6 210 00:40 29.12.2019
1775 Clouds 0 1038 80 0 3.1 190 00:21 29.12.2019
1776 Clouds 0 1038 88 0 5.1 210 23:43 28.12.2019
1777 Clouds 0 1038 80 0 3.6 180 23:18 28.12.2019
1778 Clouds 0 1039 84 0 4.1 190 22:39 28.12.2019
1779 Clouds 0 1040 80 0 3.1 180 22:21 28.12.2019
1780 Clouds 0 1040 80 0 3.1 180 21:58 28.12.2019
1781 Clouds 0 1040 84 0 4.1 210 21:39 28.12.2019
1782 Clouds 0 1040 80 0 4.1 190 21:21 28.12.2019
1783 Clouds 0 1039 84 0 3.6 180 20:58 28.12.2019
1784 Clouds 0 1039 84 0 3.6 180 20:38 28.12.2019
1785 Clouds 0 1040 80 0 3.6 180 20:20 28.12.2019
1786 Clouds 0 1040 80 0 3.6 180 19:58 28.12.2019
1787 Clouds 0 1040 84 0 5.1 180 19:39 28.12.2019
1788 Clouds 0 1040 80 0 2.6 190 19:21 28.12.2019
1789 Clouds 0 1040 80 0 4.1 190 18:58 28.12.2019
1790 Clouds 0 1040 80 0 4.1 190 18:40 28.12.2019
1791 Clouds 0 1040 80 0 2.6 190 18:19 28.12.2019
1792 Clouds 0 1040 80 0 4.1 190 17:55 28.12.2019
1793 Clouds 0 1040 80 0 4.1 190 17:37 28.12.2019
1794 Clouds 0 1041 80 10000 2.6 200 17:18 28.12.2019
1795 Clouds 0 1040 80 0 2.6 200 16:46 28.12.2019
1796 Clouds 0 1041 87 10000 3.1 180 16:26 28.12.2019
1797 Clouds 0 1040 80 0 4.1 180 15:47 28.12.2019
1798 Clouds 1 1041 74 10000 2.6 190 15:25 28.12.2019
1799 Clouds 1 1040 87 10000 3.6 160 14:59 28.12.2019
1800 Clouds 1 1041 80 0 4.1 180 14:40 28.12.2019
1801 Clouds 1 1041 80 0 4.1 180 14:40 28.12.2019
1802 Clouds 1 1041 80 10000 4.1 160 14:21 28.12.2019
1803 Clouds 1 1041 80 0 3.1 170 13:57 28.12.2019
1804 Clouds 1 1041 80 0 3.1 170 13:38 28.12.2019
1805 Clouds 1 1042 80 10000 2.1 170 13:19 28.12.2019
1806 Clouds 1 1042 81 10000 2.1 170 13:19 28.12.2019
1807 Clouds 1 1042 80 0 3.6 170 12:43 28.12.2019
1808 Clouds 1 1042 74 10000 3.1 170 12:24 28.12.2019
1809 Clouds 1 1042 74 10000 3.1 170 12:24 28.12.2019
1810 Clouds 0 1042 80 0 3.6 170 11:57 28.12.2019
1811 Clouds 0 1042 80 0 3.6 170 11:39 28.12.2019
1812 Clouds 0 1042 80 0 2.1 150 11:20 28.12.2019
1813 Clouds -1 1041 92 0 4.1 160 10:46 28.12.2019
1814 Clouds -1 1041 92 0 4.1 160 10:46 28.12.2019
1815 Clouds -1 1042 69 10000 1.5 140 10:22 28.12.2019
1816 Clouds -1 1042 69 10000 1.5 140 10:22 28.12.2019
1817 Clouds -1 1042 69 10000 1.5 140 10:22 28.12.2019
1818 Clouds -1 1042 69 10000 1.5 140 10:22 28.12.2019
1819 Clouds -2 1042 80 0 1 190 09:58 28.12.2019
1820 Clouds -2 1041 100 0 3.6 170 09:40 28.12.2019
1821 Clouds -2 1041 80 0 1 210 09:20 28.12.2019
1822 Clouds -2 1041 80 0 1 210 09:20 28.12.2019
1823 Clouds -2 1041 100 0 2.1 180 08:45 28.12.2019
1824 Clouds -2 1041 90 10000 1.5 120 08:27 28.12.2019
1825 Clouds -2 1041 92 0 2.1 170 07:57 28.12.2019
1826 Clouds -1 1041 92 0 2.1 170 07:39 28.12.2019
1827 Clouds -2 1041 100 10000 2.6 160 06:50 28.12.2019
1828 Clouds -1 1041 74 0 2.6 110 05:31 28.12.2019
1829 Clouds 0 1040 86 10000 2.1 150 03:47 28.12.2019
1830 Clouds 0 1040 88 10000 1.5 110 02:49 28.12.2019
1831 Clouds 0 1040 86 0 1 80 02:19 28.12.2019
1832 Clouds 0 1040 80 10000 1 350 01:50 28.12.2019
1833 Clouds 0 1039 86 0 1.01 100 01:21 28.12.2019
1834 Clouds -1 1039 86 10000 1.01 100 00:42 28.12.2019
1835 Clouds 0 1039 86 0 2.6 70 00:23 28.12.2019
1836 Clouds 0 1039 86 0 2.6 70 00:23 28.12.2019
1837 Clouds 0 1038 80 10000 1 100 23:56 27.12.2019
1838 Clouds 0 1038 80 10000 1 100 23:36 27.12.2019
1839 Clouds 0 1038 80 0 3.6 90 23:18 27.12.2019
1840 Clouds 0 1038 74 10000 3.1 110 22:55 27.12.2019
1841 Clouds 0 1038 74 10000 3.1 110 22:37 27.12.2019
1842 Clouds 1 1038 82 0 2.6 50 22:19 27.12.2019
1843 Clouds 1 1038 74 10000 2.6 90 21:41 27.12.2019
1844 Clouds 1 1038 82 0 2.6 60 21:23 27.12.2019
1845 Clouds 2 1037 80 10000 1.5 0 20:44 27.12.2019
1846 Clouds 2 1038 82 0 3.1 50 20:26 27.12.2019
1847 Clouds 2 1037 76 10000 2.1 90 19:57 27.12.2019
1848 Clouds 2 1037 76 10000 2.1 90 19:38 27.12.2019
1849 Clouds 2 1037 74 0 0.5 60 19:19 27.12.2019
1850 Clouds 2 1037 74 0 2.6 60 18:55 27.12.2019
1851 Clouds 2 1037 74 0 2.6 60 18:36 27.12.2019
1852 Clouds 3 1036 76 0 1.5 50 18:18 27.12.2019
1853 Clouds 3 1036 74 0 3.1 30 17:55 27.12.2019
1854 Clouds 3 1036 74 0 3.1 30 17:36 27.12.2019
1855 Clouds 3 1035 77 10000 2.1 360 17:18 27.12.2019
1856 Clouds 3 1035 74 0 2.1 60 16:41 27.12.2019
1857 Clouds 3 1034 74 10000 3.6 50 16:23 27.12.2019
1858 Clouds 3 1033 74 0 2.1 80 15:57 27.12.2019
1859 Clouds 3 1033 74 0 2.1 80 15:37 27.12.2019
1860 Clouds 3 1033 74 0 2.1 80 15:37 27.12.2019
1861 Clouds 3 1034 69 10000 4.1 40 15:19 27.12.2019
1862 Clouds 3 1033 69 0 4.1 60 14:56 27.12.2019
1863 Clouds 3 1033 69 0 4.1 60 14:38 27.12.2019
1864 Clouds 3 1033 74 10000 3.6 40 14:19 27.12.2019
1865 Clouds 3 1033 74 0 3.6 60 13:47 27.12.2019
1866 Clouds 3 1032 74 10000 4.1 40 13:24 27.12.2019
1867 Clouds 3 1032 69 0 2.6 70 12:56 27.12.2019
1868 Clouds 3 1032 69 0 2.6 70 12:37 27.12.2019
1869 Clouds 3 1032 77 10000 4.1 40 12:18 27.12.2019
1870 Clouds 3 1032 77 10000 4.1 40 12:18 27.12.2019
1871 Clouds 3 1032 74 0 3.6 70 11:42 27.12.2019
1872 Clouds 2 1032 80 10000 4.1 20 11:20 27.12.2019
1873 Clouds 2 1031 82 0 3.1 60 10:54 27.12.2019
1874 Clouds 2 1031 82 0 3.1 60 10:36 27.12.2019
1875 Clouds 2 1031 82 10000 5.1 50 10:18 27.12.2019
1876 Clouds 2 1030 82 0 2.6 80 09:40 27.12.2019
1877 Clouds 2 1030 86 0 3.1 20 09:21 27.12.2019
1878 Clouds 2 1029 80 0 2.6 70 08:54 27.12.2019
1879 Clouds 2 1029 80 0 2.6 70 08:34 27.12.2019
1880 Clouds 2 1028 80 0 3.1 70 07:50 27.12.2019
1881 Clouds 2 1028 90 0 3.1 50 07:31 27.12.2019
1882 Clouds 2 1027 90 0 3.1 50 06:36 27.12.2019
1883 Clouds 1 1026 89 0 4.1 70 04:59 27.12.2019
1884 Clouds 1 1026 89 10000 1 50 03:26 27.12.2019
1885 Clouds 1 1025 93 0 1.5 60 01:59 27.12.2019
1886 Clouds 1 1024 91 0 3.1 70 01:37 27.12.2019
1887 Clouds 2 1024 91 0 2.1 40 01:18 27.12.2019
1888 Clouds 2 1024 92 0 3.1 80 00:41 27.12.2019
1889 Clouds 2 1024 92 0 1.5 40 00:23 27.12.2019
1890 Clouds 3 1024 93 0 2.6 100 23:41 26.12.2019
1891 Clouds 3 1024 92 0 1.5 40 23:22 26.12.2019
1892 Clouds 3 1023 86 0 2.6 90 22:47 26.12.2019
1893 Clouds 3 1023 86 0 2.1 50 22:23 26.12.2019
1894 Clouds 4 1023 86 0 2.1 50 21:59 26.12.2019
1895 Clouds 4 1023 93 0 3.1 90 21:39 26.12.2019
1896 Clouds 4 1023 86 0 1.5 50 21:20 26.12.2019
1897 Clouds 4 1023 93 0 2.1 90 20:46 26.12.2019
1898 Clouds 4 1023 80 0 2.6 70 20:23 26.12.2019
1899 Clouds 4 1022 93 0 1.5 0 19:59 26.12.2019
1900 Clouds 4 1022 93 0 1.5 0 19:40 26.12.2019
1901 Clouds 5 1022 86 0 1.5 80 19:22 26.12.2019
1902 Clouds 5 1022 86 0 1.5 80 18:58 26.12.2019
1903 Clouds 5 1022 93 10000 1.5 300 18:40 26.12.2019
1904 Drizzle 5 1022 93 0 3.1 40 18:19 26.12.2019
1905 Clouds 5 1022 87 10000 2.6 280 17:57 26.12.2019
1906 Clouds 5 1022 87 10000 2.6 280 17:38 26.12.2019
1907 Clouds 5 1022 87 10000 2.6 280 17:38 26.12.2019
1908 Clouds 5 1022 87 10000 2.6 280 17:38 26.12.2019
1909 Clouds 5 1022 87 10000 1 340 17:19 26.12.2019
1910 Clouds 5 1022 87 10000 2.6 260 16:45 26.12.2019
1911 Rain 5 1022 93 10000 2.6 290 16:24 26.12.2019
1912 Clouds 6 1021 93 10000 2.1 300 15:56 26.12.2019
1913 Clouds 6 1021 93 10000 2.1 300 15:38 26.12.2019
1914 Clouds 6 1021 81 10000 3.1 320 15:18 26.12.2019
1915 Clouds 6 1021 93 10000 4.1 290 14:41 26.12.2019
1916 Clouds 6 1021 93 10000 1.5 280 14:22 26.12.2019
1917 Clouds 6 1021 93 10000 4.1 290 13:45 26.12.2019
1918 Clouds 6 1022 93 10000 3.1 270 13:24 26.12.2019
1919 Clouds 6 1022 93 10000 4.1 290 12:58 26.12.2019
1920 Clouds 6 1022 93 10000 4.1 290 12:40 26.12.2019
1921 Clouds 6 1022 93 10000 2.1 270 12:21 26.12.2019
1922 Rain 5 1022 93 7000 5.7 320 11:58 26.12.2019
1923 Rain 5 1022 93 7000 5.7 320 11:40 26.12.2019
1924 Clouds 5 1021 87 10000 2.6 250 11:21 26.12.2019
1925 Rain 5 1022 100 7000 4.6 290 10:49 26.12.2019
1926 Rain 4 1022 87 4000 4.1 280 10:24 26.12.2019
1927 Clouds 4 1021 93 10000 4.1 290 09:54 26.12.2019
1928 Clouds 4 1021 93 10000 4.1 290 09:33 26.12.2019
1929 Clouds 3 1021 93 0 2.6 270 08:59 26.12.2019
1930 Clouds 4 1021 93 10000 4.1 300 08:39 26.12.2019
1931 Clear 3 1020 93 0 3.1 270 08:20 26.12.2019
1932 Clouds 3 1021 93 10000 5.7 310 07:38 26.12.2019
1933 Clear 4 1020 86 0 2.6 270 07:19 26.12.2019
1934 Clear 4 1020 93 0 6.2 300 06:37 26.12.2019
1935 Clear 4 1020 87 0 3.6 280 06:19 26.12.2019
1936 Clear 4 1020 93 0 6.7 300 05:41 26.12.2019
1937 Clear 5 1021 87 0 6.7 310 04:33 26.12.2019
1938 Clear 5 1020 87 0 2.6 260 03:31 26.12.2019
1939 Clear 5 1021 87 0 5.1 280 02:46 26.12.2019
1940 Clear 5 1020 87 0 4.1 270 02:27 26.12.2019
1941 Clear 5 1020 87 0 6.2 290 01:44 26.12.2019
1942 Clear 5 1020 87 0 4.1 270 01:25 26.12.2019
1943 Clear 5 1020 93 0 6.7 280 00:44 26.12.2019
1944 Clear 5 1019 87 0 3.6 270 00:23 26.12.2019
1945 Clear 5 1020 87 0 8.2 290 23:57 25.12.2019
1946 Clear 5 1020 87 0 8.2 290 23:37 25.12.2019
1947 Clear 5 1019 87 0 3.6 260 23:19 25.12.2019
1948 Clear 5 1019 87 0 6.2 280 22:56 25.12.2019
1949 Clear 5 1019 87 0 6.2 280 22:37 25.12.2019
1950 Clear 5 1019 87 0 2.6 260 22:18 25.12.2019
1951 Clear 5 1019 87 0 5.7 290 21:55 25.12.2019
1952 Clear 5 1019 87 0 5.7 290 21:37 25.12.2019
1953 Clear 5 1019 87 0 3.1 260 21:19 25.12.2019
1954 Clear 5 1019 87 0 6.2 280 20:40 25.12.2019
1955 Clouds 5 1019 87 0 3.1 270 20:21 25.12.2019
1956 Clear 5 1019 93 0 5.1 290 19:59 25.12.2019
1957 Clear 5 1019 93 0 5.1 290 19:41 25.12.2019
1958 Clear 5 1018 87 0 3.6 270 19:21 25.12.2019
1959 Clear 5 1018 93 0 4.6 290 18:40 25.12.2019
1960 Clear 5 1018 87 0 3.1 270 18:21 25.12.2019
1961 Clear 5 1018 87 0 3.1 270 17:59 25.12.2019
1962 Clear 6 1018 87 0 5.1 300 17:39 25.12.2019
1963 Clear 6 1018 87 0 3.6 270 17:18 25.12.2019
1964 Clear 6 1018 87 0 4.1 280 16:55 25.12.2019
1965 Clear 6 1018 87 0 4.1 280 16:36 25.12.2019
1966 Clear 6 1017 75 0 3.6 280 16:18 25.12.2019
1967 Clear 6 1017 87 0 3.6 310 15:56 25.12.2019
1968 Clear 6 1017 87 0 3.6 310 15:37 25.12.2019
1969 Clear 6 1016 75 0 4.1 300 15:18 25.12.2019
1970 Clear 6 1016 87 0 6.2 340 14:55 25.12.2019
1971 Clear 6 1016 87 0 6.2 340 14:37 25.12.2019
1972 Clouds 6 1015 87 0 4.1 310 14:18 25.12.2019
1973 Clouds 6 1015 87 0 5.7 320 13:42 25.12.2019
1974 Clouds 6 1015 87 0 4.1 310 13:21 25.12.2019
1975 Clouds 6 1014 93 0 4.1 320 12:44 25.12.2019
1976 Clouds 6 1014 93 0 4.6 300 12:22 25.12.2019
1977 Clouds 6 1014 93 0 4.6 320 11:58 25.12.2019
1978 Clouds 6 1014 93 0 4.6 320 11:40 25.12.2019
1979 Clouds 6 1013 93 0 3.1 290 11:21 25.12.2019
1980 Clouds 5 1013 93 0 4.1 290 10:41 25.12.2019
1981 Clouds 5 1012 93 0 2.1 260 10:21 25.12.2019
1982 Clouds 5 1012 93 0 2.1 260 09:59 25.12.2019
1983 Clouds 5 1012 93 0 3.1 280 09:41 25.12.2019
1984 Clouds 5 1011 93 10000 1.5 290 09:23 25.12.2019
1985 Clouds 5 1011 100 0 3.1 270 08:44 25.12.2019
1986 Clouds 5 1011 100 10000 2.1 280 08:24 25.12.2019
1987 Clouds 5 1011 100 10000 2.1 280 08:24 25.12.2019
1988 Clouds 5 1010 100 0 4.1 270 07:44 25.12.2019
1989 Clouds 5 1010 100 0 2.6 250 07:23 25.12.2019
1990 Drizzle 5 1009 100 900 2.6 250 06:24 25.12.2019
1991 Clouds 4 1009 100 0 3.6 260 05:51 25.12.2019
1992 Rain 4 1009 100 0 3.6 260 04:47 25.12.2019
1993 Rain 4 1008 100 0 1 240 04:25 25.12.2019
1994 Rain 4 1008 100 0 3.6 270 03:52 25.12.2019
1995 Rain 4 1008 100 0 3.6 270 03:32 25.12.2019
1996 Rain 4 1008 100 0 2.6 270 02:32 25.12.2019
1997 Rain 4 1007 100 0 2.6 270 01:54 25.12.2019
1998 Rain 4 1007 93 0 1.5 280 01:24 25.12.2019
1999 Rain 4 1007 93 0 2.6 270 00:46 25.12.2019
2000 Rain 4 1007 100 0 1.5 300 00:27 25.12.2019
2001 Rain 4 1006 100 0 2.6 280 23:55 24.12.2019
2002 Rain 4 1006 100 0 2.6 280 23:36 24.12.2019
2003 Rain 4 1006 93 0 1 290 23:18 24.12.2019
2004 Rain 4 1006 100 0 2.1 290 22:38 24.12.2019
2005 Rain 4 1005 93 0 1.5 260 22:20 24.12.2019
2006 Rain 4 1005 93 0 1.5 260 22:20 24.12.2019
2007 Rain 5 1005 100 0 2.6 280 21:42 24.12.2019
2008 Mist 5 1005 93 0 1.5 240 21:22 24.12.2019
2009 Mist 5 1005 93 0 1.5 240 21:22 24.12.2019
2010 Rain 5 1005 93 0 2.1 260 20:45 24.12.2019
2011 Mist 5 1005 93 0 1 160 20:24 24.12.2019
2012 Rain 5 1004 100 0 1.5 210 19:57 24.12.2019
2013 Rain 5 1004 100 0 1.5 210 19:39 24.12.2019
2014 Rain 5 1004 93 0 1.5 160 19:19 24.12.2019
2015 Rain 5 1004 93 0 1 0 18:42 24.12.2019
2016 Rain 6 1004 93 0 1 160 18:23 24.12.2019
2017 Rain 6 1004 93 0 1 160 17:58 24.12.2019
2018 Rain 6 1004 93 0 2.1 180 17:37 24.12.2019
2019 Drizzle 6 1004 93 0 2.1 170 17:19 24.12.2019
2020 Clouds 6 1004 93 0 2.6 170 16:55 24.12.2019
2021 Clouds 6 1004 93 0 2.6 170 16:36 24.12.2019
2022 Clouds 6 1004 93 0 2.1 160 16:18 24.12.2019
2023 Clouds 6 1003 93 0 2.6 180 15:54 24.12.2019
2024 Clouds 6 1003 93 0 2.6 180 15:36 24.12.2019
2025 Clouds 6 1004 93 0 3.1 200 15:18 24.12.2019
2026 Clouds 6 1004 93 0 3.1 200 14:54 24.12.2019
2027 Clouds 6 1004 93 0 3.1 200 14:36 24.12.2019
2028 Clouds 6 1004 93 10000 3.1 200 14:18 24.12.2019
2029 Clouds 6 1004 87 0 4.1 200 13:54 24.12.2019
2030 Clouds 6 1004 87 0 4.1 200 13:36 24.12.2019
2031 Clouds 6 1005 81 0 3.6 200 13:18 24.12.2019
2032 Clouds 6 1005 81 0 6.2 230 12:54 24.12.2019
2033 Clouds 6 1005 81 0 6.2 230 12:36 24.12.2019
2034 Clouds 6 1005 93 10000 4.6 210 12:18 24.12.2019
2035 Clouds 6 1005 93 0 6.2 210 11:54 24.12.2019
2036 Clouds 6 1005 93 0 6.2 210 11:36 24.12.2019
2037 Rain 6 1006 87 0 4.6 210 11:18 24.12.2019
2038 Rain 6 1006 87 0 5.7 220 10:54 24.12.2019
2039 Rain 6 1006 87 0 5.7 220 10:36 24.12.2019
2040 Rain 6 1006 87 0 4.1 210 10:18 24.12.2019
2041 Rain 6 1006 87 0 7.2 240 09:54 24.12.2019
2042 Rain 6 1006 87 0 7.2 240 09:36 24.12.2019
2043 Rain 6 1006 87 0 3.1 220 09:18 24.12.2019
2044 Rain 6 1006 87 0 6.2 240 08:42 24.12.2019
2045 Rain 6 1006 93 0 3.6 220 08:19 24.12.2019
2046 Rain 7 1006 93 0 7.2 230 07:44 24.12.2019
2047 Rain 7 1006 93 0 3.1 220 07:22 24.12.2019
2048 Rain 7 1007 93 10000 5.7 240 06:41 24.12.2019
2049 Rain 7 1006 93 0 3.1 230 06:22 24.12.2019
2050 Clouds 7 1006 93 10000 6.7 230 05:57 24.12.2019
2051 Rain 7 1006 93 0 3.1 230 05:20 24.12.2019
2052 Clouds 7 1007 93 10000 6.7 250 04:36 24.12.2019
2053 Clouds 7 1007 93 10000 5.1 230 03:50 24.12.2019
2054 Clouds 7 1007 87 10000 8.2 260 02:59 24.12.2019
2055 Clouds 7 1006 87 0 3.1 220 02:19 24.12.2019
2056 Clouds 7 1006 87 10000 5.7 250 01:42 24.12.2019
2057 Clouds 7 1006 93 0 3.1 220 01:20 24.12.2019
2058 Clouds 7 1006 87 10000 5.7 240 00:43 24.12.2019
2059 Rain 7 1006 87 0 3.1 250 00:23 24.12.2019
2060 Clouds 7 1006 87 10000 5.1 250 23:56 23.12.2019
2061 Clouds 7 1006 87 10000 5.1 250 23:37 23.12.2019
2062 Clear 7 1005 93 0 3.1 240 23:19 23.12.2019
2063 Clouds 7 1005 87 10000 6.7 260 22:55 23.12.2019
2064 Clouds 7 1005 87 10000 6.7 260 22:36 23.12.2019
2065 Clear 7 1004 87 0 3.6 230 22:18 23.12.2019
2066 Clouds 7 1004 87 10000 5.7 250 21:55 23.12.2019
2067 Clouds 7 1004 87 10000 5.7 250 21:36 23.12.2019
2068 Clouds 7 1004 87 10000 5.7 250 21:36 23.12.2019
2069 Clear 7 1004 93 0 2.6 230 21:18 23.12.2019
2070 Clouds 7 1004 87 10000 5.1 250 20:56 23.12.2019
2071 Clouds 7 1004 87 10000 5.1 250 20:38 23.12.2019
2072 Clouds 6 1003 87 10000 2.6 220 20:18 23.12.2019
2073 Clouds 6 1003 87 10000 7.2 260 19:55 23.12.2019
2074 Clouds 6 1003 87 10000 7.2 260 19:37 23.12.2019
2075 Rain 7 1003 81 10000 5.1 250 19:19 23.12.2019
2076 Clouds 7 1003 87 10000 7.2 270 18:57 23.12.2019
2077 Clouds 7 1003 87 10000 7.2 270 18:38 23.12.2019
2078 Clouds 7 1002 93 10000 2.6 230 18:20 23.12.2019
2079 Clouds 7 1002 93 10000 7.7 260 17:55 23.12.2019
2080 Clouds 7 1002 93 10000 7.7 260 17:55 23.12.2019
2081 Clouds 7 1002 93 10000 7.7 260 17:37 23.12.2019
2082 Clouds 7 1001 87 10000 3.1 250 17:19 23.12.2019
2083 Clouds 7 1001 87 10000 8.2 270 16:54 23.12.2019
2084 Clouds 7 1001 87 10000 8.2 270 16:36 23.12.2019
2085 Clouds 7 1000 93 10000 5.1 250 16:18 23.12.2019
2086 Clouds 7 1000 87 10000 9.8 270 15:55 23.12.2019
2087 Clouds 7 1001 93 4400 6.7 250 15:36 23.12.2019
2088 Clouds 8 999 87 10000 5.1 250 15:18 23.12.2019
2089 Clouds 8 999 87 10000 8.2 270 14:42 23.12.2019
2090 Rain 8 1000 81 10000 6.2 250 14:24 23.12.2019
2091 Clouds 8 998 87 10000 5.7 250 13:59 23.12.2019
2092 Clouds 8 998 87 10000 5.7 250 13:59 23.12.2019
2093 Clouds 8 998 87 10000 8.2 280 13:40 23.12.2019
2094 Rain 8 998 87 4500 9.8 270 13:22 23.12.2019
2095 Drizzle 8 997 87 9000 6.2 250 12:58 23.12.2019
2096 Clouds 8 997 87 10000 10.3 270 12:58 23.12.2019
2097 Clouds 8 997 87 10000 10.3 270 12:39 23.12.2019
2098 Clouds 8 996 87 10000 5.1 240 12:21 23.12.2019
2099 Clouds 7 996 87 10000 9.3 260 11:55 23.12.2019
2100 Clouds 7 996 87 10000 9.3 260 11:37 23.12.2019
2101 Clouds 7 996 93 10000 7.7 260 11:18 23.12.2019
2102 Rain 7 996 93 4500 7.2 260 10:54 23.12.2019
2103 Rain 7 996 93 4500 7.2 260 10:36 23.12.2019
2104 Clouds 7 995 93 0 3.6 230 10:18 23.12.2019
2105 Clouds 7 995 93 10000 8.7 260 09:54 23.12.2019
2106 Clouds 7 995 93 10000 8.7 260 09:36 23.12.2019
2107 Rain 7 994 93 0 3.1 230 09:18 23.12.2019
2108 Clouds 7 994 93 8000 8.2 260 08:41 23.12.2019
2109 Rain 7 993 100 0 2.6 210 08:22 23.12.2019
2110 Drizzle 7 993 93 4500 6.7 260 07:49 23.12.2019
2111 Clouds 7 992 93 7000 5.1 240 07:22 23.12.2019
2112 Rain 6 992 100 5000 4.1 220 06:57 23.12.2019
2113 Rain 6 992 100 5000 4.1 220 06:32 23.12.2019
2114 Drizzle 6 991 100 2000 2.1 200 05:56 23.12.2019
2115 Drizzle 6 991 100 2000 2.1 200 05:33 23.12.2019
2116 Drizzle 5 990 100 2000 1.5 170 04:40 23.12.2019
2117 Drizzle 5 990 93 2000 3.1 150 03:58 23.12.2019
2118 Drizzle 5 989 93 3000 2.1 140 02:46 23.12.2019
2119 Mist 5 989 93 3000 3.1 110 02:19 23.12.2019
2120 Drizzle 5 989 93 4500 3.1 140 01:46 23.12.2019
2121 Drizzle 5 989 93 2000 3.1 110 01:27 23.12.2019
2122 Clouds 5 988 93 7000 3.6 140 00:46 23.12.2019
2123 Mist 5 988 93 4500 3.6 110 00:25 23.12.2019
2124 Drizzle 5 988 93 7000 4.1 130 23:56 22.12.2019
2125 Drizzle 5 988 93 7000 4.1 130 23:37 22.12.2019
2126 Rain 5 988 93 0 6.2 130 23:19 22.12.2019
2127 Rain 5 987 93 7000 5.1 130 22:55 22.12.2019
2128 Rain 5 987 93 7000 5.1 130 22:37 22.12.2019
2129 Rain 5 988 100 0 6.2 130 22:18 22.12.2019
2130 Clouds 5 987 93 8000 4.6 130 21:54 22.12.2019
2131 Clouds 5 987 93 8000 4.6 130 21:36 22.12.2019
2132 Clouds 5 987 93 6000 4.6 110 21:18 22.12.2019
2133 Clouds 5 987 93 9000 4.6 130 20:40 22.12.2019
2134 Clouds 5 987 87 8000 7.2 120 20:19 22.12.2019
2135 Clouds 5 987 87 8000 7.2 120 19:58 22.12.2019
2136 Clouds 5 986 86 9000 4.1 130 19:39 22.12.2019
2137 Clouds 5 987 87 8000 6.7 130 19:20 22.12.2019
2138 Clouds 5 986 93 9000 4.1 130 18:58 22.12.2019
2139 Clouds 5 986 93 9000 4.1 130 18:38 22.12.2019
2140 Clouds 5 986 93 8000 6.2 130 18:19 22.12.2019
2141 Clouds 5 986 93 8000 4.6 130 17:55 22.12.2019
2142 Clouds 5 986 93 8000 4.6 130 17:36 22.12.2019
2143 Mist 5 986 93 5000 4.6 110 17:18 22.12.2019
2144 Clouds 5 985 93 8000 4.6 120 16:42 22.12.2019
2145 Clouds 5 986 93 10000 3.6 150 16:23 22.12.2019
2146 Clouds 5 986 93 10000 3.6 150 16:23 22.12.2019
2147 Clouds 5 986 93 6000 4.6 120 15:58 22.12.2019
2148 Clouds 5 985 86 10000 4.6 130 15:39 22.12.2019
2149 Clouds 5 985 93 10000 4.6 110 15:21 22.12.2019
2150 Clouds 5 985 93 10000 4.6 110 14:59 22.12.2019
2151 Clouds 5 985 86 10000 3.6 140 14:38 22.12.2019
2152 Clouds 5 985 93 10000 4.6 120 14:19 22.12.2019
2153 Clouds 5 985 93 10000 3.6 140 13:56 22.12.2019
2154 Clouds 5 985 93 10000 3.6 140 13:38 22.12.2019
2155 Clouds 5 985 87 10000 5.7 130 13:19 22.12.2019
2156 Drizzle 5 985 86 10000 4.1 140 12:57 22.12.2019
2157 Drizzle 5 985 86 10000 4.1 140 12:39 22.12.2019
2158 Clouds 4 985 93 10000 3.6 110 12:20 22.12.2019
2159 Clouds 4 985 93 10000 3.6 110 11:59 22.12.2019
2160 Drizzle 4 985 86 10000 4.1 150 11:39 22.12.2019
2161 Clouds 4 986 93 10000 4.6 110 11:20 22.12.2019
2162 Clouds 4 985 86 10000 4.6 140 10:58 22.12.2019
2163 Clouds 4 985 86 10000 4.6 140 10:40 22.12.2019
2164 Clouds 4 986 93 10000 4.6 110 10:19 22.12.2019
2165 Clouds 3 986 93 10000 4.6 110 09:58 22.12.2019
2166 Clouds 3 985 93 10000 5.1 130 09:39 22.12.2019
2167 Clouds 4 985 100 0 5.1 120 09:21 22.12.2019
2168 Clouds 4 985 93 10000 5.1 130 08:45 22.12.2019
2169 Clouds 4 986 93 10000 3.6 120 08:23 22.12.2019
2170 Clouds 4 985 93 10000 4.6 130 07:52 22.12.2019
2171 Clouds 4 985 93 0 4.1 100 07:22 22.12.2019
2172 Clouds 4 985 93 10000 4.1 130 06:57 22.12.2019
2173 Clouds 4 985 93 0 3.1 120 06:30 22.12.2019
2174 Clouds 4 985 93 10000 4.1 140 05:49 22.12.2019
2175 Clouds 4 986 100 0 3.1 130 05:21 22.12.2019
2176 Clouds 4 986 93 0 3.6 150 04:28 22.12.2019
2177 Clouds 4 986 93 10000 5.1 170 03:45 22.12.2019
2178 Clouds 4 985 93 10000 5.7 160 02:38 22.12.2019
2179 Clouds 4 985 93 10000 5.7 160 02:38 22.12.2019
2180 Clouds 4 986 93 10000 5.7 160 01:37 22.12.2019
2181 Clouds 4 986 93 0 3.1 140 01:18 22.12.2019
2182 Clouds 5 986 93 10000 5.7 160 00:45 22.12.2019
2183 Clouds 5 986 93 10000 2.6 140 00:21 22.12.2019
2184 Clouds 5 986 93 10000 5.7 160 23:55 21.12.2019
2185 Clouds 5 986 93 10000 5.7 160 23:37 21.12.2019
2186 Clouds 6 987 93 0 2.6 140 23:18 21.12.2019
2187 Rain 6 987 93 10000 5.1 160 22:40 21.12.2019
2188 Rain 6 987 93 10000 5.1 160 22:40 21.12.2019
2189 Rain 6 987 93 10000 3.6 140 22:19 21.12.2019
2190 Rain 6 987 93 10000 3.6 140 22:19 21.12.2019
2191 Rain 6 987 93 10000 5.1 170 21:57 21.12.2019
2192 Rain 6 987 93 10000 5.1 170 21:38 21.12.2019
2193 Rain 6 987 93 8000 3.6 160 21:19 21.12.2019
2194 Rain 6 987 93 8000 3.6 160 20:58 21.12.2019
2195 Rain 6 988 93 10000 6.2 170 20:39 21.12.2019
2196 Clouds 6 988 93 0 3.6 150 20:21 21.12.2019
2197 Clouds 6 988 93 0 3.6 150 19:58 21.12.2019
2198 Clouds 6 988 93 10000 5.7 160 19:40 21.12.2019
2199 Clouds 6 988 93 0 5.1 140 19:19 21.12.2019
2200 Clouds 6 988 87 10000 5.1 160 18:45 21.12.2019
2201 Clouds 6 988 93 0 3.6 140 18:24 21.12.2019
2202 Clouds 6 988 93 10000 5.1 150 17:58 21.12.2019
2203 Clouds 6 988 93 10000 5.1 150 17:39 21.12.2019
2204 Clouds 6 989 87 0 3.1 130 17:21 21.12.2019
2205 Clouds 6 989 87 0 3.1 130 16:59 21.12.2019
2206 Clouds 6 989 87 10000 4.6 170 16:41 21.12.2019
2207 Clouds 6 989 87 10000 4.6 170 16:41 21.12.2019
2208 Clouds 7 989 93 10000 5.1 180 16:19 21.12.2019
2209 Clouds 6 989 93 10000 5.1 180 16:19 21.12.2019
2210 Clouds 7 989 81 10000 3.1 200 15:57 21.12.2019
2211 Clouds 7 989 81 10000 3.1 200 15:38 21.12.2019
2212 Clouds 7 989 81 10000 3.1 200 15:38 21.12.2019
2213 Clouds 7 989 81 10000 3.1 200 15:38 21.12.2019
2214 Clouds 7 989 81 10000 3.1 190 15:19 21.12.2019
2215 Clouds 7 989 81 10000 4.1 210 14:57 21.12.2019
2216 Clouds 8 989 81 10000 4.1 210 14:38 21.12.2019
2217 Clouds 8 989 87 10000 3.1 210 14:19 21.12.2019
2218 Clouds 8 989 87 10000 3.6 230 13:56 21.12.2019
2219 Clouds 7 989 87 10000 3.6 230 13:38 21.12.2019
2220 Clouds 7 990 87 10000 2.6 200 13:18 21.12.2019
2221 Clouds 7 990 87 10000 4.6 230 12:55 21.12.2019
2222 Clouds 7 990 87 10000 4.6 230 12:37 21.12.2019
2223 Clouds 7 990 87 10000 3.6 200 12:18 21.12.2019
2224 Clouds 7 990 87 10000 5.1 230 11:43 21.12.2019
2225 Clouds 7 991 81 10000 3.6 210 11:25 21.12.2019
2226 Clouds 6 990 81 10000 5.7 220 10:57 21.12.2019
2227 Clouds 6 990 81 10000 5.7 220 10:57 21.12.2019
2228 Clouds 6 990 81 10000 5.7 220 10:38 21.12.2019
2229 Clouds 6 989 87 10000 4.6 210 10:20 21.12.2019
2230 Clouds 6 989 87 10000 6.7 220 09:56 21.12.2019
2231 Clouds 6 989 87 10000 6.7 220 09:37 21.12.2019
2232 Clouds 6 989 81 10000 2.6 230 09:18 21.12.2019
2233 Clouds 6 989 81 10000 6.2 230 08:44 21.12.2019
2234 Clouds 6 989 81 10000 3.6 210 08:25 21.12.2019
2235 Clouds 6 989 81 10000 7.7 240 07:46 21.12.2019
2236 Clouds 7 988 81 10000 3.1 200 07:22 21.12.2019
2237 Clouds 7 988 81 0 7.7 230 06:46 21.12.2019
2238 Clouds 7 988 87 0 3.6 210 06:26 21.12.2019
2239 Clouds 7 988 87 0 5.1 220 05:55 21.12.2019
2240 Clouds 7 988 87 0 6.2 220 04:58 21.12.2019
2241 Clouds 7 988 87 0 3.6 200 03:59 21.12.2019
2242 Clouds 7 988 87 0 5.7 200 03:37 21.12.2019
2243 Rain 8 987 100 0 2.6 200 02:19 21.12.2019
2244 Rain 8 986 100 0 4.6 220 01:41 21.12.2019
2245 Rain 8 986 100 0 2.6 210 01:23 21.12.2019
2246 Rain 8 986 100 0 4.6 210 00:39 21.12.2019
2247 Rain 8 986 100 0 2.6 210 00:19 21.12.2019
2248 Rain 8 986 100 0 5.7 210 23:38 20.12.2019
2249 Rain 8 986 93 0 2.6 180 23:19 20.12.2019
2250 Rain 8 985 93 0 7.2 190 22:57 20.12.2019
2251 Rain 8 985 93 0 7.2 190 22:36 20.12.2019
2252 Rain 8 986 93 4000 4.1 180 22:18 20.12.2019
2253 Rain 8 985 93 0 8.2 180 21:41 20.12.2019
2254 Rain 8 985 87 0 4.6 150 21:21 20.12.2019
2255 Rain 8 985 87 0 4.6 150 21:21 20.12.2019
2256 Rain 8 986 87 0 4.6 140 20:57 20.12.2019
2257 Rain 8 986 87 0 4.6 140 20:38 20.12.2019
2258 Clouds 8 986 87 0 5.1 130 20:18 20.12.2019
2259 Clouds 8 985 81 0 5.7 160 19:42 20.12.2019
2260 Clouds 8 986 87 0 6.2 130 19:21 20.12.2019
2261 Clouds 8 986 87 0 6.2 130 18:58 20.12.2019
2262 Clouds 8 985 81 0 6.2 150 18:40 20.12.2019
2263 Clouds 8 986 93 10000 6.2 120 18:21 20.12.2019
2264 Clouds 8 986 93 10000 6.2 120 18:21 20.12.2019
2265 Clouds 8 986 75 5000 5.7 140 17:57 20.12.2019
2266 Clouds 8 986 75 5000 5.7 140 17:39 20.12.2019
2267 Clouds 8 986 75 5000 5.7 140 17:39 20.12.2019
2268 Clouds 8 987 93 9000 7.2 120 17:20 20.12.2019
2269 Clouds 8 987 87 0 6.2 130 16:56 20.12.2019
2270 Clouds 8 987 75 5000 4.6 130 16:38 20.12.2019
2271 Clouds 8 988 87 8000 7.7 120 16:19 20.12.2019
2272 Clouds 8 988 87 0 4.6 130 15:54 20.12.2019
2273 Clouds 8 988 93 8000 8.2 120 15:36 20.12.2019
2274 Clouds 8 988 93 8000 8.2 120 15:18 20.12.2019
2275 Clouds 8 988 87 0 5.7 120 14:42 20.12.2019
2276 Clouds 8 989 87 10000 7.7 120 14:24 20.12.2019
2277 Clouds 8 989 87 0 6.2 120 13:57 20.12.2019
2278 Clouds 8 989 70 5000 3.6 130 13:37 20.12.2019
2279 Clouds 8 990 93 8000 6.7 110 13:19 20.12.2019
2280 Clouds 7 990 93 0 5.1 110 12:56 20.12.2019
2281 Clouds 7 989 75 5000 5.1 110 12:36 20.12.2019
2282 Mist 6 991 93 2500 6.7 120 12:18 20.12.2019
2283 Clouds 6 992 93 0 4.1 110 11:57 20.12.2019
2284 Clouds 6 991 87 10000 4.1 110 11:38 20.12.2019
2285 Clouds 6 991 87 10000 4.1 110 11:38 20.12.2019
2286 Mist 6 993 100 1600 7.7 120 11:18 20.12.2019
2287 Mist 6 993 100 1600 7.7 120 11:18 20.12.2019
2288 Clouds 6 993 100 0 5.1 130 10:56 20.12.2019
2289 Clouds 5 993 87 10000 4.1 140 10:38 20.12.2019
2290 Clouds 5 993 93 9000 4.1 130 10:19 20.12.2019
2291 Clouds 5 994 100 0 4.1 120 09:43 20.12.2019
2292 Fog 4 994 100 600 6.2 120 09:21 20.12.2019
2293 Clouds 4 995 100 0 4.1 120 08:58 20.12.2019
2294 Mist 4 994 93 5000 3.1 120 08:40 20.12.2019
2295 Fog 4 995 100 400 6.2 120 08:21 20.12.2019
2296 Clouds 4 995 100 0 5.7 130 07:57 20.12.2019
2297 Mist 4 995 93 5000 4.1 110 07:38 20.12.2019
2298 Fog 4 995 100 300 6.2 110 07:18 20.12.2019
2299 Fog 5 996 100 500 4.1 120 06:48 20.12.2019
2300 Fog 5 997 100 600 4.6 120 06:29 20.12.2019
2301 Clouds 5 997 100 9000 5.7 120 05:49 20.12.2019
2302 Mist 5 997 100 3000 5.7 110 05:21 20.12.2019
2303 Clouds 5 1000 100 0 5.1 130 03:50 20.12.2019
2304 Clouds 5 1000 100 0 5.1 130 03:28 20.12.2019
2305 Clouds 6 1000 87 5000 4.6 140 02:33 20.12.2019
2306 Clouds 6 1001 81 5000 4.6 150 01:36 20.12.2019
2307 Clouds 6 1001 81 5000 4.6 150 01:36 20.12.2019
2308 Clouds 6 1002 93 0 3.6 140 00:59 20.12.2019
2309 Clouds 6 1002 81 5000 5.1 150 00:40 20.12.2019
2310 Clouds 7 1003 87 0 3.6 130 23:59 19.12.2019
2311 Clouds 7 1003 87 0 3.6 130 23:40 19.12.2019
2312 Clouds 7 1004 87 0 4.6 140 23:22 19.12.2019
2313 Clouds 7 1004 87 0 5.7 140 22:56 19.12.2019
2314 Clouds 7 1004 81 5000 3.1 150 22:36 19.12.2019
2315 Clouds 7 1004 87 0 6.7 130 22:18 19.12.2019
2316 Clouds 7 1004 81 5000 5.7 150 21:42 19.12.2019
2317 Clouds 7 1005 93 0 5.1 130 21:20 19.12.2019
2318 Clouds 7 1006 93 0 4.1 120 20:58 19.12.2019
2319 Clouds 7 1005 81 5000 6.2 140 20:38 19.12.2019
2320 Clouds 7 1006 93 0 4.6 130 20:20 19.12.2019
2321 Clouds 7 1006 93 0 4.6 130 20:20 19.12.2019
2322 Clouds 7 1006 81 10000 4.6 140 19:59 19.12.2019
2323 Clouds 7 1007 87 0 4.1 120 19:40 19.12.2019
2324 Clouds 7 1007 93 0 4.6 130 19:20 19.12.2019
2325 Clouds 7 1007 81 10000 6.2 150 18:59 19.12.2019
2326 Clouds 7 1007 87 10000 5.7 130 18:40 19.12.2019
2327 Clouds 7 1007 87 10000 5.7 130 18:40 19.12.2019
2328 Clouds 7 1008 87 10000 4.6 140 18:20 19.12.2019
2329 Clouds 7 1008 87 10000 7.7 160 17:57 19.12.2019
2330 Clouds 7 1008 87 5000 2.6 130 17:38 19.12.2019
2331 Clouds 7 1008 87 5000 2.6 130 17:38 19.12.2019
2332 Clouds 8 1009 87 10000 3.6 130 17:19 19.12.2019
2333 Clouds 8 1008 87 10000 5.7 160 16:57 19.12.2019
2334 Clouds 8 1009 81 10000 4.1 140 16:38 19.12.2019
2335 Clouds 8 1009 93 10000 3.6 120 16:20 19.12.2019
2336 Clouds 9 1009 81 10000 6.2 160 15:58 19.12.2019
2337 Clouds 9 1009 81 10000 4.6 150 15:39 19.12.2019
2338 Clouds 9 1009 87 10000 3.1 120 15:19 19.12.2019
2339 Clouds 9 1009 81 10000 6.7 160 14:59 19.12.2019
2340 Clouds 9 1009 76 10000 5.7 150 14:40 19.12.2019
2341 Clouds 9 1010 87 10000 3.6 140 14:19 19.12.2019
2342 Clouds 9 1010 81 10000 5.7 170 13:57 19.12.2019
2343 Clouds 9 1010 76 10000 4.1 140 13:37 19.12.2019
2344 Clouds 8 1011 87 10000 3.6 140 13:18 19.12.2019
2345 Clouds 8 1010 81 10000 6.2 170 12:55 19.12.2019
2346 Clouds 8 1011 81 10000 5.1 150 12:36 19.12.2019
2347 Clouds 8 1011 87 10000 4.6 130 12:18 19.12.2019
2348 Clouds 8 1011 87 10000 6.2 170 11:56 19.12.2019
2349 Clouds 7 1012 87 10000 6.2 150 11:38 19.12.2019
2350 Clouds 7 1012 87 10000 5.1 140 11:18 19.12.2019
2351 Clouds 6 1012 87 10000 5.1 150 10:39 19.12.2019
2352 Clouds 5 1012 93 10000 6.2 140 10:20 19.12.2019
2353 Clouds 5 1012 86 8000 4.1 150 09:59 19.12.2019
2354 Clouds 5 1012 86 9000 5.7 150 09:38 19.12.2019
2355 Clouds 5 1013 93 10000 5.7 140 09:20 19.12.2019
2356 Clouds 5 1012 86 10000 5.1 150 08:58 19.12.2019
2357 Clouds 5 1012 86 9000 5.7 150 08:39 19.12.2019
2358 Clouds 5 1013 93 10000 5.7 140 08:19 19.12.2019
2359 Clouds 5 1013 86 10000 4.6 150 07:56 19.12.2019
2360 Clouds 5 1013 86 9000 6.2 150 07:38 19.12.2019
2361 Clouds 5 1013 93 10000 7.2 140 07:19 19.12.2019
2362 Clouds 5 1013 86 8000 4.1 140 06:49 19.12.2019
2363 Clouds 5 1013 93 6000 4.6 120 06:28 19.12.2019
2364 Clouds 5 1014 86 8000 4.6 140 05:55 19.12.2019
2365 Clouds 4 1015 87 0 5.7 130 05:33 19.12.2019
2366 Clouds 4 1015 93 8000 4.6 140 04:48 19.12.2019
2367 Clouds 4 1015 93 6000 5.1 160 02:49 19.12.2019
2368 Clouds 4 1016 93 6000 5.7 160 01:47 19.12.2019
2369 Mist 4 1017 93 0 3.1 150 01:22 19.12.2019
2370 Clouds 4 1017 93 3800 2.6 130 00:40 19.12.2019
2371 Mist 4 1018 93 0 2.6 150 00:21 19.12.2019
2372 Clouds 4 1018 93 6000 3.6 180 23:56 18.12.2019
2373 Clouds 4 1018 93 4100 2.1 130 23:38 18.12.2019
2374 Mist 4 1017 93 1500 1.5 130 23:18 18.12.2019
2375 Clouds 4 1017 93 6000 3.6 190 22:55 18.12.2019
2376 Clouds 5 1018 93 0 2.6 190 22:36 18.12.2019
2377 Clouds 5 1018 93 0 2.6 190 22:18 18.12.2019
2378 Clouds 5 1017 93 6000 4.6 200 21:55 18.12.2019
2379 Clouds 5 1018 87 4000 3.1 180 21:37 18.12.2019
2380 Clouds 5 1017 87 0 2.1 200 21:18 18.12.2019
2381 Clouds 5 1017 93 6000 4.1 200 20:54 18.12.2019
2382 Clouds 5 1017 87 3600 3.6 180 20:36 18.12.2019
2383 Clouds 5 1017 93 0 2.1 210 20:18 18.12.2019
2384 Clouds 5 1016 93 7000 4.1 210 19:54 18.12.2019
2385 Clouds 5 1017 93 3600 3.6 190 19:36 18.12.2019
2386 Clouds 5 1016 87 0 2.6 210 19:18 18.12.2019
2387 Clouds 5 1016 93 10000 3.6 220 18:44 18.12.2019
2388 Clouds 6 1016 93 10000 4.1 220 18:25 18.12.2019
2389 Clouds 6 1016 87 10000 6.2 240 17:57 18.12.2019
2390 Clouds 6 1017 93 8000 2.6 230 17:38 18.12.2019
2391 Clouds 6 1015 87 10000 5.7 240 17:19 18.12.2019
2392 Clouds 6 1015 87 10000 5.7 240 16:55 18.12.2019
2393 Clouds 6 1015 87 10000 5.7 240 16:37 18.12.2019
2394 Clouds 6 1015 81 10000 3.1 230 16:18 18.12.2019
2395 Clouds 6 1014 87 10000 7.2 250 15:55 18.12.2019
2396 Clouds 7 1014 87 10000 7.2 250 15:37 18.12.2019
2397 Clouds 7 1014 81 10000 3.6 240 15:18 18.12.2019
2398 Clouds 7 1014 81 10000 7.2 260 14:40 18.12.2019
2399 Clouds 7 1013 75 10000 8.7 260 14:21 18.12.2019
2400 Clouds 7 1013 75 10000 8.7 260 13:57 18.12.2019
2401 Clouds 7 1013 75 10000 8.7 260 13:38 18.12.2019
2402 Clouds 7 1012 75 10000 5.7 250 13:20 18.12.2019
2403 Clouds 7 1012 75 10000 9.8 260 12:58 18.12.2019
2404 Clouds 7 1012 75 10000 9.8 260 12:38 18.12.2019
2405 Clouds 7 1012 81 10000 3.6 240 12:20 18.12.2019
2406 Clouds 7 1012 75 10000 7.7 240 11:56 18.12.2019
2407 Clouds 7 1012 75 10000 7.7 240 11:38 18.12.2019
2408 Clouds 6 1011 81 0 4.1 230 11:19 18.12.2019
2409 Clouds 6 1011 75 10000 7.7 250 10:56 18.12.2019
2410 Clouds 6 1011 75 10000 7.7 250 10:38 18.12.2019
2411 Clouds 6 1012 93 10000 6.2 230 10:20 18.12.2019
2412 Clouds 6 1010 75 10000 7.2 250 09:50 18.12.2019
2413 Clouds 6 1010 75 10000 7.2 250 09:50 18.12.2019
2414 Clouds 6 1009 81 10000 4.1 240 09:19 18.12.2019
2415 Clouds 6 1009 81 10000 8.2 260 08:41 18.12.2019
2416 Clouds 6 1008 87 10000 4.1 240 08:23 18.12.2019
2417 Clouds 6 1007 87 10000 8.2 270 07:55 18.12.2019
2418 Clouds 6 1007 87 10000 8.2 270 07:37 18.12.2019
2419 Clouds 6 1007 93 10000 4.1 240 07:19 18.12.2019
2420 Clouds 6 1007 87 10000 6.7 250 06:50 18.12.2019
2421 Rain 6 1006 93 0 3.1 240 06:22 18.12.2019
2422 Clouds 6 1005 93 0 4.6 260 05:27 18.12.2019
2423 Clouds 6 1003 93 10000 12.9 300 03:45 18.12.2019
2424 Clouds 7 1000 93 10000 10.3 280 02:43 18.12.2019
2425 Clouds 8 999 93 10000 9.3 300 02:25 18.12.2019
2426 Clouds 8 998 100 10000 10.8 270 01:43 18.12.2019
2427 Rain 9 998 93 0 4.6 230 01:24 18.12.2019
2428 Rain 9 998 93 10000 8.2 240 00:42 18.12.2019
2429 Rain 10 998 81 0 5.7 230 00:24 18.12.2019
2430 Rain 10 998 81 10000 6.7 220 23:58 17.12.2019
2431 Rain 10 998 81 10000 6.7 220 23:58 17.12.2019
2432 Rain 11 998 81 10000 6.7 220 23:39 17.12.2019
2433 Clouds 11 997 76 0 4.6 190 23:21 17.12.2019
2434 Clouds 11 997 81 10000 7.7 200 22:57 17.12.2019
2435 Clouds 11 997 81 10000 7.7 200 22:57 17.12.2019
2436 Clouds 11 997 81 10000 7.7 200 22:39 17.12.2019
2437 Clouds 11 997 76 0 4.6 200 22:19 17.12.2019
2438 Clouds 11 998 76 10000 6.7 210 21:57 17.12.2019
2439 Clouds 11 998 76 10000 6.7 210 21:38 17.12.2019
2440 Clouds 11 998 76 10000 6.7 210 21:38 17.12.2019
2441 Clouds 11 998 81 0 5.1 200 21:20 17.12.2019
2442 Clouds 11 998 81 10000 6.7 210 20:59 17.12.2019
2443 Clouds 11 998 81 10000 6.7 210 20:39 17.12.2019
2444 Rain 11 998 81 0 3.6 190 20:19 17.12.2019
2445 Clouds 11 998 81 10000 5.7 210 19:57 17.12.2019
2446 Clouds 11 998 81 10000 5.7 210 19:39 17.12.2019
2447 Clouds 11 998 81 10000 3.6 190 19:19 17.12.2019
2448 Clouds 11 998 81 10000 6.7 210 18:57 17.12.2019
2449 Clouds 11 998 81 10000 6.7 210 18:57 17.12.2019
2450 Clouds 11 998 81 10000 6.7 210 18:57 17.12.2019
2451 Clouds 11 998 81 10000 6.7 210 18:38 17.12.2019
2452 Clouds 10 998 87 10000 3.1 180 18:20 17.12.2019
2453 Clouds 10 998 87 10000 6.7 200 17:55 17.12.2019
2454 Clouds 10 998 87 10000 6.7 200 17:37 17.12.2019
2455 Clouds 10 998 81 10000 2.6 170 17:18 17.12.2019
2456 Clouds 10 998 81 9000 6.7 200 16:55 17.12.2019
2457 Clouds 10 998 81 9000 6.7 200 16:36 17.12.2019
2458 Clouds 10 998 87 10000 3.1 170 16:18 17.12.2019
2459 Clouds 10 998 87 10000 3.1 170 16:18 17.12.2019
2460 Clouds 10 998 87 10000 3.1 170 16:18 17.12.2019
2461 Rain 9 998 87 9000 6.7 190 15:38 17.12.2019
2462 Rain 9 998 93 10000 3.1 170 15:20 17.12.2019
2463 Clouds 9 998 87 9000 6.2 190 14:57 17.12.2019
2464 Clouds 9 998 87 9000 6.2 190 14:38 17.12.2019
2465 Clouds 8 998 93 10000 3.1 160 14:19 17.12.2019
2466 Clouds 8 998 93 10000 3.1 160 13:59 17.12.2019
2467 Clouds 8 998 93 8000 4.1 190 13:40 17.12.2019
2468 Clouds 8 998 93 8000 4.1 190 13:19 17.12.2019
2469 Mist 8 999 93 3500 5.1 180 12:59 17.12.2019
2470 Mist 8 999 93 3500 5.1 180 12:38 17.12.2019
2471 Clouds 7 999 100 6000 3.6 150 12:18 17.12.2019
2472 Clouds 7 999 100 6000 3.6 150 12:18 17.12.2019
2473 Mist 7 999 100 3500 3.1 160 11:57 17.12.2019
2474 Mist 7 999 100 3500 3.1 160 11:37 17.12.2019
2475 Mist 7 1000 100 4000 3.1 150 11:18 17.12.2019
2476 Mist 7 1000 93 1800 3.6 170 10:58 17.12.2019
2477 Mist 6 1000 93 1800 3.6 170 10:39 17.12.2019
2478 Mist 6 1000 93 4000 4.6 130 10:20 17.12.2019
2479 Mist 6 999 93 1800 4.6 130 09:58 17.12.2019
2480 Mist 6 999 93 1800 4.6 130 09:40 17.12.2019
2481 Clouds 6 1000 93 5000 3.6 120 09:19 17.12.2019
2482 Drizzle 6 1000 93 2000 4.1 130 08:55 17.12.2019
2483 Drizzle 6 1000 93 2000 4.1 130 08:37 17.12.2019
2484 Drizzle 6 1001 93 3500 2.6 100 08:19 17.12.2019
2485 Drizzle 6 1000 93 2000 3.6 110 07:45 17.12.2019
2486 Mist 6 1000 100 3000 2.6 100 07:24 17.12.2019
2487 Drizzle 6 1001 100 2000 3.1 110 06:56 17.12.2019
2488 Rain 6 1001 100 0 1.5 100 06:34 17.12.2019
2489 Rain 6 1001 100 1500 3.1 120 05:52 17.12.2019
2490 Rain 6 1002 93 0 1.5 140 05:34 17.12.2019
2491 Rain 6 1002 93 0 2.6 140 04:30 17.12.2019
2492 Rain 6 1003 100 6000 2.6 160 02:34 17.12.2019
2493 Rain 6 1003 93 7000 2.1 160 01:54 17.12.2019
2494 Clouds 6 1003 93 10000 3.1 190 00:58 17.12.2019
2495 Clouds 6 1003 93 10000 3.1 190 00:37 17.12.2019
2496 Clouds 6 1003 87 0 2.1 200 00:19 17.12.2019
2497 Clouds 6 1003 93 10000 4.1 200 23:41 16.12.2019
2498 Clouds 6 1003 87 0 2.6 200 23:19 16.12.2019
2499 Clouds 6 1003 87 10000 2.6 210 22:56 16.12.2019
2500 Clouds 6 1003 87 10000 2.6 210 22:37 16.12.2019
2501 Clouds 6 1003 87 10000 4.1 200 22:19 16.12.2019
2502 Clouds 6 1003 87 10000 3.1 220 21:55 16.12.2019
2503 Clouds 6 1003 87 10000 3.1 220 21:37 16.12.2019
2504 Clouds 7 1003 87 0 2.6 200 21:19 16.12.2019
2505 Clouds 6 1003 87 10000 4.6 210 20:57 16.12.2019
2506 Clouds 6 1003 87 10000 4.6 210 20:37 16.12.2019
2507 Clouds 7 1003 87 0 3.1 200 20:19 16.12.2019
2508 Clouds 7 1003 87 10000 5.1 210 19:56 16.12.2019
2509 Clouds 7 1003 87 10000 5.1 210 19:56 16.12.2019
2510 Clouds 7 1003 87 10000 5.1 210 19:37 16.12.2019
2511 Clouds 7 1003 87 0 3.1 200 19:18 16.12.2019
2512 Clouds 7 1002 87 10000 6.2 220 18:56 16.12.2019
2513 Clouds 7 1002 87 10000 6.2 220 18:38 16.12.2019
2514 Clouds 7 1003 87 10000 3.6 200 18:19 16.12.2019
2515 Clouds 7 1003 87 10000 6.2 220 17:57 16.12.2019
2516 Clouds 7 1003 87 10000 6.2 220 17:38 16.12.2019
2517 Clouds 7 1003 93 10000 3.6 190 17:20 16.12.2019
2518 Clouds 7 1002 87 10000 5.7 220 16:57 16.12.2019
2519 Clouds 7 1002 87 10000 5.7 220 16:38 16.12.2019
2520 Clouds 7 1002 87 10000 4.1 210 16:19 16.12.2019
2521 Clouds 7 1002 87 10000 6.2 230 15:57 16.12.2019
2522 Clouds 7 1002 87 10000 6.2 230 15:38 16.12.2019
2523 Clouds 7 1002 87 10000 4.6 220 15:20 16.12.2019
2524 Rain 7 1002 87 10000 7.2 220 14:55 16.12.2019
2525 Rain 7 1002 87 10000 7.2 220 14:37 16.12.2019
2526 Clouds 7 1002 87 10000 5.7 220 14:19 16.12.2019
2527 Clouds 7 1002 81 10000 7.7 220 13:56 16.12.2019
2528 Clouds 7 1002 81 10000 7.7 220 13:56 16.12.2019
2529 Clouds 7 1002 81 10000 7.7 220 13:37 16.12.2019
2530 Clouds 6 1002 81 10000 5.7 220 13:19 16.12.2019
2531 Clouds 6 1002 81 10000 7.7 220 12:57 16.12.2019
2532 Clouds 6 1002 81 10000 7.7 220 12:39 16.12.2019
2533 Clouds 6 1002 87 10000 6.2 210 12:18 16.12.2019
2534 Clouds 6 1002 81 10000 7.2 220 11:58 16.12.2019
2535 Clouds 6 1002 81 10000 7.2 220 11:40 16.12.2019
2536 Clouds 6 1003 81 10000 7.2 210 11:20 16.12.2019
2537 Clouds 6 1003 86 10000 7.7 210 10:56 16.12.2019
2538 Clouds 5 1003 86 10000 7.7 210 10:38 16.12.2019
2539 Clouds 5 1002 81 10000 5.1 190 10:19 16.12.2019
2540 Clouds 5 1002 80 10000 8.7 200 09:45 16.12.2019
2541 Clouds 5 1004 80 10000 4.6 200 09:27 16.12.2019
2542 Clouds 4 1002 80 10000 8.2 210 08:55 16.12.2019
2543 Clouds 4 1002 80 10000 8.2 210 08:37 16.12.2019
2544 Clouds 4 1001 93 9000 7.2 200 08:18 16.12.2019
2545 Clouds 4 1002 86 10000 7.7 210 07:42 16.12.2019
2546 Clouds 4 1002 86 10000 5.1 200 07:21 16.12.2019
2547 Clouds 4 1002 86 0 8.2 200 06:45 16.12.2019
2548 Clouds 4 1002 86 0 4.1 200 06:22 16.12.2019
2549 Clouds 4 1003 93 0 7.2 210 05:50 16.12.2019
2550 Clouds 4 1002 87 0 4.6 210 05:31 16.12.2019
2551 Clouds 5 1002 87 0 5.1 220 04:22 16.12.2019
2552 Clouds 6 1002 87 0 4.6 220 02:31 16.12.2019
2553 Clouds 6 1002 93 0 7.7 230 01:45 16.12.2019
2554 Clouds 6 1001 87 0 7.2 230 00:43 16.12.2019
2555 Clouds 6 1002 87 10000 6.2 230 00:25 16.12.2019
2556 Clouds 6 1000 87 0 7.7 240 23:59 15.12.2019
2557 Clouds 6 1000 87 0 7.7 240 23:59 15.12.2019
2558 Clouds 5 1000 87 0 7.7 240 23:39 15.12.2019
2559 Rain 5 1000 86 0 3.6 220 23:20 15.12.2019
2560 Rain 6 1000 75 0 6.2 230 22:56 15.12.2019
2561 Rain 6 1000 75 0 6.2 230 22:56 15.12.2019
2562 Rain 6 1000 75 0 6.2 230 22:56 15.12.2019
2563 Rain 6 1000 75 0 6.2 230 22:37 15.12.2019
2564 Rain 6 999 81 0 3.6 230 22:18 15.12.2019
2565 Rain 6 999 81 0 6.2 250 21:56 15.12.2019
2566 Rain 6 999 81 0 6.2 250 21:38 15.12.2019
2567 Rain 6 998 75 0 5.1 240 21:19 15.12.2019
2568 Rain 6 997 75 0 12.3 270 20:56 15.12.2019
2569 Rain 6 997 75 0 12.3 270 20:38 15.12.2019
2570 Clouds 6 996 81 10000 6.7 240 20:19 15.12.2019
2571 Rain 6 996 75 0 12.3 260 19:57 15.12.2019
2572 Rain 6 996 75 0 12.3 260 19:39 15.12.2019
2573 Clouds 6 995 81 10000 6.2 240 19:18 15.12.2019
2574 Clouds 6 995 75 10000 13.4 260 18:56 15.12.2019
2575 Clouds 6 995 75 10000 13.4 260 18:38 15.12.2019
2576 Rain 6 993 75 10000 8.2 250 18:18 15.12.2019
2577 Rain 6 993 81 10000 15.4 270 17:56 15.12.2019
2578 Clouds 6 992 75 10000 8.7 250 17:37 15.12.2019
2579 Clouds 6 993 81 10000 16.5 260 17:19 15.12.2019
2580 Clouds 6 992 75 10000 17.5 270 16:57 15.12.2019
2581 Clouds 6 992 75 10000 17.5 270 16:39 15.12.2019
2582 Rain 6 990 81 6000 16.5 260 16:20 15.12.2019
2583 Clouds 6 989 75 10000 18.5 260 15:55 15.12.2019
2584 Clouds 6 989 75 10000 18.5 260 15:37 15.12.2019
2585 Rain 6 987 87 6000 11.3 250 15:18 15.12.2019
2586 Rain 6 987 81 10000 15.9 250 14:55 15.12.2019
2587 Rain 6 987 81 10000 15.9 250 14:55 15.12.2019
2588 Rain 6 987 81 10000 15.9 250 14:36 15.12.2019
2589 Rain 6 987 86 8000 18.5 250 14:18 15.12.2019
2590 Rain 6 987 65 7000 15.4 250 13:55 15.12.2019
2591 Rain 6 987 65 7000 15.4 250 13:37 15.12.2019
2592 Rain 6 986 70 0 9.8 230 13:18 15.12.2019
2593 Rain 6 986 70 0 9.8 230 13:18 15.12.2019
2594 Clouds 6 986 81 10000 12.3 250 12:56 15.12.2019
2595 Clouds 6 986 81 10000 12.3 250 12:38 15.12.2019
2596 Rain 6 986 86 0 8.2 240 12:20 15.12.2019
2597 Clouds 6 986 93 8000 11.3 250 11:39 15.12.2019
2598 Rain 6 986 81 4000 14.4 260 11:20 15.12.2019
2599 Rain 6 986 81 4000 14.4 260 11:20 15.12.2019
2600 Clouds 6 985 86 10000 9.8 240 10:58 15.12.2019
2601 Clouds 6 985 86 10000 9.8 240 10:40 15.12.2019
2602 Rain 6 985 93 3500 13.9 240 10:20 15.12.2019
2603 Clouds 6 984 93 8000 9.3 190 09:59 15.12.2019
2604 Clouds 5 984 93 8000 9.3 190 09:39 15.12.2019
2605 Rain 4 984 93 5000 9.8 170 09:20 15.12.2019
2606 Rain 4 984 86 4500 10.8 170 08:56 15.12.2019
2607 Rain 4 984 86 4500 10.8 170 08:38 15.12.2019
2608 Rain 3 986 93 8000 7.7 160 08:20 15.12.2019
2609 Rain 3 987 86 10000 5.1 180 07:55 15.12.2019
2610 Clouds 3 987 86 0 5.7 150 07:33 15.12.2019
2611 Clouds 3 988 80 10000 7.2 180 06:39 15.12.2019
2612 Clouds 3 989 80 0 4.6 190 06:19 15.12.2019
2613 Clouds 3 989 86 0 3.6 190 05:25 15.12.2019
2614 Clouds 3 989 86 0 3.6 190 05:25 15.12.2019
2615 Clouds 4 991 80 0 4.1 220 04:24 15.12.2019
2616 Clouds 4 991 80 0 4.1 220 03:22 15.12.2019
2617 Clouds 5 991 80 10000 8.2 240 02:33 15.12.2019
2618 Clouds 4 990 86 10000 10.8 270 01:46 15.12.2019
2619 Clouds 5 989 75 0 5.7 240 01:28 15.12.2019
2620 Clouds 4 989 80 0 5.1 240 00:54 15.12.2019
2621 Clouds 4 990 75 10000 10.8 260 00:35 15.12.2019
2622 Clouds 4 989 80 10000 10.8 260 23:58 14.12.2019
2623 Clouds 4 989 80 10000 10.8 260 23:58 14.12.2019
2624 Clouds 4 989 80 10000 10.8 260 23:39 14.12.2019
2625 Rain 4 988 80 0 6.7 240 23:19 14.12.2019
2626 Clouds 4 987 86 10000 9.3 240 22:57 14.12.2019
2627 Clouds 4 987 86 10000 9.3 240 22:39 14.12.2019
2628 Clouds 5 986 86 0 4.1 220 22:20 14.12.2019
2629 Clouds 5 986 75 10000 11.3 260 21:56 14.12.2019
2630 Clouds 5 986 75 10000 11.3 260 21:37 14.12.2019
2631 Clouds 4 985 86 0 4.6 240 21:18 14.12.2019
2632 Clouds 5 985 80 10000 8.2 260 20:56 14.12.2019
2633 Clouds 5 985 80 10000 8.2 260 20:37 14.12.2019
2634 Rain 5 984 80 10000 7.7 250 20:19 14.12.2019
2635 Clouds 5 984 81 10000 11.3 260 19:54 14.12.2019
2636 Clouds 5 984 81 10000 11.3 260 19:36 14.12.2019
2637 Clouds 5 986 86 10000 6.2 230 19:18 14.12.2019
2638 Clouds 5 983 86 10000 9.8 250 18:55 14.12.2019
2639 Clouds 5 983 86 10000 9.8 250 18:36 14.12.2019
2640 Rain 5 982 93 0 3.6 230 18:18 14.12.2019
2641 Clouds 5 982 93 10000 7.2 240 17:42 14.12.2019
2642 Rain 5 982 86 0 6.2 230 17:22 14.12.2019
2643 Rain 5 982 93 8000 7.2 240 16:55 14.12.2019
2644 Rain 5 982 93 8000 7.2 240 16:37 14.12.2019
2645 Rain 5 981 86 0 7.2 240 16:18 14.12.2019
2646 Rain 5 981 93 8000 9.3 260 15:41 14.12.2019
2647 Rain 5 983 86 2300 6.2 240 15:20 14.12.2019
2648 Rain 5 982 86 10000 7.7 240 14:58 14.12.2019
2649 Rain 5 982 86 5000 10.3 250 14:38 14.12.2019
2650 Clouds 5 978 93 10000 6.2 210 14:19 14.12.2019
2651 Clouds 5 979 93 10000 7.2 220 13:45 14.12.2019
2652 Clouds 5 981 86 10000 6.7 220 13:20 14.12.2019
2653 Clouds 4 979 93 10000 7.7 220 12:59 14.12.2019
2654 Clouds 4 979 93 10000 7.7 220 12:40 14.12.2019
2655 Rain 4 978 100 10000 5.7 200 12:21 14.12.2019
2656 Rain 4 978 100 10000 5.7 200 12:21 14.12.2019
2657 Rain 4 978 100 10000 5.7 200 12:21 14.12.2019
2658 Rain 4 979 86 7000 7.7 230 11:59 14.12.2019
2659 Rain 4 979 86 7000 7.7 230 11:39 14.12.2019
2660 Drizzle 4 978 93 5000 4.6 190 11:20 14.12.2019
2661 Rain 4 978 93 4000 6.2 210 10:59 14.12.2019
2662 Rain 4 978 93 4000 6.2 210 10:40 14.12.2019
2663 Rain 4 978 93 8000 4.1 190 10:22 14.12.2019
2664 Mist 4 978 100 4500 5.7 200 09:59 14.12.2019
2665 Mist 4 978 100 4500 5.7 200 09:40 14.12.2019
2666 Drizzle 4 978 93 5000 4.1 190 09:20 14.12.2019
2667 Rain 4 978 100 3000 5.7 200 08:43 14.12.2019
2668 Mist 4 978 100 4500 3.1 180 08:20 14.12.2019
2669 Mist 4 977 100 5000 6.2 190 07:55 14.12.2019
2670 Mist 4 977 100 5000 6.2 190 07:36 14.12.2019
2671 Drizzle 3 978 100 2000 2.6 170 07:18 14.12.2019
2672 Drizzle 3 978 100 3000 6.7 180 06:39 14.12.2019
2673 Mist 3 978 93 0 3.6 170 06:18 14.12.2019
2674 Drizzle 2 979 100 0 3.6 160 05:20 14.12.2019
2675 Snow 1 980 97 2500 3.6 160 02:44 14.12.2019
2676 Mist 1 980 97 3200 1.5 150 02:22 14.12.2019
2677 Snow 1 980 97 2800 4.1 150 01:43 14.12.2019
2678 Snow 1 981 97 2800 4.1 150 00:50 14.12.2019
2679 Snow 1 981 97 3000 1.5 150 00:29 14.12.2019
2680 Snow 1 981 97 6000 3.6 160 23:58 13.12.2019
2681 Snow 1 981 97 6000 3.6 160 23:39 13.12.2019
2682 Snow 1 981 90 6000 4.6 160 23:19 13.12.2019
2683 Clouds 1 981 90 10000 3.6 160 22:55 13.12.2019
2684 Clouds 1 981 90 10000 3.6 160 22:36 13.12.2019
2685 Drizzle 1 981 90 10000 5.7 150 22:18 13.12.2019
2686 Drizzle 2 981 90 10000 5.7 150 21:40 13.12.2019
2687 Clouds 2 982 90 10000 6.7 130 21:21 13.12.2019
2688 Clouds 2 981 90 10000 3.6 150 20:57 13.12.2019
2689 Clouds 2 981 90 10000 3.6 150 20:38 13.12.2019
2690 Clouds 2 981 87 10000 4.1 140 20:19 13.12.2019
2691 Clouds 2 981 87 10000 4.1 140 19:56 13.12.2019
2692 Clouds 2 981 87 10000 4.1 140 19:56 13.12.2019
2693 Clouds 2 981 87 6000 3.6 130 19:37 13.12.2019
2694 Clouds 2 981 87 10000 3.1 120 19:18 13.12.2019
2695 Clouds 2 981 86 6000 3.6 120 18:42 13.12.2019
2696 Clouds 2 982 80 10000 6.2 130 18:20 13.12.2019
2697 Clouds 2 982 80 10000 6.2 130 18:20 13.12.2019
2698 Clouds 1 981 87 10000 3.1 140 17:59 13.12.2019
2699 Clouds 2 981 86 6000 3.6 110 17:39 13.12.2019
2700 Clouds 2 981 85 10000 8.2 130 17:18 13.12.2019
2701 Clouds 2 981 85 10000 5.7 130 16:56 13.12.2019
2702 Clear 2 981 80 6000 3.1 100 16:38 13.12.2019
2703 Clouds 2 981 85 10000 7.2 120 16:20 13.12.2019
2704 Clouds 2 980 85 10000 6.2 130 15:42 13.12.2019
2705 Clouds 2 980 85 10000 6.2 130 15:42 13.12.2019
2706 Clouds 2 980 85 10000 7.7 120 15:21 13.12.2019
2707 Clouds 2 980 85 10000 7.2 130 14:57 13.12.2019
2708 Clear 3 980 80 7000 5.7 110 14:38 13.12.2019
2709 Clouds 3 981 86 10000 9.3 120 14:19 13.12.2019
2710 Clouds 3 980 80 10000 7.2 140 13:44 13.12.2019
2711 Clouds 3 980 80 10000 7.2 140 13:44 13.12.2019
2712 Clouds 3 981 86 10000 9.3 120 13:26 13.12.2019
2713 Clouds 3 980 80 10000 7.7 140 12:59 13.12.2019
2714 Clear 2 980 80 7000 6.7 120 12:40 13.12.2019
2715 Clouds 2 981 80 10000 9.8 120 12:19 13.12.2019
2716 Clouds 2 981 80 10000 9.8 120 12:19 13.12.2019
2717 Clouds 2 980 80 10000 6.7 130 11:45 13.12.2019
2718 Clouds 2 980 80 10000 6.7 130 11:45 13.12.2019
2719 Clouds 2 981 80 10000 7.7 120 11:26 13.12.2019
2720 Clouds 2 981 83 10000 7.2 140 10:58 13.12.2019
2721 Clouds 1 981 86 10000 7.2 110 10:40 13.12.2019
2722 Clouds 1 981 86 10000 7.7 140 10:21 13.12.2019
2723 Clouds 1 981 86 10000 6.2 120 09:43 13.12.2019
2724 Clouds 1 982 83 10000 7.7 130 09:22 13.12.2019
2725 Clouds 1 981 86 10000 7.2 140 08:59 13.12.2019
2726 Clouds 1 981 86 10000 6.2 120 08:40 13.12.2019
2727 Clouds 1 982 84 10000 7.7 120 08:22 13.12.2019
2728 Clouds 1 982 86 10000 7.2 150 07:43 13.12.2019
2729 Clouds 1 982 86 10000 5.1 120 07:20 13.12.2019
2730 Clouds 1 982 84 10000 6.2 140 06:50 13.12.2019
2731 Clouds 1 983 84 10000 8.2 130 06:28 13.12.2019
2732 Clouds 1 983 84 10000 7.2 140 05:44 13.12.2019
2733 Clouds 2 984 84 10000 7.7 130 05:24 13.12.2019
2734 Clear 2 984 80 6000 5.1 130 04:35 13.12.2019
2735 Clouds 2 986 85 10000 6.7 130 03:30 13.12.2019
2736 Clouds 2 987 85 7000 6.7 140 02:32 13.12.2019
2737 Clear 2 988 88 5000 5.1 140 01:42 13.12.2019
2738 Clouds 2 989 93 10000 5.7 160 00:53 13.12.2019
2739 Clouds 2 989 85 5000 4.6 140 00:34 13.12.2019
2740 Clouds 2 990 93 10000 6.7 160 23:57 12.12.2019
2741 Clouds 2 990 93 4800 3.6 140 23:37 12.12.2019
2742 Mist 2 990 100 3500 4.6 140 23:19 12.12.2019
2743 Clouds 2 991 93 10000 5.1 160 22:54 12.12.2019
2744 Clouds 2 991 93 4500 4.6 150 22:36 12.12.2019
2745 Clouds 2 992 93 8000 2.1 150 22:18 12.12.2019
2746 Clouds 2 992 93 10000 4.6 170 21:54 12.12.2019
2747 Clouds 2 992 93 4400 4.1 150 21:36 12.12.2019
2748 Mist 2 992 93 5000 4.1 160 21:18 12.12.2019
2749 Clouds 2 993 86 10000 4.6 180 20:55 12.12.2019
2750 Clouds 2 993 86 5000 3.1 160 20:37 12.12.2019
2751 Clouds 2 993 93 7000 4.1 170 20:19 12.12.2019
2752 Clouds 3 994 86 10000 3.1 180 19:42 12.12.2019
2753 Clouds 3 993 93 10000 4.1 170 19:22 12.12.2019
2754 Clouds 3 994 86 9000 5.1 190 18:58 12.12.2019
2755 Clouds 3 995 86 5000 3.1 190 18:39 12.12.2019
2756 Clouds 4 995 80 10000 3.1 190 18:20 12.12.2019
2757 Clouds 4 995 93 8000 4.6 190 17:57 12.12.2019
2758 Clouds 4 995 93 10000 3.1 190 17:39 12.12.2019
2759 Clouds 4 995 93 10000 3.1 190 17:20 12.12.2019
2760 Clouds 4 995 86 8000 5.1 210 16:58 12.12.2019
2761 Clouds 4 996 86 10000 4.1 190 16:39 12.12.2019
2762 Rain 5 995 86 10000 3.1 210 16:20 12.12.2019
2763 Clouds 5 995 86 8000 4.6 240 15:57 12.12.2019
2764 Clouds 5 996 86 10000 4.1 200 15:39 12.12.2019
2765 Clouds 5 995 87 8000 4.1 210 15:18 12.12.2019
2766 Rain 5 995 93 6000 5.1 240 14:56 12.12.2019
2767 Rain 5 995 87 6000 4.1 210 14:36 12.12.2019
2768 Rain 5 995 87 6000 4.1 210 14:18 12.12.2019
2769 Drizzle 5 996 87 4000 5.1 220 13:54 12.12.2019
2770 Clouds 5 997 93 7000 5.7 220 13:36 12.12.2019
2771 Rain 5 995 93 8000 5.1 200 13:18 12.12.2019
2772 Clouds 5 997 93 7000 4.6 210 12:40 12.12.2019
2773 Clouds 5 997 93 7000 4.6 210 12:22 12.12.2019
2774 Mist 5 997 93 4000 5.1 200 11:59 12.12.2019
2775 Drizzle 5 997 93 4100 4.6 200 11:39 12.12.2019
2776 Drizzle 5 997 93 4100 4.6 200 11:39 12.12.2019
2777 Drizzle 5 997 93 3500 6.2 200 11:21 12.12.2019
2778 Drizzle 5 997 86 4000 4.6 190 10:58 12.12.2019
2779 Drizzle 5 997 86 4500 5.1 190 10:40 12.12.2019
2780 Drizzle 5 997 86 4500 5.1 190 10:21 12.12.2019
2781 Clouds 4 998 93 7000 5.7 190 09:56 12.12.2019
2782 Mist 4 998 93 4000 4.6 180 09:38 12.12.2019
2783 Clouds 4 998 86 10000 2.6 170 09:19 12.12.2019
2784 Clouds 4 998 86 7000 4.6 180 08:46 12.12.2019
2785 Clouds 4 998 86 10000 3.1 210 08:28 12.12.2019
2786 Clouds 4 998 80 10000 3.6 210 07:54 12.12.2019
2787 Clouds 4 999 93 8000 3.1 170 07:36 12.12.2019
2788 Clouds 4 998 86 10000 4.1 210 07:18 12.12.2019
2789 Clouds 4 999 93 7000 4.1 210 06:41 12.12.2019
2790 Clouds 4 998 93 0 3.1 200 06:21 12.12.2019
2791 Clouds 4 999 93 0 2.6 200 05:26 12.12.2019
2792 Mist 4 999 93 4500 4.1 200 04:46 12.12.2019
2793 Clouds 4 1000 93 0 2.1 190 02:42 12.12.2019
2794 Clouds 4 1000 93 0 2.1 190 02:24 12.12.2019
2795 Clouds 4 1000 93 7000 2.6 200 01:59 12.12.2019
2796 Clouds 5 1000 93 2700 2.1 190 01:36 12.12.2019
2797 Clouds 5 1001 93 7000 3.1 190 00:49 12.12.2019
2798 Mist 5 1001 100 2000 2.6 180 00:22 12.12.2019
2799 Clouds 5 1001 93 7000 2.6 220 23:58 11.12.2019
2800 Clouds 5 1002 100 2600 2.6 190 23:37 11.12.2019
2801 Mist 5 1001 93 0 2.6 190 23:18 11.12.2019
2802 Clouds 5 1002 93 7000 2.6 200 22:56 11.12.2019
2803 Clouds 5 1002 93 7000 2.6 200 22:56 11.12.2019
2804 Clouds 5 1002 100 1200 2.1 190 22:38 11.12.2019
2805 Mist 5 1002 93 4000 2.6 180 22:19 11.12.2019
2806 Clouds 5 1002 93 10000 4.1 180 21:55 11.12.2019
2807 Clouds 5 1002 100 1100 2.6 170 21:36 11.12.2019
2808 Clouds 5 1002 93 7000 1.5 190 21:18 11.12.2019
2809 Clouds 5 1002 93 10000 4.6 190 20:55 11.12.2019
2810 Mist 5 1002 100 3000 2.6 170 20:36 11.12.2019
2811 Clouds 5 1002 87 10000 2.1 180 20:18 11.12.2019
2812 Mist 5 1003 93 3200 1.5 190 19:42 11.12.2019
2813 Clouds 5 1003 93 10000 1.5 200 19:23 11.12.2019
2814 Clouds 5 1003 93 9000 3.6 200 18:59 11.12.2019
2815 Mist 5 1003 93 4000 2.6 180 18:40 11.12.2019
2816 Clouds 6 1003 100 5000 3.1 190 18:20 11.12.2019
2817 Clouds 6 1003 93 9000 3.6 190 17:57 11.12.2019
2818 Clouds 6 1004 87 6000 3.1 180 17:38 11.12.2019
2819 Clouds 6 1003 93 10000 2.6 180 17:18 11.12.2019
2820 Clouds 6 1003 93 8000 4.1 200 16:56 11.12.2019
2821 Clouds 6 1004 87 8000 2.1 190 16:37 11.12.2019
2822 Clouds 6 1003 93 10000 2.6 190 16:19 11.12.2019
2823 Clouds 6 1004 93 8000 3.6 210 15:57 11.12.2019
2824 Clouds 6 1004 93 8000 2.6 210 15:37 11.12.2019
2825 Clouds 6 1004 87 10000 2.6 190 15:19 11.12.2019
2826 Clouds 6 1004 87 8000 4.1 210 14:55 11.12.2019
2827 Clouds 6 1004 93 8000 3.6 230 14:37 11.12.2019
2828 Clouds 6 1005 93 8000 4.6 230 14:19 11.12.2019
2829 Clouds 6 1004 87 7000 4.1 220 13:54 11.12.2019
2830 Clouds 6 1005 93 7000 4.1 220 13:36 11.12.2019
2831 Clouds 6 1004 87 10000 4.1 200 13:18 11.12.2019
2832 Clouds 6 1004 93 7000 5.1 220 12:54 11.12.2019
2833 Clouds 6 1005 93 6000 4.6 210 12:36 11.12.2019
2834 Clouds 6 1005 87 10000 4.6 210 12:18 11.12.2019
2835 Mist 6 1005 93 5000 6.2 230 11:54 11.12.2019
2836 Clouds 6 1006 87 8000 4.6 210 11:36 11.12.2019
2837 Clouds 6 1005 93 10000 5.1 210 11:18 11.12.2019
2838 Clouds 6 1006 93 8000 5.1 210 10:41 11.12.2019
2839 Clouds 6 1005 93 10000 4.1 220 10:23 11.12.2019
2840 Clouds 6 1005 93 7000 6.7 220 09:58 11.12.2019
2841 Clouds 5 1006 93 8000 5.1 220 09:38 11.12.2019
2842 Clouds 5 1005 93 10000 5.1 210 09:20 11.12.2019
2843 Clouds 5 1005 93 8000 6.2 220 08:56 11.12.2019
2844 Clouds 5 1006 93 8000 5.7 210 08:37 11.12.2019
2845 Rain 5 1004 93 10000 6.2 200 08:18 11.12.2019
2846 Rain 5 1004 93 8000 7.2 220 07:45 11.12.2019
2847 Rain 5 1004 87 10000 5.7 210 07:25 11.12.2019
2848 Rain 5 1004 93 8000 9.8 220 06:47 11.12.2019
2849 Rain 5 1004 93 8000 9.8 220 06:25 11.12.2019
2850 Rain 5 1004 93 8000 9.8 210 05:58 11.12.2019
2851 Clouds 5 1005 75 10000 8.2 210 05:37 11.12.2019
2852 Drizzle 5 1004 86 5000 9.8 210 04:57 11.12.2019
2853 Rain 5 1004 80 8000 10.3 210 03:49 11.12.2019
2854 Rain 5 1005 80 0 7.2 200 02:40 11.12.2019
2855 Rain 4 1006 72 0 7.2 190 01:23 11.12.2019
2856 Rain 5 1006 72 10000 11.8 200 00:46 11.12.2019
2857 Rain 4 1007 75 0 7.7 180 00:21 11.12.2019
2858 Rain 4 1007 80 10000 11.3 200 23:47 10.12.2019
2859 Rain 4 1007 75 0 8.2 180 23:28 10.12.2019
2860 Rain 4 1008 80 10000 12.9 190 22:58 10.12.2019
2861 Clouds 4 1010 75 5000 9.3 190 22:40 10.12.2019
2862 Rain 4 1009 75 10000 7.2 180 22:22 10.12.2019
2863 Rain 4 1009 80 10000 11.3 190 21:56 10.12.2019
2864 Clouds 4 1011 75 10000 10.3 180 21:38 10.12.2019
2865 Clouds 4 1011 75 10000 7.7 180 21:19 10.12.2019
2866 Clouds 4 1011 80 10000 11.3 200 20:57 10.12.2019
2867 Clouds 4 1012 80 10000 9.3 190 20:37 10.12.2019
2868 Clouds 4 1012 75 10000 7.2 180 20:19 10.12.2019
2869 Clouds 4 1012 80 10000 11.3 190 19:55 10.12.2019
2870 Clouds 4 1011 86 10000 7.7 180 19:37 10.12.2019
2871 Clouds 4 1011 86 10000 7.7 180 19:18 10.12.2019
2872 Clouds 4 1014 80 10000 8.2 180 18:40 10.12.2019
2873 Clouds 4 1014 75 10000 5.1 180 18:20 10.12.2019
2874 Clouds 4 1014 80 10000 8.2 190 17:58 10.12.2019
2875 Clouds 4 1016 82 10000 6.7 180 17:39 10.12.2019
2876 Clouds 4 1015 75 10000 4.6 180 17:20 10.12.2019
2877 Clouds 4 1015 81 10000 6.2 200 16:54 10.12.2019
2878 Clouds 4 1017 81 10000 5.1 180 16:36 10.12.2019
2879 Clouds 5 1016 70 10000 4.1 190 16:18 10.12.2019
2880 Clouds 5 1016 70 10000 4.1 190 16:18 10.12.2019
2881 Clouds 5 1018 81 10000 5.1 200 15:38 10.12.2019
2882 Clouds 6 1017 75 10000 3.6 190 15:18 10.12.2019
2883 Clouds 6 1017 70 10000 5.1 220 14:56 10.12.2019
2884 Clouds 6 1018 75 10000 4.6 220 14:37 10.12.2019
2885 Clouds 6 1018 75 10000 3.6 200 14:19 10.12.2019
2886 Clouds 6 1018 75 10000 5.1 200 13:57 10.12.2019
2887 Clouds 6 1019 81 10000 5.1 200 13:38 10.12.2019
2888 Clouds 5 1019 75 10000 3.1 190 13:19 10.12.2019
2889 Clouds 5 1019 80 10000 4.6 200 12:47 10.12.2019
2890 Clouds 5 1019 80 10000 3.1 200 12:27 10.12.2019
2891 Clouds 4 1019 75 10000 4.1 210 11:55 10.12.2019
2892 Clouds 5 1020 80 10000 2.6 200 11:37 10.12.2019
2893 Clouds 4 1019 80 10000 2.6 210 11:18 10.12.2019
2894 Clouds 3 1020 86 10000 3.6 220 10:42 10.12.2019
2895 Clouds 3 1019 86 10000 2.6 220 10:24 10.12.2019
2896 Clouds 2 1019 86 10000 5.1 230 09:57 10.12.2019
2897 Clouds 2 1020 84 10000 2.6 220 09:38 10.12.2019
2898 Clouds 2 1020 84 10000 2.6 220 09:38 10.12.2019
2899 Clouds 2 1019 84 10000 3.1 230 09:20 10.12.2019
2900 Clouds 2 1018 84 10000 3.6 260 08:58 10.12.2019
2901 Clouds 2 1019 84 10000 1.5 260 08:39 10.12.2019
2902 Clouds 2 1019 84 10000 1.5 260 08:39 10.12.2019
2903 Clear 2 1018 84 10000 3.6 250 08:19 10.12.2019
2904 Clouds 2 1019 84 10000 3.1 270 07:44 10.12.2019
2905 Clear 2 1017 84 10000 3.1 260 07:26 10.12.2019
2906 Clouds 3 1017 86 10000 5.1 290 06:50 10.12.2019
2907 Clear 3 1016 84 0 3.6 260 06:25 10.12.2019
2908 Clouds 3 1017 80 10000 6.2 300 05:57 10.12.2019
2909 Clouds 3 1017 84 10000 3.1 300 05:38 10.12.2019
2910 Clear 3 1014 80 10000 6.7 320 03:55 10.12.2019
2911 Clear 3 1014 80 10000 6.7 320 03:55 10.12.2019
2912 Clear 3 1013 79 0 5.1 300 03:24 10.12.2019
2913 Clear 3 1012 80 10000 7.7 320 01:56 10.12.2019
2914 Clear 3 1010 75 0 6.7 300 01:28 10.12.2019
2915 Clear 3 1010 75 0 6.7 300 01:28 10.12.2019
2916 Clear 3 1010 86 10000 8.2 310 00:58 10.12.2019
2917 Clear 3 1009 72 0 4.1 280 00:26 10.12.2019
2918 Clear 3 1008 86 10000 6.7 300 23:58 09.12.2019
2919 Clear 3 1009 72 6000 4.6 290 23:39 09.12.2019
2920 Clear 3 1007 77 0 4.1 280 23:20 09.12.2019
2921 Clear 3 1007 77 0 4.1 280 23:20 09.12.2019
2922 Clouds 3 1007 86 10000 6.7 310 22:56 09.12.2019
2923 Clear 4 1007 86 6000 4.6 300 22:38 09.12.2019
2924 Clouds 4 1005 75 10000 6.7 300 22:18 09.12.2019
2925 Clouds 4 1005 80 10000 7.7 320 21:55 09.12.2019
2926 Clear 5 1006 80 7000 9.8 320 21:37 09.12.2019
2927 Clouds 5 1003 75 10000 8.2 310 21:18 09.12.2019
2928 Rain 5 1003 75 10000 10.3 330 20:55 09.12.2019
2929 Rain 5 1002 75 10000 8.7 300 20:37 09.12.2019
2930 Rain 5 1002 75 10000 8.7 300 20:19 09.12.2019
2931 Clouds 5 1001 75 10000 11.3 310 19:55 09.12.2019
2932 Clouds 5 1001 75 10000 11.3 310 19:55 09.12.2019
2933 Clouds 5 1002 75 10000 7.2 310 19:37 09.12.2019
2934 Rain 5 1000 75 8000 9.3 300 19:18 09.12.2019
2935 Clouds 5 1000 75 10000 11.3 310 18:55 09.12.2019
2936 Clouds 6 1001 75 10000 6.2 290 18:36 09.12.2019
2937 Clouds 6 998 70 10000 7.7 300 18:18 09.12.2019
2938 Clouds 6 998 81 10000 9.8 310 17:56 09.12.2019
2939 Clouds 6 999 75 10000 7.7 310 17:37 09.12.2019
2940 Rain 6 997 70 10000 6.2 290 17:19 09.12.2019
2941 Clouds 6 997 87 10000 9.8 310 16:56 09.12.2019
2942 Clouds 6 997 86 10000 4.6 270 16:37 09.12.2019
2943 Clouds 6 996 75 10000 5.7 280 16:18 09.12.2019
2944 Clouds 6 995 87 10000 7.2 290 15:55 09.12.2019
2945 Clouds 6 996 87 10000 5.1 290 15:37 09.12.2019
2946 Clouds 6 994 93 10000 4.1 260 15:18 09.12.2019
2947 Rain 7 994 93 10000 7.7 290 14:42 09.12.2019
2948 Rain 7 994 93 10000 7.2 300 14:19 09.12.2019
2949 Rain 7 993 87 5000 8.7 270 13:58 09.12.2019
2950 Rain 7 993 87 10000 8.2 240 13:38 09.12.2019
2951 Clouds 7 992 87 10000 5.1 240 13:19 09.12.2019
2952 Rain 7 992 93 10000 8.7 250 12:57 09.12.2019
2953 Rain 7 993 87 5000 9.8 250 12:38 09.12.2019
2954 Rain 7 991 87 10000 8.7 250 12:19 09.12.2019
2955 Rain 7 991 93 6000 9.8 250 11:58 09.12.2019
2956 Clouds 7 992 81 10000 8.7 230 11:39 09.12.2019
2957 Rain 7 991 87 8000 6.7 240 11:21 09.12.2019
2958 Rain 7 991 87 4500 11.3 250 10:54 09.12.2019
2959 Clouds 6 992 81 10000 9.3 230 10:36 09.12.2019
2960 Clouds 6 990 87 10000 6.2 220 10:18 09.12.2019
2961 Rain 6 989 87 7000 6.2 220 09:41 09.12.2019
2962 Drizzle 6 990 93 7000 9.3 240 09:21 09.12.2019
2963 Rain 6 989 93 4500 10.8 230 08:55 09.12.2019
2964 Clouds 6 990 87 10000 10.8 230 08:37 09.12.2019
2965 Rain 6 988 93 10000 6.7 220 08:19 09.12.2019
2966 Drizzle 6 988 87 10000 8.7 230 07:42 09.12.2019
2967 Rain 6 987 93 8000 8.7 210 07:24 09.12.2019
2968 Rain 6 988 93 8000 9.3 230 06:55 09.12.2019
2969 Rain 6 987 93 6000 5.7 210 06:27 09.12.2019
2970 Rain 6 988 87 0 6.7 220 05:30 09.12.2019
2971 Clouds 6 988 87 10000 10.8 230 04:54 09.12.2019
2972 Clouds 6 987 81 10000 7.2 220 04:23 09.12.2019
2973 Thunderstorm 6 988 87 10000 9.8 240 02:28 09.12.2019
2974 Thunderstorm 6 988 87 10000 9.8 240 01:46 09.12.2019
2975 Clouds 6 988 81 10000 9.3 240 00:57 09.12.2019
2976 Rain 6 988 87 0 5.1 220 00:33 09.12.2019
2977 Clouds 6 988 87 10000 8.7 240 23:55 08.12.2019
2978 Clouds 6 988 87 10000 8.7 240 23:55 08.12.2019
2979 Rain 7 989 81 6000 9.3 230 23:37 08.12.2019
2980 Rain 7 987 87 8000 6.2 220 23:19 08.12.2019
2981 Clouds 6 988 87 10000 10.3 250 22:56 08.12.2019
2982 Clouds 7 989 87 10000 10.3 250 22:38 08.12.2019
2983 Clouds 7 989 87 10000 10.3 250 22:18 08.12.2019
2984 Rain 7 989 81 6000 10.3 270 21:56 08.12.2019
2985 Rain 7 990 81 4100 10.8 240 21:37 08.12.2019
2986 Rain 7 988 75 0 5.1 230 21:19 08.12.2019
2987 Clouds 7 989 81 10000 7.2 240 20:56 08.12.2019
2988 Rain 7 990 87 5000 9.8 230 20:37 08.12.2019
2989 Rain 7 988 81 10000 4.6 240 20:19 08.12.2019
2990 Rain 7 989 87 10000 9.3 260 19:55 08.12.2019
2991 Rain 7 990 87 4100 9.8 260 19:37 08.12.2019
2992 Rain 7 989 87 6000 9.8 250 19:18 08.12.2019
2993 Rain 7 989 81 4000 7.2 240 18:54 08.12.2019
2994 Clouds 8 988 81 10000 6.2 240 18:36 08.12.2019
2995 Clouds 8 988 81 10000 6.2 240 18:36 08.12.2019
2996 Clouds 8 988 81 10000 6.2 240 18:18 08.12.2019
2997 Rain 8 989 81 0 11.3 260 17:55 08.12.2019
2998 Rain 8 990 81 5000 9.8 250 17:36 08.12.2019
2999 Clouds 8 988 76 10000 5.7 240 17:18 08.12.2019
3000 Rain 8 989 87 0 12.3 260 16:55 08.12.2019
3001 Rain 8 990 87 4600 9.8 250 16:37 08.12.2019
3002 Clouds 9 988 76 10000 8.7 250 16:18 08.12.2019
3003 Rain 9 990 87 4400 12.9 250 15:38 08.12.2019
3004 Clouds 9 987 87 10000 10.3 250 15:19 08.12.2019
3005 Clouds 9 987 87 10000 10.3 250 15:19 08.12.2019
3006 Rain 9 988 93 0 10.8 250 14:58 08.12.2019
3007 Rain 9 990 87 5000 10.8 240 14:39 08.12.2019
3008 Rain 9 990 87 5000 10.8 240 14:39 08.12.2019
3009 Clouds 9 987 93 8000 9.8 240 14:20 08.12.2019
3010 Rain 9 988 93 0 12.3 260 13:54 08.12.2019
3011 Rain 9 990 93 2100 11.8 240 13:36 08.12.2019
3012 Rain 9 987 93 0 8.7 240 13:18 08.12.2019
3013 Rain 9 988 93 0 12.9 240 12:54 08.12.2019
3014 Rain 9 990 93 450 14.4 230 12:36 08.12.2019
3015 Rain 9 988 93 0 8.7 220 12:18 08.12.2019
3016 Drizzle 8 991 93 3000 9.3 220 11:38 08.12.2019
3017 Drizzle 8 991 93 3000 9.3 220 11:38 08.12.2019
3018 Drizzle 8 989 87 0 9.8 220 11:20 08.12.2019
3019 Rain 8 990 93 0 12.9 230 10:59 08.12.2019
3020 Rain 8 992 93 700 12.3 220 10:38 08.12.2019
3021 Drizzle 8 990 93 0 9.8 220 10:20 08.12.2019
3022 Rain 8 991 93 0 11.8 230 09:57 08.12.2019
3023 Rain 8 993 87 6000 7.7 220 09:38 08.12.2019
3024 Rain 8 993 87 10000 7.7 210 09:19 08.12.2019
3025 Rain 8 992 87 0 12.3 230 08:58 08.12.2019
3026 Rain 8 994 87 8000 8.7 210 08:38 08.12.2019
3027 Rain 8 992 87 0 9.3 210 08:19 08.12.2019
3028 Clouds 8 993 87 0 12.3 230 07:44 08.12.2019
3029 Clouds 8 993 81 0 9.8 220 07:20 08.12.2019
3030 Clouds 9 994 81 10000 11.8 230 06:51 08.12.2019
3031 Clouds 9 994 81 0 9.8 220 06:22 08.12.2019
3032 Clouds 8 995 87 10000 11.3 230 05:49 08.12.2019
3033 Clouds 8 996 87 0 8.7 220 05:18 08.12.2019
3034 Clouds 8 998 81 10000 10.8 230 03:51 08.12.2019
3035 Clouds 8 998 87 10000 10.3 210 03:26 08.12.2019
3036 Clouds 8 1000 87 0 6.2 220 02:40 08.12.2019
3037 Clouds 8 1002 81 10000 9.3 240 01:56 08.12.2019
3038 Clouds 8 1001 93 10000 7.7 230 01:27 08.12.2019
3039 Clouds 8 1003 87 10000 10.3 250 00:42 08.12.2019
3040 Clouds 8 1003 93 0 4.6 240 00:21 08.12.2019
3041 Clouds 8 1004 93 10000 7.7 250 23:55 07.12.2019
3042 Clouds 8 1005 93 4900 9.8 250 23:36 07.12.2019
3043 Rain 8 1004 93 0 3.6 230 23:18 07.12.2019
3044 Clouds 8 1005 93 10000 6.7 260 22:54 07.12.2019
3045 Rain 8 1006 93 4600 9.3 250 22:36 07.12.2019
3046 Rain 8 1004 93 0 3.6 230 22:18 07.12.2019
3047 Rain 8 1005 87 10000 6.7 250 21:54 07.12.2019
3048 Rain 8 1006 93 4600 8.2 250 21:36 07.12.2019
3049 Rain 7 1005 87 0 2.1 230 21:18 07.12.2019
3050 Rain 7 1006 93 5000 4.6 240 20:37 07.12.2019
3051 Rain 7 1005 87 0 2.6 240 20:19 07.12.2019
3052 Clouds 7 1005 87 10000 6.2 260 19:57 07.12.2019
3053 Rain 7 1006 93 5000 4.6 250 19:39 07.12.2019
3054 Rain 7 1005 87 0 4.1 240 19:21 07.12.2019
3055 Clouds 7 1005 87 10000 7.7 270 18:57 07.12.2019
3056 Rain 7 1006 93 4600 5.7 280 18:38 07.12.2019
3057 Rain 7 1005 87 0 4.6 260 18:18 07.12.2019
3058 Clouds 7 1005 87 10000 8.7 280 17:55 07.12.2019
3059 Rain 7 1006 93 5000 5.1 260 17:37 07.12.2019
3060 Clouds 7 1004 87 0 5.1 260 17:18 07.12.2019
3061 Clouds 7 1005 93 10000 8.7 280 16:55 07.12.2019
3062 Clouds 7 1006 87 5000 5.7 260 16:36 07.12.2019
3063 Clouds 7 1004 81 0 4.6 260 16:18 07.12.2019
3064 Clouds 8 1005 87 6000 6.7 270 15:40 07.12.2019
3065 Clouds 8 1003 81 0 4.1 260 15:22 07.12.2019
3066 Clouds 8 1004 87 6000 7.2 280 14:43 07.12.2019
3067 Clouds 8 1003 81 10000 5.1 270 14:20 07.12.2019
3068 Clouds 8 1003 87 10000 10.3 290 13:59 07.12.2019
3069 Clouds 8 1004 87 6000 8.2 270 13:39 07.12.2019
3070 Clouds 8 1002 81 10000 7.2 280 13:20 07.12.2019
3071 Clouds 9 1002 81 10000 10.3 290 12:55 07.12.2019
3072 Clouds 9 1003 81 5000 7.7 270 12:36 07.12.2019
3073 Clouds 8 1002 76 10000 6.2 280 12:18 07.12.2019
3074 Clouds 8 1002 81 10000 9.3 290 11:41 07.12.2019
3075 Clouds 8 1001 81 10000 5.1 270 11:23 07.12.2019
3076 Clouds 8 1002 87 10000 8.7 280 10:58 07.12.2019
3077 Clouds 8 1003 87 5000 6.2 270 10:36 07.12.2019
3078 Clouds 8 1001 81 10000 5.7 280 10:18 07.12.2019
3079 Clouds 7 1002 93 5000 5.7 270 09:40 07.12.2019
3080 Clouds 7 1000 81 10000 5.1 270 09:21 07.12.2019
3081 Clouds 7 1000 81 10000 5.1 270 09:21 07.12.2019
3082 Clouds 8 999 93 10000 9.8 290 08:47 07.12.2019
3083 Clouds 8 998 87 10000 6.7 290 08:25 07.12.2019
3084 Clouds 8 998 93 10000 13.4 320 07:57 07.12.2019
3085 Rain 8 999 93 1600 9.3 280 07:38 07.12.2019
3086 Clouds 8 996 93 10000 5.1 280 07:19 07.12.2019
3087 Drizzle 8 997 93 10000 12.3 290 06:45 07.12.2019
3088 Drizzle 8 996 93 2000 8.2 280 06:24 07.12.2019
3089 Drizzle 9 995 93 9000 11.3 280 04:49 07.12.2019
3090 Drizzle 8 994 93 8000 8.2 260 03:54 07.12.2019
3091 Clouds 8 994 93 10000 9.3 260 02:50 07.12.2019
3092 Rain 8 993 93 0 4.6 230 02:19 07.12.2019
3093 Rain 8 994 93 0 4.1 220 01:31 07.12.2019
3094 Drizzle 8 994 100 3000 8.7 240 00:52 07.12.2019
3095 Rain 8 994 100 0 5.7 220 00:19 07.12.2019
3096 Drizzle 8 994 93 3500 9.8 230 23:48 06.12.2019
3097 Drizzle 8 994 93 4500 6.2 220 23:24 06.12.2019
3098 Drizzle 8 995 93 3500 8.7 230 22:59 06.12.2019
3099 Rain 8 996 93 900 10.3 220 22:37 06.12.2019
3100 Drizzle 8 995 93 2500 6.2 220 22:19 06.12.2019
3101 Drizzle 8 995 93 2500 11.3 230 21:57 06.12.2019
3102 Rain 7 996 100 2400 10.3 220 21:38 06.12.2019
3103 Drizzle 7 995 100 3500 6.7 210 21:19 06.12.2019
3104 Drizzle 7 995 100 3500 6.7 210 20:42 06.12.2019
3105 Drizzle 7 995 93 3500 6.7 210 20:23 06.12.2019
3106 Drizzle 7 996 93 2300 8.2 220 19:58 06.12.2019
3107 Rain 7 997 93 1100 9.3 220 19:40 06.12.2019
3108 Drizzle 7 996 100 2500 6.7 210 19:21 06.12.2019
3109 Rain 7 996 93 0 9.8 230 18:55 06.12.2019
3110 Rain 7 998 93 1200 8.7 220 18:37 06.12.2019
3111 Drizzle 7 996 93 3000 6.2 210 18:19 06.12.2019
3112 Rain 7 997 93 0 9.3 230 17:55 06.12.2019
3113 Drizzle 7 997 93 5000 6.7 210 17:37 06.12.2019
3114 Drizzle 6 997 93 5000 6.7 210 17:19 06.12.2019
3115 Rain 6 997 100 0 9.8 230 16:42 06.12.2019
3116 Drizzle 6 998 93 6000 6.7 210 16:24 06.12.2019
3117 Rain 6 998 100 0 9.8 220 15:59 06.12.2019
3118 Drizzle 6 998 100 2000 7.2 210 15:40 06.12.2019
3119 Drizzle 6 998 93 2000 7.2 210 15:18 06.12.2019
3120 Rain 6 998 100 0 9.3 220 14:56 06.12.2019
3121 Rain 6 1000 93 3400 8.7 220 14:38 06.12.2019
3122 Drizzle 6 999 93 2500 6.7 210 14:18 06.12.2019
3123 Rain 6 1000 93 0 9.8 230 13:43 06.12.2019
3124 Rain 7 1000 93 2500 6.7 220 13:25 06.12.2019
3125 Rain 7 1000 93 0 9.3 230 12:43 06.12.2019
3126 Drizzle 7 1000 93 1800 5.7 220 12:23 06.12.2019
3127 Drizzle 7 1001 93 2500 10.3 240 11:58 06.12.2019
3128 Drizzle 7 1002 100 2200 10.3 220 11:39 06.12.2019
3129 Drizzle 7 1001 93 2000 9.3 240 11:21 06.12.2019
3130 Rain 7 1001 93 3000 9.8 240 10:44 06.12.2019
3131 Drizzle 7 1000 100 3000 6.2 230 10:22 06.12.2019
3132 Rain 7 1001 93 3000 9.3 240 09:58 06.12.2019
3133 Drizzle 7 1002 93 2500 11.3 230 09:38 06.12.2019
3134 Drizzle 7 1000 100 3000 6.7 230 09:20 06.12.2019
3135 Rain 7 1001 93 2500 13.4 250 08:57 06.12.2019
3136 Drizzle 7 1002 93 3000 11.3 230 08:38 06.12.2019
3137 Drizzle 7 1000 100 3000 7.7 230 08:20 06.12.2019
3138 Drizzle 7 1002 100 3000 12.3 230 07:37 06.12.2019
3139 Rain 6 1000 93 3000 11.8 250 07:19 06.12.2019
3140 Drizzle 7 1000 93 0 7.7 230 06:30 06.12.2019
3141 Rain 7 1001 93 3000 13.4 250 05:54 06.12.2019
3142 Drizzle 7 1003 93 3000 12.3 230 05:35 06.12.2019
3143 Rain 5 1001 93 0 8.7 220 02:19 06.12.2019
3144 Rain 5 1002 93 10000 13.9 240 01:43 06.12.2019
3145 Rain 5 1003 93 10000 13.9 230 00:49 06.12.2019
3146 Drizzle 5 1003 87 0 8.7 220 00:22 06.12.2019
3147 Clouds 5 1005 87 10000 12.9 230 23:50 05.12.2019
3148 Clouds 5 1005 87 0 8.2 220 23:20 05.12.2019
3149 Clouds 5 1006 93 6000 12.3 240 22:58 05.12.2019
3150 Clouds 5 1006 93 6000 11.3 240 22:38 05.12.2019
3151 Clouds 5 1006 93 6000 11.3 240 22:19 05.12.2019
3152 Clouds 5 1007 93 6000 9.8 220 21:55 05.12.2019
3153 Clouds 5 1009 93 4100 9.3 220 21:37 05.12.2019
3154 Mist 5 1006 87 5000 10.3 220 21:19 05.12.2019
3155 Clouds 5 1008 87 6000 9.8 240 20:55 05.12.2019
3156 Clouds 5 1008 87 6000 9.8 240 20:36 05.12.2019
3157 Clouds 5 1008 93 8000 5.7 220 20:18 05.12.2019
3158 Clouds 5 1009 93 9000 9.8 240 19:40 05.12.2019
3159 Clouds 6 1009 87 8000 5.7 220 19:22 05.12.2019
3160 Clouds 5 1010 93 7000 9.3 240 18:58 05.12.2019
3161 Clouds 6 1010 93 7000 9.3 240 18:38 05.12.2019
3162 Clouds 6 1010 87 8000 5.7 220 18:20 05.12.2019
3163 Clouds 6 1010 87 7000 8.7 250 17:55 05.12.2019
3164 Clouds 6 1010 87 7000 8.7 250 17:36 05.12.2019
3165 Mist 6 1012 93 3800 7.7 220 17:18 05.12.2019
3166 Clouds 6 1011 93 7000 9.3 250 16:40 05.12.2019
3167 Clouds 6 1011 93 7000 5.1 220 16:22 05.12.2019
3168 Clouds 7 1012 93 7000 8.2 230 15:58 05.12.2019
3169 Clouds 7 1012 93 7000 8.2 230 15:40 05.12.2019
3170 Clouds 7 1012 87 7000 5.1 210 15:21 05.12.2019
3171 Mist 7 1012 87 5000 7.2 230 14:57 05.12.2019
3172 Mist 7 1012 87 5000 7.2 230 14:38 05.12.2019
3173 Mist 7 1013 93 5000 6.7 230 14:20 05.12.2019
3174 Clouds 7 1012 93 7000 5.1 210 13:58 05.12.2019
3175 Mist 7 1013 93 4000 6.2 230 13:40 05.12.2019
3176 Clouds 7 1013 93 7000 5.1 220 13:21 05.12.2019
3177 Clouds 7 1013 93 7000 5.1 220 12:59 05.12.2019
3178 Mist 7 1014 87 2500 6.2 240 12:40 05.12.2019
3179 Clouds 6 1014 87 6000 4.6 210 12:22 05.12.2019
3180 Mist 6 1015 93 2500 6.7 230 11:56 05.12.2019
3181 Mist 6 1015 93 2500 6.7 230 11:37 05.12.2019
3182 Clouds 5 1015 93 5000 4.1 210 11:18 05.12.2019
3183 Mist 5 1015 93 2500 5.7 230 10:54 05.12.2019
3184 Mist 5 1015 93 2500 5.7 230 10:36 05.12.2019
3185 Clouds 5 1014 87 5000 4.1 220 10:18 05.12.2019
3186 Mist 5 1015 93 2800 5.7 240 09:42 05.12.2019
3187 Mist 5 1015 93 4000 3.6 220 09:20 05.12.2019
3188 Mist 5 1015 93 2800 6.7 230 08:58 05.12.2019
3189 Mist 5 1015 93 2800 6.7 230 08:37 05.12.2019
3190 Mist 5 1015 93 4000 4.6 220 08:19 05.12.2019
3191 Mist 6 1016 93 2800 6.7 230 07:49 05.12.2019
3192 Mist 5 1015 93 3000 4.6 210 07:31 05.12.2019
3193 Mist 6 1015 93 2800 5.1 230 06:57 05.12.2019
3194 Mist 5 1015 93 2800 5.1 230 06:38 05.12.2019
3195 Mist 5 1015 93 2800 5.7 210 06:18 05.12.2019
3196 Mist 5 1015 93 4500 5.1 210 05:47 05.12.2019
3197 Mist 6 1016 93 0 4.1 200 05:21 05.12.2019
3198 Clouds 5 1016 87 10000 4.6 250 03:52 05.12.2019
3199 Clouds 6 1017 87 9000 6.7 260 02:43 05.12.2019
3200 Clouds 5 1016 93 0 3.1 220 02:23 05.12.2019
3201 Clouds 6 1017 93 8000 5.7 230 01:52 05.12.2019
3202 Clear 6 1017 87 0 4.1 240 01:24 05.12.2019
3203 Clouds 6 1017 87 8000 6.2 240 00:50 05.12.2019
3204 Clear 6 1017 87 0 3.6 220 00:29 05.12.2019
3205 Clouds 6 1017 87 8000 6.2 230 23:57 04.12.2019
3206 Clouds 6 1017 87 8000 6.2 230 23:39 04.12.2019
3207 Mist 6 1017 93 0 3.1 220 23:20 04.12.2019
3208 Mist 6 1018 93 5000 3.6 210 22:55 04.12.2019
3209 Mist 6 1018 93 5000 3.6 210 22:36 04.12.2019
3210 Mist 6 1018 93 5000 4.1 210 22:18 04.12.2019
3211 Clouds 6 1018 93 7000 6.7 230 21:54 04.12.2019
3212 Clouds 6 1018 93 7000 6.7 230 21:36 04.12.2019
3213 Clouds 6 1017 100 5000 4.1 220 21:18 04.12.2019
3214 Clouds 6 1018 93 9000 6.2 230 20:55 04.12.2019
3215 Clouds 6 1018 93 9000 6.2 230 20:37 04.12.2019
3216 Clouds 6 1018 93 7000 2.6 220 20:19 04.12.2019
3217 Clouds 6 1018 93 10000 6.7 230 19:40 04.12.2019
3218 Clouds 6 1018 93 8000 3.1 220 19:21 04.12.2019
3219 Clouds 6 1018 93 9000 5.7 240 18:58 04.12.2019
3220 Clouds 6 1018 93 9000 5.7 240 18:58 04.12.2019
3221 Clouds 6 1018 93 9000 5.7 240 18:40 04.12.2019
3222 Mist 6 1019 93 5000 4.6 220 18:22 04.12.2019
3223 Clouds 6 1018 87 7000 6.2 230 17:56 04.12.2019
3224 Clouds 6 1018 87 7000 6.2 230 17:37 04.12.2019
3225 Clouds 6 1018 93 6000 3.1 220 17:18 04.12.2019
3226 Clouds 6 1018 87 7000 6.2 240 16:40 04.12.2019
3227 Clouds 6 1018 87 7000 6.2 240 16:40 04.12.2019
3228 Clouds 6 1018 87 8000 3.6 220 16:20 04.12.2019
3229 Clouds 6 1018 87 7000 6.7 250 15:57 04.12.2019
3230 Clouds 6 1018 87 7000 6.7 250 15:39 04.12.2019
3231 Clouds 7 1018 87 10000 4.1 240 15:20 04.12.2019
3232 Clouds 7 1018 87 10000 4.1 240 14:59 04.12.2019
3233 Clouds 7 1018 87 7000 7.2 260 14:40 04.12.2019
3234 Clouds 7 1018 87 10000 3.1 240 14:21 04.12.2019
3235 Clouds 7 1018 87 7000 7.2 250 13:56 04.12.2019
3236 Clouds 7 1018 87 7000 7.2 250 13:36 04.12.2019
3237 Mist 7 1019 87 4600 6.2 230 13:18 04.12.2019
3238 Clouds 7 1019 87 8000 6.2 250 12:41 04.12.2019
3239 Clouds 7 1020 87 6000 4.6 230 12:23 04.12.2019
3240 Clouds 7 1019 87 10000 5.7 260 11:44 04.12.2019
3241 Mist 7 1020 87 5000 3.1 230 11:26 04.12.2019
3242 Clouds 7 1019 81 10000 4.6 250 10:58 04.12.2019
3243 Clouds 7 1019 81 10000 4.6 250 10:40 04.12.2019
3244 Clouds 6 1018 87 10000 3.6 240 10:22 04.12.2019
3245 Clouds 6 1019 87 10000 6.2 260 09:44 04.12.2019
3246 Mist 6 1020 87 4300 4.1 230 09:24 04.12.2019
3247 Clouds 6 1018 87 10000 6.2 260 08:56 04.12.2019
3248 Clouds 6 1018 87 10000 6.2 260 08:38 04.12.2019
3249 Clouds 7 1018 81 10000 3.1 240 08:19 04.12.2019
3250 Clouds 7 1019 81 10000 7.2 260 07:42 04.12.2019
3251 Clouds 7 1018 81 10000 2.6 230 07:22 04.12.2019
3252 Clouds 7 1018 81 0 7.7 260 06:33 04.12.2019
3253 Clouds 7 1018 81 0 6.7 260 05:48 04.12.2019
3254 Clouds 7 1018 81 0 8.2 270 04:58 04.12.2019
3255 Clouds 7 1019 81 0 7.7 270 03:54 04.12.2019
3256 Clouds 7 1018 87 0 4.1 260 02:21 04.12.2019
3257 Clouds 7 1019 93 0 7.7 270 00:50 04.12.2019
3258 Clouds 7 1019 93 0 4.1 260 00:23 04.12.2019
3259 Clouds 7 1019 93 0 8.7 270 23:56 03.12.2019
3260 Clouds 7 1019 93 0 8.7 270 23:38 03.12.2019
3261 Mist 7 1019 93 5000 4.6 260 23:19 03.12.2019
3262 Clouds 7 1019 93 0 9.8 270 22:40 03.12.2019
3263 Clouds 7 1019 93 8000 4.6 260 22:19 03.12.2019
3264 Clouds 7 1019 93 8000 4.6 260 21:58 03.12.2019
3265 Clouds 7 1019 93 0 10.8 270 21:38 03.12.2019
3266 Clouds 7 1019 93 0 10.8 270 21:38 03.12.2019
3267 Mist 7 1019 93 4500 5.7 260 21:19 03.12.2019
3268 Clouds 7 1020 93 0 9.3 270 20:58 03.12.2019
3269 Clouds 7 1020 93 0 9.3 270 20:39 03.12.2019
3270 Clouds 7 1019 93 8000 5.7 260 20:18 03.12.2019
3271 Clouds 7 1020 93 0 9.8 270 19:55 03.12.2019
3272 Clouds 7 1020 93 0 9.8 270 19:37 03.12.2019
3273 Clouds 7 1019 93 8000 5.1 240 19:18 03.12.2019
3274 Drizzle 7 1020 100 5000 9.3 260 18:56 03.12.2019
3275 Drizzle 7 1020 100 5000 9.3 260 18:37 03.12.2019
3276 Mist 7 1019 93 4000 4.1 240 18:19 03.12.2019
3277 Drizzle 7 1020 100 5000 9.8 260 17:54 03.12.2019
3278 Drizzle 7 1020 100 5000 9.8 260 17:36 03.12.2019
3279 Drizzle 7 1020 100 5000 9.8 260 17:36 03.12.2019
3280 Drizzle 7 1020 87 7000 9.3 260 17:18 03.12.2019
3281 Clouds 7 1020 93 8000 8.7 260 16:56 03.12.2019
3282 Clouds 7 1020 93 8000 8.7 260 16:36 03.12.2019
3283 Clouds 7 1020 93 10000 3.6 240 16:18 03.12.2019
3284 Clouds 7 1021 93 10000 9.3 260 15:40 03.12.2019
3285 Drizzle 7 1022 93 2600 7.7 250 15:20 03.12.2019
3286 Rain 7 1020 93 10000 4.1 240 14:59 03.12.2019
3287 Drizzle 7 1021 93 8000 8.7 260 14:41 03.12.2019
3288 Drizzle 7 1021 100 4500 9.3 260 14:19 03.12.2019
3289 Mist 7 1021 93 3000 7.2 260 13:39 03.12.2019
3290 Clouds 7 1022 100 10000 3.1 240 13:21 03.12.2019
3291 Mist 7 1022 93 3000 5.7 250 12:59 03.12.2019
3292 Mist 7 1022 93 3000 5.7 250 12:38 03.12.2019
3293 Drizzle 7 1022 93 5000 5.1 230 12:18 03.12.2019
3294 Drizzle 7 1022 93 2500 5.1 240 11:58 03.12.2019
3295 Drizzle 7 1022 93 2500 5.1 240 11:38 03.12.2019
3296 Fog 7 1022 93 900 2.6 220 11:20 03.12.2019
3297 Mist 6 1022 100 5000 6.7 240 10:57 03.12.2019
3298 Mist 6 1022 100 5000 6.7 240 10:39 03.12.2019
3299 Mist 5 1022 93 1200 3.6 220 10:19 03.12.2019
3300 Mist 5 1023 93 2500 6.2 230 09:46 03.12.2019
3301 Rain 4 1023 93 3000 3.1 220 09:25 03.12.2019
3302 Rain 4 1023 93 3000 3.1 220 08:59 03.12.2019
3303 Drizzle 4 1023 100 4500 4.1 240 08:40 03.12.2019
3304 Mist 3 1024 100 5000 1 210 08:21 03.12.2019
3305 Clouds 3 1023 100 10000 3.6 220 07:54 03.12.2019
3306 Clouds 3 1023 93 10000 2.6 200 07:30 03.12.2019
3307 Clouds 3 1024 100 10000 4.1 230 06:59 03.12.2019
3308 Clouds 2 1024 93 0 0.5 160 06:21 03.12.2019
3309 Clouds 1 1024 100 10000 2.6 230 05:56 03.12.2019
3310 Clouds 1 1024 85 10000 2.6 250 04:48 03.12.2019
3311 Clouds 0 1024 85 10000 2.6 240 03:36 03.12.2019
3312 Clouds 1 1024 93 0 3.1 250 03:18 03.12.2019
3313 Clouds 0 1024 85 10000 4.1 280 02:43 03.12.2019
3314 Clouds 2 1024 93 0 3.1 240 02:24 03.12.2019
3315 Clouds 2 1024 85 10000 3.1 270 01:41 03.12.2019
3316 Clouds 2 1023 85 0 2.1 250 01:21 03.12.2019
3317 Clouds 2 1024 100 10000 4.1 290 00:44 03.12.2019
3318 Clouds 2 1024 100 10000 4.1 290 00:44 03.12.2019
3319 Clouds 1 1023 93 0 2.6 270 00:26 03.12.2019
3320 Clouds 2 1023 93 10000 4.6 300 23:57 02.12.2019
3321 Clouds 2 1023 93 10000 4.6 300 23:39 02.12.2019
3322 Clouds 2 1023 86 10000 2.1 270 23:19 02.12.2019
3323 Clouds 3 1023 86 10000 3.1 320 22:39 02.12.2019
3324 Clouds 3 1023 86 10000 2.6 270 22:21 02.12.2019
3325 Clouds 3 1023 86 10000 5.7 310 21:57 02.12.2019
3326 Clouds 3 1023 86 10000 5.7 310 21:36 02.12.2019
3327 Clouds 3 1022 86 10000 3.1 260 21:18 02.12.2019
3328 Clouds 3 1022 86 10000 5.1 320 20:56 02.12.2019
3329 Clouds 3 1022 86 10000 5.1 320 20:38 02.12.2019
3330 Clouds 3 1022 80 10000 4.1 300 20:19 02.12.2019
3331 Clouds 3 1022 80 10000 4.1 300 20:19 02.12.2019
3332 Clouds 3 1022 86 10000 5.7 320 19:42 02.12.2019
3333 Clouds 3 1022 86 10000 3.1 280 19:22 02.12.2019
3334 Clouds 2 1021 76 10000 3.1 270 18:59 02.12.2019
3335 Clouds 2 1021 76 10000 3.1 270 18:59 02.12.2019
3336 Clouds 2 1021 86 10000 6.7 310 18:39 02.12.2019
3337 Clouds 2 1021 80 10000 3.6 310 18:19 02.12.2019
3338 Clouds 2 1021 80 10000 3.6 310 18:19 02.12.2019
3339 Clouds 3 1020 86 10000 7.2 310 17:57 02.12.2019
3340 Clouds 3 1020 86 10000 7.2 310 17:39 02.12.2019
3341 Clouds 3 1020 80 10000 4.1 310 17:19 02.12.2019
3342 Clouds 4 1020 80 10000 6.2 320 16:40 02.12.2019
3343 Clouds 4 1020 75 10000 5.7 320 16:19 02.12.2019
3344 Clouds 5 1019 75 10000 7.7 320 15:58 02.12.2019
3345 Clouds 5 1019 75 10000 7.7 320 15:40 02.12.2019
3346 Clouds 5 1019 70 10000 7.7 320 15:22 02.12.2019
3347 Clouds 5 1019 70 10000 7.7 320 14:59 02.12.2019
3348 Clouds 6 1019 70 10000 7.7 320 14:38 02.12.2019
3349 Clouds 6 1018 75 10000 7.2 310 14:20 02.12.2019
3350 Clouds 6 1019 75 10000 8.2 320 13:57 02.12.2019
3351 Clouds 6 1019 75 10000 8.2 320 13:39 02.12.2019
3352 Clouds 6 1019 75 10000 8.2 320 13:39 02.12.2019
3353 Clouds 6 1018 75 10000 4.6 300 13:19 02.12.2019
3354 Clouds 6 1019 81 10000 7.7 320 12:55 02.12.2019
3355 Clouds 5 1019 81 10000 7.7 320 12:37 02.12.2019
3356 Clouds 5 1018 80 10000 3.6 270 12:19 02.12.2019
3357 Clouds 4 1019 86 10000 5.1 290 11:38 02.12.2019
3358 Clouds 4 1018 80 10000 3.6 270 11:20 02.12.2019
3359 Clouds 4 1018 80 10000 3.6 270 10:59 02.12.2019
3360 Clouds 3 1018 86 10000 5.7 310 10:41 02.12.2019
3361 Clouds 3 1017 80 10000 4.6 290 10:22 02.12.2019
3362 Clouds 3 1017 80 10000 4.6 290 10:22 02.12.2019
3363 Clouds 3 1018 93 10000 3.1 280 09:57 02.12.2019
3364 Rain 2 1018 93 8000 3.1 280 09:39 02.12.2019
3365 Clouds 2 1017 86 10000 4.6 280 09:19 02.12.2019
3366 Clouds 2 1017 80 10000 4.1 280 08:55 02.12.2019
3367 Clouds 2 1017 80 10000 4.1 280 08:55 02.12.2019
3368 Clouds 2 1017 80 10000 4.1 280 08:37 02.12.2019
3369 Clouds 1 1017 80 10000 4.1 270 08:19 02.12.2019
3370 Clouds 1 1017 86 10000 3.1 270 07:40 02.12.2019
3371 Clouds 1 1017 86 10000 4.1 250 07:20 02.12.2019
3372 Clouds 1 1016 86 10000 3.6 260 06:52 02.12.2019
3373 Clouds 1 1016 86 10000 3.6 260 06:34 02.12.2019
3374 Clouds 2 1016 86 0 4.1 270 05:24 02.12.2019
3375 Clouds 2 1016 86 0 3.6 270 04:20 02.12.2019
3376 Clouds 2 1017 93 0 3.6 250 02:51 02.12.2019
3377 Rain 2 1017 93 0 3.6 250 02:23 02.12.2019
3378 Rain 2 1017 93 0 3.1 250 01:24 02.12.2019
3379 Clouds 2 1018 86 10000 4.1 260 00:55 02.12.2019
3380 Rain 2 1017 86 0 3.6 240 00:24 02.12.2019
3381 Clouds 2 1018 86 10000 4.1 250 23:45 01.12.2019
3382 Clouds 2 1018 86 0 3.6 240 23:23 01.12.2019
3383 Clouds 2 1018 86 10000 4.6 260 22:58 01.12.2019
3384 Clouds 2 1018 86 10000 4.6 260 22:39 01.12.2019
3385 Clouds 2 1018 86 0 3.1 250 22:20 01.12.2019
3386 Clouds 2 1018 86 0 3.1 250 21:58 01.12.2019
3387 Clouds 1 1018 93 10000 4.1 260 21:40 01.12.2019
3388 Clouds 1 1018 86 0 3.6 250 21:22 01.12.2019
3389 Clouds 2 1018 86 0 3.6 250 20:59 01.12.2019
3390 Clouds 2 1018 86 0 3.6 250 20:59 01.12.2019
3391 Clouds 1 1019 93 10000 4.6 270 20:41 01.12.2019
3392 Clouds 2 1018 86 10000 2.6 240 20:23 01.12.2019
3393 Clouds 2 1018 86 10000 2.6 240 19:59 01.12.2019
3394 Clouds 1 1019 100 100 2.1 230 19:40 01.12.2019
3395 Clouds 2 1019 93 10000 2.1 260 19:21 01.12.2019
3396 Clouds 2 1019 93 0 5.1 270 18:58 01.12.2019
3397 Clouds 2 1019 93 0 5.1 270 18:39 01.12.2019
3398 Clouds 3 1019 86 10000 2.6 240 18:20 01.12.2019
3399 Clouds 3 1019 86 10000 2.6 240 17:59 01.12.2019
3400 Clouds 3 1019 93 0 5.1 270 17:41 01.12.2019
3401 Clouds 3 1019 86 10000 2.6 250 17:23 01.12.2019
3402 Clouds 3 1020 93 0 4.1 260 16:56 01.12.2019
3403 Clouds 3 1020 93 0 4.1 260 16:38 01.12.2019
3404 Clouds 3 1019 86 10000 3.1 250 16:20 01.12.2019
3405 Clouds 3 1020 86 0 5.1 270 15:49 01.12.2019
3406 Clouds 3 1020 75 10000 3.1 260 15:31 01.12.2019
3407 Clouds 3 1020 75 10000 3.1 260 15:31 01.12.2019
3408 Clouds 4 1020 87 0 5.7 270 14:44 01.12.2019
3409 Clouds 4 1020 81 0 2.1 260 14:20 01.12.2019
3410 Clouds 4 1020 81 0 2.1 260 13:59 01.12.2019
3411 Clouds 4 1020 81 0 3.6 280 13:39 01.12.2019
3412 Fog 4 1021 93 400 0.5 0 13:20 01.12.2019
3413 Clouds 4 1020 87 0 2.1 280 12:44 01.12.2019
3414 Clouds 3 1021 100 0 2.1 240 11:59 01.12.2019
3415 Clouds 2 1021 100 0 2.1 240 11:40 01.12.2019
3416 Clouds 2 1021 93 10000 1.5 210 11:21 01.12.2019
3417 Clouds 1 1021 100 0 3.1 260 10:44 01.12.2019
3418 Clouds 1 1021 93 0 3.1 240 10:22 01.12.2019
3419 Clouds 1 1021 100 0 2.6 260 09:58 01.12.2019
3420 Clouds 0 1021 100 0 2.6 260 09:39 01.12.2019
3421 Mist 0 1021 92 1600 1.5 0 09:20 01.12.2019
3422 Clouds 0 1021 100 0 3.1 260 08:47 01.12.2019
3423 Fog 0 1021 92 300 0.5 130 08:20 01.12.2019
3424 Clouds 0 1021 100 0 2.6 280 07:51 01.12.2019
3425 Clouds 0 1021 92 10000 1 200 07:31 01.12.2019
3426 Clouds 0 1021 88 10000 2.1 260 06:57 01.12.2019
3427 Clouds 0 1021 88 10000 2.1 260 06:35 01.12.2019
3428 Clouds 0 1021 88 10000 2.6 260 05:49 01.12.2019
3429 Clouds 0 1021 87 10000 2.6 270 04:52 01.12.2019
3430 Clouds 1 1021 93 0 3.1 240 03:31 01.12.2019
3431 Clouds 1 1021 100 10000 4.6 270 02:37 01.12.2019
3432 Clouds 1 1021 86 0 3.1 250 02:18 01.12.2019
3433 Clouds 2 1021 100 10000 4.1 260 01:52 01.12.2019
3434 Clouds 2 1021 93 0 2.6 240 01:26 01.12.2019
3435 Clouds 2 1022 100 10000 3.6 270 00:43 01.12.2019
3436 Clouds 1 1021 93 0 3.1 250 00:24 01.12.2019
3437 Clouds 1 1021 87 10000 3.1 260 23:44 30.11.2019
3438 Clouds 1 1021 86 0 3.1 250 23:24 30.11.2019
3439 Clouds 1 1021 100 10000 2.6 270 22:57 30.11.2019
3440 Clouds 1 1021 100 10000 2.6 270 22:38 30.11.2019
3441 Clouds 1 1021 85 10000 1.5 230 22:20 30.11.2019
3442 Clouds 1 1021 85 10000 3.1 280 21:47 30.11.2019
3443 Clouds 1 1021 86 0 2.6 250 21:28 30.11.2019
3444 Clouds 1 1021 100 10000 3.6 270 20:57 30.11.2019
3445 Clouds 1 1021 100 10000 3.6 270 20:39 30.11.2019
3446 Clouds 1 1021 93 0 2.6 250 20:19 30.11.2019
3447 Clouds 1 1021 93 10000 3.1 270 19:56 30.11.2019
3448 Clouds 1 1021 93 10000 3.1 270 19:38 30.11.2019
3449 Clouds 1 1021 93 0 3.1 250 19:20 30.11.2019
3450 Clouds 2 1021 93 0 3.1 250 18:58 30.11.2019
3451 Clouds 2 1021 93 10000 3.1 270 18:38 30.11.2019
3452 Clouds 2 1021 86 0 3.1 250 18:19 30.11.2019
3453 Clouds 2 1021 86 0 3.1 250 17:58 30.11.2019
3454 Clouds 2 1021 86 0 3.1 250 17:39 30.11.2019
3455 Rain 3 1020 86 0 3.1 260 17:20 30.11.2019
3456 Clouds 3 1021 86 10000 3.6 260 16:57 30.11.2019
3457 Clouds 3 1020 86 10000 4.6 270 16:39 30.11.2019
3458 Rain 4 1020 86 10000 2.6 260 16:20 30.11.2019
3459 Clouds 4 1020 81 10000 7.2 290 15:42 30.11.2019
3460 Clouds 4 1020 81 10000 7.2 290 15:42 30.11.2019
3461 Rain 5 1020 75 10000 3.1 270 15:19 30.11.2019
3462 Clouds 5 1020 81 10000 5.7 290 14:58 30.11.2019
3463 Clouds 5 1020 81 10000 5.7 290 14:58 30.11.2019
3464 Clouds 5 1020 81 10000 5.7 290 14:38 30.11.2019
3465 Rain 5 1019 75 10000 2.6 270 14:20 30.11.2019
3466 Rain 5 1019 75 10000 2.6 270 13:58 30.11.2019
3467 Clouds 5 1020 81 10000 6.7 290 13:40 30.11.2019
3468 Rain 5 1019 75 10000 3.1 280 13:22 30.11.2019
3469 Clouds 5 1019 81 10000 5.1 310 12:47 30.11.2019
3470 Rain 5 1020 80 10000 4.1 270 12:29 30.11.2019
3471 Rain 4 1019 80 10000 3.1 260 11:59 30.11.2019
3472 Clouds 4 1019 86 10000 6.2 280 11:40 30.11.2019
3473 Clouds 3 1019 93 10000 2.6 270 11:18 30.11.2019
3474 Clouds 3 1019 93 10000 5.7 290 10:54 30.11.2019
3475 Clouds 3 1019 93 10000 5.7 290 10:36 30.11.2019
3476 Clouds 2 1018 86 10000 3.1 250 10:18 30.11.2019
3477 Clouds 1 1018 93 10000 4.1 270 09:42 30.11.2019
3478 Clouds 1 1018 81 10000 4.1 280 09:20 30.11.2019
3479 Clouds 1 1018 81 10000 4.1 270 08:42 30.11.2019
3480 Clouds 1 1017 82 10000 2.1 240 08:20 30.11.2019
3481 Clouds 1 1017 93 10000 5.1 280 07:54 30.11.2019
3482 Clouds 1 1017 93 10000 5.1 280 07:36 30.11.2019
3483 Clouds 1 1017 93 10000 6.2 280 06:55 30.11.2019
3484 Clouds 1 1016 82 0 3.1 270 06:29 30.11.2019
3485 Clouds 1 1016 93 10000 6.2 290 05:49 30.11.2019
3486 Clouds 0 1016 83 10000 4.1 280 03:48 30.11.2019
3487 Clouds 0 1015 83 10000 5.1 280 02:39 30.11.2019
3488 Clear 0 1014 80 0 3.1 250 02:21 30.11.2019
3489 Clouds 0 1014 74 0 3.6 250 01:25 30.11.2019
3490 Clear 0 1014 74 0 3.6 250 01:25 30.11.2019
3491 Clear 0 1014 74 0 3.6 250 01:25 30.11.2019
3492 Clouds -1 1014 100 10000 5.1 270 00:50 30.11.2019
3493 Clouds -1 1013 74 0 3.6 250 00:31 30.11.2019
3494 Clouds -1 1013 74 0 3.6 250 23:59 29.11.2019
3495 Clouds -1 1013 74 0 3.6 250 23:59 29.11.2019
3496 Clouds -1 1013 92 10000 4.1 270 23:40 29.11.2019
3497 Clear -1 1013 92 10000 1 250 23:22 29.11.2019
3498 Clear -1 1013 100 10000 3.6 260 22:45 29.11.2019
3499 Clouds -1 1012 69 10000 3.6 250 22:25 29.11.2019
3500 Clear -1 1012 92 10000 4.1 270 21:44 29.11.2019
3501 Clouds -1 1012 69 10000 3.1 260 21:25 29.11.2019
3502 Clear 0 1011 72 10000 3.6 280 20:58 29.11.2019
3503 Clear 0 1011 66 10000 3.6 280 20:39 29.11.2019
3504 Clouds 0 1011 74 10000 3.1 250 20:20 29.11.2019
3505 Clouds 0 1011 74 10000 3.1 250 19:58 29.11.2019
3506 Clear 0 1011 59 10000 3.1 260 19:39 29.11.2019
3507 Clouds 0 1010 74 10000 2.6 270 19:20 29.11.2019
3508 Clouds 0 1010 74 10000 2.6 270 19:20 29.11.2019
3509 Clear 1 1010 59 10000 4.1 300 18:58 29.11.2019
3510 Clouds 1 1010 69 10000 3.1 280 18:40 29.11.2019
3511 Clouds 1 1009 69 10000 3.1 280 18:21 29.11.2019
3512 Clear 2 1009 74 10000 4.6 320 17:44 29.11.2019
3513 Clouds 2 1009 64 10000 3.1 280 17:26 29.11.2019
3514 Clear 3 1008 69 10000 5.7 310 16:58 29.11.2019
3515 Clear 3 1008 69 10000 5.7 310 16:58 29.11.2019
3516 Clear 3 1008 69 10000 5.7 310 16:39 29.11.2019
3517 Clear 3 1008 69 10000 5.7 310 16:39 29.11.2019
3518 Clouds 3 1007 64 10000 6.7 320 16:19 29.11.2019
3519 Clear 4 1007 60 10000 6.2 330 15:41 29.11.2019
3520 Clouds 4 1006 65 10000 8.2 330 15:23 29.11.2019
3521 Clear 5 1006 60 10000 10.3 340 14:58 29.11.2019
3522 Clear 5 1006 60 10000 10.3 340 14:39 29.11.2019
3523 Clouds 5 1005 65 10000 9.3 330 14:21 29.11.2019
3524 Clouds 5 1005 65 10000 10.8 350 13:55 29.11.2019
3525 Clouds 5 1005 65 10000 10.8 350 13:37 29.11.2019
3526 Clouds 5 1003 60 10000 9.8 330 13:19 29.11.2019
3527 Clouds 5 1003 65 10000 10.8 350 12:41 29.11.2019
3528 Clouds 5 1002 69 10000 8.7 340 12:23 29.11.2019
3529 Clouds 4 1002 59 10000 11.3 340 11:55 29.11.2019
3530 Clouds 4 1002 59 10000 11.3 340 11:55 29.11.2019
3531 Clouds 4 1002 59 10000 11.3 340 11:36 29.11.2019
3532 Clouds 4 1000 80 10000 10.3 320 11:18 29.11.2019
3533 Clouds 4 1000 80 10000 10.8 330 10:56 29.11.2019
3534 Clouds 3 1000 80 10000 10.8 330 10:38 29.11.2019
3535 Clouds 3 999 80 10000 10.3 330 10:19 29.11.2019
3536 Clouds 3 999 86 10000 9.8 330 09:56 29.11.2019
3537 Clouds 3 999 86 10000 9.8 330 09:37 29.11.2019
3538 Clouds 3 997 80 10000 11.3 320 09:19 29.11.2019
3539 Clouds 3 997 86 10000 8.2 320 08:54 29.11.2019
3540 Clouds 3 997 86 10000 8.2 320 08:36 29.11.2019
3541 Clouds 3 996 80 10000 9.8 310 08:18 29.11.2019
3542 Clouds 3 996 86 10000 8.7 320 07:41 29.11.2019
3543 Clouds 3 994 80 10000 10.8 310 07:22 29.11.2019
3544 Clouds 3 995 93 0 9.3 320 06:46 29.11.2019
3545 Clouds 4 995 80 10000 6.7 310 06:23 29.11.2019
3546 Clouds 4 993 86 0 8.7 300 05:32 29.11.2019
3547 Clouds 4 992 86 0 8.2 310 05:32 29.11.2019
3548 Rain 4 992 93 0 9.8 320 04:45 29.11.2019
3549 Rain 5 990 81 0 4.6 280 03:23 29.11.2019
3550 Rain 5 990 81 0 10.3 290 02:53 29.11.2019
3551 Rain 6 989 81 0 6.2 260 02:21 29.11.2019
3552 Rain 6 988 75 0 5.1 260 01:27 29.11.2019
3553 Clouds 6 989 81 0 8.7 280 00:51 29.11.2019
3554 Clouds 6 990 75 10000 6.7 280 00:23 29.11.2019
3555 Clouds 6 988 75 0 3.6 270 23:59 28.11.2019
3556 Clouds 6 988 81 0 11.3 290 23:39 28.11.2019
3557 Clouds 7 988 87 10000 4.6 290 23:21 28.11.2019
3558 Clouds 7 988 93 0 7.7 300 22:56 28.11.2019
3559 Clouds 7 988 93 0 7.7 300 22:37 28.11.2019
3560 Clouds 7 987 87 10000 4.6 280 22:19 28.11.2019
3561 Clouds 7 987 87 0 7.7 300 21:55 28.11.2019
3562 Clouds 7 987 87 0 7.7 300 21:36 28.11.2019
3563 Clouds 7 986 87 10000 6.7 290 21:18 28.11.2019
3564 Clouds 7 986 93 0 10.8 310 20:42 28.11.2019
3565 Clouds 7 985 93 10000 6.2 290 20:22 28.11.2019
3566 Clouds 7 985 93 0 10.8 290 19:58 28.11.2019
3567 Clouds 8 985 93 0 10.8 290 19:40 28.11.2019
3568 Rain 8 986 93 4000 3.1 250 19:21 28.11.2019
3569 Clouds 8 985 93 7000 6.2 300 18:58 28.11.2019
3570 Clouds 8 985 93 10000 6.2 290 18:39 28.11.2019
3571 Clouds 8 984 100 10000 6.2 300 18:18 28.11.2019
3572 Clouds 8 984 100 10000 5.7 310 17:59 28.11.2019
3573 Clouds 8 984 100 10000 5.7 310 17:41 28.11.2019
3574 Clouds 8 984 100 8000 6.2 310 17:21 28.11.2019
3575 Clouds 9 983 93 9000 5.7 310 16:56 28.11.2019
3576 Clouds 9 983 93 9000 5.7 310 16:55 28.11.2019
3577 Clouds 9 983 93 9000 5.7 310 16:37 28.11.2019
3578 Drizzle 9 983 93 1900 4.6 240 16:18 28.11.2019
3579 Rain 9 982 93 6000 5.1 270 15:41 28.11.2019
3580 Clouds 9 982 100 8000 3.1 240 15:20 28.11.2019
3581 Clouds 9 982 100 8000 3.1 240 14:58 28.11.2019
3582 Rain 9 982 93 4000 4.1 250 14:40 28.11.2019
3583 Drizzle 9 982 100 3000 2.6 220 14:21 28.11.2019
3584 Drizzle 9 982 93 4000 5.1 240 13:56 28.11.2019
3585 Drizzle 9 982 93 4000 5.1 240 13:38 28.11.2019
3586 Rain 9 982 100 4000 3.6 210 13:19 28.11.2019
3587 Drizzle 9 982 93 3000 6.7 230 12:42 28.11.2019
3588 Rain 9 982 100 5000 4.1 210 12:23 28.11.2019
3589 Drizzle 9 982 93 3500 6.7 220 11:57 28.11.2019
3590 Drizzle 9 982 93 3500 6.7 220 11:57 28.11.2019
3591 Drizzle 9 982 93 3500 6.7 220 11:39 28.11.2019
3592 Rain 9 982 100 7000 4.6 210 11:20 28.11.2019
3593 Rain 9 982 93 4500 6.7 230 10:43 28.11.2019
3594 Rain 9 983 93 10000 5.7 210 10:23 28.11.2019
3595 Rain 9 982 93 3000 3.1 200 09:59 28.11.2019
3596 Drizzle 9 982 93 4500 5.1 210 09:40 28.11.2019
3597 Drizzle 9 982 93 3000 5.1 210 09:20 28.11.2019
3598 Drizzle 9 982 93 6000 5.1 220 08:55 28.11.2019
3599 Drizzle 9 982 93 6000 5.1 220 08:36 28.11.2019
3600 Rain 9 981 93 4000 3.1 200 08:18 28.11.2019
3601 Drizzle 9 981 93 4500 5.1 220 07:41 28.11.2019
3602 Drizzle 9 981 93 4500 5.1 220 07:41 28.11.2019
3603 Rain 9 983 93 10000 5.7 220 07:23 28.11.2019
3604 Rain 9 981 93 0 3.6 190 06:44 28.11.2019
3605 Rain 9 981 93 0 3.6 190 06:44 28.11.2019
3606 Rain 9 981 93 0 3.1 140 06:22 28.11.2019
3607 Rain 9 981 93 0 5.1 170 05:46 28.11.2019
3608 Rain 8 982 100 0 4.6 160 04:58 28.11.2019
3609 Rain 8 984 93 0 5.1 160 02:37 28.11.2019
3610 Clouds 8 985 93 0 6.2 170 01:40 28.11.2019
3611 Clouds 8 986 93 0 5.7 170 00:44 28.11.2019
3612 Clouds 8 986 93 7000 3.1 150 00:22 28.11.2019
3613 Clouds 8 986 93 0 5.7 170 23:54 27.11.2019
3614 Clouds 8 986 93 0 5.7 170 23:36 27.11.2019
3615 Clouds 8 986 93 7000 3.1 140 23:18 27.11.2019
3616 Rain 8 987 93 0 5.7 170 22:38 27.11.2019
3617 Clouds 8 987 93 6000 4.6 150 22:20 27.11.2019
3618 Rain 8 987 93 0 6.2 170 21:56 27.11.2019
3619 Rain 8 987 93 0 6.2 170 21:37 27.11.2019
3620 Clouds 8 987 100 10000 2.1 170 21:19 27.11.2019
3621 Rain 8 987 93 0 5.7 180 20:58 27.11.2019
3622 Rain 8 987 93 0 5.7 180 20:39 27.11.2019
3623 Clouds 8 988 93 8000 3.1 160 20:21 27.11.2019
3624 Rain 8 988 93 0 5.7 180 19:57 27.11.2019
3625 Rain 8 988 93 0 5.7 180 19:39 27.11.2019
3626 Clouds 8 988 93 8000 3.6 160 19:21 27.11.2019
3627 Clouds 8 988 93 8000 3.6 160 18:59 27.11.2019
3628 Clouds 8 988 100 6000 6.7 180 18:37 27.11.2019
3629 Clouds 8 989 100 6000 6.2 180 18:19 27.11.2019
3630 Rain 8 989 93 4500 5.7 170 17:57 27.11.2019
3631 Rain 8 989 93 4500 5.7 170 17:38 27.11.2019
3632 Rain 8 989 93 4500 5.7 170 17:38 27.11.2019
3633 Rain 8 989 93 4500 4.6 140 17:20 27.11.2019
3634 Rain 8 989 93 5000 5.1 160 16:56 27.11.2019
3635 Rain 8 989 93 5000 5.1 160 16:38 27.11.2019
3636 Rain 8 990 93 7000 5.7 130 16:19 27.11.2019
3637 Mist 8 990 93 5000 4.6 140 15:57 27.11.2019
3638 Mist 8 990 93 5000 4.6 140 15:38 27.11.2019
3639 Rain 8 990 93 6000 6.2 130 15:20 27.11.2019
3640 Rain 8 990 93 5000 5.1 140 14:57 27.11.2019
3641 Rain 8 990 93 5000 5.1 140 14:38 27.11.2019
3642 Rain 8 990 93 5000 5.1 140 14:38 27.11.2019
3643 Rain 8 991 93 8000 5.1 120 14:20 27.11.2019
3644 Rain 8 991 93 4500 4.6 130 13:56 27.11.2019
3645 Rain 8 991 93 4500 4.6 130 13:38 27.11.2019
3646 Clouds 8 991 93 9000 3.6 120 13:19 27.11.2019
3647 Clouds 8 991 93 9000 3.6 120 13:19 27.11.2019
3648 Rain 8 991 93 4500 4.1 130 12:55 27.11.2019
3649 Rain 8 992 100 5000 6.2 120 12:37 27.11.2019
3650 Mist 8 992 93 5000 6.7 130 12:18 27.11.2019
3651 Drizzle 8 992 93 7000 4.6 110 11:38 27.11.2019
3652 Clouds 8 993 93 6000 5.7 130 11:19 27.11.2019
3653 Mist 8 993 93 5000 3.6 110 10:57 27.11.2019
3654 Clouds 8 993 93 6000 5.1 120 10:39 27.11.2019
3655 Clouds 8 993 93 7000 4.1 120 10:21 27.11.2019
3656 Mist 7 993 100 5000 3.6 130 09:43 27.11.2019
3657 Mist 8 994 93 5000 3.1 130 09:25 27.11.2019
3658 Mist 8 994 93 5000 3.1 130 08:57 27.11.2019
3659 Mist 8 994 93 5000 3.1 130 08:38 27.11.2019
3660 Mist 8 994 93 5000 4.1 140 08:19 27.11.2019
3661 Clouds 7 994 100 6000 3.6 140 07:45 27.11.2019
3662 Clouds 8 995 93 10000 3.6 160 07:27 27.11.2019
3663 Mist 8 995 93 5000 3.1 140 06:47 27.11.2019
3664 Drizzle 8 995 93 4000 3.1 130 06:29 27.11.2019
3665 Clouds 8 996 93 0 3.1 140 05:27 27.11.2019
3666 Mist 8 996 93 5000 4.1 160 04:59 27.11.2019
3667 Mist 8 996 93 5000 4.1 160 04:40 27.11.2019
3668 Mist 8 996 93 5000 5.1 160 03:53 27.11.2019
3669 Mist 8 997 93 0 2.6 140 03:22 27.11.2019
3670 Mist 8 997 93 4500 5.1 160 02:54 27.11.2019
3671 Mist 8 998 100 5000 4.6 160 01:39 27.11.2019
3672 Mist 8 998 100 4500 5.1 170 00:45 27.11.2019
3673 Mist 8 998 93 0 3.6 150 00:26 27.11.2019
3674 Mist 8 998 100 4000 4.6 160 23:49 26.11.2019
3675 Mist 8 999 93 0 4.1 150 23:27 26.11.2019
3676 Drizzle 8 1000 100 3500 5.1 180 22:59 26.11.2019
3677 Drizzle 8 1000 100 3500 5.1 180 22:38 26.11.2019
3678 Mist 8 1000 93 3500 3.1 160 22:19 26.11.2019
3679 Drizzle 8 1000 93 1800 4.6 180 21:58 26.11.2019
3680 Drizzle 8 1000 93 1800 4.6 180 21:38 26.11.2019
3681 Mist 8 1001 93 2500 3.1 160 21:19 26.11.2019
3682 Drizzle 7 1000 100 1400 3.6 180 20:55 26.11.2019
3683 Drizzle 7 1000 100 1400 3.6 180 20:37 26.11.2019
3684 Mist 7 1001 100 2500 3.6 170 20:19 26.11.2019
3685 Drizzle 7 1001 100 1400 3.6 170 19:55 26.11.2019
3686 Drizzle 7 1001 100 1400 3.6 170 19:55 26.11.2019
3687 Drizzle 7 1001 100 1400 3.6 170 19:37 26.11.2019
3688 Drizzle 7 1001 100 1400 4.1 180 19:18 26.11.2019
3689 Clouds 7 1001 100 0 3.6 170 18:56 26.11.2019
3690 Mist 7 1001 93 2500 3.6 160 18:38 26.11.2019
3691 Mist 7 1001 93 3000 3.6 150 18:20 26.11.2019
3692 Clouds 7 1001 93 0 4.6 170 17:56 26.11.2019
3693 Mist 7 1001 93 3500 4.1 160 17:37 26.11.2019
3694 Mist 7 1002 93 3000 3.6 150 17:19 26.11.2019
3695 Rain 7 1002 100 0 4.1 170 16:56 26.11.2019
3696 Rain 7 1002 100 0 4.1 170 16:37 26.11.2019
3697 Mist 7 1002 93 3500 3.1 150 16:18 26.11.2019
3698 Rain 7 1002 100 0 3.6 160 15:57 26.11.2019
3699 Mist 6 1002 93 3500 3.6 160 15:37 26.11.2019
3700 Mist 6 1002 93 3500 2.6 150 15:19 26.11.2019
3701 Rain 6 1002 100 0 3.6 160 14:45 26.11.2019
3702 Mist 6 1003 93 5000 3.6 180 14:24 26.11.2019
3703 Mist 6 1003 93 2500 3.6 170 13:56 26.11.2019
3704 Mist 6 1003 93 2500 3.6 170 13:37 26.11.2019
3705 Mist 6 1003 93 3000 3.1 150 13:18 26.11.2019
3706 Mist 6 1004 93 3000 3.1 150 12:38 26.11.2019
3707 Mist 6 1004 93 3000 3.6 170 12:19 26.11.2019
3708 Mist 5 1004 93 4000 3.1 160 11:56 26.11.2019
3709 Mist 5 1004 100 2700 3.1 140 11:38 26.11.2019
3710 Mist 5 1004 100 2700 3.6 140 11:19 26.11.2019
3711 Mist 5 1004 100 2700 3.6 140 11:19 26.11.2019
3712 Mist 5 1004 100 3500 2.6 160 10:57 26.11.2019
3713 Mist 5 1004 100 3500 2.6 160 10:39 26.11.2019
3714 Mist 5 1005 93 2800 2.1 130 10:20 26.11.2019
3715 Drizzle 5 1005 100 3500 3.1 180 09:55 26.11.2019
3716 Drizzle 5 1005 100 3500 3.1 180 09:37 26.11.2019
3717 Rain 5 1005 93 6000 2.6 170 09:18 26.11.2019
3718 Mist 5 1005 100 4000 2.6 170 08:43 26.11.2019
3719 Fog 5 1005 93 900 3.6 160 08:22 26.11.2019
3720 Mist 5 1005 100 4000 3.1 160 07:44 26.11.2019
3721 Fog 5 1006 93 700 1.5 0 07:25 26.11.2019
3722 Rain 5 1006 100 5000 3.1 170 06:55 26.11.2019
3723 Drizzle 5 1006 93 5000 2.6 180 06:33 26.11.2019
3724 Mist 5 1006 100 5000 3.1 160 05:52 26.11.2019
3725 Rain 5 1007 93 3000 1.5 150 03:59 26.11.2019
3726 Rain 5 1008 93 3000 2.6 160 02:52 26.11.2019
3727 Mist 5 1008 93 5000 2.1 160 01:33 26.11.2019
3728 Mist 5 1009 93 3000 3.1 160 00:52 26.11.2019
3729 Mist 5 1009 100 2500 1.5 160 00:30 26.11.2019
3730 Mist 5 1009 93 3000 2.6 170 23:54 25.11.2019
3731 Mist 5 1009 93 3000 3.1 160 23:36 25.11.2019
3732 Mist 5 1009 93 3000 3.1 160 23:18 25.11.2019
3733 Mist 5 1009 93 3000 3.1 160 22:39 25.11.2019
3734 Mist 5 1009 100 1800 2.6 140 22:19 25.11.2019
3735 Mist 5 1009 93 5000 2.6 170 21:59 25.11.2019
3736 Mist 5 1009 93 5000 2.6 170 21:40 25.11.2019
3737 Mist 5 1010 100 2500 3.1 150 21:21 25.11.2019
3738 Mist 5 1010 93 5000 2.6 170 20:57 25.11.2019
3739 Mist 5 1010 93 5000 2.6 170 20:57 25.11.2019
3740 Mist 5 1010 93 5000 2.6 170 20:39 25.11.2019
3741 Mist 5 1010 93 4000 4.1 150 20:20 25.11.2019
3742 Mist 5 1010 93 4000 3.1 150 19:56 25.11.2019
3743 Mist 5 1010 93 4000 3.1 150 19:38 25.11.2019
3744 Clouds 5 1010 93 5000 4.6 140 19:19 25.11.2019
3745 Drizzle 5 1010 93 4000 2.6 150 18:57 25.11.2019
3746 Mist 5 1010 93 3000 2.6 140 18:39 25.11.2019
3747 Mist 5 1010 93 3000 2.6 140 18:21 25.11.2019
3748 Drizzle 6 1010 93 4000 2.6 160 17:58 25.11.2019
3749 Mist 6 1010 93 3000 3.1 150 17:39 25.11.2019
3750 Mist 6 1010 93 3000 3.1 150 17:20 25.11.2019
3751 Mist 6 1010 93 4000 3.1 160 16:58 25.11.2019
3752 Mist 6 1010 93 4000 3.1 160 16:40 25.11.2019
3753 Clouds 6 1010 93 6000 3.6 120 16:22 25.11.2019
3754 Mist 6 1010 93 4000 4.1 150 15:56 25.11.2019
3755 Mist 6 1010 93 4000 4.1 150 15:37 25.11.2019
3756 Clouds 6 1010 93 7000 4.1 120 15:18 25.11.2019
3757 Mist 6 1010 93 4500 2.6 150 14:43 25.11.2019
3758 Clouds 6 1011 93 6000 3.1 130 14:25 25.11.2019
3759 Mist 6 1010 93 4500 3.6 150 13:57 25.11.2019
3760 Mist 6 1010 93 4500 3.6 150 13:57 25.11.2019
3761 Mist 6 1010 93 4500 3.6 150 13:37 25.11.2019
3762 Clouds 6 1011 87 7000 4.1 140 13:18 25.11.2019
3763 Mist 6 1011 93 4500 4.1 150 12:58 25.11.2019
3764 Mist 6 1011 93 4500 4.1 150 12:39 25.11.2019
3765 Mist 6 1011 93 3800 3.6 150 12:19 25.11.2019
3766 Mist 6 1011 93 4800 4.1 160 11:40 25.11.2019
3767 Mist 6 1011 93 4000 2.1 140 11:21 25.11.2019
3768 Mist 6 1011 93 4500 3.1 160 10:59 25.11.2019
3769 Mist 6 1011 93 4500 3.1 160 10:41 25.11.2019
3770 Clouds 6 1011 93 6000 4.6 140 10:20 25.11.2019
3771 Clouds 6 1011 93 6000 4.6 140 10:20 25.11.2019
3772 Mist 5 1011 93 4800 4.6 150 09:44 25.11.2019
3773 Mist 5 1011 93 4500 1.5 120 09:26 25.11.2019
3774 Clouds 5 1011 93 6000 2.6 150 08:58 25.11.2019
3775 Clouds 5 1011 93 6000 2.6 150 08:39 25.11.2019
3776 Mist 5 1011 93 4500 1.5 140 08:20 25.11.2019
3777 Clouds 5 1011 93 8000 2.6 130 07:41 25.11.2019
3778 Mist 5 1011 93 5000 4.6 140 07:19 25.11.2019
3779 Clouds 5 1011 93 9000 3.1 150 06:45 25.11.2019
3780 Mist 5 1011 93 4500 2.1 120 06:19 25.11.2019
3781 Clouds 5 1011 87 0 4.1 140 05:38 25.11.2019
3782 Clouds 5 1011 93 8000 3.1 160 04:50 25.11.2019
3783 Clouds 5 1011 93 6000 4.1 150 02:48 25.11.2019
3784 Mist 5 1011 93 0 5.1 140 02:19 25.11.2019
3785 Mist 5 1011 93 5000 2.6 150 01:39 25.11.2019
3786 Clouds 5 1012 93 0 5.7 140 01:20 25.11.2019
3787 Clouds 5 1012 93 0 6.2 110 00:23 25.11.2019
3788 Mist 5 1011 93 4500 4.6 150 23:58 24.11.2019
3789 Clouds 5 1012 93 0 7.2 120 23:38 24.11.2019
3790 Clouds 5 1011 93 0 6.7 130 23:19 24.11.2019
3791 Mist 5 1011 93 5000 7.2 140 22:55 24.11.2019
3792 Mist 5 1011 93 5000 7.2 140 22:36 24.11.2019
3793 Clouds 5 1011 87 0 8.7 120 22:18 24.11.2019
3794 Clouds 5 1011 93 6000 6.2 140 21:42 24.11.2019
3795 Clouds 5 1011 87 0 8.2 120 21:21 24.11.2019
3796 Clouds 5 1011 93 7000 7.2 130 20:59 24.11.2019
3797 Clouds 5 1011 93 7000 7.2 130 20:59 24.11.2019
3798 Clouds 5 1011 93 7000 7.2 130 20:40 24.11.2019
3799 Clouds 5 1011 87 8000 8.2 110 20:20 24.11.2019
3800 Clouds 5 1011 93 10000 6.2 130 19:58 24.11.2019
3801 Clouds 5 1011 93 10000 6.2 130 19:40 24.11.2019
3802 Clouds 5 1011 87 8000 9.3 110 19:21 24.11.2019
3803 Clouds 6 1011 93 10000 7.2 130 18:59 24.11.2019
3804 Clouds 6 1012 87 8000 7.7 110 18:38 24.11.2019
3805 Clouds 6 1012 87 8000 7.7 110 18:20 24.11.2019
3806 Clouds 6 1011 93 7000 7.2 130 17:59 24.11.2019
3807 Clouds 6 1011 93 7000 7.2 130 17:59 24.11.2019
3808 Clouds 5 1011 87 8000 8.2 110 17:41 24.11.2019
3809 Clouds 5 1012 87 8000 8.2 110 17:22 24.11.2019
3810 Mist 5 1011 93 1900 6.2 130 16:59 24.11.2019
3811 Mist 5 1011 93 1900 6.2 130 16:41 24.11.2019
3812 Clouds 5 1011 93 6000 5.7 110 16:23 24.11.2019
3813 Mist 5 1010 93 1900 8.2 130 15:56 24.11.2019
3814 Mist 5 1010 93 1900 8.2 130 15:38 24.11.2019
3815 Mist 5 1010 93 1900 8.2 130 15:38 24.11.2019
3816 Clouds 5 1011 93 7000 8.2 110 15:20 24.11.2019
3817 Mist 5 1011 87 1900 7.2 120 14:40 24.11.2019
3818 Clouds 5 1011 87 0 8.7 100 14:20 24.11.2019
3819 Clouds 5 1011 87 0 8.7 100 14:20 24.11.2019
3820 Clouds 5 1011 87 0 8.7 100 14:20 24.11.2019
3821 Mist 5 1011 93 1900 6.7 120 13:59 24.11.2019
3822 Mist 5 1011 93 1900 6.7 120 13:38 24.11.2019
3823 Clouds 5 1011 93 8000 7.2 100 13:20 24.11.2019
3824 Mist 5 1011 93 1900 8.7 120 12:56 24.11.2019
3825 Clouds 6 1012 87 0 8.2 110 12:38 24.11.2019
3826 Clouds 6 1012 87 0 8.2 110 12:38 24.11.2019
3827 Clouds 5 1012 93 8000 7.7 100 12:18 24.11.2019
3828 Mist 6 1011 87 2100 7.7 120 11:55 24.11.2019
3829 Mist 6 1011 86 5000 5.1 110 11:36 24.11.2019
3830 Clouds 6 1012 87 0 8.2 110 11:18 24.11.2019
3831 Mist 5 1011 87 2100 8.7 120 10:44 24.11.2019
3832 Mist 5 1011 93 4600 5.7 110 10:26 24.11.2019
3833 Mist 5 1010 87 2500 8.2 120 09:54 24.11.2019
3834 Mist 5 1010 87 2500 8.2 120 09:36 24.11.2019
3835 Mist 5 1010 87 2500 8.2 120 09:36 24.11.2019
3836 Clouds 5 1011 87 0 9.8 100 09:18 24.11.2019
3837 Clouds 5 1011 87 0 9.8 100 09:18 24.11.2019
3838 Mist 5 1010 93 2500 9.8 120 08:42 24.11.2019
3839 Mist 5 1010 87 2500 9.8 110 08:21 24.11.2019
3840 Mist 5 1010 93 5000 9.8 110 07:52 24.11.2019
3841 Clouds 5 1011 87 0 9.8 110 07:34 24.11.2019
3842 Clouds 5 1010 93 0 7.2 110 06:57 24.11.2019
3843 Clouds 5 1010 93 0 9.3 120 05:59 24.11.2019
3844 Clouds 6 1009 93 0 8.2 110 04:47 24.11.2019
3845 Clouds 6 1009 87 0 9.3 120 02:50 24.11.2019
3846 Clouds 6 1009 87 0 9.3 120 02:50 24.11.2019
3847 Clouds 6 1009 87 0 8.2 110 01:58 24.11.2019
3848 Clouds 6 1009 87 0 8.2 110 01:39 24.11.2019
3849 Clouds 6 1010 87 0 8.7 100 01:20 24.11.2019
3850 Clouds 6 1009 87 0 7.2 120 00:46 24.11.2019
3851 Clouds 6 1010 87 0 7.7 100 00:23 24.11.2019
3852 Clouds 6 1010 93 0 6.2 130 23:44 23.11.2019
3853 Clouds 6 1010 87 0 8.2 100 23:22 23.11.2019
3854 Clouds 6 1010 93 0 5.7 130 22:58 23.11.2019
3855 Clouds 6 1010 93 0 5.7 130 22:58 23.11.2019
3856 Clouds 6 1010 93 0 5.7 130 22:39 23.11.2019
3857 Clouds 6 1010 87 0 8.2 110 22:21 23.11.2019
3858 Clouds 6 1009 87 0 9.3 130 21:58 23.11.2019
3859 Clouds 6 1009 87 0 9.3 130 21:40 23.11.2019
3860 Clouds 6 1010 87 10000 8.7 110 21:21 23.11.2019
3861 Clouds 6 1009 87 0 10.8 120 20:55 23.11.2019
3862 Clouds 6 1009 87 0 10.8 120 20:36 23.11.2019
3863 Clouds 6 1009 93 0 10.8 100 20:18 23.11.2019
3864 Clouds 7 1008 87 0 9.3 120 19:54 23.11.2019
3865 Clouds 7 1008 87 0 9.3 120 19:54 23.11.2019
3866 Clouds 7 1008 87 0 9.3 120 19:36 23.11.2019
3867 Clouds 7 1009 87 0 9.8 100 19:18 23.11.2019
3868 Clouds 7 1009 87 0 9.8 90 18:39 23.11.2019
3869 Clouds 7 1009 87 0 9.8 100 18:20 23.11.2019
3870 Clouds 7 1008 87 0 5.7 110 17:54 23.11.2019
3871 Clouds 7 1007 87 4700 7.2 90 17:36 23.11.2019
3872 Clouds 7 1007 87 4700 7.2 90 17:36 23.11.2019
3873 Clouds 7 1009 87 8000 9.3 90 17:18 23.11.2019
3874 Clouds 7 1008 87 0 6.7 110 16:54 23.11.2019
3875 Clouds 7 1008 87 0 6.7 110 16:36 23.11.2019
3876 Clouds 7 1008 87 6000 7.7 90 16:18 23.11.2019
3877 Clouds 7 1008 87 0 7.2 110 15:56 23.11.2019
3878 Clouds 7 1008 87 0 7.2 110 15:37 23.11.2019
3879 Clouds 7 1008 87 6000 8.2 100 15:18 23.11.2019
3880 Clouds 7 1008 87 0 8.2 120 14:42 23.11.2019
3881 Clouds 8 1008 87 6000 9.3 100 14:21 23.11.2019
3882 Clouds 8 1008 87 0 7.2 120 13:59 23.11.2019
3883 Clouds 8 1008 87 0 7.2 120 13:40 23.11.2019
3884 Mist 8 1009 87 5000 8.2 100 13:19 23.11.2019
3885 Clouds 8 1008 93 0 6.7 120 12:44 23.11.2019
3886 Mist 8 1009 87 5000 7.2 100 12:24 23.11.2019
3887 Clouds 8 1009 93 0 7.2 120 11:56 23.11.2019
3888 Clouds 8 1008 87 6000 6.7 90 11:38 23.11.2019
3889 Mist 7 1009 87 4500 8.7 110 11:18 23.11.2019
3890 Clouds 7 1009 87 0 7.7 110 10:43 23.11.2019
3891 Mist 7 1009 93 4500 8.7 110 10:21 23.11.2019
3892 Clouds 7 1009 100 0 7.2 120 09:41 23.11.2019
3893 Mist 7 1009 93 3000 8.2 100 09:19 23.11.2019
3894 Clouds 7 1008 93 0 7.7 130 08:42 23.11.2019
3895 Mist 7 1009 100 2000 8.7 100 08:19 23.11.2019
3896 Clouds 8 1008 93 0 7.2 120 07:52 23.11.2019
3897 Mist 8 1009 93 1200 8.2 100 07:34 23.11.2019
3898 Clouds 8 1008 93 0 7.2 130 06:45 23.11.2019
3899 Clouds 8 1009 93 0 8.7 100 06:19 23.11.2019
3900 Clouds 8 1008 87 0 8.2 130 05:48 23.11.2019
3901 Clouds 8 1009 87 0 9.8 110 05:28 23.11.2019
3902 Clouds 9 1008 87 0 7.2 120 04:48 23.11.2019
3903 Clouds 9 1009 93 0 7.2 120 04:27 23.11.2019
3904 Clouds 8 1008 87 0 4.6 120 02:45 23.11.2019
3905 Clouds 8 1008 81 0 4.1 120 01:51 23.11.2019
3906 Clouds 8 1009 87 0 6.2 110 01:32 23.11.2019
3907 Clouds 8 1008 87 0 5.7 130 00:40 23.11.2019
3908 Clouds 8 1009 81 0 6.7 130 00:18 23.11.2019
3909 Clouds 8 1009 87 0 5.1 130 23:42 22.11.2019
3910 Clouds 7 1009 93 0 6.7 130 23:20 22.11.2019
3911 Clouds 7 1009 93 0 4.1 130 22:57 22.11.2019
3912 Clouds 7 1009 93 0 4.1 130 22:38 22.11.2019
3913 Clouds 7 1009 93 0 4.1 130 22:38 22.11.2019
3914 Clouds 7 1009 93 8000 6.2 120 22:20 22.11.2019
3915 Clouds 7 1009 93 8000 6.2 120 22:20 22.11.2019
3916 Clouds 6 1009 93 8000 6.2 120 21:59 22.11.2019
3917 Clouds 6 1009 93 0 6.2 140 21:39 22.11.2019
3918 Clouds 6 1010 93 8000 6.7 140 21:20 22.11.2019
3919 Clouds 6 1009 93 0 5.7 140 20:43 22.11.2019
3920 Mist 6 1009 93 5000 5.7 120 20:22 22.11.2019
3921 Clouds 6 1009 93 0 4.6 130 19:58 22.11.2019
3922 Clouds 6 1009 93 0 4.6 130 19:38 22.11.2019
3923 Mist 6 1009 93 5000 3.6 120 19:19 22.11.2019
3924 Clouds 6 1009 93 0 4.6 120 18:58 22.11.2019
3925 Clouds 6 1009 93 0 4.6 120 18:36 22.11.2019
3926 Drizzle 7 1009 93 4000 4.6 120 18:18 22.11.2019
3927 Drizzle 7 1009 93 4000 4.6 120 18:18 22.11.2019
3928 Clouds 7 1009 100 0 5.7 130 17:41 22.11.2019
3929 Clouds 7 1009 93 6000 5.1 120 17:22 22.11.2019
3930 Clouds 7 1008 93 0 3.6 130 16:48 22.11.2019
3931 Clouds 8 1009 93 6000 5.1 120 16:29 22.11.2019
3932 Clouds 8 1009 93 6000 5.1 120 16:29 22.11.2019
3933 Clouds 8 1008 87 0 4.1 130 15:55 22.11.2019
3934 Clouds 8 1008 87 0 4.1 130 15:37 22.11.2019
3935 Clouds 8 1008 93 8000 4.6 130 15:19 22.11.2019
3936 -273 0 0 0 0 0 14:54 22.11.2019
3937 Clouds 8 1008 87 0 3.1 140 14:36 22.11.2019
3938 Clouds 8 1008 93 10000 4.6 140 14:18 22.11.2019
3939 Clouds 8 1008 93 10000 4.6 140 14:18 22.11.2019
3940 Clouds 8 1008 93 7000 3.1 150 13:38 22.11.2019
3941 Clouds 8 1008 87 10000 4.1 140 13:19 22.11.2019
3942 Clouds 8 1008 87 7000 2.6 160 12:58 22.11.2019
3943 Clouds 8 1008 87 7000 2.6 160 12:40 22.11.2019
3944 Clouds 8 1008 87 9000 3.6 150 12:19 22.11.2019
3945 Clouds 7 1008 87 6000 2.6 160 11:56 22.11.2019
3946 Clouds 7 1008 87 6000 2.6 160 11:36 22.11.2019
3947 Clouds 7 1008 87 10000 3.6 150 11:18 22.11.2019
3948 Mist 7 1008 93 4000 3.1 150 10:54 22.11.2019
3949 Mist 7 1008 93 4000 3.1 150 10:36 22.11.2019
3950 Clouds 6 1008 93 7000 4.1 150 10:18 22.11.2019
3951 Mist 6 1008 100 4000 3.1 160 09:41 22.11.2019
3952 Clouds 6 1008 87 10000 3.6 170 09:21 22.11.2019
3953 Mist 6 1007 100 4000 4.1 190 08:58 22.11.2019
3954 Mist 6 1007 100 4000 4.1 190 08:38 22.11.2019
3955 Mist 6 1007 100 4000 4.1 190 08:38 22.11.2019
3956 Mist 6 1007 93 5000 3.1 160 08:20 22.11.2019
3957 Rain 7 1007 100 4500 2.1 190 07:42 22.11.2019
3958 Drizzle 7 1007 100 7000 2.6 140 07:20 22.11.2019
3959 Rain 7 1007 100 4500 4.1 180 06:48 22.11.2019
3960 Clouds 7 1007 93 6000 1 150 06:27 22.11.2019
3961 Rain 8 1006 100 4000 2.6 150 05:37 22.11.2019
3962 Mist 8 1007 93 0 4.6 110 03:26 22.11.2019
3963 Mist 8 1007 93 2500 3.6 120 02:46 22.11.2019
3964 Clouds 8 1007 93 0 4.1 110 02:26 22.11.2019
3965 Drizzle 8 1007 93 2000 3.1 120 01:43 22.11.2019
3966 Mist 8 1007 93 0 4.6 100 01:18 22.11.2019
3967 Drizzle 8 1007 93 1800 3.6 130 00:49 22.11.2019
3968 Mist 8 1008 93 0 5.1 90 00:23 22.11.2019
3969 Mist 8 1008 93 1400 3.6 120 23:44 21.11.2019
3970 Rain 8 1008 93 0 4.6 90 23:25 21.11.2019
3971 Mist 8 1008 93 1100 3.1 120 22:58 21.11.2019
3972 Mist 8 1008 93 1100 3.1 120 22:38 21.11.2019
3973 Drizzle 8 1009 93 1200 4.6 90 22:20 21.11.2019
3974 Mist 8 1009 93 1500 3.6 110 21:56 21.11.2019
3975 Mist 8 1009 93 1500 3.6 110 21:37 21.11.2019
3976 Mist 8 1009 93 2000 4.1 100 21:19 21.11.2019
3977 Mist 8 1009 93 3500 4.1 120 20:57 21.11.2019
3978 Mist 8 1009 93 3500 4.1 120 20:38 21.11.2019
3979 Mist 8 1010 100 3000 4.1 100 20:19 21.11.2019
3980 Mist 8 1010 100 3000 4.1 100 19:59 21.11.2019
3981 Mist 8 1010 100 3500 4.1 120 19:39 21.11.2019
3982 Mist 8 1010 100 3500 4.1 120 19:39 21.11.2019
3983 Fog 8 1010 100 300 4.1 90 19:21 21.11.2019
3984 Drizzle 8 1010 100 3000 4.6 120 18:56 21.11.2019
3985 Drizzle 8 1010 100 3000 4.6 120 18:37 21.11.2019
3986 Mist 7 1010 100 1500 6.2 100 18:18 21.11.2019
3987 Drizzle 7 1010 100 3000 4.1 110 17:57 21.11.2019
3988 Drizzle 7 1010 100 3000 4.1 110 17:38 21.11.2019
3989 Mist 7 1011 100 2500 4.6 90 17:19 21.11.2019
3990 Drizzle 7 1010 93 3000 4.1 110 16:41 21.11.2019
3991 Mist 6 1010 93 4500 4.1 80 16:21 21.11.2019
3992 Drizzle 6 1011 100 2500 4.1 110 15:57 21.11.2019
3993 Drizzle 6 1011 100 2500 4.1 110 15:38 21.11.2019
3994 Mist 6 1011 100 3000 4.6 80 15:19 21.11.2019
3995 Drizzle 6 1011 93 2500 3.1 70 14:56 21.11.2019
3996 Drizzle 6 1011 93 2500 3.1 70 14:56 21.11.2019
3997 Drizzle 6 1011 93 2500 3.1 70 14:36 21.11.2019
3998 Mist 6 1012 93 2200 3.6 60 14:18 21.11.2019
3999 Drizzle 6 1012 93 2500 3.1 60 13:39 21.11.2019
4000 Drizzle 6 1012 93 2500 3.1 60 13:39 21.11.2019
4001 Mist 5 1013 93 3500 3.6 50 13:20 21.11.2019
4002 Mist 5 1013 93 3500 3.6 50 12:59 21.11.2019
4003 Drizzle 5 1013 93 4500 2.6 80 12:38 21.11.2019
4004 Drizzle 5 1013 93 4500 3.6 50 12:20 21.11.2019
4005 Clouds 5 1014 93 10000 2.1 70 11:41 21.11.2019
4006 Clouds 4 1014 86 10000 2.1 60 11:23 21.11.2019
4007 Clouds 4 1014 100 10000 2.1 80 10:59 21.11.2019
4008 Clouds 4 1014 100 10000 2.1 80 10:41 21.11.2019
4009 Mist 4 1014 93 5000 2.6 60 10:23 21.11.2019
4010 Clouds 4 1014 100 10000 2.6 100 09:57 21.11.2019
4011 Clouds 3 1014 100 10000 2.6 100 09:39 21.11.2019
4012 Clouds 3 1015 93 10000 1 110 09:20 21.11.2019
4013 Clouds 3 1014 100 10000 2.1 130 08:42 21.11.2019
4014 Fog 3 1014 100 800 1 50 08:21 21.11.2019
4015 Clouds 3 1015 93 10000 2.6 160 07:43 21.11.2019
4016 Mist 3 1014 100 2500 1 70 07:19 21.11.2019
4017 Mist 3 1015 93 4900 0.5 90 06:58 21.11.2019
4018 Clouds 4 1015 86 10000 2.1 160 06:34 21.11.2019
4019 Mist 4 1015 93 5000 3.6 160 05:42 21.11.2019
4020 Mist 4 1015 100 3500 3.6 170 03:35 21.11.2019
4021 Drizzle 4 1015 100 1900 4.1 180 02:42 21.11.2019
4022 Rain 4 1015 93 0 3.1 160 02:23 21.11.2019
4023 Mist 4 1015 93 2200 3.6 190 01:47 21.11.2019
4024 Mist 4 1015 93 2200 2.1 190 01:20 21.11.2019
4025 Clouds 4 1015 100 9000 2.6 220 00:38 21.11.2019
4026 Clouds 4 1015 100 10000 2.6 180 00:20 21.11.2019
4027 Clouds 4 1015 100 9000 3.1 170 23:46 20.11.2019
4028 Rain 4 1015 100 8000 2.1 220 23:21 20.11.2019
4029 Rain 4 1015 100 7000 1 80 22:58 20.11.2019
4030 Rain 4 1015 100 7000 1 80 22:38 20.11.2019
4031 Rain 4 1015 93 8000 0.49 169 22:19 20.11.2019
4032 Rain 4 1016 100 7000 1 0 21:58 20.11.2019
4033 Rain 4 1016 100 7000 1 0 21:39 20.11.2019
4034 Rain 5 1016 93 10000 1.5 360 21:20 20.11.2019
4035 Rain 5 1016 93 6000 2.6 20 20:57 20.11.2019
4036 Rain 4 1016 93 6000 2.6 20 20:39 20.11.2019
4037 Clouds 5 1016 93 10000 3.1 20 20:21 20.11.2019
4038 Rain 5 1016 93 7000 3.1 30 19:56 20.11.2019
4039 Rain 5 1016 93 7000 3.1 30 19:37 20.11.2019
4040 Rain 5 1016 87 10000 4.1 20 19:19 20.11.2019
4041 Rain 5 1016 87 0 4.6 40 18:59 20.11.2019
4042 Rain 5 1016 87 0 4.6 40 18:39 20.11.2019
4043 Rain 5 1017 87 10000 4.6 20 18:21 20.11.2019
4044 Rain 5 1017 100 0 4.1 40 17:57 20.11.2019
4045 Rain 5 1017 100 0 4.1 40 17:39 20.11.2019
4046 Drizzle 5 1017 100 900 1.5 260 17:20 20.11.2019
4047 Rain 5 1017 100 0 2.6 20 16:57 20.11.2019
4048 Rain 5 1017 100 0 2.6 20 16:39 20.11.2019
4049 Rain 5 1017 87 8000 3.6 30 16:18 20.11.2019
4050 Rain 5 1018 93 0 2.6 50 15:56 20.11.2019
4051 Rain 5 1018 93 0 2.6 50 15:36 20.11.2019
4052 Clouds 5 1018 87 10000 1.5 70 15:18 20.11.2019
4053 Rain 5 1018 100 2800 2.1 40 14:40 20.11.2019
4054 Rain 5 1018 100 900 1 260 14:22 20.11.2019
4055 Rain 5 1018 100 900 1 260 14:22 20.11.2019
4056 Rain 5 1018 100 900 1 260 14:22 20.11.2019
4057 Rain 5 1018 100 900 1 260 14:22 20.11.2019
4058 Rain 5 1018 100 900 1 260 14:22 20.11.2019
4059 Rain 5 1018 93 2500 1 60 13:58 20.11.2019
4060 Rain 5 1018 93 2500 1 60 13:58 20.11.2019
4061 Rain 5 1018 93 2500 1 60 13:39 20.11.2019
4062 Rain 5 1019 93 2500 1 0 13:20 20.11.2019
4063 Rain 4 1019 100 5000 1.5 40 12:57 20.11.2019
4064 Rain 5 1019 100 5000 1.5 40 12:37 20.11.2019
4065 Rain 4 1019 93 900 1 0 12:19 20.11.2019
4066 Mist 4 1019 100 3000 0.5 30 11:45 20.11.2019
4067 Fog 3 1019 100 500 0.5 60 11:22 20.11.2019
4068 Mist 3 1019 100 3000 1 10 10:56 20.11.2019
4069 Mist 3 1019 100 3000 1 10 10:38 20.11.2019
4070 Mist 3 1019 100 3000 2.01 68 10:20 20.11.2019
4071 Mist 3 1019 100 2000 0.5 350 09:56 20.11.2019
4072 Mist 2 1019 100 2000 0.5 350 09:37 20.11.2019
4073 Mist 2 1020 100 1600 0.5 190 09:19 20.11.2019
4074 Fog 2 1019 93 400 1 260 08:41 20.11.2019
4075 Fog 2 1019 100 0 0.5 0 08:23 20.11.2019
4076 Fog 2 1019 100 400 1 190 07:48 20.11.2019
4077 Fog 2 1019 100 700 1 120 07:30 20.11.2019
4078 Clouds 3 1019 93 0 1.5 190 06:55 20.11.2019
4079 Clouds 3 1019 93 0 1.5 190 06:37 20.11.2019
4080 Fog 3 1019 88 200 2.1 160 06:18 20.11.2019
4081 Clouds 4 1018 93 0 2.1 200 04:40 20.11.2019
4082 Clouds 5 1018 93 0 2.6 190 02:23 20.11.2019
4083 Clouds 5 1018 93 0 3.6 210 01:37 20.11.2019
4084 Clouds 5 1017 93 0 4.1 220 00:46 20.11.2019
4085 Clouds 5 1017 93 0 2.6 210 00:18 20.11.2019
4086 Clouds 5 1017 93 0 4.1 220 23:41 19.11.2019
4087 Rain 6 1016 87 0 2.6 220 23:22 19.11.2019
4088 Rain 6 1016 93 0 3.6 210 22:55 19.11.2019
4089 Rain 6 1016 93 0 3.6 210 22:37 19.11.2019
4090 Clouds 6 1015 93 10000 3.1 230 22:18 19.11.2019
4091 Rain 6 1016 87 0 6.2 240 21:54 19.11.2019
4092 Rain 6 1016 87 0 6.2 240 21:36 19.11.2019
4093 Clouds 7 1015 87 10000 4.1 240 21:18 19.11.2019
4094 Rain 7 1015 87 0 7.2 260 20:54 19.11.2019
4095 Rain 7 1015 87 0 7.2 260 20:36 19.11.2019
4096 Rain 7 1014 87 10000 4.6 240 20:18 19.11.2019
4097 Clouds 7 1014 87 0 7.7 250 19:41 19.11.2019
4098 Clouds 7 1013 87 10000 4.1 210 19:20 19.11.2019
4099 Clouds 7 1013 87 10000 4.1 210 19:20 19.11.2019
4100 Clouds 7 1013 87 10000 6.7 230 18:58 19.11.2019
4101 Clouds 7 1013 87 10000 6.7 230 18:58 19.11.2019
4102 Clouds 7 1013 87 10000 6.7 230 18:39 19.11.2019
4103 Clouds 7 1012 87 10000 3.6 220 18:20 19.11.2019
4104 Clouds 7 1012 87 10000 3.6 220 18:20 19.11.2019
4105 Clouds 7 1012 87 10000 6.7 250 17:57 19.11.2019
4106 Clouds 7 1012 87 10000 6.7 250 17:39 19.11.2019
4107 Clouds 8 1011 93 10000 4.6 240 17:20 19.11.2019
4108 Clouds 8 1011 87 10000 8.7 260 16:59 19.11.2019
4109 Clouds 8 1011 87 10000 8.7 260 16:39 19.11.2019
4110 Clouds 8 1011 87 10000 8.7 260 16:39 19.11.2019
4111 Rain 8 1010 93 5000 4.1 230 16:19 19.11.2019
4112 Clouds 8 1010 93 10000 9.3 260 15:47 19.11.2019
4113 Rain 8 1012 87 10000 5.1 220 15:26 19.11.2019
4114 Rain 8 1011 87 10000 5.1 220 14:58 19.11.2019
4115 Rain 8 1009 93 6000 4.6 240 14:39 19.11.2019
4116 Rain 8 1008 87 7000 4.6 240 14:20 19.11.2019
4117 Rain 8 1008 87 9000 10.3 260 13:42 19.11.2019
4118 Clouds 8 1008 87 9000 9.3 260 13:21 19.11.2019
4119 Clouds 8 1007 87 10000 8.2 260 12:57 19.11.2019
4120 Clouds 8 1007 87 10000 8.2 260 12:39 19.11.2019
4121 Drizzle 8 1005 93 2000 5.7 240 12:20 19.11.2019
4122 Clouds 8 1006 93 10000 9.3 260 11:55 19.11.2019
4123 Clouds 8 1006 93 10000 9.3 260 11:36 19.11.2019
4124 Clouds 8 1006 93 10000 9.3 260 11:18 19.11.2019
4125 Rain 7 1005 100 5000 7.7 260 10:44 19.11.2019
4126 Clouds 7 1006 87 10000 7.7 260 10:21 19.11.2019
4127 Mist 6 1004 100 4000 2.6 200 09:43 19.11.2019
4128 Clouds 6 1004 87 10000 2.6 190 09:21 19.11.2019
4129 Mist 5 1004 100 3800 2.1 180 08:58 19.11.2019
4130 Mist 5 1004 100 3800 2.1 180 08:39 19.11.2019
4131 Clouds 5 1003 93 6000 2.6 160 08:21 19.11.2019
4132 Mist 5 1003 100 4500 1.5 160 07:56 19.11.2019
4133 Mist 5 1003 100 4500 1.5 160 07:36 19.11.2019
4134 Clouds 5 1003 93 8000 2.6 140 07:18 19.11.2019
4135 Clouds 5 1002 93 0 2.1 150 06:42 19.11.2019
4136 Clouds 5 1002 93 8000 3.1 150 06:18 19.11.2019
4137 Clouds 5 1002 93 8000 2.6 170 05:19 19.11.2019
4138 Clouds 5 1002 93 8000 2.6 170 05:19 19.11.2019
4139 Clouds 5 1002 93 0 3.6 150 03:41 19.11.2019
4140 Clouds 5 1002 87 0 5.1 150 03:19 19.11.2019
4141 Clouds 5 1002 93 0 4.6 170 02:49 19.11.2019
4142 Rain 5 1002 93 0 4.6 170 01:49 19.11.2019
4143 Rain 5 1002 93 0 6.2 180 00:49 19.11.2019
4144 Rain 5 1002 93 0 4.6 160 00:20 19.11.2019
4145 Rain 6 1002 93 0 4.6 170 23:40 18.11.2019
4146 Rain 6 1002 93 0 4.1 170 23:20 18.11.2019
4147 Rain 6 1002 100 0 5.1 180 22:48 18.11.2019
4148 Rain 6 1002 93 10000 4.1 170 22:24 18.11.2019
4149 Rain 6 1002 93 10000 4.1 170 21:59 18.11.2019
4150 Rain 7 1002 93 0 5.7 190 21:40 18.11.2019
4151 Rain 7 1002 93 7000 4.1 170 21:22 18.11.2019
4152 Rain 7 1002 93 0 3.6 200 20:59 18.11.2019
4153 Rain 7 1002 93 0 3.6 200 20:41 18.11.2019
4154 Rain 7 1002 100 4000 3.1 160 20:19 18.11.2019
4155 Rain 7 1002 100 0 2.6 200 19:58 18.11.2019
4156 Rain 7 1002 100 0 2.6 200 19:38 18.11.2019
4157 Fog 7 1002 100 300 1.5 130 19:20 18.11.2019
4158 Drizzle 7 1002 100 1500 2.1 190 18:56 18.11.2019
4159 Drizzle 7 1002 100 1500 2.1 190 18:56 18.11.2019
4160 Drizzle 8 1002 100 1500 2.1 190 18:38 18.11.2019
4161 Drizzle 8 1003 100 3000 2.6 180 18:19 18.11.2019
4162 Drizzle 8 1002 100 1500 2.6 190 17:59 18.11.2019
4163 Drizzle 8 1002 100 1500 2.6 190 17:38 18.11.2019
4164 Mist 8 1002 100 1500 1.5 110 17:19 18.11.2019
4165 Drizzle 8 1002 100 1500 2.6 170 16:43 18.11.2019
4166 Drizzle 8 1002 93 3000 2.1 120 16:25 18.11.2019
4167 Drizzle 8 1002 93 3000 2.1 120 15:59 18.11.2019
4168 Mist 8 1002 93 2000 1.5 140 15:59 18.11.2019
4169 Mist 8 1002 93 2000 1.5 140 15:59 18.11.2019
4170 Mist 8 1002 93 2000 1.5 140 15:41 18.11.2019
4171 Mist 8 1002 100 2500 0.5 130 15:22 18.11.2019
4172 Mist 8 1003 100 2000 2.6 80 14:59 18.11.2019
4173 Drizzle 8 1003 93 2000 1 140 14:41 18.11.2019
4174 Mist 8 1003 93 4000 3.6 120 14:22 18.11.2019
4175 Mist 9 1003 93 2200 1 170 13:45 18.11.2019
4176 Mist 9 1003 93 4000 3.6 110 13:27 18.11.2019
4177 Mist 9 1003 93 1800 1 0 12:57 18.11.2019
4178 Mist 9 1003 93 1800 1 0 12:37 18.11.2019
4179 Mist 8 1004 93 5000 3.6 120 12:18 18.11.2019
4180 Mist 8 1004 93 1800 3.1 140 11:43 18.11.2019
4181 Mist 8 1004 87 5000 1.5 0 11:25 18.11.2019
4182 Mist 8 1004 93 3000 4.6 130 10:55 18.11.2019
4183 Mist 8 1004 93 3000 4.6 130 10:37 18.11.2019
4184 Mist 8 1004 93 5000 3.6 90 10:18 18.11.2019
4185 Mist 8 1004 100 3000 3.1 110 09:54 18.11.2019
4186 Mist 8 1004 100 3000 3.1 110 09:36 18.11.2019
4187 Mist 8 1004 93 4000 4.1 90 09:18 18.11.2019
4188 Drizzle 8 1004 100 2000 3.6 80 08:42 18.11.2019
4189 Mist 8 1004 93 3800 2.6 80 08:20 18.11.2019
4190 Drizzle 8 1004 93 2500 3.1 70 07:47 18.11.2019
4191 Clouds 8 1003 100 6000 3.1 90 07:29 18.11.2019
4192 Drizzle 8 1004 93 3000 4.1 60 06:56 18.11.2019
4193 Mist 8 1005 93 0 5.1 50 06:32 18.11.2019
4194 Clouds 7 1005 87 7000 5.7 60 05:48 18.11.2019
4195 Clouds 7 1005 87 10000 6.2 50 04:57 18.11.2019
4196 Rain 7 1007 81 0 6.7 20 02:59 18.11.2019
4197 Rain 6 1009 81 0 7.2 20 01:31 18.11.2019
4198 Clouds 6 1010 93 10000 5.7 50 00:35 18.11.2019
4199 Rain 6 1010 93 9000 7.7 40 23:45 17.11.2019
4200 Rain 6 1011 93 10000 6.2 30 23:25 17.11.2019
4201 Rain 6 1012 87 10000 3.6 70 22:59 17.11.2019
4202 Rain 6 1012 87 10000 3.6 70 22:41 17.11.2019
4203 Rain 6 1013 93 0 5.1 60 22:23 17.11.2019
4204 Rain 6 1013 93 0 5.1 60 21:59 17.11.2019
4205 Rain 6 1012 87 10000 3.6 80 21:41 17.11.2019
4206 Rain 6 1013 87 0 3.1 20 21:19 17.11.2019
4207 Clouds 6 1013 87 10000 3.6 70 20:57 17.11.2019
4208 Clouds 6 1013 87 10000 3.6 70 20:38 17.11.2019
4209 Clouds 5 1013 87 10000 2.6 30 20:20 17.11.2019
4210 Clouds 5 1013 100 10000 3.6 40 19:56 17.11.2019
4211 Clouds 5 1013 100 10000 3.6 40 19:38 17.11.2019
4212 Clouds 5 1013 100 10000 3.6 40 19:38 17.11.2019
4213 Clouds 5 1013 100 10000 3.6 40 19:38 17.11.2019
4214 Clouds 5 1013 87 10000 2.6 40 19:20 17.11.2019
4215 Clouds 5 1013 93 10000 2.1 70 18:56 17.11.2019
4216 Clouds 4 1013 93 10000 2.1 70 18:38 17.11.2019
4217 Clouds 4 1014 93 10000 2.1 90 18:19 17.11.2019
4218 Clouds 4 1013 93 10000 2.6 40 17:58 17.11.2019
4219 Clouds 4 1013 93 10000 2.6 40 17:39 17.11.2019
4220 Clouds 4 1014 93 10000 1.5 350 17:20 17.11.2019
4221 Clouds 5 1014 86 10000 2.1 100 16:59 17.11.2019
4222 Clouds 5 1014 86 10000 2.1 100 16:40 17.11.2019
4223 Clouds 5 1014 93 10000 1.5 140 16:21 17.11.2019
4224 Clouds 5 1014 86 9000 2.6 130 15:56 17.11.2019
4225 Clouds 5 1014 86 9000 2.6 130 15:38 17.11.2019
4226 Clouds 5 1014 87 10000 1.5 140 15:18 17.11.2019
4227 Clouds 5 1014 81 9000 2.1 150 14:57 17.11.2019
4228 Clouds 5 1014 81 9000 2.1 150 14:38 17.11.2019
4229 Clouds 5 1015 81 0 2.6 160 14:20 17.11.2019
4230 Clouds 5 1015 81 0 2.6 160 14:20 17.11.2019
4231 Clouds 6 1014 81 9000 2.1 160 13:58 17.11.2019
4232 Clouds 6 1014 81 9000 2.1 160 13:39 17.11.2019
4233 Clouds 5 1014 81 0 2.1 150 13:19 17.11.2019
4234 Clouds 5 1014 75 9000 2.6 190 12:45 17.11.2019
4235 Clouds 5 1014 81 0 2.6 190 12:23 17.11.2019
4236 Clouds 5 1014 80 8000 2.1 190 11:58 17.11.2019
4237 Clouds 5 1014 80 8000 2.1 190 11:39 17.11.2019
4238 Clouds 3 1014 80 0 4.1 170 11:20 17.11.2019
4239 Clouds 3 1014 86 8000 4.1 200 10:45 17.11.2019
4240 Clouds 3 1015 86 10000 3.1 170 10:24 17.11.2019
4241 Clouds 2 1014 86 7000 6.7 190 09:58 17.11.2019
4242 Clouds 2 1014 86 7000 6.7 190 09:40 17.11.2019
4243 Clouds 2 1013 86 0 3.6 180 09:22 17.11.2019
4244 Clouds 1 1013 93 6000 5.7 190 08:42 17.11.2019
4245 Clouds 2 1012 86 0 3.6 190 08:23 17.11.2019
4246 Mist 2 1012 86 5000 6.2 200 07:56 17.11.2019
4247 Mist 2 1012 86 5000 6.2 200 07:38 17.11.2019
4248 Clouds 2 1012 86 0 3.6 200 07:19 17.11.2019
4249 Clouds 2 1011 86 10000 6.7 200 06:50 17.11.2019
4250 Clouds 2 1011 86 0 3.6 210 06:28 17.11.2019
4251 Clouds 4 1010 86 10000 6.7 210 04:57 17.11.2019
4252 Clouds 4 1010 86 0 5.1 200 03:59 17.11.2019
4253 Clouds 4 1010 86 0 5.1 200 03:59 17.11.2019
4254 Clouds 4 1009 86 0 5.1 200 03:35 17.11.2019
4255 Clouds 5 1009 87 0 4.1 190 02:59 17.11.2019
4256 Clouds 5 1008 81 10000 8.2 230 01:50 17.11.2019
4257 Rain 5 1008 81 0 6.7 220 00:59 17.11.2019
4258 Clouds 5 1008 81 10000 9.3 220 00:38 17.11.2019
4259 Rain 5 1007 87 0 8.2 210 00:19 17.11.2019
4260 Clouds 6 1007 87 10000 9.3 230 23:42 16.11.2019
4261 Clouds 6 1007 87 10000 9.3 230 23:42 16.11.2019
4262 Clouds 6 1007 93 6000 10.3 220 23:18 16.11.2019
4263 Clouds 6 1007 93 6000 10.3 220 23:18 16.11.2019
4264 Rain 6 1006 93 4500 8.7 220 22:42 16.11.2019
4265 Rain 6 1005 87 0 6.2 220 22:20 16.11.2019
4266 Rain 6 1005 87 0 6.2 220 21:59 16.11.2019
4267 Rain 6 1005 93 4000 8.7 240 21:40 16.11.2019
4268 Rain 6 1004 93 0 6.7 230 21:21 16.11.2019
4269 Rain 7 1004 93 4000 10.3 250 20:58 16.11.2019
4270 Rain 6 1004 93 4000 10.3 250 20:39 16.11.2019
4271 Rain 7 1003 93 0 5.1 230 20:19 16.11.2019
4272 Rain 7 1003 93 4000 9.8 240 19:54 16.11.2019
4273 Rain 7 1003 93 4000 9.8 240 19:36 16.11.2019
4274 Rain 7 1002 93 0 4.6 220 19:18 16.11.2019
4275 Rain 7 1002 93 4000 7.2 240 18:40 16.11.2019
4276 Rain 7 1001 93 0 5.1 230 18:20 16.11.2019
4277 Rain 7 1002 93 4000 8.2 240 17:56 16.11.2019
4278 Rain 7 1002 93 4000 8.2 240 17:56 16.11.2019
4279 Rain 7 1002 93 4000 8.2 240 17:37 16.11.2019
4280 Rain 7 1001 100 8000 4.1 230 17:18 16.11.2019
4281 Rain 7 1001 100 4000 5.7 250 16:45 16.11.2019
4282 Rain 7 1002 93 9000 8.2 240 16:27 16.11.2019
4283 Rain 7 1001 100 2500 6.7 270 15:56 16.11.2019
4284 Rain 7 1001 100 2500 6.7 270 15:38 16.11.2019
4285 Rain 7 1000 93 3000 3.6 260 15:19 16.11.2019
4286 Rain 8 1000 100 1600 5.7 280 14:41 16.11.2019
4287 Rain 8 1000 100 2000 2.6 300 14:22 16.11.2019
4288 Rain 8 1000 100 2000 2.6 300 14:22 16.11.2019
4289 Drizzle 8 1000 100 1300 4.6 290 13:57 16.11.2019
4290 Drizzle 8 1000 100 1300 4.6 290 13:39 16.11.2019
4291 Drizzle 8 1000 100 1300 4.6 290 13:39 16.11.2019
4292 Drizzle 8 1000 100 1200 3.6 300 13:19 16.11.2019
4293 Drizzle 8 1000 100 1200 3.6 300 13:19 16.11.2019
4294 Rain 8 1000 100 1000 1.5 310 12:59 16.11.2019
4295 Drizzle 8 1000 100 500 3.1 310 12:41 16.11.2019
4296 Drizzle 8 1001 93 400 1.5 320 12:20 16.11.2019
4297 Drizzle 8 1001 100 500 2.1 360 11:46 16.11.2019
4298 Fog 8 1002 100 50 1 350 11:28 16.11.2019
4299 Drizzle 8 1002 100 500 2.6 20 10:59 16.11.2019
4300 Drizzle 8 1002 100 500 2.6 20 10:41 16.11.2019
4301 Fog 8 1003 100 300 0.5 30 10:22 16.11.2019
4302 Drizzle 8 1002 100 800 2.1 50 09:56 16.11.2019
4303 Drizzle 8 1002 100 800 2.1 50 09:38 16.11.2019
4304 Fog 8 1002 100 800 1 0 09:19 16.11.2019
4305 Mist 7 1003 100 1500 2.1 60 08:40 16.11.2019
4306 Mist 7 1003 100 2500 1.5 120 08:20 16.11.2019
4307 Mist 7 1003 100 2500 1.5 120 07:44 16.11.2019
4308 Mist 7 1003 100 2500 1.5 120 07:43 16.11.2019
4309 Fog 7 1003 100 900 2.1 50 07:22 16.11.2019
4310 Mist 7 1003 100 2800 1.5 70 06:57 16.11.2019
4311 Mist 7 1003 100 2800 1.5 70 06:39 16.11.2019
4312 Drizzle 7 1003 100 2800 2.1 50 06:19 16.11.2019
4313 Mist 8 1005 93 2000 2.6 60 04:21 16.11.2019
4314 Mist 8 1005 93 2000 2.6 60 04:21 16.11.2019
4315 Mist 8 1005 93 2500 2.6 80 03:26 16.11.2019
4316 Drizzle 8 1005 93 6000 1.5 100 02:36 16.11.2019
4317 Drizzle 8 1005 93 7000 2.1 100 01:38 16.11.2019
4318 Drizzle 8 1005 93 7000 2.1 100 01:38 16.11.2019
4319 Clouds 8 1005 93 10000 2.6 110 00:49 16.11.2019
4320 Mist 8 1006 93 2000 3.6 60 00:29 16.11.2019
4321 Clouds 8 1006 93 10000 1.5 100 23:56 15.11.2019
4322 Clouds 8 1006 93 10000 1.5 100 23:38 15.11.2019
4323 Mist 8 1007 93 2000 4.6 80 23:20 15.11.2019
4324 Clouds 8 1006 93 10000 3.1 130 22:40 15.11.2019
4325 Mist 8 1007 93 3500 5.1 90 22:20 15.11.2019
4326 Clouds 8 1006 93 10000 4.1 130 21:58 15.11.2019
4327 Clouds 8 1006 93 10000 4.1 130 21:40 15.11.2019
4328 Drizzle 8 1007 93 4500 5.7 100 21:20 15.11.2019
4329 Drizzle 8 1006 93 10000 5.1 130 20:57 15.11.2019
4330 Drizzle 8 1006 93 10000 5.1 130 20:39 15.11.2019
4331 Drizzle 8 1006 87 10000 6.2 130 20:20 15.11.2019
4332 Clouds 8 1006 87 10000 6.2 130 19:57 15.11.2019
4333 Clouds 8 1006 87 10000 6.2 130 19:38 15.11.2019
4334 Drizzle 8 1006 93 2000 7.7 100 19:20 15.11.2019
4335 Drizzle 8 1006 87 10000 6.2 120 18:56 15.11.2019
4336 Drizzle 8 1006 87 10000 6.2 120 18:38 15.11.2019
4337 Rain 8 1007 100 2500 8.7 90 18:20 15.11.2019
4338 Drizzle 8 1006 93 8000 7.2 130 17:42 15.11.2019
4339 Drizzle 8 1006 93 8000 7.2 130 17:42 15.11.2019
4340 Drizzle 7 1007 93 2500 6.7 70 17:24 15.11.2019
4341 Clouds 7 1006 93 6000 7.7 120 16:56 15.11.2019
4342 Clouds 7 1006 93 6000 7.7 120 16:37 15.11.2019
4343 Clouds 7 1007 93 10000 10.3 90 16:19 15.11.2019
4344 Drizzle 7 1006 93 4000 8.2 110 15:38 15.11.2019
4345 Drizzle 7 1008 87 10000 7.7 80 15:20 15.11.2019
4346 Clouds 7 1007 87 10000 8.2 120 14:57 15.11.2019
4347 Clouds 6 1007 87 10000 8.2 120 14:38 15.11.2019
4348 Clouds 6 1008 87 10000 11.3 90 14:19 15.11.2019
4349 Clouds 6 1008 87 10000 8.7 110 13:58 15.11.2019
4350 Clouds 6 1008 87 10000 8.7 110 13:39 15.11.2019
4351 Clouds 6 1008 81 10000 11.8 90 13:21 15.11.2019
4352 Clouds 6 1007 87 10000 7.7 110 12:58 15.11.2019
4353 Clouds 6 1007 87 10000 7.7 110 12:40 15.11.2019
4354 Clouds 6 1008 81 10000 9.8 90 12:20 15.11.2019
4355 Clouds 6 1008 81 10000 7.7 100 11:58 15.11.2019
4356 Clouds 6 1008 81 10000 7.7 100 11:38 15.11.2019
4357 Clouds 6 1010 87 10000 10.3 100 11:20 15.11.2019
4358 Clouds 6 1008 81 10000 8.2 110 10:56 15.11.2019
4359 Clouds 6 1008 81 10000 8.2 110 10:56 15.11.2019
4360 Clouds 6 1008 81 10000 8.2 110 10:38 15.11.2019
4361 Clouds 5 1009 81 10000 8.7 110 10:18 15.11.2019
4362 Clouds 5 1008 81 10000 10.3 110 09:41 15.11.2019
4363 Clouds 5 1009 81 10000 11.8 90 09:20 15.11.2019
4364 Clouds 5 1009 75 10000 8.7 110 08:44 15.11.2019
4365 Clouds 5 1008 80 7000 7.7 90 08:23 15.11.2019
4366 Clouds 5 1008 75 10000 9.3 120 07:49 15.11.2019
4367 Clouds 6 1009 86 10000 7.7 100 07:29 15.11.2019
4368 Clouds 6 1009 81 10000 11.8 90 06:59 15.11.2019
4369 Clouds 6 1009 81 10000 6.7 110 06:34 15.11.2019
4370 Clouds 6 1009 81 10000 6.7 100 05:50 15.11.2019
4371 Clouds 6 1009 81 10000 10.3 90 05:28 15.11.2019
4372 Clouds 6 1010 81 10000 6.7 110 04:40 15.11.2019
4373 Clouds 5 1010 81 10000 6.2 100 03:37 15.11.2019
4374 Clouds 5 1012 87 0 8.2 90 02:27 15.11.2019
4375 Clouds 5 1011 87 10000 5.7 110 01:48 15.11.2019
4376 Clouds 4 1012 93 6000 5.7 90 01:24 15.11.2019
4377 Clouds 4 1010 93 6000 5.1 80 00:37 15.11.2019
4378 Clouds 4 1011 93 10000 4.6 110 23:59 14.11.2019
4379 Clouds 4 1012 93 0 5.1 90 23:40 14.11.2019
4380 Clouds 4 1012 87 0 5.1 90 23:21 14.11.2019
4381 Clouds 4 1011 93 10000 5.1 120 22:41 14.11.2019
4382 Clouds 4 1011 93 6000 4.6 80 22:22 14.11.2019
4383 Clouds 4 1011 93 10000 4.1 110 21:58 14.11.2019
4384 Clouds 4 1011 93 10000 4.1 110 21:40 14.11.2019
4385 Clouds 5 1011 93 10000 4.1 80 21:21 14.11.2019
4386 Clouds 4 1011 100 10000 4.6 120 20:55 14.11.2019
4387 Clouds 4 1011 100 10000 4.6 120 20:37 14.11.2019
4388 Mist 5 1011 87 5000 3.6 110 20:18 14.11.2019
4389 Clouds 5 1011 93 10000 3.6 120 19:54 14.11.2019
4390 Clouds 5 1011 87 10000 5.7 110 19:36 14.11.2019
4391 Mist 5 1011 93 5000 3.1 100 19:18 14.11.2019
4392 Mist 5 1011 93 5000 3.1 100 19:18 14.11.2019
4393 Clouds 5 1009 86 6000 3.6 100 18:42 14.11.2019
4394 Clouds 5 1009 93 7000 4.1 120 18:22 14.11.2019
4395 Clouds 5 1009 93 7000 4.1 120 17:57 14.11.2019
4396 Clouds 5 1009 86 10000 3.6 100 17:38 14.11.2019
4397 Clouds 5 1008 93 10000 3.1 100 17:20 14.11.2019
4398 Clouds 5 1008 93 8000 3.6 130 16:58 14.11.2019
4399 Clouds 5 1008 93 8000 3.6 130 16:37 14.11.2019
4400 Clouds 6 1009 87 10000 4.1 100 16:19 14.11.2019
4401 Clouds 6 1008 87 10000 3.6 110 15:58 14.11.2019
4402 Clouds 6 1008 87 10000 3.6 110 15:38 14.11.2019
4403 Clouds 7 1008 87 10000 3.6 130 15:20 14.11.2019
4404 Clouds 7 1008 81 10000 3.1 140 14:57 14.11.2019
4405 Clouds 7 1008 81 10000 3.1 140 14:38 14.11.2019
4406 Clouds 7 1008 81 10000 3.6 130 14:20 14.11.2019
4407 Clouds 7 1007 81 9000 3.1 120 13:42 14.11.2019
4408 Clouds 7 1008 87 7000 3.1 130 13:23 14.11.2019
4409 Clouds 7 1007 81 7000 2.6 140 12:57 14.11.2019
4410 Clouds 7 1007 81 7000 2.6 140 12:38 14.11.2019
4411 Clouds 7 1007 81 7000 2.6 140 12:38 14.11.2019
4412 Clouds 7 1007 81 7000 2.6 140 12:38 14.11.2019
4413 Clouds 6 1007 93 6000 2.6 160 12:20 14.11.2019
4414 Mist 6 1007 100 3800 3.1 160 11:55 14.11.2019
4415 Mist 5 1007 100 3800 3.1 160 11:37 14.11.2019
4416 Mist 5 1007 93 2400 3.1 170 11:18 14.11.2019
4417 Mist 5 1006 100 2500 2.1 160 10:56 14.11.2019
4418 Mist 5 1006 100 2500 2.1 160 10:56 14.11.2019
4419 Mist 4 1006 100 2500 2.1 160 10:37 14.11.2019
4420 Mist 4 1006 100 2500 2.1 160 10:37 14.11.2019
4421 Fog 4 1006 100 700 3.1 180 10:19 14.11.2019
4422 Fog 4 1006 100 700 3.1 180 10:19 14.11.2019
4423 Fog 3 1005 93 300 2.6 190 09:42 14.11.2019
4424 Fog 3 1005 100 700 2.1 130 09:24 14.11.2019
4425 Fog 3 1004 100 600 2.1 190 08:58 14.11.2019
4426 Fog 3 1004 100 600 2.1 190 08:39 14.11.2019
4427 Mist 3 1004 100 1600 2.1 190 08:21 14.11.2019
4428 Fog 3 1003 100 600 2.6 210 07:42 14.11.2019
4429 Mist 4 1003 100 1200 3.6 200 07:24 14.11.2019
4430 Mist 4 1003 100 1200 3.6 200 07:23 14.11.2019
4431 Fog 4 1002 100 600 4.1 200 06:46 14.11.2019
4432 Fog 3 1002 100 500 3.6 210 06:20 14.11.2019
4433 Fog 3 1002 93 800 1.5 210 05:38 14.11.2019
4434 Clouds 4 1001 93 8000 5.1 200 04:38 14.11.2019
4435 Clouds 4 1001 93 0 3.1 190 03:28 14.11.2019
4436 Clouds 4 1001 93 10000 6.2 190 02:38 14.11.2019
4437 Clouds 5 1000 100 8000 5.1 180 01:41 14.11.2019
4438 Rain 5 1000 100 5000 5.7 210 00:58 14.11.2019
4439 Rain 5 1000 100 5000 5.7 210 00:39 14.11.2019
4440 Clouds 5 999 93 0 4.1 200 00:20 14.11.2019
4441 Rain 5 999 93 8000 6.2 210 23:39 13.11.2019
4442 Rain 5 999 93 0 3.6 190 23:20 13.11.2019
4443 Clouds 5 998 93 10000 7.2 200 22:55 13.11.2019
4444 Clouds 5 998 93 10000 7.2 200 22:55 13.11.2019
4445 Clouds 5 998 93 10000 7.2 200 22:37 13.11.2019
4446 Clouds 5 999 93 10000 3.6 180 22:19 13.11.2019
4447 Clouds 5 998 93 10000 6.7 190 21:55 13.11.2019
4448 Clouds 5 998 93 10000 6.7 190 21:37 13.11.2019
4449 Clouds 5 998 93 10000 4.1 190 21:18 13.11.2019
4450 Rain 5 998 93 8000 6.2 190 20:55 13.11.2019
4451 Rain 5 998 93 8000 6.2 190 20:37 13.11.2019
4452 Clouds 6 998 87 10000 4.1 180 20:18 13.11.2019
4453 Drizzle 6 998 87 9000 7.2 180 19:43 13.11.2019
4454 Clouds 6 998 87 10000 5.1 170 19:20 13.11.2019
4455 Clouds 6 997 87 9000 7.7 180 18:57 13.11.2019
4456 Clouds 6 997 87 9000 7.7 180 18:39 13.11.2019
4457 Clouds 6 997 87 10000 5.7 160 18:21 13.11.2019
4458 Clouds 6 997 87 8000 6.7 180 17:58 13.11.2019
4459 Clouds 6 997 87 8000 6.7 180 17:39 13.11.2019
4460 Drizzle 6 997 87 6000 8.2 180 17:21 13.11.2019
4461 Rain 6 996 93 8000 8.2 180 16:58 13.11.2019
4462 Rain 6 996 93 8000 8.2 180 16:39 13.11.2019
4463 Rain 5 997 87 10000 5.1 170 16:21 13.11.2019
4464 Clouds 5 996 86 8000 7.7 180 15:58 13.11.2019
4465 Clouds 5 996 86 8000 7.7 180 15:39 13.11.2019
4466 Clouds 5 996 81 10000 5.1 170 15:20 13.11.2019
4467 Clouds 5 996 86 10000 6.2 170 14:43 13.11.2019
4468 Clouds 5 997 86 10000 5.1 170 14:23 13.11.2019
4469 Clouds 5 996 80 10000 6.2 180 13:58 13.11.2019
4470 Clouds 4 997 80 10000 6.7 180 13:37 13.11.2019
4471 Clouds 4 997 80 10000 4.6 170 13:18 13.11.2019
4472 Clouds 4 996 86 10000 6.7 180 12:56 13.11.2019
4473 Clouds 4 996 86 10000 6.7 180 12:37 13.11.2019
4474 Clouds 4 997 80 10000 5.1 160 12:19 13.11.2019
4475 Rain 4 997 86 10000 6.2 180 11:41 13.11.2019
4476 Clouds 4 997 80 10000 5.1 160 11:21 13.11.2019
4477 Clouds 3 997 86 10000 5.7 170 10:59 13.11.2019
4478 Clouds 3 997 86 10000 5.7 170 10:41 13.11.2019
4479 Clouds 3 997 86 10000 5.7 170 10:41 13.11.2019
4480 Clouds 3 997 86 10000 5.7 150 10:20 13.11.2019
4481 Clouds 3 997 93 10000 5.7 160 09:57 13.11.2019
4482 Clouds 2 997 93 10000 5.7 160 09:39 13.11.2019
4483 Clouds 2 998 86 10000 3.6 150 09:20 13.11.2019
4484 Clouds 2 998 86 10000 3.6 150 09:20 13.11.2019
4485 Clouds 2 997 93 10000 6.7 170 08:40 13.11.2019
4486 Clouds 2 997 92 8000 4.6 140 08:21 13.11.2019
4487 Clouds 2 997 93 10000 6.2 160 07:43 13.11.2019
4488 Clouds 2 997 92 8000 3.6 130 07:22 13.11.2019
4489 Clouds 2 997 93 10000 6.7 160 06:58 13.11.2019
4490 Clouds 2 997 93 10000 6.7 160 06:36 13.11.2019
4491 Clouds 1 997 92 8000 3.6 120 06:18 13.11.2019
4492 Clouds 1 998 93 10000 5.7 160 05:45 13.11.2019
4493 Clouds 2 998 93 10000 5.7 160 04:56 13.11.2019
4494 Clouds 2 998 93 10000 5.1 170 03:36 13.11.2019
4495 Clouds 2 999 93 10000 5.1 160 01:48 13.11.2019
4496 Clouds 2 999 93 10000 5.1 150 01:23 13.11.2019
4497 Clouds 3 999 93 10000 4.6 170 00:37 13.11.2019
4498 Clouds 3 999 93 10000 5.1 170 23:56 12.11.2019
4499 Clouds 3 999 93 10000 5.1 170 23:37 12.11.2019
4500 Clouds 3 999 93 10000 4.1 150 23:18 12.11.2019
4501 Clouds 4 999 86 10000 5.1 170 22:40 12.11.2019
4502 Clouds 4 999 80 10000 4.6 160 22:18 12.11.2019
4503 Clouds 4 999 93 10000 4.6 180 21:54 12.11.2019
4504 Clouds 4 999 93 10000 4.6 180 21:36 12.11.2019
4505 Rain 5 999 87 10000 4.1 160 21:18 12.11.2019
4506 Clouds 5 999 81 10000 5.1 170 20:55 12.11.2019
4507 Clouds 5 999 81 10000 5.1 170 20:36 12.11.2019
4508 Clouds 5 999 81 10000 4.6 160 20:18 12.11.2019
4509 Clouds 6 999 81 10000 4.1 160 19:54 12.11.2019
4510 Clouds 6 999 81 10000 4.1 160 19:36 12.11.2019
4511 Clouds 6 999 80 10000 4.1 150 19:18 12.11.2019
4512 Clouds 6 999 81 10000 4.1 150 18:55 12.11.2019
4513 Clouds 6 999 81 10000 4.1 150 18:36 12.11.2019
4514 Clouds 6 999 86 10000 4.1 150 18:18 12.11.2019
4515 Clouds 6 999 81 9000 3.6 160 17:55 12.11.2019
4516 Clouds 6 999 81 9000 3.6 160 17:36 12.11.2019
4517 Clouds 6 999 81 9000 3.6 160 17:36 12.11.2019
4518 Clouds 6 999 75 10000 3.1 160 17:18 12.11.2019
4519 Clouds 6 1000 81 9000 4.1 180 16:42 12.11.2019
4520 Clouds 6 999 70 10000 3.6 180 16:24 12.11.2019
4521 Clouds 6 999 75 9000 4.1 200 15:57 12.11.2019
4522 Clouds 6 999 75 9000 4.1 200 15:37 12.11.2019
4523 Clouds 6 999 75 10000 4.1 190 15:18 12.11.2019
4524 Clouds 6 999 81 9000 5.1 200 14:42 12.11.2019
4525 Clouds 7 999 75 10000 4.6 200 14:20 12.11.2019
4526 Clouds 7 999 87 9000 5.7 220 13:58 12.11.2019
4527 Clouds 7 999 87 9000 5.7 220 13:40 12.11.2019
4528 Clouds 6 999 87 10000 4.1 190 13:20 12.11.2019
4529 Clouds 6 999 87 10000 4.1 190 12:59 12.11.2019
4530 Clouds 6 998 93 9000 6.7 200 12:39 12.11.2019
4531 Rain 6 999 87 8000 6.2 190 12:18 12.11.2019
4532 Rain 6 998 93 9000 8.7 210 11:54 12.11.2019
4533 Clouds 6 998 87 10000 4.1 180 11:36 12.11.2019
4534 Clouds 5 998 87 10000 4.6 180 11:18 12.11.2019
4535 Clouds 5 998 93 9000 7.2 200 10:54 12.11.2019
4536 Rain 5 998 87 10000 4.6 170 10:36 12.11.2019
4537 Rain 5 998 87 10000 4.6 160 10:18 12.11.2019
4538 Drizzle 5 998 86 9000 7.7 190 09:39 12.11.2019
4539 Clouds 6 998 81 10000 4.6 160 09:19 12.11.2019
4540 Clouds 6 998 81 9000 7.2 180 08:49 12.11.2019
4541 Clouds 6 1000 80 10000 4.6 180 08:29 12.11.2019
4542 Clouds 6 998 81 10000 7.7 190 07:43 12.11.2019
4543 Clouds 5 998 81 10000 4.6 160 07:25 12.11.2019
4544 Clouds 6 997 86 0 7.2 190 06:54 12.11.2019
4545 Clouds 5 998 81 0 5.1 160 06:28 12.11.2019
4546 Clouds 5 997 86 0 5.7 190 05:56 12.11.2019
4547 Clouds 5 998 86 0 5.1 170 04:59 12.11.2019
4548 Clouds 5 998 86 0 5.1 170 04:37 12.11.2019
4549 Clouds 4 998 86 0 5.7 170 02:41 12.11.2019
4550 Clouds 4 998 86 0 6.7 160 01:38 12.11.2019
4551 Clouds 4 999 80 0 6.2 160 01:18 12.11.2019
4552 Clouds 4 999 86 0 6.2 160 00:40 12.11.2019
4553 Clouds 4 1000 80 0 6.2 160 00:18 12.11.2019
4554 Clouds 4 999 86 0 7.2 160 23:41 11.11.2019
4555 Clouds 4 999 86 10000 6.2 150 23:20 11.11.2019
4556 Clouds 4 1000 86 0 7.7 160 22:39 11.11.2019
4557 Clouds 4 1001 80 10000 7.2 150 22:20 11.11.2019
4558 Clouds 4 1001 80 10000 7.2 150 21:59 11.11.2019
4559 Clouds 4 1000 93 0 6.7 160 21:39 11.11.2019
4560 Clouds 3 1001 86 10000 7.2 150 21:21 11.11.2019
4561 Clouds 3 1001 86 0 6.7 170 20:59 11.11.2019
4562 Clouds 3 1001 86 0 6.7 170 20:41 11.11.2019
4563 Clouds 3 1001 93 10000 6.7 150 20:20 11.11.2019
4564 Clouds 3 1001 93 10000 6.7 150 20:20 11.11.2019
4565 Clouds 3 1001 93 0 7.7 160 19:56 11.11.2019
4566 Clouds 3 1001 93 0 7.7 160 19:37 11.11.2019
4567 Clouds 4 1002 86 10000 6.2 150 19:18 11.11.2019
4568 Clouds 4 1002 86 10000 7.2 160 18:41 11.11.2019
4569 Clouds 4 1002 86 10000 6.7 150 18:21 11.11.2019
4570 Clouds 4 1002 86 10000 7.7 160 17:59 11.11.2019
4571 Clouds 4 1002 86 10000 7.7 160 17:40 11.11.2019
4572 Clouds 4 1002 86 8000 4.6 140 17:22 11.11.2019
4573 Clouds 5 1002 80 10000 6.2 160 16:39 11.11.2019
4574 Clouds 5 1002 86 10000 4.1 160 16:20 11.11.2019
4575 Clouds 5 1002 86 10000 4.1 160 15:57 11.11.2019
4576 Clouds 5 1003 80 10000 6.2 170 15:38 11.11.2019
4577 Clouds 5 1004 81 10000 3.6 150 15:19 11.11.2019
4578 Clouds 6 1004 75 10000 5.1 180 14:42 11.11.2019
4579 Clouds 6 1004 75 10000 5.1 180 14:42 11.11.2019
4580 Clouds 6 1005 80 10000 4.6 170 14:24 11.11.2019
4581 Clouds 6 1004 75 10000 6.2 170 13:58 11.11.2019
4582 Clouds 6 1004 75 10000 5.7 190 13:37 11.11.2019
4583 Clouds 6 1005 81 10000 4.6 160 13:19 11.11.2019
4584 Clouds 6 1005 81 10000 4.6 160 12:56 11.11.2019
4585 Clouds 5 1005 80 10000 7.7 190 12:38 11.11.2019
4586 Clouds 5 1006 80 10000 5.1 150 12:20 11.11.2019
4587 Clouds 5 1006 75 10000 8.7 190 11:42 11.11.2019
4588 Clouds 4 1007 86 10000 4.6 160 11:22 11.11.2019
4589 Clouds 4 1007 86 8000 7.2 190 10:57 11.11.2019
4590 Clouds 4 1007 86 8000 7.2 190 10:38 11.11.2019
4591 Clouds 3 1007 93 5000 4.6 170 10:18 11.11.2019
4592 Mist 3 1007 93 5000 7.2 190 09:54 11.11.2019
4593 Mist 3 1007 93 5000 7.2 190 09:36 11.11.2019
4594 Clouds 2 1007 86 6000 3.1 160 09:18 11.11.2019
4595 Mist 2 1007 93 5000 6.2 190 08:37 11.11.2019
4596 Clouds 2 1008 93 6000 2.6 180 08:19 11.11.2019
4597 Mist 3 1007 93 5000 4.1 200 07:54 11.11.2019
4598 Mist 3 1007 93 5000 4.1 200 07:36 11.11.2019
4599 Clouds 3 1008 86 6000 2.6 170 07:18 11.11.2019
4600 Clouds 4 1008 93 8000 5.1 190 06:41 11.11.2019
4601 Clouds 4 1009 93 5000 2.1 180 06:20 11.11.2019
4602 Clouds 4 1009 93 7000 7.2 200 05:49 11.11.2019
4603 Clouds 4 1009 93 7000 7.2 200 05:49 11.11.2019
4604 Rain 5 1009 87 5000 5.7 210 03:56 11.11.2019
4605 Rain 5 1009 93 4500 4.6 220 03:20 11.11.2019
4606 Rain 5 1010 87 0 4.1 190 02:20 11.11.2019
4607 Rain 5 1010 93 6000 6.7 210 01:53 11.11.2019
4608 Rain 5 1010 93 6000 6.7 210 01:33 11.11.2019
4609 Clouds 5 1010 87 6000 6.7 200 00:47 11.11.2019
4610 Clouds 5 1010 93 6000 6.7 200 00:19 11.11.2019
4611 Clouds 5 1010 93 9000 6.2 200 23:39 10.11.2019
4612 Rain 5 1010 87 0 4.6 200 23:20 10.11.2019
4613 Rain 5 1010 87 9000 7.7 210 22:57 10.11.2019
4614 Rain 5 1010 87 9000 7.7 210 22:38 10.11.2019
4615 Clouds 5 1009 100 9000 5.1 180 22:20 10.11.2019
4616 Clouds 5 1009 100 9000 5.1 180 21:58 10.11.2019
4617 Clouds 5 1010 93 9000 6.2 190 21:39 10.11.2019
4618 Clouds 6 1012 81 8000 4.1 190 21:21 10.11.2019
4619 Rain 6 1011 81 0 4.6 170 20:56 10.11.2019
4620 Drizzle 6 1011 87 9000 7.7 190 20:37 10.11.2019
4621 Rain 6 1011 93 10000 5.1 150 20:19 10.11.2019
4622 Rain 6 1011 87 9000 7.7 170 19:54 10.11.2019
4623 Rain 6 1011 87 9000 7.7 170 19:36 10.11.2019
4624 Clouds 6 1012 81 10000 4.6 160 19:18 10.11.2019
4625 Clouds 6 1012 81 10000 4.6 160 19:18 10.11.2019
4626 Rain 6 1011 87 9000 5.1 170 18:54 10.11.2019
4627 Rain 6 1011 87 9000 5.1 170 18:36 10.11.2019
4628 Clouds 6 1012 81 10000 3.6 150 18:18 10.11.2019
4629 Clouds 6 1012 87 9000 4.6 170 17:54 10.11.2019
4630 Clouds 6 1012 87 9000 4.6 170 17:36 10.11.2019
4631 Clouds 6 1012 87 9000 2.6 150 17:18 10.11.2019
4632 Clouds 6 1012 87 9000 2.6 150 17:18 10.11.2019
4633 Clouds 6 1011 87 10000 4.1 180 16:43 10.11.2019
4634 Clouds 7 1012 87 10000 2.1 140 16:25 10.11.2019
4635 Clouds 7 1011 81 10000 3.1 180 15:56 10.11.2019
4636 Clouds 7 1011 81 10000 3.1 180 15:37 10.11.2019
4637 Clear 7 1011 75 10000 2.1 160 15:18 10.11.2019
4638 Clear 7 1011 75 10000 2.1 160 14:56 10.11.2019
4639 Clouds 7 1011 75 10000 3.1 210 14:38 10.11.2019
4640 Clear 7 1011 75 0 2.6 150 14:20 10.11.2019
4641 Clouds 7 1011 81 10000 2.1 200 13:55 10.11.2019
4642 Clouds 7 1011 81 10000 2.1 200 13:36 10.11.2019
4643 Clouds 7 1011 70 10000 3.1 200 13:18 10.11.2019
4644 Clouds 7 1011 81 7000 2.6 190 12:41 10.11.2019
4645 Rain 6 1012 81 0 2.1 150 12:19 10.11.2019
4646 Clouds 6 1012 100 6000 1.5 180 11:56 10.11.2019
4647 Clouds 6 1012 100 6000 1.5 180 11:38 10.11.2019
4648 Clear 5 1012 93 0 2.1 150 11:19 10.11.2019
4649 Mist 5 1011 100 2200 2.6 160 10:42 10.11.2019
4650 Mist 4 1011 93 0 1.5 160 10:22 10.11.2019
4651 Mist 4 1011 93 0 1.5 160 10:22 10.11.2019
4652 Mist 4 1011 93 0 1.5 160 09:59 10.11.2019
4653 Mist 4 1011 100 2500 3.6 160 09:39 10.11.2019
4654 Mist 3 1011 93 0 2.1 140 09:19 10.11.2019
4655 Mist 3 1010 100 2000 3.6 160 08:39 10.11.2019
4656 Fog 3 1010 100 300 2.1 50 08:20 10.11.2019
4657 Mist 3 1010 100 2000 4.1 130 07:53 10.11.2019
4658 Fog 3 1010 93 300 1.5 60 07:34 10.11.2019
4659 Mist 3 1009 100 2000 3.1 120 06:59 10.11.2019
4660 Mist 3 1009 100 1800 2.1 120 06:21 10.11.2019
4661 Fog 2 1008 100 150 2.1 110 03:38 10.11.2019
4662 Fog 2 1008 100 300 2.1 120 02:33 10.11.2019
4663 Fog 2 1007 100 200 2.1 180 01:37 10.11.2019
4664 Fog 2 1008 93 0 1.47 166 01:18 10.11.2019
4665 Mist 3 1007 100 2500 3.1 190 00:37 10.11.2019
4666 Mist 2 1007 100 2000 1 180 23:42 09.11.2019
4667 Mist 3 1007 100 2000 0.5 0 23:20 09.11.2019
4668 Mist 2 1007 100 2000 2.1 200 22:55 09.11.2019
4669 Mist 2 1007 100 2000 2.1 200 22:37 09.11.2019
4670 Mist 3 1007 100 2000 2.1 210 22:18 09.11.2019
4671 Mist 3 1007 100 4000 2.6 200 21:55 09.11.2019
4672 Mist 3 1007 100 4000 2.6 200 21:37 09.11.2019
4673 Fog 3 1007 100 0 0.5 0 21:19 09.11.2019
4674 Mist 4 1006 93 4500 3.1 190 20:41 09.11.2019
4675 Fog 4 1006 100 0 1.61 162 20:22 09.11.2019
4676 Fog 4 1006 100 0 1.3 157 19:57 09.11.2019
4677 Clouds 4 1006 100 6000 3.6 210 19:36 09.11.2019
4678 Mist 4 1006 93 0 0.5 0 19:18 09.11.2019
4679 Clouds 4 1006 93 9000 3.1 160 18:40 09.11.2019
4680 Mist 4 1006 93 0 1 150 18:19 09.11.2019
4681 Mist 4 1006 93 0 1 150 18:19 09.11.2019
4682 Mist 5 1006 93 0 1 150 17:58 09.11.2019
4683 Clouds 5 1006 100 9000 2.1 150 17:40 09.11.2019
4684 Clouds 6 1006 93 0 0.5 100 17:22 09.11.2019
4685 Clouds 7 1006 93 9000 1.5 140 16:42 09.11.2019
4686 Clouds 7 1006 87 8000 0.5 100 16:21 09.11.2019
4687 Clouds 7 1006 87 8000 0.5 100 15:58 09.11.2019
4688 Clouds 8 1006 81 10000 0.5 0 15:39 09.11.2019
4689 Clouds 8 1006 81 10000 1.5 0 15:21 09.11.2019
4690 Clouds 8 1005 87 8000 0.66 145 14:42 09.11.2019
4691 Clouds 8 1006 81 10000 1.5 210 14:22 09.11.2019
4692 Clouds 8 1006 81 10000 1 330 13:57 09.11.2019
4693 Mist 7 1006 100 5000 1.14 222 13:38 09.11.2019
4694 Clouds 7 1006 93 10000 0.5 0 13:19 09.11.2019
4695 Mist 7 1006 100 5000 0.9 238 12:55 09.11.2019
4696 Mist 7 1006 100 5000 0.9 238 12:37 09.11.2019
4697 Mist 6 1006 100 3000 0.5 160 12:18 09.11.2019
4698 Mist 6 1006 100 4000 0.5 0 11:47 09.11.2019
4699 Fog 5 1006 100 200 1.5 100 11:20 09.11.2019
4700 Mist 5 1006 100 3500 1 110 10:56 09.11.2019
4701 Mist 4 1006 100 3500 1 110 10:37 09.11.2019
4702 Mist 4 1006 100 1600 1 110 10:18 09.11.2019
4703 Fog 3 1006 100 300 0.5 50 09:42 09.11.2019
4704 Fog 3 1007 100 1200 1.5 250 09:20 09.11.2019
4705 Fog 2 1007 100 300 1 30 08:45 09.11.2019
4706 Mist 2 1007 100 3800 2.1 280 08:25 09.11.2019
4707 Fog 2 1006 93 400 1.5 80 07:57 09.11.2019
4708 Fog 2 1006 93 400 1.5 80 07:38 09.11.2019
4709 Fog 2 1007 91 100 0.5 40 07:19 09.11.2019
4710 Clouds 2 1006 100 0 1 30 06:45 09.11.2019
4711 Mist 2 1007 100 0 1.5 340 06:27 09.11.2019
4712 Clouds 2 1007 100 0 1 80 05:40 09.11.2019
4713 Fog 2 1007 90 200 0.5 70 04:30 09.11.2019
4714 Clouds 2 1007 100 0 0.63 104 02:55 09.11.2019
4715 Clouds 2 1007 100 0 0.63 104 02:36 09.11.2019
4716 Mist 3 1007 100 0 0.5 290 01:18 09.11.2019
4717 Clouds 3 1008 100 0 1 260 00:43 09.11.2019
4718 Fog 3 1008 100 600 0.5 130 00:25 09.11.2019
4719 Clouds 3 1008 100 0 1 270 23:41 08.11.2019
4720 Fog 3 1008 100 800 0.5 140 23:23 08.11.2019
4721 Clouds 3 1008 100 0 1 250 22:59 08.11.2019
4722 Clouds 3 1008 100 0 1 250 22:40 08.11.2019
4723 Clouds 3 1008 100 10000 1 220 22:21 08.11.2019
4724 Clouds 3 1008 100 0 1.5 0 21:43 08.11.2019
4725 Clouds 3 1008 93 10000 1 150 21:24 08.11.2019
4726 Clouds 3 1008 93 10000 1 150 20:59 08.11.2019
4727 Clouds 3 1008 100 0 2.1 200 20:41 08.11.2019
4728 Clouds 4 1008 100 10000 1 110 20:20 08.11.2019
4729 Clouds 4 1008 100 0 2.6 180 19:56 08.11.2019
4730 Clouds 4 1008 100 0 2.6 180 19:37 08.11.2019
4731 Fog 4 1008 100 10000 0.5 140 19:18 08.11.2019
4732 Fog 4 1008 100 10000 0.5 140 19:18 08.11.2019
4733 Clouds 4 1007 100 10000 2.6 160 18:55 08.11.2019
4734 Clouds 4 1007 100 10000 2.6 160 18:37 08.11.2019
4735 Clouds 5 1007 93 10000 2.1 210 18:18 08.11.2019
4736 Clouds 5 1007 100 10000 4.1 180 17:55 08.11.2019
4737 Clouds 6 1007 100 10000 4.1 180 17:36 08.11.2019
4738 Clouds 7 1007 87 10000 1.5 150 17:18 08.11.2019
4739 Clouds 7 1007 87 10000 1.5 180 16:57 08.11.2019
4740 Clouds 7 1007 87 10000 1.5 180 16:39 08.11.2019
4741 Clouds 8 1007 76 10000 1 160 16:19 08.11.2019
4742 Clouds 9 1007 76 10000 2.6 200 15:56 08.11.2019
4743 Clouds 9 1007 76 10000 2.6 200 15:38 08.11.2019
4744 Clouds 9 1006 76 10000 2.6 160 15:19 08.11.2019
4745 Clouds 9 1006 76 10000 1.5 180 14:55 08.11.2019
4746 Clouds 9 1006 76 10000 1.5 180 14:36 08.11.2019
4747 Clouds 9 1006 81 10000 4.1 210 14:18 08.11.2019
4748 Clouds 9 1006 71 10000 2.6 230 13:43 08.11.2019
4749 Clouds 9 1006 81 10000 1 170 13:23 08.11.2019
4750 Clouds 9 1006 81 10000 1 170 12:59 08.11.2019
4751 Clouds 8 1006 76 9000 2.1 220 12:41 08.11.2019
4752 Clouds 8 1006 81 10000 3.1 220 12:23 08.11.2019
4753 Clouds 8 1006 87 8000 2.1 220 11:56 08.11.2019
4754 Clouds 7 1006 87 8000 2.1 220 11:37 08.11.2019
4755 Clouds 7 1006 87 7000 2.6 240 11:19 08.11.2019
4756 Clouds 7 1006 87 7000 2.6 240 11:19 08.11.2019
4757 Clouds 7 1006 93 6000 4.6 240 10:54 08.11.2019
4758 Clouds 6 1006 93 6000 4.6 240 10:36 08.11.2019
4759 Clouds 6 1006 93 10000 5.1 190 10:18 08.11.2019
4760 Clouds 6 1005 87 6000 5.7 220 09:41 08.11.2019
4761 Clouds 4 1005 93 10000 4.1 200 09:20 08.11.2019
4762 Clouds 4 1005 87 7000 6.2 240 08:54 08.11.2019
4763 Clouds 5 1005 87 7000 6.2 240 08:36 08.11.2019
4764 Clouds 5 1004 87 10000 3.1 220 08:18 08.11.2019
4765 Clouds 5 1004 93 8000 4.1 220 07:40 08.11.2019
4766 Clouds 5 1003 87 10000 4.6 200 07:22 08.11.2019
4767 Clouds 5 1003 87 8000 5.1 210 06:41 08.11.2019
4768 Clouds 6 1003 87 0 4.1 210 06:21 08.11.2019
4769 Clouds 6 1003 93 7000 5.1 210 05:55 08.11.2019
4770 Rain 7 1002 93 0 3.1 180 05:21 08.11.2019
4771 Clouds 7 1001 93 6000 5.7 200 03:44 08.11.2019
4772 Rain 8 1001 93 0 2.6 180 03:23 08.11.2019
4773 Clouds 8 1001 93 6000 4.1 200 02:45 08.11.2019
4774 Clouds 8 1000 93 7000 4.6 190 01:48 08.11.2019
4775 Rain 7 1001 93 0 2.6 160 01:30 08.11.2019
4776 Rain 7 1001 93 0 6.2 90 00:24 08.11.2019
4777 Rain 7 1000 100 5000 4.1 120 23:59 07.11.2019
4778 Rain 7 1000 100 5000 4.1 120 23:59 07.11.2019
4779 Rain 7 1000 100 5000 4.1 120 23:41 07.11.2019
4780 Rain 7 1001 93 6000 4.6 80 23:22 07.11.2019
4781 Rain 7 1001 93 5000 4.1 130 22:43 07.11.2019
4782 Rain 6 1000 100 7000 3.1 100 22:22 07.11.2019
4783 Clouds 6 1001 93 10000 4.6 130 21:58 07.11.2019
4784 Clouds 6 1001 93 10000 4.6 130 21:38 07.11.2019
4785 Clouds 6 1001 87 10000 6.2 100 21:20 07.11.2019
4786 Clouds 6 1001 93 10000 4.6 120 20:58 07.11.2019
4787 Clouds 6 1001 93 10000 4.6 120 20:40 07.11.2019
4788 Clouds 6 1001 93 10000 4.6 120 20:40 07.11.2019
4789 Clouds 5 1001 93 10000 4.1 90 20:21 07.11.2019
4790 Clouds 5 1001 93 10000 4.6 130 19:56 07.11.2019
4791 Clouds 5 1001 93 10000 4.6 130 19:37 07.11.2019
4792 Clouds 5 1002 93 10000 2.6 90 19:19 07.11.2019
4793 Clouds 5 1001 93 0 4.6 130 18:56 07.11.2019
4794 Clouds 5 1001 93 0 4.6 130 18:38 07.11.2019
4795 Clouds 5 1001 93 9000 4.1 120 18:19 07.11.2019
4796 Clouds 5 1001 86 8000 4.1 110 17:54 07.11.2019
4797 Clouds 5 1001 86 8000 4.1 110 17:36 07.11.2019
4798 Clouds 5 1002 93 10000 1.5 110 17:18 07.11.2019
4799 Clouds 5 1001 93 0 3.1 110 16:54 07.11.2019
4800 Clouds 5 1001 93 9000 4.6 110 16:36 07.11.2019
4801 Clouds 5 1001 87 10000 3.6 140 16:18 07.11.2019
4802 Clouds 5 1001 86 10000 3.6 100 15:40 07.11.2019
4803 Clouds 6 1001 87 10000 4.6 140 15:20 07.11.2019
4804 Clouds 5 1001 93 0 2.1 140 14:56 07.11.2019
4805 Clouds 5 1001 93 10000 4.1 80 14:37 07.11.2019
4806 Clouds 5 1001 93 8000 3.1 120 14:19 07.11.2019
4807 Clouds 5 1001 100 0 3.6 130 13:54 07.11.2019
4808 Fog 5 1001 93 500 3.6 150 13:36 07.11.2019
4809 Fog 5 1001 93 500 3.6 150 13:18 07.11.2019
4810 Fog 5 1001 100 800 3.6 150 12:55 07.11.2019
4811 Mist 5 1001 93 3500 3.1 140 12:36 07.11.2019
4812 Mist 5 1001 93 3500 3.1 140 12:36 07.11.2019
4813 Mist 5 1001 100 3000 4.1 110 12:18 07.11.2019
4814 Mist 5 1001 93 3500 3.1 140 12:18 07.11.2019
4815 Fog 5 1002 100 900 3.6 120 11:41 07.11.2019
4816 Fog 4 1002 93 800 1 130 11:22 07.11.2019
4817 Fog 3 1002 100 200 2.6 120 10:42 07.11.2019
4818 Fog 3 1002 100 100 1 130 10:19 07.11.2019
4819 Mist 2 1002 100 2800 1.5 140 09:55 07.11.2019
4820 Fog 2 1001 93 100 2.6 150 09:36 07.11.2019
4821 Mist 2 1002 80 3500 0.5 80 09:18 07.11.2019
4822 Fog 1 1001 93 100 1 0 08:41 07.11.2019
4823 Fog 1 1001 100 800 0.88 233 08:22 07.11.2019
4824 Fog 1 1001 90 300 0.88 233 07:57 07.11.2019
4825 Fog 1 1001 100 100 1 0 07:38 07.11.2019
4826 Fog 1 1001 100 100 1 0 07:38 07.11.2019
4827 Fog 1 1001 100 100 1.5 220 07:20 07.11.2019
4828 Fog 1 1001 100 50 1 150 06:45 07.11.2019
4829 Fog 1 1001 90 300 0.5 350 06:25 07.11.2019
4830 Fog 1 1001 93 50 0.5 330 05:49 07.11.2019
4831 Fog 1 1001 100 100 1.5 0 05:31 07.11.2019
4832 Mist 1 1001 100 1400 0.5 180 04:51 07.11.2019
4833 Mist 1 1001 100 1400 0.5 180 04:51 07.11.2019
4834 Fog 1 1001 93 0 2.1 220 04:29 07.11.2019
4835 Clouds 2 1001 93 0 1.8 233 01:29 07.11.2019
4836 Clouds 3 1001 100 50 1 170 00:41 07.11.2019
4837 Clouds 3 1001 93 0 1 10 00:18 07.11.2019
4838 Clouds 3 1001 93 250 0.5 190 23:43 06.11.2019
4839 Mist 3 1001 93 5000 0.5 0 23:20 06.11.2019
4840 Clouds 4 1002 100 100 1.5 240 22:41 06.11.2019
4841 Clouds 4 1001 100 10000 0.5 280 22:22 06.11.2019
4842 Drizzle 4 1001 100 9000 1.5 300 21:59 06.11.2019
4843 Clouds 4 1001 100 50 0.5 290 21:41 06.11.2019
4844 Clouds 4 1001 100 10000 1 230 21:20 06.11.2019
4845 Clouds 5 1001 100 10000 2.1 290 20:58 06.11.2019
4846 Clouds 5 1001 93 3900 0.5 270 20:40 06.11.2019
4847 Clouds 5 1001 100 10000 0.5 220 20:21 06.11.2019
4848 Rain 5 1001 100 9000 1.5 290 19:58 06.11.2019
4849 Mist 5 1001 100 4000 0.5 200 19:39 06.11.2019
4850 Rain 5 1001 93 10000 0.5 0 19:21 06.11.2019
4851 Rain 5 1001 93 10000 0.5 0 18:57 06.11.2019
4852 Rain 5 1001 93 10000 1 10 18:38 06.11.2019
4853 Clouds 5 1001 93 10000 0.5 280 18:19 06.11.2019
4854 Clouds 5 1001 100 10000 1 180 17:56 06.11.2019
4855 Clouds 6 1001 100 10000 1 180 17:37 06.11.2019
4856 Clouds 6 1001 93 10000 1 300 17:18 06.11.2019
4857 Clouds 6 1001 93 10000 1.99 335 16:55 06.11.2019
4858 Clouds 6 1001 93 10000 1.99 335 16:37 06.11.2019
4859 Drizzle 6 1001 93 10000 1 260 16:18 06.11.2019
4860 Clouds 6 1000 93 10000 1.99 335 15:54 06.11.2019
4861 Clouds 6 1000 93 10000 1.99 335 15:36 06.11.2019
4862 Rain 6 1000 93 8000 1.5 250 15:18 06.11.2019
4863 Drizzle 6 1000 93 6000 0.5 180 14:55 06.11.2019
4864 Drizzle 6 1000 93 6000 0.5 180 14:37 06.11.2019
4865 Rain 6 1000 93 7000 1 250 14:19 06.11.2019
4866 Drizzle 6 1000 100 4000 2.75 19 13:40 06.11.2019
4867 Drizzle 6 1000 100 4000 2.75 19 13:40 06.11.2019
4868 Drizzle 6 1000 93 4200 3.07 24 13:22 06.11.2019
4869 Drizzle 6 1000 87 5000 1 120 12:58 06.11.2019
4870 Drizzle 6 1000 87 5000 1 120 12:39 06.11.2019
4871 Drizzle 6 1000 87 5000 1 120 12:39 06.11.2019
4872 Clouds 6 1000 87 10000 2.1 20 12:21 06.11.2019
4873 Drizzle 6 1000 87 5000 1.5 60 11:58 06.11.2019
4874 Drizzle 6 1000 87 5000 1.5 60 11:38 06.11.2019
4875 Clouds 6 1000 87 10000 1 80 11:18 06.11.2019
4876 Clouds 6 1000 87 8000 1.5 0 10:56 06.11.2019
4877 Clouds 6 1000 87 8000 1.5 0 10:38 06.11.2019
4878 Clouds 6 1000 87 10000 1 50 10:19 06.11.2019
4879 Clouds 6 1000 93 9000 3.1 30 09:56 06.11.2019
4880 Clouds 6 1000 93 9000 3.1 30 09:36 06.11.2019
4881 Clouds 6 1000 87 10000 3.1 40 09:18 06.11.2019
4882 Clouds 6 999 93 10000 2.1 80 08:54 06.11.2019
4883 Clouds 6 999 93 10000 2.1 80 08:36 06.11.2019
4884 Clouds 5 999 93 10000 2.6 60 08:18 06.11.2019
4885 Clouds 5 999 93 10000 2.6 60 08:18 06.11.2019
4886 Clouds 5 999 93 10000 3.6 50 07:40 06.11.2019
4887 Clouds 5 999 87 10000 3.6 30 07:21 06.11.2019
4888 Clouds 5 999 87 10000 3.6 30 07:21 06.11.2019
4889 Clouds 5 998 93 10000 2.1 80 06:45 06.11.2019
4890 Clouds 6 999 87 10000 3.6 50 06:25 06.11.2019
4891 Clouds 6 998 93 10000 2.6 70 04:52 06.11.2019
4892 Clouds 6 998 93 10000 3.6 40 02:28 06.11.2019
4893 Clouds 6 998 93 10000 2.1 50 01:38 06.11.2019
4894 Clouds 6 998 93 10000 3.6 50 00:46 06.11.2019
4895 Drizzle 6 998 93 10000 5.1 40 23:58 05.11.2019
4896 Drizzle 6 998 93 10000 5.1 40 23:39 05.11.2019
4897 Drizzle 6 998 93 10000 5.1 40 23:39 05.11.2019
4898 Drizzle 6 998 93 10000 5.1 40 23:39 05.11.2019
4899 Clouds 6 998 87 10000 3.6 40 23:21 05.11.2019
4900 Rain 6 998 93 10000 3.1 60 22:55 05.11.2019
4901 Rain 6 998 93 10000 3.1 60 22:36 05.11.2019
4902 Clouds 6 998 87 10000 4.1 50 22:18 05.11.2019
4903 Rain 6 998 93 10000 3.1 60 21:42 05.11.2019
4904 Clouds 6 998 87 10000 4.1 50 21:21 05.11.2019
4905 Clouds 6 998 87 10000 4.1 50 21:21 05.11.2019
4906 Rain 6 998 93 10000 4.1 60 20:59 05.11.2019
4907 Rain 6 998 93 10000 4.1 60 20:39 05.11.2019
4908 Rain 6 997 93 9000 2.6 30 20:20 05.11.2019
4909 Rain 6 998 93 10000 4.1 70 19:58 05.11.2019
4910 Rain 7 998 93 10000 4.1 70 19:38 05.11.2019
4911 Rain 7 998 93 10000 4.1 70 19:20 05.11.2019
4912 Rain 7 998 93 10000 4.1 70 18:57 05.11.2019
4913 Rain 7 998 93 10000 4.1 70 18:39 05.11.2019
4914 Rain 7 998 93 10000 4.1 70 18:39 05.11.2019
4915 Rain 7 998 87 10000 3.6 40 18:20 05.11.2019
4916 Rain 7 998 87 10000 3.6 40 18:20 05.11.2019
4917 Rain 7 997 93 10000 4.1 70 17:58 05.11.2019
4918 Rain 7 997 93 10000 4.1 70 17:39 05.11.2019
4919 Rain 7 997 87 10000 3.6 40 17:19 05.11.2019
4920 Rain 7 997 93 10000 3.6 70 16:55 05.11.2019
4921 Rain 7 997 93 10000 3.6 70 16:37 05.11.2019
4922 Clouds 7 998 93 10000 3.1 40 16:18 05.11.2019
4923 Rain 7 997 93 10000 3.6 70 15:38 05.11.2019
4924 Clouds 7 997 87 10000 5.1 50 15:19 05.11.2019
4925 Rain 7 997 93 10000 3.6 80 14:58 05.11.2019
4926 Rain 7 997 93 10000 3.6 80 14:39 05.11.2019
4927 Rain 7 997 87 10000 4.6 50 14:21 05.11.2019
4928 Rain 7 996 93 10000 3.6 70 13:44 05.11.2019
4929 Clouds 8 997 87 10000 4.6 60 13:25 05.11.2019
4930 Clouds 8 997 87 10000 4.6 60 13:00 05.11.2019
4931 Drizzle 8 996 93 5000 3.1 80 12:39 05.11.2019
4932 Clouds 8 996 87 10000 6.2 60 12:20 05.11.2019
4933 Rain 8 996 93 10000 4.6 80 11:56 05.11.2019
4934 Rain 8 996 93 10000 4.6 80 11:37 05.11.2019
4935 Drizzle 8 996 93 10000 6.2 50 11:19 05.11.2019
4936 Drizzle 8 996 93 5000 3.1 80 10:44 05.11.2019
4937 Rain 8 995 93 6000 6.7 60 10:25 05.11.2019
4938 Rain 8 995 93 10000 5.7 70 09:59 05.11.2019
4939 Rain 8 995 93 10000 5.7 70 09:40 05.11.2019
4940 Drizzle 8 995 93 10000 6.2 40 09:20 05.11.2019
4941 Rain 8 995 100 8000 5.1 70 08:55 05.11.2019
4942 Rain 8 995 100 8000 5.1 70 08:37 05.11.2019
4943 Clouds 8 993 100 8000 4.1 70 08:18 05.11.2019
4944 Rain 8 994 93 8000 4.1 70 07:44 05.11.2019
4945 Drizzle 8 993 93 10000 5.1 60 07:25 05.11.2019
4946 Rain 8 994 93 8000 4.6 80 06:51 05.11.2019
4947 Rain 8 994 93 10000 6.7 60 06:30 05.11.2019
4948 Rain 8 993 100 7000 4.1 70 05:44 05.11.2019
4949 Rain 8 993 93 0 5.7 60 05:20 05.11.2019
4950 Rain 8 993 100 0 6.7 60 04:22 05.11.2019
4951 Rain 8 993 93 0 6.2 60 03:29 05.11.2019
4952 Rain 8 992 93 6000 4.1 80 02:43 05.11.2019
4953 Rain 8 992 93 3500 4.1 80 01:55 05.11.2019
4954 Drizzle 8 992 93 3000 3.6 90 00:48 05.11.2019
4955 Rain 8 992 93 0 7.7 70 00:27 05.11.2019
4956 Drizzle 9 992 93 4000 3.6 80 23:43 04.11.2019
4957 Rain 8 991 93 3500 6.7 70 23:19 04.11.2019
4958 Rain 8 991 100 5000 4.1 90 22:58 04.11.2019
4959 Rain 9 991 100 5000 4.1 90 22:40 04.11.2019
4960 Rain 9 991 93 8000 6.7 60 22:21 04.11.2019
4961 Rain 9 991 100 4500 3.6 90 21:55 04.11.2019
4962 Rain 9 991 100 4500 3.6 90 21:37 04.11.2019
4963 Rain 9 991 93 6000 6.2 70 21:18 04.11.2019
4964 Drizzle 9 991 100 2000 4.1 100 20:57 04.11.2019
4965 Drizzle 9 991 100 2000 4.1 100 20:38 04.11.2019
4966 Rain 9 991 93 8000 7.2 70 20:20 04.11.2019
4967 Rain 9 990 100 2500 4.6 120 19:58 04.11.2019
4968 Rain 9 990 100 2500 4.6 120 19:40 04.11.2019
4969 Rain 9 991 93 10000 5.7 70 19:21 04.11.2019
4970 Rain 9 990 93 3000 5.7 120 18:56 04.11.2019
4971 Rain 9 990 93 3000 5.7 120 18:56 04.11.2019
4972 Rain 9 990 93 3000 5.7 120 18:37 04.11.2019
4973 Rain 9 989 93 3000 2.6 130 18:19 04.11.2019
4974 Rain 9 989 100 5000 3.6 120 17:39 04.11.2019
4975 Rain 9 989 100 5000 3.6 120 17:39 04.11.2019
4976 Rain 9 989 93 8000 7.2 90 17:21 04.11.2019
4977 Drizzle 10 989 100 3000 5.1 110 16:57 04.11.2019
4978 Drizzle 10 989 100 3000 5.1 110 16:39 04.11.2019
4979 Rain 10 989 100 5000 2.1 290 16:21 04.11.2019
4980 Rain 10 989 100 3000 2.6 170 15:56 04.11.2019
4981 Rain 10 989 100 3000 2.6 170 15:38 04.11.2019
4982 Drizzle 10 988 93 4000 2.6 270 15:19 04.11.2019
4983 Drizzle 10 988 93 4000 2.6 270 15:19 04.11.2019
4984 Rain 10 988 100 3000 2.1 250 14:54 04.11.2019
4985 Rain 10 988 100 3000 2.1 250 14:36 04.11.2019
4986 Rain 10 988 93 8000 9.3 100 14:18 04.11.2019
4987 Rain 10 987 93 3000 4.6 130 13:54 04.11.2019
4988 Rain 10 987 93 3000 4.6 130 13:36 04.11.2019
4989 Rain 10 988 93 5000 9.3 90 13:18 04.11.2019
4990 Rain 10 987 93 3000 4.1 130 12:41 04.11.2019
4991 Rain 10 987 93 3000 4.6 130 12:23 04.11.2019
4992 Rain 10 987 93 4000 3.6 130 11:57 04.11.2019
4993 Rain 10 987 93 4000 3.6 130 11:38 04.11.2019
4994 Drizzle 11 987 93 2900 1.5 130 11:20 04.11.2019
4995 Rain 11 987 93 4000 4.1 130 10:45 04.11.2019
4996 Rain 11 987 93 7000 9.3 100 10:26 04.11.2019
4997 Rain 11 987 93 4000 4.6 130 09:55 04.11.2019
4998 Rain 11 987 93 4000 4.6 130 09:37 04.11.2019
4999 Rain 11 987 93 7000 8.2 100 09:18 04.11.2019
5000 Rain 11 986 93 4000 6.2 130 08:42 04.11.2019
5001 Rain 11 987 93 4000 9.3 100 08:21 04.11.2019
5002 Rain 11 986 93 4000 6.7 130 07:45 04.11.2019
5003 Drizzle 11 987 100 5000 3.1 110 07:25 04.11.2019
5004 Rain 10 986 93 6000 5.7 130 06:59 04.11.2019
5005 Rain 10 986 93 6000 5.7 130 06:38 04.11.2019
5006 Rain 10 986 100 4000 5.7 130 06:18 04.11.2019
5007 Rain 11 987 93 0 6.7 100 05:30 04.11.2019
5008 Clouds 11 986 93 0 7.7 90 04:26 04.11.2019
5009 Clouds 10 987 93 0 7.2 100 03:31 04.11.2019
5010 Clouds 10 987 93 10000 2.1 80 01:24 04.11.2019
5011 Rain 10 987 93 0 4.6 90 00:59 04.11.2019
5012 Clouds 9 988 100 10000 3.1 80 00:22 04.11.2019
5013 Clouds 9 987 100 9000 3.1 110 23:58 03.11.2019
5014 Clouds 9 987 100 9000 3.1 110 23:38 03.11.2019
5015 Clouds 9 988 100 0 4.1 90 23:19 03.11.2019
5016 Clouds 9 988 100 0 3.1 100 22:56 03.11.2019
5017 Clouds 9 988 100 0 3.1 100 22:56 03.11.2019
5018 Clouds 9 988 100 0 3.1 100 22:38 03.11.2019
5019 Clouds 9 988 93 0 2.6 110 22:19 03.11.2019
5020 Clouds 9 988 100 10000 2.6 110 21:43 03.11.2019
5021 Clouds 9 988 93 0 1.5 90 21:22 03.11.2019
5022 Clouds 9 988 93 0 1.5 90 21:22 03.11.2019
5023 Clouds 9 988 100 10000 1.5 80 20:59 03.11.2019
5024 Clouds 9 988 100 10000 1.5 80 20:38 03.11.2019
5025 Clouds 9 988 100 10000 1 100 20:19 03.11.2019
5026 Clouds 9 988 93 10000 2.6 120 19:58 03.11.2019
5027 Clouds 9 988 93 10000 2.6 120 19:58 03.11.2019
5028 Clouds 9 988 93 10000 2.6 120 19:39 03.11.2019
5029 Clouds 9 988 93 10000 2.1 90 19:20 03.11.2019
5030 Clouds 9 987 93 10000 4.1 120 18:58 03.11.2019
5031 Clouds 9 987 93 10000 4.1 120 18:38 03.11.2019
5032 Clouds 9 988 100 10000 2.1 90 18:18 03.11.2019
5033 Clouds 10 988 93 10000 3.1 150 17:55 03.11.2019
5034 Clouds 10 988 93 10000 3.1 150 17:37 03.11.2019
5035 Clouds 10 987 93 10000 3.6 120 17:18 03.11.2019
5036 Rain 10 987 87 10000 2.6 140 16:54 03.11.2019
5037 Rain 11 987 87 10000 2.6 140 16:36 03.11.2019
5038 Clouds 11 987 87 10000 2.6 130 16:18 03.11.2019
5039 Clouds 11 987 87 10000 2.6 150 15:43 03.11.2019
5040 Rain 11 987 87 10000 1 0 15:24 03.11.2019
5041 Clouds 11 987 87 10000 2.6 180 14:56 03.11.2019
5042 Clouds 11 987 87 10000 2.6 180 14:38 03.11.2019
5043 Rain 11 987 87 0 2.6 110 14:18 03.11.2019
5044 Clouds 11 987 81 10000 2.1 150 13:43 03.11.2019
5045 Rain 11 987 87 0 2.6 160 13:20 03.11.2019
5046 Clouds 11 987 87 10000 3.1 180 12:59 03.11.2019
5047 Clouds 11 987 87 10000 3.1 180 12:37 03.11.2019
5048 Rain 11 987 81 0 2.6 180 12:19 03.11.2019
5049 Clouds 10 987 87 10000 3.6 180 11:54 03.11.2019
5050 Clouds 10 987 87 10000 3.6 180 11:36 03.11.2019
5051 Clouds 10 987 93 10000 2.6 140 11:18 03.11.2019
5052 Clouds 10 987 87 10000 4.1 170 10:40 03.11.2019
5053 Clouds 10 987 81 0 3.6 150 10:22 03.11.2019
5054 Clouds 10 987 87 10000 4.6 160 09:57 03.11.2019
5055 Clouds 9 987 87 10000 4.6 160 09:39 03.11.2019
5056 Clouds 9 987 93 0 2.6 150 09:21 03.11.2019
5057 Clouds 9 986 93 10000 4.6 170 08:42 03.11.2019
5058 Clouds 9 986 93 10000 2.6 150 08:24 03.11.2019
5059 Clouds 9 986 93 10000 4.6 170 07:46 03.11.2019
5060 Clouds 9 986 93 10000 2.6 160 07:28 03.11.2019
5061 Drizzle 9 986 93 10000 4.6 170 06:52 03.11.2019
5062 Rain 9 986 87 0 1.5 160 06:33 03.11.2019
5063 Clouds 9 986 87 10000 4.1 190 05:40 03.11.2019
5064 Clouds 10 986 87 10000 5.7 190 04:58 03.11.2019
5065 Clouds 10 986 87 10000 5.7 190 04:58 03.11.2019
5066 Clouds 10 986 87 10000 5.7 190 04:38 03.11.2019
5067 Clouds 10 986 93 10000 5.7 180 03:38 03.11.2019
5068 Clouds 10 986 93 10000 6.2 180 02:45 03.11.2019
5069 Clouds 10 986 93 0 3.6 150 02:20 03.11.2019
5070 Clouds 10 986 93 0 3.6 150 02:20 03.11.2019
5071 Clouds 10 986 93 10000 6.7 180 01:43 03.11.2019
5072 Drizzle 10 986 93 10000 4.6 170 01:21 03.11.2019
5073 Rain 10 986 93 10000 6.2 180 00:46 03.11.2019
5074 Clouds 10 986 93 10000 3.6 170 00:27 03.11.2019
5075 Clouds 10 986 87 10000 5.7 190 23:58 02.11.2019
5076 Clouds 10 986 87 10000 5.7 190 23:38 02.11.2019
5077 Clouds 10 987 87 0 3.6 160 23:19 02.11.2019
5078 Clouds 9 986 93 10000 6.7 170 22:56 02.11.2019
5079 Clouds 9 986 93 10000 6.7 170 22:56 02.11.2019
5080 Clouds 9 986 93 10000 6.7 170 22:38 02.11.2019
5081 Clouds 9 987 87 0 3.1 160 22:19 02.11.2019
5082 Clouds 9 987 93 10000 7.2 190 21:56 02.11.2019
5083 Clouds 9 987 93 10000 7.2 190 21:38 02.11.2019
5084 Clouds 9 987 81 0 2.6 160 21:18 02.11.2019
5085 Clouds 9 987 81 0 2.6 160 21:18 02.11.2019
5086 Clouds 9 987 81 0 2.6 160 21:18 02.11.2019
5087 Clouds 9 987 81 0 2.6 160 20:59 02.11.2019
5088 Clouds 9 987 87 10000 6.2 190 20:40 02.11.2019
5089 Clouds 9 987 81 0 2.6 180 20:20 02.11.2019
5090 Clouds 9 987 87 10000 4.6 200 19:55 02.11.2019
5091 Clouds 9 987 87 10000 4.6 200 19:36 02.11.2019
5092 Clouds 9 987 81 0 3.1 180 19:18 02.11.2019
5093 Clouds 10 987 87 10000 5.7 210 18:43 02.11.2019
5094 Clouds 10 986 87 0 3.1 180 18:24 02.11.2019
5095 Clouds 11 986 87 10000 5.7 210 17:59 02.11.2019
5096 Clouds 11 986 87 10000 5.7 210 17:40 02.11.2019
5097 Rain 12 986 93 10000 2.6 180 17:22 02.11.2019
5098 Clouds 12 986 87 10000 4.6 220 16:58 02.11.2019
5099 Clouds 12 986 87 10000 4.6 220 16:38 02.11.2019
5100 Clouds 13 986 87 10000 3.1 210 16:20 02.11.2019
5101 Clouds 13 986 87 10000 6.7 240 15:42 02.11.2019
5102 Clouds 13 986 93 8000 2.6 190 15:20 02.11.2019
5103 Clouds 13 986 93 9000 5.1 230 14:57 02.11.2019
5104 Clouds 13 986 93 9000 5.1 230 14:39 02.11.2019
5105 Clouds 13 986 100 7000 4.6 210 14:20 02.11.2019
5106 Drizzle 13 986 100 4800 4.6 210 13:40 02.11.2019
5107 Mist 12 986 100 4200 2.6 190 13:20 02.11.2019
5108 Rain 11 986 100 2400 2.6 170 12:58 02.11.2019
5109 Rain 11 986 100 2400 2.6 170 12:38 02.11.2019
5110 Rain 10 986 100 5000 2.1 150 12:20 02.11.2019
5111 Rain 10 986 100 5000 2.1 150 12:20 02.11.2019
5112 Rain 10 986 100 4200 3.1 160 11:55 02.11.2019
5113 Rain 10 986 100 4200 3.1 160 11:36 02.11.2019
5114 Rain 9 986 100 3500 4.1 150 11:18 02.11.2019
5115 Drizzle 9 986 93 3800 4.1 160 10:42 02.11.2019
5116 Rain 9 987 100 4000 5.1 160 10:23 02.11.2019
5117 Rain 8 987 100 3800 4.1 150 09:43 02.11.2019
5118 Rain 8 987 93 3800 3.6 140 09:22 02.11.2019
5119 Drizzle 8 988 100 2300 4.1 150 08:57 02.11.2019
5120 Drizzle 8 988 100 2300 4.1 150 08:39 02.11.2019
5121 Drizzle 7 988 100 4000 3.6 140 08:19 02.11.2019
5122 Drizzle 7 988 100 1300 4.6 150 07:47 02.11.2019
5123 Drizzle 7 988 93 4300 4.6 150 07:27 02.11.2019
5124 Rain 7 989 100 0 5.1 150 06:52 02.11.2019
5125 Drizzle 7 990 100 0 4.1 140 06:25 02.11.2019
5126 Rain 6 990 100 0 4.6 160 05:54 02.11.2019
5127 Rain 6 990 93 0 4.6 150 04:51 02.11.2019
5128 Drizzle 6 991 100 0 4.1 150 04:19 02.11.2019
5129 Rain 6 992 100 0 3.6 140 03:45 02.11.2019
5130 Rain 5 993 100 0 4.1 150 02:38 02.11.2019
5131 Rain 5 994 93 0 3.6 150 01:42 02.11.2019
5132 Mist 5 995 100 0 4.1 150 01:21 02.11.2019
5133 Rain 5 995 100 0 4.1 150 00:43 02.11.2019
5134 Drizzle 4 996 93 0 4.1 150 00:25 02.11.2019
5135 Rain 4 996 100 0 4.1 150 23:46 01.11.2019
5136 Rain 4 997 93 0 3.6 140 23:20 01.11.2019
5137 Rain 4 997 93 0 3.1 150 22:57 01.11.2019
5138 Rain 4 997 93 0 3.1 150 22:39 01.11.2019
5139 Rain 4 998 100 2500 2.6 130 22:20 01.11.2019
5140 Rain 4 998 93 0 3.6 160 21:41 01.11.2019
5141 Drizzle 4 999 93 5000 5.1 140 21:23 01.11.2019
5142 Rain 4 999 100 0 4.6 160 20:57 01.11.2019
5143 Rain 3 999 100 0 4.6 160 20:39 01.11.2019
5144 Rain 3 1000 93 4000 5.1 140 20:19 01.11.2019
5145 Clouds 3 1000 93 0 4.1 150 19:55 01.11.2019
5146 Clouds 3 1000 93 0 4.1 150 19:37 01.11.2019
5147 Rain 3 1001 93 5000 5.1 140 19:18 01.11.2019
5148 Mist 3 1001 86 5000 4.6 160 18:39 01.11.2019
5149 Mist 3 1001 86 5000 4.6 160 18:39 01.11.2019
5150 Rain 3 1002 93 6000 4.1 140 18:20 01.11.2019
5151 Mist 3 1003 86 5000 3.1 170 17:55 01.11.2019
5152 Mist 3 1003 86 5000 3.1 170 17:37 01.11.2019
5153 Rain 3 1003 80 5000 4.1 160 17:19 01.11.2019
5154 Rain 3 1003 80 5000 4.1 160 17:19 01.11.2019
5155 Mist 4 1003 86 5000 3.1 160 16:38 01.11.2019
5156 Drizzle 4 1004 80 7000 4.6 160 16:19 01.11.2019
5157 Drizzle 4 1004 80 7000 4.6 160 15:55 01.11.2019
5158 Drizzle 4 1004 80 7000 4.6 160 15:36 01.11.2019
5159 Clouds 4 1005 75 10000 5.1 140 15:18 01.11.2019
5160 Clouds 5 1006 72 8000 4.1 160 14:42 01.11.2019
5161 Clouds 5 1006 75 10000 5.7 140 14:24 01.11.2019
5162 Clouds 5 1007 67 9000 4.1 150 13:57 01.11.2019
5163 Clouds 5 1007 67 9000 4.1 150 13:57 01.11.2019
5164 Clouds 5 1007 67 9000 4.1 150 13:38 01.11.2019
5165 Clouds 4 1008 75 9000 7.7 140 13:20 01.11.2019
5166 Clouds 4 1008 64 9000 5.1 150 12:43 01.11.2019
5167 Clouds 4 1009 64 10000 6.2 150 12:25 01.11.2019
5168 Clouds 4 1010 64 9000 5.7 150 11:59 01.11.2019
5169 Clouds 4 1010 64 9000 5.7 150 11:40 01.11.2019
5170 Clouds 3 1010 75 10000 6.2 130 11:22 01.11.2019
5171 Clouds 3 1011 61 9000 4.6 150 10:42 01.11.2019
5172 Clouds 3 1012 75 10000 5.1 130 10:22 01.11.2019
5173 Clouds 3 1012 61 9000 5.7 150 09:57 01.11.2019
5174 Clouds 2 1012 61 9000 5.7 150 09:39 01.11.2019
5175 Clouds 2 1013 86 10000 4.6 130 09:20 01.11.2019
5176 Clouds 1 1013 61 9000 6.2 140 08:44 01.11.2019
5177 Clouds 1 1014 74 10000 4.6 120 08:22 01.11.2019
5178 Clouds 1 1014 74 8000 5.7 140 07:57 01.11.2019
5179 Clouds 0 1014 74 8000 5.7 140 07:38 01.11.2019
5180 Clouds 0 1016 74 10000 5.1 140 07:20 01.11.2019
5181 Clouds 0 1016 74 10000 5.1 140 06:47 01.11.2019
5182 Clouds 0 1016 74 10000 3.1 110 06:22 01.11.2019
5183 Clouds -1 1017 74 10000 5.1 140 05:44 01.11.2019
5184 Clouds -1 1018 92 10000 2.1 120 04:29 01.11.2019
5185 Clouds -1 1019 92 10000 2.6 130 03:26 01.11.2019
5186 Clouds 0 1021 87 10000 4.6 170 01:43 01.11.2019
5187 Clouds 0 1022 87 10000 4.6 180 00:43 01.11.2019
5188 Clear 0 1022 87 10000 1.5 150 00:19 01.11.2019
5189 Clouds 0 1022 87 10000 4.1 170 23:44 31.10.2019
5190 Clouds 0 1022 87 10000 4.1 170 23:44 31.10.2019
5191 Fog 0 1022 83 10000 1.5 160 23:23 31.10.2019
5192 Clouds 0 1023 83 10000 4.6 170 22:58 31.10.2019
5193 Clouds 0 1023 83 10000 4.6 170 22:40 31.10.2019
5194 Clear 1 1023 86 10000 1.5 160 22:21 31.10.2019
5195 Clouds 0 1023 83 10000 4.1 170 21:45 31.10.2019
5196 Clear 0 1024 86 10000 1.5 130 21:22 31.10.2019
5197 Clouds 0 1024 100 10000 3.1 180 20:58 31.10.2019
5198 Clouds 1 1024 100 10000 3.1 180 20:40 31.10.2019
5199 Fog 1 1024 93 10000 1.5 190 20:22 31.10.2019
5200 Clouds 1 1024 93 10000 2.6 200 19:45 31.10.2019
5201 Clouds 2 1024 86 10000 2.1 170 19:26 31.10.2019
5202 Clouds 3 1024 93 10000 3.1 200 18:58 31.10.2019
5203 Clouds 3 1024 93 10000 3.1 200 18:39 31.10.2019
5204 Clouds 3 1024 80 10000 2.1 180 18:21 31.10.2019
5205 Clouds 4 1024 86 10000 2.1 220 17:54 31.10.2019
5206 Clouds 4 1024 86 10000 2.1 220 17:36 31.10.2019
5207 Clouds 5 1024 70 10000 1 150 17:18 31.10.2019
5208 Clouds 6 1024 75 10000 2.1 210 16:41 31.10.2019
5209 Clouds 7 1024 70 10000 2.1 230 16:20 31.10.2019
5210 Clouds 8 1025 61 10000 1.5 230 15:58 31.10.2019
5211 Clouds 8 1025 61 10000 1.5 230 15:40 31.10.2019
5212 Clouds 8 1025 66 10000 1.5 170 15:20 31.10.2019
5213 Clouds 9 1025 53 10000 1.5 0 14:57 31.10.2019
5214 Clouds 9 1025 53 10000 1.5 0 14:39 31.10.2019
5215 Clouds 9 1025 53 10000 1.5 0 14:39 31.10.2019
5216 Clouds 8 1025 61 10000 2.1 190 14:21 31.10.2019
5217 Clouds 8 1025 61 10000 2.1 190 13:59 31.10.2019
5218 Clouds 8 1026 66 10000 2.6 280 13:38 31.10.2019
5219 Clouds 8 1026 70 10000 3.1 230 13:19 31.10.2019
5220 Clouds 8 1026 65 10000 2.1 280 12:55 31.10.2019
5221 Clouds 8 1026 65 10000 2.1 280 12:37 31.10.2019
5222 Clouds 7 1026 75 10000 1.5 0 12:18 31.10.2019
5223 Clouds 7 1027 70 10000 2.1 240 11:45 31.10.2019
5224 Clouds 6 1027 81 10000 1 200 11:20 31.10.2019
5225 Clouds 5 1027 75 10000 2.1 230 10:58 31.10.2019
5226 Clouds 5 1027 75 10000 2.1 230 10:39 31.10.2019
5227 Clouds 4 1027 86 10000 1 200 10:20 31.10.2019
5228 Clouds 2 1027 86 10000 3.1 230 09:46 31.10.2019
5229 Clouds 1 1027 86 10000 2.6 210 09:20 31.10.2019
5230 Clouds 1 1027 86 10000 2.6 210 09:20 31.10.2019
5231 Clouds 1 1027 75 10000 2.1 250 08:58 31.10.2019
5232 Clouds 0 1027 75 10000 2.1 250 08:39 31.10.2019
5233 Clouds -1 1027 86 10000 2.1 210 08:21 31.10.2019
5234 Clouds 0 1027 87 10000 2.1 250 07:46 31.10.2019
5235 Clouds 0 1026 86 10000 1.5 160 07:26 31.10.2019
5236 Clouds 0 1026 100 10000 3.1 230 06:52 31.10.2019
5237 Clouds -1 1027 93 10000 1 0 06:31 31.10.2019
5238 Clouds -1 1027 93 0 1.5 220 05:20 31.10.2019
5239 Clouds -1 1027 93 0 1.5 220 05:20 31.10.2019
5240 Clouds 0 1028 81 10000 4.1 250 02:50 31.10.2019
5241 Clouds 0 1028 86 0 2.6 210 02:27 31.10.2019
5242 Clouds -1 1028 86 10000 2.1 200 01:21 31.10.2019
5243 Clouds -1 1028 78 10000 1 210 00:26 31.10.2019
5244 Clouds -1 1028 78 10000 3.6 240 23:49 30.10.2019
5245 Clouds 0 1028 74 10000 2.1 220 23:25 30.10.2019
5246 Clear 0 1029 79 10000 3.6 230 22:42 30.10.2019
5247 Fog 0 1029 92 10000 0.5 100 22:20 30.10.2019
5248 Clear 0 1029 79 10000 3.1 240 21:55 30.10.2019
5249 Clear 0 1029 79 10000 3.1 240 21:37 30.10.2019
5250 Clear 0 1029 79 10000 3.1 240 21:37 30.10.2019
5251 Clear 0 1029 79 10000 3.1 240 21:37 30.10.2019
5252 Clouds 1 1029 79 10000 2.1 200 21:18 30.10.2019
5253 Clouds 1 1029 100 10000 2.1 250 20:58 30.10.2019
5254 Clouds 1 1029 100 10000 2.1 250 20:58 30.10.2019
5255 Clouds 1 1029 100 10000 2.1 250 20:39 30.10.2019
5256 Clouds 1 1029 100 10000 2.1 250 20:39 30.10.2019
5257 Clouds 1 1029 80 10000 2.1 220 20:21 30.10.2019
5258 Clouds 2 1029 93 10000 3.1 260 19:57 30.10.2019
5259 Clouds 2 1029 93 10000 3.1 260 19:37 30.10.2019
5260 Clouds 2 1029 80 10000 1.5 220 19:19 30.10.2019
5261 Clouds 3 1029 93 10000 2.1 250 18:39 30.10.2019
5262 Clouds 3 1029 76 10000 1 240 18:20 30.10.2019
5263 Clouds 4 1029 86 10000 2.1 270 17:58 30.10.2019
5264 Clouds 5 1029 86 10000 2.1 270 17:40 30.10.2019
5265 Clear 5 1029 70 10000 1 240 17:19 30.10.2019
5266 Clouds 6 1029 80 10000 2.6 280 16:55 30.10.2019
5267 Clouds 7 1029 80 10000 2.6 280 16:37 30.10.2019
5268 Clear 7 1029 61 10000 1.5 200 16:19 30.10.2019
5269 Clouds 8 1029 69 10000 2.1 300 15:55 30.10.2019
5270 Clouds 8 1029 69 10000 2.1 300 15:37 30.10.2019
5271 Clear 8 1030 69 10000 0.5 0 15:19 30.10.2019
5272 Clouds 8 1030 69 10000 2.6 310 14:42 30.10.2019
5273 Clouds 9 1030 57 10000 1 0 14:22 30.10.2019
5274 Clouds 9 1030 57 10000 1 0 14:22 30.10.2019
5275 Clouds 9 1030 57 10000 2.6 300 13:59 30.10.2019
5276 Clouds 8 1030 57 10000 2.6 300 13:40 30.10.2019
5277 Clear 8 1031 61 10000 2.6 220 13:20 30.10.2019
5278 Clouds 8 1031 57 10000 1.5 270 12:57 30.10.2019
5279 Clouds 8 1031 57 10000 1.5 270 12:39 30.10.2019
5280 Clear 8 1031 65 10000 3.1 210 12:21 30.10.2019
5281 Clouds 8 1031 70 10000 1 290 11:43 30.10.2019
5282 Clear 7 1031 61 10000 1 0 11:24 30.10.2019
5283 Clouds 6 1031 100 10000 0.5 170 10:46 30.10.2019
5284 Mist 4 1031 100 4000 0.5 0 10:28 30.10.2019
5285 Clouds 3 1031 100 6000 1.37 215 09:59 30.10.2019
5286 Clouds 3 1031 100 6000 1.37 215 09:40 30.10.2019
5287 Fog 1 1031 100 800 0.5 200 09:22 30.10.2019
5288 Clouds 1 1031 71 6000 1 340 08:55 30.10.2019
5289 Clouds 0 1031 71 6000 1 340 08:37 30.10.2019
5290 Fog -1 1031 100 300 1 312 08:18 30.10.2019
5291 Clouds -1 1030 83 6000 1 312 07:43 30.10.2019
5292 Clear -2 1030 83 9000 1 312 06:56 30.10.2019
5293 Clear -2 1030 83 9000 1 312 06:56 30.10.2019
5294 Clear -1 1030 83 9000 1 312 06:37 30.10.2019
5295 Clear -2 1030 83 10000 0.5 340 05:56 30.10.2019
5296 Clear -2 1030 83 10000 0.5 340 05:56 30.10.2019
5297 Clear -2 1030 83 10000 0.5 340 05:56 30.10.2019
5298 Clear -2 1030 83 10000 0.5 340 05:56 30.10.2019
5299 Clear -2 1030 83 10000 0.5 340 05:38 30.10.2019
5300 Clear -1 1030 100 10000 0.5 20 03:54 30.10.2019
5301 Fog -1 1031 100 10000 0.89 316 03:23 30.10.2019
5302 Clear -1 1030 100 10000 1 330 02:49 30.10.2019
5303 Clear 0 1031 100 10000 1.5 350 01:49 30.10.2019
5304 Clouds 0 1030 100 10000 1.5 320 00:38 30.10.2019
5305 Clear 0 1030 93 0 0.5 240 00:19 30.10.2019
5306 Clouds 1 1030 100 10000 1.5 320 23:41 29.10.2019
5307 Clear 1 1031 92 10000 1.82 20 23:22 29.10.2019
5308 Clouds 1 1030 100 10000 1 340 22:45 29.10.2019
5309 Clear 1 1030 75 10000 1 10 22:20 29.10.2019
5310 Clouds 2 1030 93 10000 1.5 20 21:56 29.10.2019
5311 Clouds 2 1030 93 10000 1.5 20 21:38 29.10.2019
5312 Clouds 2 1030 75 10000 1.82 20 21:20 29.10.2019
5313 Clouds 2 1030 93 10000 2.1 20 20:42 29.10.2019
5314 Clouds 3 1030 71 10000 1 360 20:23 29.10.2019
5315 Clouds 3 1029 93 10000 2.1 40 19:59 29.10.2019
5316 Clouds 3 1029 93 10000 2.1 40 19:41 29.10.2019
5317 Clouds 4 1030 71 10000 1 360 19:22 29.10.2019
5318 Clouds 4 1029 93 10000 2.6 40 18:59 29.10.2019
5319 Clouds 4 1029 93 10000 2.6 40 18:40 29.10.2019
5320 Clouds 5 1029 70 10000 3.1 10 18:21 29.10.2019
5321 Clouds 6 1029 70 10000 3.1 10 17:59 29.10.2019
5322 Clouds 6 1028 81 10000 3.1 30 17:40 29.10.2019
5323 Clouds 7 1028 65 10000 3.6 10 17:21 29.10.2019
5324 Clouds 8 1028 65 10000 4.6 30 16:58 29.10.2019
5325 Clouds 8 1028 65 10000 4.6 30 16:38 29.10.2019
5326 Clouds 9 1028 61 10000 4.1 10 16:19 29.10.2019
5327 Clouds 9 1028 61 10000 3.6 10 15:54 29.10.2019
5328 Clouds 9 1028 57 10000 5.1 30 15:36 29.10.2019
5329 Clouds 9 1028 66 10000 4.6 350 15:18 29.10.2019
5330 Clouds 10 1027 61 10000 3.6 30 14:42 29.10.2019
5331 Clouds 9 1027 61 10000 3.6 350 14:24 29.10.2019
5332 Clouds 9 1027 61 10000 4.1 40 13:58 29.10.2019
5333 Clouds 9 1027 61 10000 4.1 40 13:40 29.10.2019
5334 Clouds 9 1027 70 10000 4.1 360 13:21 29.10.2019
5335 Clouds 9 1027 66 10000 4.1 40 12:44 29.10.2019
5336 Clear 9 1027 57 10000 5.1 70 12:25 29.10.2019
5337 Clouds 9 1027 70 10000 2.6 50 11:57 29.10.2019
5338 Clouds 9 1027 70 10000 2.6 50 11:38 29.10.2019
5339 Clouds 8 1027 75 10000 1.5 10 11:19 29.10.2019
5340 Clouds 8 1026 81 10000 2.1 20 10:57 29.10.2019
5341 Clouds 8 1026 81 10000 2.1 20 10:38 29.10.2019
5342 Clouds 6 1026 75 10000 2.6 30 10:20 29.10.2019
5343 Clouds 6 1026 93 10000 2.6 50 09:54 29.10.2019
5344 Clouds 5 1026 93 10000 2.6 50 09:36 29.10.2019
5345 Clouds 4 1026 93 10000 0.5 10 09:18 29.10.2019
5346 Clouds 4 1025 93 10000 4.1 30 08:43 29.10.2019
5347 Clouds 3 1024 70 10000 5.7 30 08:23 29.10.2019
5348 Clouds 3 1024 100 10000 2.6 40 07:54 29.10.2019
5349 Clouds 2 1024 100 10000 2.6 40 07:36 29.10.2019
5350 Clouds 2 1024 86 10000 1 360 07:18 29.10.2019
5351 Clear 2 1023 100 10000 3.1 40 06:42 29.10.2019
5352 Clear 2 1024 77 10000 1 10 06:20 29.10.2019
5353 Clear 2 1023 100 10000 4.1 30 05:50 29.10.2019
5354 Clear 2 1023 100 10000 4.1 30 05:50 29.10.2019
5355 Clear 2 1023 83 10000 0.5 360 05:19 29.10.2019
5356 Clear 2 1022 93 10000 2.1 360 03:55 29.10.2019
5357 Clear 2 1022 93 10000 2.6 20 02:32 29.10.2019
5358 Clear 2 1021 93 10000 2.96 346 01:46 29.10.2019
5359 Clouds 3 1022 100 10000 1 300 01:18 29.10.2019
5360 Clouds 3 1021 93 10000 0.5 230 00:32 29.10.2019
5361 Clear 3 1021 93 10000 4.6 300 23:43 28.10.2019
5362 Clear 3 1020 87 0 4.1 320 23:21 28.10.2019
5363 Clear 3 1020 93 10000 5.7 310 22:58 28.10.2019
5364 Clear 4 1020 93 10000 5.7 310 22:37 28.10.2019
5365 Clear 4 1021 86 10000 2.1 290 22:18 28.10.2019
5366 Clear 4 1020 87 10000 4.6 310 21:56 28.10.2019
5367 Clear 5 1020 87 10000 4.6 310 21:38 28.10.2019
5368 Clouds 5 1020 81 10000 3.6 290 21:20 28.10.2019
5369 Clear 5 1020 81 10000 5.7 320 20:54 28.10.2019
5370 Clear 5 1020 81 10000 5.7 320 20:36 28.10.2019
5371 Clouds 6 1019 75 10000 3.6 300 20:18 28.10.2019
5372 Clouds 6 1020 87 10000 4.1 300 19:39 28.10.2019
5373 Clouds 6 1019 75 10000 3.1 290 19:21 28.10.2019
5374 Clouds 6 1019 75 10000 3.1 290 18:59 28.10.2019
5375 Clouds 6 1019 75 10000 3.1 290 18:59 28.10.2019
5376 Clouds 7 1019 81 10000 5.1 330 18:41 28.10.2019
5377 Clouds 7 1019 70 10000 3.6 310 18:21 28.10.2019
5378 Clouds 8 1019 81 10000 5.7 320 17:57 28.10.2019
5379 Clouds 8 1019 81 10000 5.7 320 17:39 28.10.2019
5380 Rain 9 1018 70 10000 5.1 300 17:20 28.10.2019
5381 Rain 9 1019 71 10000 7.2 320 16:58 28.10.2019
5382 Rain 9 1019 71 10000 7.2 320 16:39 28.10.2019
5383 Rain 10 1018 66 10000 3.6 310 16:21 28.10.2019
5384 Clouds 10 1018 71 10000 7.2 320 15:58 28.10.2019
5385 Clouds 10 1018 71 10000 7.2 320 15:40 28.10.2019
5386 Rain 10 1018 71 10000 4.1 300 15:21 28.10.2019
5387 Clouds 11 1018 71 10000 7.7 320 14:57 28.10.2019
5388 Clouds 11 1018 71 10000 7.7 320 14:39 28.10.2019
5389 Clouds 11 1018 76 10000 3.1 290 14:19 28.10.2019
5390 Clouds 10 1018 76 10000 4.6 330 13:58 28.10.2019
5391 Clouds 11 1018 76 10000 4.6 330 13:40 28.10.2019
5392 Clouds 11 1018 87 10000 5.1 320 13:18 28.10.2019
5393 Rain 11 1018 81 4500 6.2 270 12:43 28.10.2019
5394 Rain 10 1018 76 10000 3.6 250 12:21 28.10.2019
5395 Clouds 11 1018 76 10000 4.1 270 11:57 28.10.2019
5396 Clouds 11 1018 76 10000 4.1 270 11:37 28.10.2019
5397 Clouds 10 1018 76 10000 3.1 250 11:18 28.10.2019
5398 Clouds 10 1018 76 10000 3.6 260 10:41 28.10.2019
5399 Clouds 10 1017 76 10000 3.1 250 10:22 28.10.2019
5400 Rain 9 1018 87 10000 6.7 280 09:57 28.10.2019
5401 Rain 9 1018 87 10000 6.7 280 09:39 28.10.2019
5402 Clouds 8 1017 81 10000 3.1 250 09:19 28.10.2019
5403 Rain 8 1017 93 8000 4.6 280 08:57 28.10.2019
5404 Rain 8 1017 93 8000 4.6 280 08:38 28.10.2019
5405 Clouds 7 1017 87 10000 3.6 250 08:19 28.10.2019
5406 Clouds 7 1017 93 10000 4.1 270 07:56 28.10.2019
5407 Clouds 6 1017 93 10000 4.1 270 07:38 28.10.2019
5408 Clouds 7 1016 81 10000 2.6 280 07:19 28.10.2019
5409 Clouds 7 1016 81 10000 6.7 300 06:40 28.10.2019
5410 Clouds 7 1016 81 10000 6.7 300 05:47 28.10.2019
5411 Clouds 8 1015 81 10000 7.7 310 03:56 28.10.2019
5412 Clouds 8 1015 81 10000 7.7 310 03:38 28.10.2019
5413 Clouds 9 1015 87 10000 7.7 310 02:40 28.10.2019
5414 Rain 9 1013 81 0 5.1 270 01:19 28.10.2019
5415 Rain 9 1013 81 10000 11.3 290 00:42 28.10.2019
5416 Rain 9 1013 81 0 5.1 270 00:20 28.10.2019
5417 Clouds 9 1013 81 10000 9.8 270 23:43 27.10.2019
5418 Rain 9 1012 81 0 4.6 250 23:20 27.10.2019
5419 Clouds 9 1013 81 10000 9.3 260 22:44 27.10.2019
5420 Rain 9 1012 81 0 4.1 240 22:23 27.10.2019
5421 Rain 9 1012 81 0 4.1 240 21:59 27.10.2019
5422 Clouds 9 1013 81 10000 10.3 270 21:40 27.10.2019
5423 Rain 9 1013 81 0 4.6 250 21:21 27.10.2019
5424 Clouds 9 1013 87 10000 9.3 270 20:58 27.10.2019
5425 Clouds 9 1013 87 10000 9.3 270 20:40 27.10.2019
5426 Clouds 9 1013 76 10000 5.1 250 20:22 27.10.2019
5427 Rain 9 1013 81 10000 10.3 270 19:57 27.10.2019
5428 Rain 9 1013 81 10000 10.3 270 19:37 27.10.2019
5429 Rain 9 1013 76 8000 4.6 240 19:19 27.10.2019
5430 Clouds 9 1013 81 10000 9.3 260 18:56 27.10.2019
5431 Clouds 9 1013 81 10000 9.3 260 18:38 27.10.2019
5432 Rain 9 1013 81 10000 4.6 240 18:19 27.10.2019
5433 Clouds 9 1013 87 10000 9.3 260 17:55 27.10.2019
5434 Clouds 9 1013 87 10000 9.3 260 17:36 27.10.2019
5435 Rain 10 1013 81 10000 5.7 260 17:18 27.10.2019
5436 Clouds 10 1013 76 10000 9.3 270 16:55 27.10.2019
5437 Clouds 10 1013 76 10000 9.3 270 16:37 27.10.2019
5438 Rain 10 1013 71 10000 6.2 250 16:18 27.10.2019
5439 Rain 10 1014 76 10000 5.7 250 15:55 27.10.2019
5440 Clouds 11 1013 66 10000 13.4 270 15:36 27.10.2019
5441 Rain 11 1012 71 10000 5.7 250 15:18 27.10.2019
5442 Rain 11 1013 66 10000 12.3 270 14:41 27.10.2019
5443 Clouds 11 1013 66 10000 11.8 270 14:19 27.10.2019
5444 Clouds 11 1014 71 10000 6.2 250 13:55 27.10.2019
5445 Rain 11 1012 71 0 7.7 250 13:37 27.10.2019
5446 Rain 11 1012 71 0 5.1 270 13:18 27.10.2019
5447 Clouds 11 1012 66 10000 13.4 280 12:42 27.10.2019
5448 Rain 11 1012 71 0 6.7 270 12:23 27.10.2019
5449 Clouds 11 1012 66 10000 13.9 280 11:55 27.10.2019
5450 Clouds 11 1012 66 10000 13.9 280 11:37 27.10.2019
5451 Rain 11 1011 66 0 6.2 260 11:18 27.10.2019
5452 Clouds 11 1011 71 10000 9.8 280 10:42 27.10.2019
5453 Clouds 11 1010 76 0 5.1 250 10:23 27.10.2019
5454 Clouds 10 1011 76 10000 9.3 270 09:44 27.10.2019
5455 Clouds 10 1010 66 0 5.1 250 09:20 27.10.2019
5456 Clouds 10 1010 66 0 5.1 250 09:20 27.10.2019
5457 Clouds 9 1010 76 10000 8.7 270 08:59 27.10.2019
5458 Clouds 9 1010 76 10000 8.7 270 08:40 27.10.2019
5459 Clouds 9 1009 70 0 4.6 260 08:20 27.10.2019
5460 Clouds 9 1009 76 10000 8.7 280 07:50 27.10.2019
5461 Clouds 9 1010 81 10000 4.1 260 07:29 27.10.2019
5462 Clouds 9 1008 76 10000 10.8 280 06:56 27.10.2019
5463 Clouds 9 1008 76 10000 10.8 280 06:38 27.10.2019
5464 Clouds 9 1008 76 10000 10.8 280 06:38 27.10.2019
5465 Rain 9 1007 71 0 6.7 270 06:20 27.10.2019
5466 Clouds 10 1007 81 10000 10.8 280 05:38 27.10.2019
5467 Clouds 10 1006 87 10000 11.3 290 04:47 27.10.2019
5468 Clouds 12 1004 93 8000 12.3 300 02:48 27.10.2019
5469 Rain 13 1002 87 0 5.7 250 02:18 27.10.2019
5470 Rain 14 1002 93 6000 10.8 240 01:51 27.10.2019
5471 Rain 14 1002 93 0 6.2 220 01:23 27.10.2019
5472 Rain 14 1003 93 6000 9.8 230 00:48 27.10.2019
5473 Rain 14 1003 93 0 5.7 220 00:28 27.10.2019
5474 Rain 14 1003 93 6000 8.7 240 23:57 26.10.2019
5475 Rain 14 1003 93 6000 8.7 240 23:38 26.10.2019
5476 Rain 15 1003 93 6000 10.8 240 23:20 26.10.2019
5477 Clouds 15 1004 82 10000 12.9 250 22:56 26.10.2019
5478 Clouds 15 1004 82 10000 12.9 250 22:37 26.10.2019
5479 Rain 15 1003 77 0 5.7 230 22:18 26.10.2019
5480 Clouds 15 1004 82 10000 9.3 250 21:43 26.10.2019
5481 Rain 15 1004 77 0 6.2 220 21:22 26.10.2019
5482 Rain 16 1004 77 10000 8.7 230 20:58 26.10.2019
5483 Rain 16 1004 77 10000 8.7 230 20:38 26.10.2019
5484 Rain 16 1004 77 0 5.7 220 20:18 26.10.2019
5485 Rain 16 1005 77 10000 8.7 240 19:42 26.10.2019
5486 Rain 16 1005 77 0 7.2 220 19:20 26.10.2019
5487 Clouds 16 1005 72 10000 10.3 250 18:57 26.10.2019
5488 Clouds 16 1005 72 10000 10.3 250 18:39 26.10.2019
5489 Clouds 16 1005 77 0 7.2 220 18:19 26.10.2019
5490 Clouds 16 1005 77 10000 10.8 240 17:57 26.10.2019
5491 Clouds 16 1005 77 10000 10.8 240 17:38 26.10.2019
5492 Clouds 16 1005 77 10000 6.7 220 17:20 26.10.2019
5493 Clouds 16 1006 77 10000 13.4 240 16:44 26.10.2019
5494 Clouds 16 1007 67 10000 7.2 230 16:25 26.10.2019
5495 Clouds 16 1006 77 10000 10.8 240 15:59 26.10.2019
5496 Clouds 16 1006 77 10000 10.8 240 15:38 26.10.2019
5497 Clouds 16 1006 87 10000 7.2 220 15:18 26.10.2019
5498 Clouds 16 1006 77 10000 11.8 230 14:39 26.10.2019
5499 Clouds 16 1006 82 8000 11.8 240 14:19 26.10.2019
5500 Drizzle 16 1006 82 4800 12.3 240 13:56 26.10.2019
5501 Clouds 14 1007 83 0 11.12 228 13:36 26.10.2019
5502 Clouds 14 1007 83 0 11.12 228 13:18 26.10.2019
5503 Drizzle 15 1007 82 6000 11.8 240 12:42 26.10.2019
5504 Rain 15 1008 77 6000 11.8 220 12:19 26.10.2019
5505 Clouds 15 1006 87 10000 7.2 220 11:47 26.10.2019
5506 Clouds 15 1006 87 10000 7.2 220 11:25 26.10.2019
5507 Drizzle 14 1006 87 7000 11.3 240 10:47 26.10.2019
5508 Drizzle 14 1006 87 7000 11.3 240 10:47 26.10.2019
5509 Rain 14 1009 87 10000 8.2 220 10:26 26.10.2019
5510 Drizzle 14 1006 93 4000 10.8 240 09:50 26.10.2019
5511 Rain 14 1006 93 6000 7.7 220 09:30 26.10.2019
5512 Drizzle 14 1006 93 2800 10.3 240 08:57 26.10.2019
5513 Drizzle 14 1006 93 2800 10.3 240 08:39 26.10.2019
5514 Drizzle 14 1006 87 2800 10.8 230 08:20 26.10.2019
5515 Drizzle 14 1006 87 6000 12.3 230 07:43 26.10.2019
5516 Rain 14 1005 100 1800 12.3 220 07:23 26.10.2019
5517 Drizzle 14 1006 87 10000 10.3 230 06:41 26.10.2019
5518 Clouds 14 1006 77 10000 10.8 230 05:59 26.10.2019
5519 Clouds 14 1006 77 0 7.7 210 05:19 26.10.2019
5520 Clouds 14 1007 82 10000 11.8 220 03:56 26.10.2019
5521 Clouds 14 1008 82 10000 10.8 220 02:35 26.10.2019
5522 Clouds 14 1008 76 10000 10.3 220 01:48 26.10.2019
5523 Clouds 13 1009 76 10000 9.3 210 00:58 26.10.2019
5524 Rain 13 1010 82 0 4.6 180 00:18 26.10.2019
5525 Clouds 13 1011 87 10000 7.2 190 23:40 25.10.2019
5526 Rain 13 1012 82 0 4.6 170 23:19 25.10.2019
5527 Rain 13 1012 87 10000 6.7 190 22:40 25.10.2019
5528 Clouds 12 1013 82 10000 4.1 170 22:22 25.10.2019
5529 Rain 12 1013 87 10000 6.2 190 21:57 25.10.2019
5530 Rain 12 1013 87 10000 6.2 190 21:39 25.10.2019
5531 Clouds 12 1014 87 10000 3.1 170 21:19 25.10.2019
5532 Clouds 12 1014 87 10000 4.6 190 20:55 25.10.2019
5533 Clouds 12 1014 87 10000 4.6 190 20:37 25.10.2019
5534 Clouds 12 1014 87 10000 3.1 180 20:18 25.10.2019
5535 Clouds 12 1014 87 10000 4.6 200 19:41 25.10.2019
5536 Clouds 12 1014 87 10000 2.1 190 19:23 25.10.2019
5537 Clouds 12 1014 87 10000 5.7 230 18:44 25.10.2019
5538 Clouds 12 1015 87 10000 3.1 200 18:22 25.10.2019
5539 Clouds 12 1015 81 10000 6.2 250 17:41 25.10.2019
5540 Rain 12 1015 87 10000 3.6 220 17:21 25.10.2019
5541 Clouds 13 1014 87 10000 6.2 240 16:54 25.10.2019
5542 Clouds 13 1014 87 10000 6.2 240 16:36 25.10.2019
5543 Clouds 13 1014 71 10000 7.2 250 16:18 25.10.2019
5544 Clouds 14 1014 87 10000 7.2 250 15:40 25.10.2019
5545 Clouds 14 1014 82 10000 4.6 250 15:22 25.10.2019
5546 Clouds 14 1014 76 10000 12.3 270 14:58 25.10.2019
5547 Clouds 14 1014 76 10000 12.3 270 14:39 25.10.2019
5548 Rain 14 1013 82 10000 6.7 240 14:20 25.10.2019
5549 Clouds 14 1013 82 10000 9.3 250 13:44 25.10.2019
5550 Clouds 14 1013 82 10000 4.6 230 13:24 25.10.2019
5551 Rain 14 1013 93 10000 10.3 260 12:57 25.10.2019
5552 Rain 13 1013 93 10000 10.3 260 12:39 25.10.2019
5553 Clouds 13 1012 81 10000 5.7 230 12:19 25.10.2019
5554 Rain 13 1013 82 5000 11.8 250 11:41 25.10.2019
5555 Clouds 13 1011 82 10000 4.6 230 11:22 25.10.2019
5556 Clouds 13 1012 87 10000 7.7 240 10:59 25.10.2019
5557 Clouds 13 1012 87 10000 7.7 240 10:39 25.10.2019
5558 Clouds 13 1011 87 10000 3.6 220 10:20 25.10.2019
5559 Clouds 13 1011 87 10000 8.7 240 09:55 25.10.2019
5560 Clouds 13 1011 87 10000 8.7 240 09:36 25.10.2019
5561 Clouds 12 1010 87 10000 3.1 230 09:18 25.10.2019
5562 Clouds 12 1010 87 10000 5.7 250 08:43 25.10.2019
5563 Clouds 12 1010 87 10000 4.1 230 08:23 25.10.2019
5564 Clouds 12 1009 87 10000 7.2 250 07:51 25.10.2019
5565 Clouds 12 1009 87 10000 4.1 230 07:32 25.10.2019
5566 Rain 12 1009 87 0 7.2 250 06:39 25.10.2019
5567 Clouds 13 1008 87 0 6.7 240 05:51 25.10.2019
5568 Clouds 13 1008 82 0 3.6 230 05:32 25.10.2019
5569 Clouds 13 1008 82 0 7.2 250 04:39 25.10.2019
5570 Clouds 14 1007 82 0 8.7 240 02:46 25.10.2019
5571 Clouds 14 1006 87 0 6.7 220 01:53 25.10.2019
5572 Clouds 14 1006 87 0 6.2 210 00:47 25.10.2019
5573 Clouds 14 1006 93 0 3.1 180 00:18 25.10.2019
5574 Clouds 14 1006 87 0 6.2 200 23:40 24.10.2019
5575 Clouds 14 1006 93 0 2.6 180 23:21 24.10.2019
5576 Clouds 14 1006 93 0 6.7 200 22:54 24.10.2019
5577 Clouds 14 1006 93 0 6.7 200 22:54 24.10.2019
5578 Clouds 14 1006 93 0 6.7 200 22:54 24.10.2019
5579 Clouds 13 1006 93 0 6.7 200 22:36 24.10.2019
5580 Clouds 13 1007 87 6000 4.6 180 22:18 24.10.2019
5581 Clouds 13 1006 87 0 7.2 200 21:55 24.10.2019
5582 Clouds 13 1006 87 0 7.2 200 21:37 24.10.2019
5583 Mist 13 1006 93 4000 2.6 170 21:18 24.10.2019
5584 Mist 13 1006 93 4000 2.6 170 21:18 24.10.2019
5585 Clouds 13 1006 93 0 5.7 210 20:55 24.10.2019
5586 Clouds 13 1006 93 0 5.7 210 20:37 24.10.2019
5587 Mist 13 1006 93 4500 3.1 160 20:18 24.10.2019
5588 Clouds 13 1006 93 0 4.1 200 19:42 24.10.2019
5589 Mist 13 1006 87 4500 3.1 150 19:23 24.10.2019
5590 Mist 13 1005 93 4500 3.1 170 18:58 24.10.2019
5591 Mist 13 1005 93 4500 3.1 170 18:39 24.10.2019
5592 Mist 14 1005 87 4500 2.6 160 18:21 24.10.2019
5593 Mist 14 1005 87 5000 3.1 190 17:57 24.10.2019
5594 Mist 14 1005 87 5000 3.1 190 17:38 24.10.2019
5595 Mist 14 1006 93 4500 3.1 160 17:19 24.10.2019
5596 Mist 14 1006 93 4500 3.1 160 17:19 24.10.2019
5597 Mist 14 1006 87 5000 3.6 190 16:54 24.10.2019
5598 Mist 14 1006 87 5000 3.6 190 16:36 24.10.2019
5599 Mist 14 1006 87 5000 4.6 200 16:18 24.10.2019
5600 Mist 14 1006 87 5000 4.6 200 16:18 24.10.2019
5601 Mist 14 1006 87 4500 5.1 180 15:54 24.10.2019
5602 Mist 14 1006 87 4500 5.1 180 15:36 24.10.2019
5603 Clouds 14 1005 93 6000 5.7 150 15:18 24.10.2019
5604 Mist 13 1005 93 3500 3.6 160 14:42 24.10.2019
5605 Mist 13 1006 93 5000 4.1 150 14:23 24.10.2019
5606 Mist 13 1006 93 3500 4.1 170 13:58 24.10.2019
5607 Mist 13 1006 93 3500 4.1 170 13:37 24.10.2019
5608 Mist 13 1007 93 3000 3.6 150 13:18 24.10.2019
5609 Mist 13 1007 93 3000 2.6 190 12:55 24.10.2019
5610 Mist 13 1007 93 3000 2.6 190 12:37 24.10.2019
5611 Mist 13 1007 93 2500 4.1 150 12:18 24.10.2019
5612 Mist 12 1007 100 2000 4.1 180 11:54 24.10.2019
5613 Mist 12 1007 100 2000 4.1 180 11:36 24.10.2019
5614 Mist 12 1007 100 2000 6.2 150 11:18 24.10.2019
5615 Mist 12 1007 100 1500 4.6 160 10:42 24.10.2019
5616 Mist 12 1007 100 2500 3.1 160 10:23 24.10.2019
5617 Mist 12 1007 100 1200 4.6 140 09:40 24.10.2019
5618 Mist 12 1007 100 1200 4.6 140 09:40 24.10.2019
5619 Mist 12 1007 100 1800 7.2 130 09:19 24.10.2019
5620 Mist 12 1007 100 1500 6.2 140 08:58 24.10.2019
5621 Mist 12 1007 100 1500 6.2 140 08:39 24.10.2019
5622 Fog 12 1007 93 400 4.1 120 08:20 24.10.2019
5623 Mist 12 1007 100 2000 7.7 140 07:47 24.10.2019
5624 Mist 12 1009 100 3000 5.1 120 07:23 24.10.2019
5625 Mist 12 1008 93 3000 5.1 130 06:56 24.10.2019
5626 Mist 12 1008 93 3000 5.1 130 06:36 24.10.2019
5627 Clouds 11 1009 100 7000 2.6 130 05:55 24.10.2019
5628 Clouds 11 1009 100 7000 2.6 130 05:33 24.10.2019
5629 Clouds 11 1009 100 7000 3.1 110 04:33 24.10.2019
5630 Mist 10 1010 93 0 4.1 110 03:36 24.10.2019
5631 Clouds 10 1011 93 7000 2.1 120 02:44 24.10.2019
5632 Mist 10 1012 93 3500 2.1 110 02:20 24.10.2019
5633 Mist 10 1011 93 3500 3.1 110 01:32 24.10.2019
5634 Clouds 11 1012 93 7000 4.1 130 00:57 24.10.2019
5635 Mist 11 1012 93 5000 3.1 110 00:30 24.10.2019
5636 Clouds 11 1012 93 8000 4.1 130 23:59 23.10.2019
5637 Clouds 11 1012 93 8000 4.1 130 23:41 23.10.2019
5638 Clouds 11 1012 93 8000 2.6 90 23:21 23.10.2019
5639 Clouds 11 1013 93 8000 4.6 120 22:57 23.10.2019
5640 Clouds 11 1013 93 8000 4.6 120 22:57 23.10.2019
5641 Clouds 11 1013 93 8000 4.6 120 22:37 23.10.2019
5642 Mist 11 1014 100 4000 3.6 100 22:18 23.10.2019
5643 Mist 11 1014 100 4000 3.6 100 22:18 23.10.2019
5644 Mist 11 1014 100 4000 3.6 100 22:18 23.10.2019
5645 Clouds 11 1014 93 8000 3.1 110 21:57 23.10.2019
5646 Clouds 11 1014 93 8000 3.1 110 21:38 23.10.2019
5647 Clouds 11 1013 93 8000 3.1 110 21:19 23.10.2019
5648 Clouds 11 1014 93 8000 5.7 120 20:56 23.10.2019
5649 Clouds 11 1014 93 8000 5.7 120 20:37 23.10.2019
5650 Clouds 12 1015 87 5000 4.1 110 20:19 23.10.2019
5651 Clouds 12 1015 93 8000 4.6 130 19:54 23.10.2019
5652 Clouds 12 1015 93 8000 4.6 130 19:36 23.10.2019
5653 Clouds 12 1015 87 6000 4.1 110 19:18 23.10.2019
5654 Clouds 12 1015 93 8000 2.6 110 18:39 23.10.2019
5655 Clouds 12 1016 87 6000 3.1 100 18:19 23.10.2019
5656 Clouds 12 1016 87 8000 2.1 140 17:59 23.10.2019
5657 Clouds 12 1016 87 8000 2.1 140 17:41 23.10.2019
5658 Clouds 13 1017 87 7000 3.1 110 17:19 23.10.2019
5659 Clouds 13 1017 87 7000 3.1 110 17:19 23.10.2019
5660 Clouds 13 1017 82 8000 2.6 180 16:54 23.10.2019
5661 Clouds 13 1017 82 8000 2.6 180 16:36 23.10.2019
5662 Clouds 13 1017 82 10000 2.1 150 16:18 23.10.2019
5663 Clouds 13 1017 82 10000 3.1 160 15:41 23.10.2019
5664 Clouds 13 1017 76 10000 1.5 170 15:21 23.10.2019
5665 Clouds 13 1018 81 10000 3.1 200 14:58 23.10.2019
5666 Clouds 13 1018 81 10000 3.1 200 14:38 23.10.2019
5667 Clouds 13 1018 82 10000 2.6 160 14:19 23.10.2019
5668 Clouds 12 1019 87 10000 2.6 170 13:57 23.10.2019
5669 Clouds 12 1019 87 10000 2.6 170 13:38 23.10.2019
5670 Clouds 12 1019 87 10000 3.6 170 13:20 23.10.2019
5671 Clouds 12 1019 81 10000 4.1 230 12:55 23.10.2019
5672 Clouds 12 1019 81 10000 4.1 230 12:36 23.10.2019
5673 Clouds 11 1020 87 8000 2.1 180 12:18 23.10.2019
5674 Clouds 11 1020 93 9000 3.6 190 11:55 23.10.2019
5675 Clouds 11 1020 93 9000 3.6 190 11:37 23.10.2019
5676 Mist 11 1020 100 3000 3.6 180 11:19 23.10.2019
5677 Clouds 11 1020 93 6000 4.1 200 10:42 23.10.2019
5678 Mist 11 1020 93 4000 1.5 180 10:24 23.10.2019
5679 Clouds 10 1020 100 7000 4.1 190 09:42 23.10.2019
5680 Mist 10 1019 100 5000 4.6 190 09:23 23.10.2019
5681 Mist 10 1019 100 3500 5.1 190 08:59 23.10.2019
5682 Mist 10 1019 100 3500 5.1 190 08:41 23.10.2019
5683 Mist 10 1019 100 3500 5.1 190 08:41 23.10.2019
5684 Clouds 10 1019 87 10000 2.6 170 08:22 23.10.2019
5685 Clouds 10 1019 93 10000 4.6 190 07:46 23.10.2019
5686 Clouds 11 1020 93 10000 2.6 180 07:22 23.10.2019
5687 Clouds 11 1020 93 10000 4.1 200 06:47 23.10.2019
5688 Clouds 11 1020 93 0 2.1 190 06:22 23.10.2019
5689 Clouds 11 1020 93 10000 4.1 210 05:45 23.10.2019
5690 Clouds 11 1020 93 10000 3.6 230 04:41 23.10.2019
5691 Clouds 11 1021 87 10000 4.1 220 03:35 23.10.2019
5692 Clouds 11 1021 87 10000 4.6 220 02:40 23.10.2019
5693 Clouds 11 1021 87 0 2.6 210 01:32 23.10.2019
5694 Clouds 11 1021 87 10000 5.1 230 00:56 23.10.2019
5695 Clouds 11 1021 87 0 1.5 210 00:28 23.10.2019
5696 Clouds 10 1021 87 10000 4.6 240 23:40 22.10.2019
5697 Clouds 10 1021 81 0 2.1 230 23:18 22.10.2019
5698 Clouds 10 1021 87 10000 5.1 270 22:57 22.10.2019
5699 Clouds 11 1021 87 10000 5.1 270 22:39 22.10.2019
5700 Clouds 11 1021 76 10000 3.1 240 22:20 22.10.2019
5701 Clouds 11 1021 81 10000 5.7 260 21:56 22.10.2019
5702 Clouds 11 1021 81 10000 5.7 260 21:37 22.10.2019
5703 Clouds 11 1021 76 10000 3.6 250 21:18 22.10.2019
5704 Clouds 12 1021 81 10000 5.7 250 20:56 22.10.2019
5705 Clouds 12 1021 81 10000 5.7 250 20:38 22.10.2019
5706 Clouds 12 1021 87 10000 3.1 240 20:20 22.10.2019
5707 Clouds 12 1021 87 10000 6.2 250 19:54 22.10.2019
5708 Clouds 12 1021 87 10000 6.2 250 19:36 22.10.2019
5709 Clouds 12 1020 87 10000 3.1 240 19:18 22.10.2019
5710 Clouds 12 1020 87 10000 6.2 260 18:40 22.10.2019
5711 Clouds 12 1021 93 10000 4.6 240 18:22 22.10.2019
5712 Clouds 13 1020 82 10000 8.7 260 17:58 22.10.2019
5713 Clouds 13 1020 82 10000 8.7 260 17:39 22.10.2019
5714 Clouds 13 1020 82 10000 4.1 240 17:20 22.10.2019
5715 Clouds 13 1020 76 10000 7.7 260 16:57 22.10.2019
5716 Clouds 13 1020 76 10000 7.7 260 16:38 22.10.2019
5717 Clouds 13 1020 87 10000 2.6 230 16:19 22.10.2019
5718 Clouds 13 1020 93 10000 7.2 290 15:58 22.10.2019
5719 Clouds 13 1020 93 10000 7.2 290 15:39 22.10.2019
5720 Clouds 13 1020 87 8000 2.6 230 15:18 22.10.2019
5721 Clouds 13 1020 87 10000 4.6 240 14:43 22.10.2019
5722 Clouds 13 1020 93 10000 3.1 220 14:20 22.10.2019
5723 Clouds 13 1020 93 9000 5.7 240 13:43 22.10.2019
5724 Clouds 13 1020 87 7000 4.1 200 13:23 22.10.2019
5725 Clouds 12 1020 87 7000 4.1 200 12:59 22.10.2019
5726 Drizzle 12 1020 93 7000 6.2 230 12:41 22.10.2019
5727 Rain 12 1019 93 6000 3.6 200 12:21 22.10.2019
5728 Clouds 12 1020 93 9000 6.2 220 11:57 22.10.2019
5729 Clouds 12 1020 93 9000 6.2 220 11:38 22.10.2019
5730 Clouds 12 1020 93 9000 6.2 220 11:38 22.10.2019
5731 Clouds 12 1020 93 7000 4.6 210 11:20 22.10.2019
5732 Clouds 12 1021 81 10000 5.7 230 10:58 22.10.2019
5733 Clouds 12 1019 93 6000 5.1 210 10:37 22.10.2019
5734 Clouds 12 1019 93 6000 5.1 210 10:37 22.10.2019
5735 Clouds 12 1019 87 10000 4.1 210 10:19 22.10.2019
5736 Clouds 12 1019 87 9000 5.1 220 09:55 22.10.2019
5737 Clouds 11 1019 87 9000 5.1 220 09:37 22.10.2019
5738 Drizzle 11 1018 93 4500 4.6 210 09:19 22.10.2019
5739 Clouds 11 1018 93 10000 5.7 200 08:42 22.10.2019
5740 Clouds 11 1018 93 10000 3.6 200 08:22 22.10.2019
5741 Clouds 11 1018 100 9000 5.1 220 07:49 22.10.2019
5742 Clouds 10 1019 87 10000 3.1 220 07:29 22.10.2019
5743 Clouds 10 1018 93 0 6.2 210 06:52 22.10.2019
5744 Clouds 10 1018 93 10000 3.1 190 06:31 22.10.2019
5745 Clouds 10 1018 93 0 5.1 220 05:59 22.10.2019
5746 Clouds 11 1018 93 0 3.1 190 05:24 22.10.2019
5747 Clouds 11 1018 93 0 2.6 180 03:19 22.10.2019
5748 Mist 11 1018 93 0 2.6 190 02:28 22.10.2019
5749 Mist 11 1018 93 0 2.1 170 01:31 22.10.2019
5750 Clouds 11 1018 93 0 4.1 210 00:59 22.10.2019
5751 Clouds 11 1018 93 0 4.1 210 00:40 22.10.2019
5752 Clouds 12 1018 93 0 1.5 200 00:21 22.10.2019
5753 Clouds 12 1018 93 0 4.1 210 23:57 21.10.2019
5754 Clouds 12 1018 93 0 4.1 210 23:37 21.10.2019
5755 Clouds 12 1018 93 0 2.1 190 23:18 21.10.2019
5756 Clouds 12 1018 100 0 4.1 210 22:57 21.10.2019
5757 Clouds 12 1018 100 0 4.1 210 22:38 21.10.2019
5758 Mist 12 1018 100 4000 2.1 170 22:19 21.10.2019
5759 Clouds 11 1018 93 2900 3.6 180 21:56 21.10.2019
5760 Clouds 12 1018 93 0 3.6 220 21:37 21.10.2019
5761 Rain 12 1018 100 1200 2.1 160 21:19 21.10.2019
5762 Clouds 12 1018 100 0 3.1 200 20:56 21.10.2019
5763 Clouds 12 1018 100 0 3.1 200 20:37 21.10.2019
5764 Mist 12 1017 100 1200 1 180 20:19 21.10.2019
5765 Clouds 12 1018 100 0 1.5 170 19:55 21.10.2019
5766 Clouds 12 1018 100 0 1.5 170 19:55 21.10.2019
5767 Clouds 12 1018 100 0 1.5 170 19:55 21.10.2019
5768 Clouds 12 1018 100 0 1.5 170 19:36 21.10.2019
5769 Rain 12 1017 100 4000 1.5 130 19:18 21.10.2019
5770 Rain 12 1017 100 4000 1.5 130 19:18 21.10.2019
5771 Mist 12 1017 100 4000 1.5 160 18:54 21.10.2019
5772 -273 0 0 0 0 0 18:54 21.10.2019
5773 Mist 12 1017 100 4000 1.5 160 18:54 21.10.2019
5774 Mist 12 1017 100 4000 1.5 160 18:36 21.10.2019
5775 Fog 12 1017 93 700 2.1 190 18:18 21.10.2019
5776 Mist 12 1017 100 4000 1 160 17:38 21.10.2019
5777 Drizzle 12 1016 100 4000 3.6 80 17:19 21.10.2019
5778 Rain 12 1016 100 2500 2.1 100 16:58 21.10.2019
5779 Rain 12 1016 100 2500 2.1 100 16:40 21.10.2019
5780 Rain 12 1017 100 2500 4.6 80 16:21 21.10.2019
5781 Rain 12 1017 93 1500 3.1 100 15:57 21.10.2019
5782 Rain 12 1017 93 1500 3.1 100 15:38 21.10.2019
5783 Rain 12 1017 93 1300 3.6 90 15:18 21.10.2019
5784 Rain 12 1017 93 2000 3.6 100 14:40 21.10.2019
5785 Drizzle 12 1017 93 6000 4.1 60 14:21 21.10.2019
5786 Rain 12 1017 100 3300 3.6 80 13:59 21.10.2019
5787 Rain 12 1017 100 3300 3.6 80 13:40 21.10.2019
5788 Rain 12 1017 93 8000 6.2 30 13:20 21.10.2019
5789 Rain 12 1017 100 3600 4.1 70 12:58 21.10.2019
5790 Rain 12 1017 100 3600 4.1 70 12:40 21.10.2019
5791 Rain 12 1016 93 9000 5.7 80 12:20 21.10.2019
5792 Rain 12 1017 100 3300 3.1 70 11:54 21.10.2019
5793 Rain 12 1017 100 3300 3.1 70 11:54 21.10.2019
5794 Rain 11 1017 100 3300 3.1 70 11:36 21.10.2019
5795 Rain 11 1016 100 8000 5.1 70 11:18 21.10.2019
5796 Rain 11 1017 100 4000 4.6 60 10:54 21.10.2019
5797 Rain 11 1017 100 4000 4.6 60 10:36 21.10.2019
5798 Rain 11 1018 93 3500 3.1 50 10:18 21.10.2019
5799 Rain 11 1017 100 2800 4.1 80 09:39 21.10.2019
5800 Rain 11 1016 100 5000 3.6 90 09:21 21.10.2019
5801 Rain 11 1016 100 3300 4.6 80 08:42 21.10.2019
5802 Rain 11 1016 100 3500 3.6 80 08:23 21.10.2019
5803 Mist 11 1016 100 5000 3.6 80 07:56 21.10.2019
5804 Mist 11 1016 100 5000 3.6 80 07:37 21.10.2019
5805 Mist 11 1015 100 5000 3.1 70 07:18 21.10.2019
5806 Rain 11 1015 100 0 3.1 80 06:44 21.10.2019
5807 Mist 11 1016 100 0 3.6 60 06:25 21.10.2019
5808 Mist 11 1015 100 0 3.6 80 05:43 21.10.2019
5809 Mist 11 1014 100 0 3.6 60 03:42 21.10.2019
5810 Mist 11 1015 100 0 3.6 80 02:41 21.10.2019
5811 Mist 11 1015 93 0 2.1 50 02:21 21.10.2019
5812 Mist 11 1015 93 0 2.1 50 02:21 21.10.2019
5813 Fog 10 1014 100 0 2.1 70 01:49 21.10.2019
5814 Fog 10 1014 100 0 2.1 70 01:49 21.10.2019
5815 Mist 10 1014 100 0 1 40 01:22 21.10.2019
5816 Mist 10 1014 100 0 3.1 80 00:42 21.10.2019
5817 Mist 10 1014 100 0 1.5 40 00:23 21.10.2019
5818 Mist 10 1014 100 0 2.1 90 23:40 20.10.2019
5819 Mist 10 1013 100 0 0.5 0 23:21 20.10.2019
5820 Mist 10 1013 100 0 3.1 80 22:55 20.10.2019
5821 Mist 10 1013 100 0 3.1 80 22:36 20.10.2019
5822 Mist 10 1013 100 0 2.1 40 22:18 20.10.2019
5823 Mist 10 1013 93 0 2.6 60 21:56 20.10.2019
5824 Mist 11 1013 93 0 2.6 60 21:38 20.10.2019
5825 Mist 11 1013 93 200 1 80 21:19 20.10.2019
5826 Mist 11 1013 100 0 2.1 110 20:39 20.10.2019
5827 Mist 11 1013 93 2700 1.5 30 20:18 20.10.2019
5828 Mist 11 1012 100 0 3.1 120 19:56 20.10.2019
5829 Mist 11 1012 100 0 3.1 120 19:37 20.10.2019
5830 Mist 11 1012 93 3500 2.6 110 19:19 20.10.2019
5831 Mist 11 1011 100 0 0.5 70 18:42 20.10.2019
5832 Clouds 12 1011 87 6000 1.5 110 18:24 20.10.2019
5833 Clouds 12 1011 93 0 1 120 17:59 20.10.2019
5834 Clouds 12 1011 93 0 1 120 17:41 20.10.2019
5835 Clouds 12 1011 87 6000 3.1 110 17:23 20.10.2019
5836 Clouds 13 1011 87 0 1 0 16:57 20.10.2019
5837 Clouds 13 1011 87 0 1 0 16:39 20.10.2019
5838 Clouds 13 1011 87 8000 0.5 0 16:21 20.10.2019
5839 Clouds 13 1010 87 0 2.1 210 15:55 20.10.2019
5840 Clouds 13 1010 87 0 2.1 210 15:37 20.10.2019
5841 Clouds 13 1010 87 8000 0.5 0 15:18 20.10.2019
5842 Clouds 13 1010 87 0 2.1 280 14:56 20.10.2019
5843 Clouds 13 1010 87 0 2.1 280 14:37 20.10.2019
5844 Clouds 13 1010 87 0 2.6 200 14:18 20.10.2019
5845 Clouds 13 1009 87 0 2.1 190 13:54 20.10.2019
5846 Clouds 12 1009 87 0 2.1 190 13:36 20.10.2019
5847 Clouds 12 1010 93 0 2.1 200 13:18 20.10.2019
5848 Clouds 12 1010 93 0 2.1 190 12:55 20.10.2019
5849 Clouds 12 1010 93 0 2.1 190 12:36 20.10.2019
5850 Mist 12 1009 93 0 2.1 170 12:18 20.10.2019
5851 Mist 11 1009 93 0 2.6 200 11:41 20.10.2019
5852 Mist 11 1009 93 0 2.6 200 11:41 20.10.2019
5853 Mist 11 1009 93 0 3.1 200 11:23 20.10.2019
5854 Mist 11 1009 93 0 3.1 200 10:59 20.10.2019
5855 Mist 11 1009 93 0 3.1 200 10:39 20.10.2019
5856 Mist 10 1008 93 0 3.1 190 10:21 20.10.2019
5857 Mist 10 1008 93 0 3.6 200 09:56 20.10.2019
5858 Mist 10 1008 93 0 3.6 200 09:38 20.10.2019
5859 Fog 10 1008 100 500 3.1 190 09:20 20.10.2019
5860 Fog 10 1007 100 0 5.7 180 08:44 20.10.2019
5861 Mist 10 1007 93 1200 4.1 180 08:22 20.10.2019
5862 Mist 10 1007 100 0 4.6 190 07:49 20.10.2019
5863 Mist 10 1007 100 0 2.6 200 07:29 20.10.2019
5864 Mist 10 1006 100 0 2.6 180 06:32 20.10.2019
5865 Mist 10 1006 93 10000 4.6 200 04:46 20.10.2019
5866 Mist 9 1006 100 0 3.1 180 04:25 20.10.2019
5867 Mist 9 1005 93 10000 5.7 200 03:41 20.10.2019
5868 Mist 9 1006 100 0 2.1 170 03:18 20.10.2019
5869 Mist 9 1005 93 10000 4.6 200 02:36 20.10.2019
5870 Fog 10 1005 100 10000 5.1 200 01:58 20.10.2019
5871 Fog 10 1005 93 0 2.6 170 01:23 20.10.2019
5872 Fog 10 1005 93 10000 5.1 200 00:54 20.10.2019
5873 Rain 10 1005 93 0 2.6 170 00:22 20.10.2019
5874 Mist 10 1005 93 10000 4.6 200 23:59 19.10.2019
5875 Mist 11 1005 93 10000 4.6 200 23:40 19.10.2019
5876 Mist 10 1004 93 0 2.1 170 23:21 19.10.2019
5877 Mist 11 1004 100 10000 4.1 210 22:55 19.10.2019
5878 Mist 11 1004 100 10000 4.1 210 22:37 19.10.2019
5879 Rain 11 1004 93 0 2.6 160 22:18 19.10.2019
5880 Rain 11 1004 93 0 2.6 160 22:18 19.10.2019
5881 Rain 11 1004 93 10000 4.6 210 21:45 19.10.2019
5882 Rain 12 1003 93 0 3.6 170 21:22 19.10.2019
5883 Rain 12 1003 93 10000 5.1 200 20:45 19.10.2019
5884 Rain 12 1003 87 0 5.1 150 20:22 19.10.2019
5885 Rain 12 1003 93 10000 6.2 170 19:57 19.10.2019
5886 Rain 12 1003 93 10000 6.2 170 19:39 19.10.2019
5887 Rain 12 1003 87 0 5.1 140 19:21 19.10.2019
5888 Rain 13 1003 87 10000 4.6 170 18:42 19.10.2019
5889 Rain 13 1003 82 0 4.6 140 18:24 19.10.2019
5890 Rain 13 1003 82 10000 4.1 160 17:57 19.10.2019
5891 Rain 13 1003 82 10000 4.1 160 17:37 19.10.2019
5892 Rain 13 1003 87 10000 4.1 150 17:19 19.10.2019
5893 Rain 13 1003 87 10000 4.1 180 16:39 19.10.2019
5894 Clouds 13 1004 82 10000 4.1 150 16:20 19.10.2019
5895 Clouds 13 1003 82 10000 4.1 170 15:56 19.10.2019
5896 Drizzle 13 1003 82 10000 4.1 170 15:38 19.10.2019
5897 Clouds 13 1004 82 10000 4.1 160 15:19 19.10.2019
5898 Clouds 13 1004 82 10000 4.1 160 15:19 19.10.2019
5899 Clouds 13 1004 82 10000 5.1 190 14:38 19.10.2019
5900 Clouds 13 1004 76 10000 4.1 160 14:20 19.10.2019
5901 Clouds 13 1004 76 10000 5.1 190 13:56 19.10.2019
5902 Clouds 13 1004 76 10000 5.1 190 13:37 19.10.2019
5903 Clouds 13 1004 76 10000 5.1 190 13:37 19.10.2019
5904 Clouds 13 1004 76 10000 4.6 160 13:18 19.10.2019
5905 Clouds 13 1004 76 10000 4.6 160 13:18 19.10.2019
5906 Clouds 13 1004 81 10000 5.1 200 12:41 19.10.2019
5907 Clouds 12 1004 81 10000 4.1 170 12:22 19.10.2019
5908 Clear 12 1005 71 10000 4.6 190 11:59 19.10.2019
5909 Clouds 12 1004 81 10000 6.2 190 11:40 19.10.2019
5910 Clouds 11 1004 81 10000 4.1 170 11:22 19.10.2019
5911 Clouds 11 1004 87 10000 6.7 180 10:42 19.10.2019
5912 Clouds 10 1004 76 10000 3.1 180 10:23 19.10.2019
5913 Clouds 10 1004 76 10000 3.1 180 10:00 19.10.2019
5914 Clouds 10 1004 81 10000 7.2 180 09:41 19.10.2019
5915 Clouds 9 1004 87 10000 4.1 180 09:23 19.10.2019
5916 Clouds 9 1004 87 10000 4.1 180 08:58 19.10.2019
5917 Clouds 9 1004 87 10000 4.1 180 08:58 19.10.2019
5918 Clouds 9 1004 87 10000 7.2 180 08:39 19.10.2019
5919 Clouds 9 1004 81 10000 4.1 180 08:20 19.10.2019
5920 Clouds 9 1003 87 10000 8.2 190 07:43 19.10.2019
5921 Clouds 9 1004 81 10000 4.1 190 07:23 19.10.2019
5922 Clouds 9 1003 87 10000 8.7 190 06:45 19.10.2019
5923 Clouds 9 1003 81 0 5.1 190 05:56 19.10.2019
5924 Clouds 10 1003 81 0 5.7 190 05:27 19.10.2019
5925 Clouds 10 1003 87 10000 7.2 220 03:59 19.10.2019
5926 Clouds 10 1003 81 10000 9.3 220 02:40 19.10.2019
5927 Clouds 11 1002 81 10000 9.3 220 01:51 19.10.2019
5928 Rain 11 1002 81 0 5.7 200 01:19 19.10.2019
5929 Clouds 11 1002 81 10000 8.7 220 00:45 19.10.2019
5930 Rain 11 1002 76 0 6.2 200 00:23 19.10.2019
5931 Rain 11 1002 81 10000 9.8 220 23:42 18.10.2019
5932 Rain 11 1002 81 10000 9.8 220 23:42 18.10.2019
5933 Rain 11 1002 93 0 4.1 230 23:23 18.10.2019
5934 Rain 11 1002 87 10000 8.2 220 22:56 18.10.2019
5935 Rain 11 1002 87 10000 8.2 220 22:38 18.10.2019
5936 Rain 11 1002 87 10000 8.2 220 22:38 18.10.2019
5937 Rain 11 1001 81 0 7.7 210 22:20 18.10.2019
5938 Rain 11 1001 81 0 7.7 210 22:20 18.10.2019
5939 Rain 11 1001 81 0 7.7 210 22:20 18.10.2019
5940 Clouds 11 1001 81 10000 9.3 220 21:57 18.10.2019
5941 Clouds 11 1001 81 10000 9.3 220 21:38 18.10.2019
5942 Rain 11 1001 81 0 6.2 200 21:20 18.10.2019
5943 Rain 11 1001 81 10000 8.2 220 20:56 18.10.2019
5944 Rain 11 1001 81 10000 8.2 220 20:38 18.10.2019
5945 Rain 12 1000 87 0 5.7 190 20:20 18.10.2019
5946 Rain 12 1000 87 10000 7.2 220 19:55 18.10.2019
5947 Rain 12 1000 87 10000 7.2 220 19:37 18.10.2019
5948 Rain 11 1000 87 0 5.1 190 19:19 18.10.2019
5949 Rain 11 1000 87 10000 6.7 200 18:43 18.10.2019
5950 Rain 11 999 87 10000 5.1 200 18:24 18.10.2019
5951 Rain 11 999 87 10000 5.1 200 18:24 18.10.2019
5952 Rain 11 999 87 10000 5.1 200 18:24 18.10.2019
5953 Rain 12 1000 87 10000 7.7 230 17:59 18.10.2019
5954 Rain 12 1000 87 10000 7.7 230 17:38 18.10.2019
5955 Thunderstorm 13 999 87 5000 5.7 160 17:20 18.10.2019
5956 Thunderstorm 13 999 87 5000 5.7 160 17:20 18.10.2019
5957 Thunderstorm 13 999 82 10000 4.1 160 16:44 18.10.2019
5958 Thunderstorm 13 999 82 10000 4.1 160 16:44 18.10.2019
5959 Thunderstorm 13 999 82 10000 4.1 160 16:43 18.10.2019
5960 Thunderstorm 13 999 82 10000 4.1 160 16:43 18.10.2019
5961 Thunderstorm 15 1000 82 5000 2.6 150 16:21 18.10.2019
5962 Clouds 15 1001 82 10000 4.1 180 15:58 18.10.2019
5963 Clouds 15 1001 82 10000 4.1 180 15:39 18.10.2019
5964 Rain 15 1001 87 10000 4.6 150 15:20 18.10.2019
5965 Clouds 15 1001 82 7000 5.7 180 14:57 18.10.2019
5966 Clouds 15 1001 82 7000 5.7 180 14:38 18.10.2019
5967 Rain 15 1002 87 10000 5.1 150 14:19 18.10.2019
5968 Rain 15 1003 87 7000 5.7 170 13:57 18.10.2019
5969 Rain 14 1003 87 7000 5.7 170 13:39 18.10.2019
5970 Rain 14 1003 87 10000 5.7 180 13:20 18.10.2019
5971 Drizzle 14 1004 87 7000 5.7 180 12:55 18.10.2019
5972 Drizzle 14 1004 87 7000 5.7 180 12:37 18.10.2019
5973 Rain 13 1004 93 8000 4.6 140 12:19 18.10.2019
5974 Rain 13 1004 93 7000 5.1 170 11:42 18.10.2019
5975 Clouds 13 1005 87 10000 3.1 170 11:21 18.10.2019
5976 Clouds 13 1005 87 10000 3.1 170 10:59 18.10.2019
5977 Clouds 13 1005 93 9000 4.1 190 10:41 18.10.2019
5978 Mist 12 1005 93 5000 3.6 160 10:22 18.10.2019
5979 Mist 12 1005 93 9000 4.1 180 09:58 18.10.2019
5980 Mist 12 1005 93 9000 4.1 180 09:40 18.10.2019
5981 Mist 12 1006 93 8000 2.6 180 09:20 18.10.2019
5982 Mist 11 1006 100 9000 2.6 190 08:57 18.10.2019
5983 Fog 11 1005 93 8000 2.1 180 08:38 18.10.2019
5984 Fog 11 1006 93 8000 2.6 180 08:20 18.10.2019
5985 Fog 11 1006 93 9000 3.6 210 07:41 18.10.2019
5986 Fog 11 1006 93 10000 2.1 180 07:19 18.10.2019
5987 Clouds 11 1006 100 7000 2.6 200 06:39 18.10.2019
5988 Drizzle 11 1007 100 6000 1 0 06:20 18.10.2019
5989 Drizzle 11 1007 100 5000 2.6 200 05:54 18.10.2019
5990 Drizzle 11 1007 93 0 3.6 150 05:21 18.10.2019
5991 Drizzle 11 1007 100 7000 2.1 160 03:56 18.10.2019
5992 Rain 11 1008 93 0 4.1 130 03:24 18.10.2019
5993 Rain 11 1008 100 9000 3.1 140 02:33 18.10.2019
5994 Rain 11 1008 93 10000 3.1 140 01:44 18.10.2019
5995 Rain 11 1009 100 0 3.1 140 01:26 18.10.2019
5996 Clouds 11 1008 100 10000 4.1 150 00:44 18.10.2019
5997 Clouds 10 1009 100 0 3.1 130 00:21 18.10.2019
5998 Clouds 10 1009 100 0 3.1 130 00:21 18.10.2019
5999 Clouds 10 1009 100 10000 4.1 170 23:55 17.10.2019
6000 Clouds 10 1009 100 10000 4.1 170 23:36 17.10.2019
6001 Clouds 10 1010 93 0 3.1 140 23:18 17.10.2019
6002 Clouds 10 1010 100 10000 4.1 180 22:54 17.10.2019
6003 Clouds 10 1010 100 10000 4.1 180 22:36 17.10.2019
6004 Clouds 10 1010 87 0 2.1 160 22:18 17.10.2019
6005 Clouds 10 1010 100 10000 4.6 200 21:55 17.10.2019
6006 Clouds 10 1010 100 10000 4.6 200 21:55 17.10.2019
6007 Clouds 10 1010 100 10000 4.6 200 21:37 17.10.2019
6008 Clouds 11 1010 87 0 2.6 160 21:19 17.10.2019
6009 Clouds 11 1009 100 10000 3.6 200 20:56 17.10.2019
6010 Clouds 11 1009 100 10000 3.6 200 20:56 17.10.2019
6011 Clouds 11 1009 100 10000 3.6 200 20:56 17.10.2019
6012 Clouds 11 1009 100 10000 3.6 200 20:37 17.10.2019
6013 Clouds 11 1010 87 0 2.1 150 20:18 17.10.2019
6014 Clouds 11 1009 93 10000 4.1 210 19:42 17.10.2019
6015 Clouds 12 1009 87 0 1 180 19:20 17.10.2019
6016 Clouds 12 1009 87 10000 4.1 250 18:59 17.10.2019
6017 Clouds 12 1009 87 10000 4.1 250 18:39 17.10.2019
6018 Clouds 13 1009 76 10000 2.6 250 18:21 17.10.2019
6019 Clouds 14 1009 71 10000 6.7 260 17:54 17.10.2019
6020 Clouds 14 1009 71 10000 6.7 260 17:36 17.10.2019
6021 Clouds 14 1009 76 10000 5.1 240 17:18 17.10.2019
6022 Clouds 14 1009 82 10000 5.7 250 16:41 17.10.2019
6023 Clouds 14 1008 77 10000 3.6 230 16:19 17.10.2019
6024 Clouds 14 1008 82 10000 5.1 260 15:59 17.10.2019
6025 Clouds 14 1008 82 10000 5.1 260 15:40 17.10.2019
6026 Clouds 14 1008 82 10000 2.6 220 15:20 17.10.2019
6027 Clouds 14 1008 82 10000 5.1 250 14:58 17.10.2019
6028 Clouds 14 1008 82 10000 5.1 250 14:39 17.10.2019
6029 Clouds 14 1008 87 10000 2.6 230 14:20 17.10.2019
6030 Clouds 14 1008 82 10000 4.1 260 13:41 17.10.2019
6031 Clouds 14 1007 93 10000 2.6 250 13:21 17.10.2019
6032 Clouds 14 1007 93 8000 4.6 260 12:58 17.10.2019
6033 Clouds 14 1007 93 8000 4.6 260 12:40 17.10.2019
6034 Clouds 14 1007 93 7000 2.6 260 12:20 17.10.2019
6035 Clouds 14 1007 100 10000 4.1 280 11:57 17.10.2019
6036 Clouds 14 1007 100 10000 4.1 280 11:38 17.10.2019
6037 Drizzle 14 1007 93 2500 2.6 220 11:18 17.10.2019
6038 Drizzle 14 1006 93 3000 4.1 230 10:42 17.10.2019
6039 Drizzle 14 1006 93 4500 3.1 180 10:20 17.10.2019
6040 Drizzle 14 1006 93 4500 3.1 180 09:59 17.10.2019
6041 Drizzle 13 1006 93 3000 4.6 210 09:41 17.10.2019
6042 Drizzle 13 1006 93 3000 4.6 210 09:41 17.10.2019
6043 Drizzle 13 1005 93 2500 2.6 180 09:21 17.10.2019
6044 Drizzle 13 1005 93 3000 4.1 200 08:58 17.10.2019
6045 Drizzle 13 1005 93 3000 4.1 200 08:58 17.10.2019
6046 Drizzle 13 1005 93 3000 4.1 200 08:39 17.10.2019
6047 Drizzle 13 1005 100 4000 3.1 170 08:20 17.10.2019
6048 Drizzle 13 1005 100 3500 4.6 200 07:54 17.10.2019
6049 -273 0 0 0 0 0 07:54 17.10.2019
6050 Drizzle 13 1005 100 3500 4.6 200 07:36 17.10.2019
6051 Rain 13 1005 100 5000 3.1 160 07:18 17.10.2019
6052 Rain 13 1005 100 0 5.1 190 06:39 17.10.2019
6053 Rain 13 1005 100 0 3.6 150 06:20 17.10.2019
6054 Rain 13 1005 100 0 5.7 190 05:51 17.10.2019
6055 Rain 13 1005 93 0 3.6 140 05:31 17.10.2019
6056 Rain 13 1005 93 0 5.1 180 04:52 17.10.2019
6057 Rain 12 1005 100 0 5.1 180 03:54 17.10.2019
6058 Clouds 12 1006 93 0 4.1 180 02:36 17.10.2019
6059 Clouds 11 1006 93 0 5.1 170 00:57 17.10.2019
6060 Clouds 10 1006 93 0 5.1 170 00:38 17.10.2019
6061 Clouds 10 1007 93 0 3.1 140 00:18 17.10.2019
6062 Clouds 10 1007 93 0 5.7 180 23:42 16.10.2019
6063 Mist 10 1007 93 0 3.1 120 23:21 16.10.2019
6064 Mist 10 1007 93 0 3.1 120 23:21 16.10.2019
6065 Clouds 10 1007 93 0 6.2 190 22:56 16.10.2019
6066 Clouds 10 1007 93 0 6.2 190 22:37 16.10.2019
6067 Fog 10 1007 93 9000 2.6 130 22:18 16.10.2019
6068 Clouds 10 1007 93 0 4.6 200 21:56 16.10.2019
6069 Clouds 10 1007 93 0 4.6 200 21:37 16.10.2019
6070 Clouds 10 1007 93 8000 2.1 190 21:19 16.10.2019
6071 Clouds 11 1007 93 0 3.1 210 20:57 16.10.2019
6072 Clouds 11 1007 93 0 3.1 210 20:38 16.10.2019
6073 Clouds 11 1007 93 0 3.6 240 20:20 16.10.2019
6074 Clouds 12 1007 87 0 3.6 240 19:57 16.10.2019
6075 Clouds 12 1007 87 0 3.6 240 19:38 16.10.2019
6076 Clouds 12 1007 93 0 3.1 240 19:20 16.10.2019
6077 Clouds 13 1007 87 7000 4.1 240 18:39 16.10.2019
6078 Rain 13 1006 87 10000 2.6 240 18:19 16.10.2019
6079 Clouds 14 1006 87 10000 6.7 260 17:58 16.10.2019
6080 Clouds 14 1006 87 10000 6.7 260 17:58 16.10.2019
6081 Clouds 14 1006 87 10000 6.7 260 17:39 16.10.2019
6082 Clouds 14 1007 82 10000 5.7 250 17:21 16.10.2019
6083 Clouds 14 1006 93 10000 2.1 250 16:59 16.10.2019
6084 Clouds 14 1006 87 10000 4.1 270 16:41 16.10.2019
6085 -273 0 0 0 0 0 16:41 16.10.2019
6086 Clouds 14 1006 87 10000 2.1 250 16:21 16.10.2019
6087 -273 0 0 0 0 0 15:57 16.10.2019
6088 Clouds 14 1006 93 10000 4.6 270 15:55 16.10.2019
6089 Clouds 14 1006 93 10000 4.6 270 15:36 16.10.2019
6090 Clouds 13 1007 93 9000 2.6 270 15:18 16.10.2019
6091 Clouds 13 1007 93 9000 2.6 270 15:18 16.10.2019
6092 Clouds 13 1006 100 10000 4.1 270 14:55 16.10.2019
6093 Clouds 13 1006 100 10000 4.1 270 14:37 16.10.2019
6094 Clouds 13 1006 93 8000 2.6 280 14:18 16.10.2019
6095 Clouds 13 1006 100 8000 7.2 280 13:55 16.10.2019
6096 Clouds 13 1006 100 8000 7.2 280 13:36 16.10.2019
6097 Drizzle 13 1006 93 4500 1.5 240 13:18 16.10.2019
6098 Rain 13 1006 93 3000 3.6 270 12:40 16.10.2019
6099 Drizzle 13 1006 93 2500 2.1 250 12:18 16.10.2019
6100 Drizzle 13 1006 100 1200 3.6 260 11:42 16.10.2019
6101 Drizzle 13 1006 100 4000 1.5 310 11:18 16.10.2019
6102 Rain 13 1006 100 4000 2.1 260 10:39 16.10.2019
6103 Rain 13 1006 100 6000 0.5 250 10:20 16.10.2019
6104 Rain 13 1006 100 4000 2.1 290 09:56 16.10.2019
6105 Rain 13 1006 100 4000 2.1 290 09:38 16.10.2019
6106 Rain 13 1005 100 2500 1.5 250 09:19 16.10.2019
6107 Rain 13 1005 100 2000 2.1 260 08:43 16.10.2019
6108 Rain 13 1005 100 2000 1.5 0 08:24 16.10.2019
6109 Rain 13 1005 100 1500 2.6 260 07:55 16.10.2019
6110 Rain 13 1005 100 1500 2.6 260 07:37 16.10.2019
6111 Rain 13 1005 100 1000 0.5 200 07:18 16.10.2019
6112 Rain 13 1005 100 0 1 230 06:39 16.10.2019
6113 Rain 13 1005 100 0 1 230 06:39 16.10.2019
6114 Rain 13 1005 100 0 1 0 05:54 16.10.2019
6115 Mist 13 1006 100 0 2.6 250 03:27 16.10.2019
6116 Rain 13 1006 100 0 2.1 270 02:49 16.10.2019
6117 Mist 13 1006 100 4000 0.5 190 01:19 16.10.2019
6118 Clouds 13 1006 100 0 2.1 260 00:52 16.10.2019
6119 Clouds 13 1006 100 6000 1.5 200 00:32 16.10.2019
6120 Clouds 13 1005 100 0 0.5 0 23:42 15.10.2019
6121 Clouds 13 1005 100 0 0.5 0 23:42 15.10.2019
6122 Fog 12 1006 100 0 1 0 23:22 15.10.2019
6123 Clouds 13 1006 100 0 2.1 250 22:57 15.10.2019
6124 Clouds 13 1006 100 0 2.1 250 22:38 15.10.2019
6125 Fog 13 1006 93 6000 0.5 90 22:20 15.10.2019
6126 Clouds 13 1006 93 0 2.1 280 21:57 15.10.2019
6127 Clouds 13 1006 93 0 2.1 280 21:38 15.10.2019
6128 Clouds 13 1006 93 0 1 250 21:20 15.10.2019
6129 Clouds 14 1006 93 0 2.6 270 20:58 15.10.2019
6130 Clouds 14 1006 93 0 2.6 270 20:40 15.10.2019
6131 Clouds 14 1006 93 0 2.6 270 20:40 15.10.2019
6132 Clouds 14 1006 93 10000 1 280 20:21 15.10.2019
6133 Clouds 14 1006 87 0 1 220 19:59 15.10.2019
6134 Clouds 14 1006 87 0 3.6 260 19:41 15.10.2019
6135 Clouds 14 1006 87 0 3.6 260 19:41 15.10.2019
6136 Clouds 15 1005 93 9000 1 210 19:20 15.10.2019
6137 Clouds 15 1005 87 10000 4.1 270 18:55 15.10.2019
6138 Clouds 15 1005 87 10000 4.1 270 18:55 15.10.2019
6139 Clouds 16 1005 87 10000 4.1 270 18:37 15.10.2019
6140 Clouds 16 1005 87 10000 1.5 180 18:19 15.10.2019
6141 Clouds 17 1005 77 10000 5.1 260 17:42 15.10.2019
6142 -273 0 0 0 0 0 17:41 15.10.2019
6143 Clouds 17 1005 77 10000 5.1 260 17:41 15.10.2019
6144 Clouds 17 1005 87 10000 3.6 230 17:21 15.10.2019
6145 Clouds 18 1005 77 10000 5.1 270 16:59 15.10.2019
6146 Clouds 18 1005 77 10000 5.1 270 16:40 15.10.2019
6147 Clouds 18 1005 82 10000 4.1 210 16:21 15.10.2019
6148 Clouds 18 1005 77 10000 1.5 240 15:55 15.10.2019
6149 Clouds 18 1005 77 10000 1.5 240 15:37 15.10.2019
6150 Clouds 18 1005 82 10000 2.6 190 15:19 15.10.2019
6151 Clouds 18 1005 72 10000 1.5 0 14:54 15.10.2019
6152 Clouds 18 1005 72 10000 1.5 0 14:36 15.10.2019
6153 Clouds 18 1005 82 10000 3.1 180 14:18 15.10.2019
6154 Clouds 17 1005 77 10000 3.6 230 13:43 15.10.2019
6155 Clouds 17 1005 87 10000 4.6 140 13:20 15.10.2019
6156 Clouds 16 1005 82 10000 3.6 180 12:46 15.10.2019
6157 Clouds 15 1005 87 10000 7.2 120 12:23 15.10.2019
6158 Clouds 15 1005 82 10000 4.1 130 11:59 15.10.2019
6159 Clouds 15 1005 82 10000 4.1 130 11:41 15.10.2019
6160 Clouds 14 1006 93 10000 6.2 120 11:20 15.10.2019
6161 Clouds 13 1006 93 0 4.1 140 10:46 15.10.2019
6162 Clear 13 1006 93 10000 2.6 130 10:24 15.10.2019
6163 Clouds 12 1006 93 0 4.6 140 09:59 15.10.2019
6164 Clouds 12 1006 93 0 4.6 140 09:40 15.10.2019
6165 Clouds 12 1006 93 10000 8.2 120 09:21 15.10.2019
6166 Clouds 12 1006 93 0 6.7 140 08:58 15.10.2019
6167 -273 0 0 0 0 0 08:40 15.10.2019
6168 Clouds 12 1006 87 10000 8.7 120 08:20 15.10.2019
6169 Clouds 11 1006 93 0 6.7 130 07:44 15.10.2019
6170 Clouds 11 1006 93 10000 10.3 120 07:23 15.10.2019
6171 Clouds 11 1006 93 10000 10.3 120 07:23 15.10.2019
6172 Clouds 12 1006 93 0 8.2 130 06:58 15.10.2019
6173 Clouds 12 1006 93 0 8.2 130 06:39 15.10.2019
6174 Clouds 12 1007 93 0 7.7 130 05:56 15.10.2019
6175 Clouds 12 1007 93 0 7.7 130 05:37 15.10.2019
6176 Clouds 12 1008 93 0 9.3 130 04:53 15.10.2019
6177 Clouds 12 1009 87 0 9.8 110 04:19 15.10.2019
6178 Clouds 12 1009 87 0 8.2 130 03:35 15.10.2019
6179 Rain 12 1010 87 0 7.7 110 02:19 15.10.2019
6180 Rain 12 1010 93 0 9.3 130 01:41 15.10.2019
6181 Rain 12 1010 93 0 9.8 100 01:18 15.10.2019
6182 Rain 12 1012 93 0 6.7 90 00:26 15.10.2019
6183 Rain 12 1011 93 0 5.7 110 23:59 14.10.2019
6184 Rain 12 1011 93 0 5.7 110 23:39 14.10.2019
6185 Rain 12 1012 87 0 6.2 100 23:19 14.10.2019
6186 Rain 12 1012 93 0 7.7 130 22:40 14.10.2019
6187 Rain 12 1013 87 0 4.6 110 22:21 14.10.2019
6188 Rain 12 1013 82 0 3.6 160 21:59 14.10.2019
6189 Rain 13 1013 82 0 3.6 160 21:40 14.10.2019
6190 Rain 13 1013 76 0 4.6 110 21:21 14.10.2019
6191 Rain 13 1013 87 0 5.1 130 20:59 14.10.2019
6192 Rain 13 1013 87 0 5.1 130 20:39 14.10.2019
6193 Rain 13 1013 76 0 5.1 100 20:20 14.10.2019
6194 Rain 13 1013 87 0 4.6 120 19:58 14.10.2019
6195 Rain 13 1013 87 0 4.6 120 19:40 14.10.2019
6196 Rain 13 1014 87 0 2.6 110 19:22 14.10.2019
6197 Rain 13 1014 87 10000 3.1 110 18:58 14.10.2019
6198 Rain 13 1014 87 10000 3.1 110 18:38 14.10.2019
6199 Rain 14 1014 82 10000 2.1 110 18:18 14.10.2019
6200 Clouds 14 1014 82 10000 2.1 110 17:44 14.10.2019
6201 Clear 14 1014 82 10000 3.1 80 17:26 14.10.2019
6202 Clouds 15 1014 82 10000 1.5 120 16:59 14.10.2019
6203 Clouds 15 1014 82 10000 1.5 120 16:40 14.10.2019
6204 Clear 15 1014 71 10000 1 60 16:20 14.10.2019
6205 Clouds 15 1014 72 10000 1 0 15:42 14.10.2019
6206 Clouds 15 1014 67 10000 1 280 15:22 14.10.2019
6207 Clouds 15 1014 67 10000 0.5 0 14:56 14.10.2019
6208 Clouds 15 1014 67 10000 0.5 0 14:38 14.10.2019
6209 Clouds 15 1014 71 10000 3.1 350 14:19 14.10.2019
6210 Clouds 15 1014 67 10000 2.1 290 13:43 14.10.2019
6211 Clouds 15 1014 76 10000 3.1 320 13:21 14.10.2019
6212 Clouds 15 1014 72 10000 4.6 310 12:55 14.10.2019
6213 Clouds 15 1014 72 10000 4.6 310 12:37 14.10.2019
6214 Clouds 15 1014 76 10000 3.1 290 12:18 14.10.2019
6215 Clouds 15 1014 76 10000 3.1 290 12:18 14.10.2019
6216 Clouds 15 1014 76 10000 3.1 290 12:18 14.10.2019
6217 Clouds 14 1014 76 10000 6.2 290 11:44 14.10.2019
6218 Clouds 14 1014 87 10000 4.1 250 11:26 14.10.2019
6219 Clouds 14 1012 76 10000 6.7 290 10:57 14.10.2019
6220 Clouds 14 1012 76 10000 6.7 290 10:57 14.10.2019
6221 Clouds 14 1012 76 10000 6.7 290 10:38 14.10.2019
6222 Rain 13 1012 76 10000 3.6 290 10:19 14.10.2019
6223 Clouds 13 1012 82 10000 8.2 280 09:42 14.10.2019
6224 Clouds 13 1011 76 10000 6.2 280 09:21 14.10.2019
6225 Clouds 13 1010 82 10000 10.8 290 08:51 14.10.2019
6226 Clouds 13 1009 82 10000 6.2 250 08:23 14.10.2019
6227 Clouds 13 1009 82 10000 10.8 280 07:59 14.10.2019
6228 Clouds 13 1009 82 10000 10.8 280 07:39 14.10.2019
6229 Clouds 13 1008 82 10000 7.2 250 07:18 14.10.2019
6230 Clouds 13 1008 87 10000 11.3 270 06:36 14.10.2019
6231 Clouds 13 1007 82 0 7.7 250 06:18 14.10.2019
6232 Clouds 13 1007 82 10000 12.9 260 05:42 14.10.2019
6233 Clouds 14 1006 76 10000 11.3 250 04:42 14.10.2019
6234 Clouds 14 1004 82 0 7.7 240 03:27 14.10.2019
6235 Clouds 15 1005 87 10000 12.9 250 02:42 14.10.2019
6236 Clouds 16 1003 82 0 7.7 240 01:23 14.10.2019
6237 Clouds 16 1003 82 10000 11.8 250 00:53 14.10.2019
6238 Rain 17 1003 77 0 7.2 240 00:19 14.10.2019
6239 Clouds 17 1003 82 10000 11.3 250 23:45 13.10.2019
6240 Clouds 17 1002 87 10000 9.8 230 23:20 13.10.2019
6241 Clouds 18 1002 82 10000 10.3 260 22:58 13.10.2019
6242 Clouds 18 1002 82 10000 10.3 260 22:40 13.10.2019
6243 Rain 18 1002 93 0 6.2 250 22:21 13.10.2019
6244 Rain 18 1001 88 10000 10.3 220 21:58 13.10.2019
6245 Rain 18 1001 88 10000 10.3 220 21:37 13.10.2019
6246 Rain 17 1001 93 0 4.1 150 21:19 13.10.2019
6247 Rain 17 1002 100 8000 6.7 180 20:57 13.10.2019
6248 Rain 17 1002 100 8000 6.7 180 20:57 13.10.2019
6249 Rain 17 1002 100 8000 6.7 180 20:38 13.10.2019
6250 -273 0 0 0 0 0 20:20 13.10.2019
6251 Thunderstorm 16 1003 100 3500 6.2 170 19:58 13.10.2019
6252 Thunderstorm 16 1003 100 3500 6.2 170 19:39 13.10.2019
6253 Rain 15 1004 93 4000 6.2 140 19:21 13.10.2019
6254 Rain 15 1004 100 3000 5.7 150 18:57 13.10.2019
6255 -273 0 0 0 0 0 18:56 13.10.2019
6256 Rain 15 1004 100 3000 5.7 150 18:56 13.10.2019
6257 Rain 15 1004 100 3000 5.7 150 18:36 13.10.2019
6258 Mist 15 1005 100 6000 5.1 130 18:18 13.10.2019
6259 Mist 14 1005 93 3800 4.6 140 17:44 13.10.2019
6260 Rain 14 1006 93 7000 5.7 120 17:26 13.10.2019
6261 Rain 14 1006 93 7000 5.7 120 17:25 13.10.2019
6262 Rain 14 1006 100 4300 3.1 120 16:56 13.10.2019
6263 Mist 14 1006 93 10000 5.7 120 16:36 13.10.2019
6264 Mist 13 1006 93 4000 2.6 110 16:18 13.10.2019
6265 Mist 13 1007 100 4300 4.6 130 15:55 13.10.2019
6266 Mist 13 1007 100 4300 4.6 130 15:55 13.10.2019
6267 Drizzle 13 1008 100 10000 6.7 120 15:36 13.10.2019
6268 Drizzle 12 1008 93 5000 5.7 120 15:18 13.10.2019
6269 Drizzle 12 1008 93 4500 5.1 130 14:56 13.10.2019
6270 Drizzle 12 1008 93 4500 5.1 130 14:37 13.10.2019
6271 Drizzle 12 1009 93 0 5.7 120 14:18 13.10.2019
6272 Drizzle 12 1009 100 4800 4.1 120 13:39 13.10.2019
6273 Drizzle 12 1009 100 8000 4.1 130 13:21 13.10.2019
6274 Drizzle 12 1009 93 8000 3.1 130 12:57 13.10.2019
6275 Drizzle 12 1009 93 8000 3.1 130 12:39 13.10.2019
6276 Drizzle 11 1010 93 0 3.1 130 12:20 13.10.2019
6277 Drizzle 11 1009 100 8000 3.6 140 11:58 13.10.2019
6278 Drizzle 11 1009 100 8000 3.6 140 11:39 13.10.2019
6279 Clouds 11 1010 93 10000 1.5 170 11:20 13.10.2019
6280 Drizzle 11 1010 93 6000 2.6 170 10:43 13.10.2019
6281 Rain 11 1010 100 0 1.5 140 10:24 13.10.2019
6282 Rain 11 1010 93 5000 1.5 0 09:59 13.10.2019
6283 Rain 11 1010 93 5000 1.5 0 09:59 13.10.2019
6284 Rain 11 1010 93 5000 1.5 0 09:39 13.10.2019
6285 Mist 11 1010 93 0 1.5 170 09:20 13.10.2019
6286 Mist 11 1009 93 5000 3.6 190 08:43 13.10.2019
6287 Rain 11 1009 93 5000 4.1 200 08:25 13.10.2019
6288 Rain 11 1009 93 5000 4.1 200 08:25 13.10.2019
6289 Rain 11 1009 93 4800 4.6 210 07:51 13.10.2019
6290 Drizzle 11 1009 93 0 2.6 180 07:33 13.10.2019
6291 Rain 11 1009 100 0 4.6 200 06:53 13.10.2019
6292 Drizzle 11 1009 93 0 3.1 180 06:23 13.10.2019
6293 Clouds 11 1009 93 0 2.6 190 05:19 13.10.2019
6294 Clouds 11 1009 93 0 2.6 190 04:34 13.10.2019
6295 Clouds 11 1009 93 0 2.6 190 04:34 13.10.2019
6296 Clouds 11 1009 93 0 3.6 200 04:34 13.10.2019
6297 Rain 11 1009 93 0 3.1 200 03:24 13.10.2019
6298 Rain 12 1009 93 0 3.1 200 02:30 13.10.2019
6299 Rain 11 1009 93 0 4.6 230 01:36 13.10.2019
6300 Rain 11 1009 93 0 4.6 240 00:56 13.10.2019
6301 Rain 11 1009 93 0 4.6 240 00:56 13.10.2019
6302 Rain 12 1009 93 0 4.6 240 00:37 13.10.2019
6303 Rain 12 1009 93 0 5.1 240 00:19 13.10.2019
6304 Rain 12 1009 93 0 5.1 240 23:42 12.10.2019
6305 Rain 12 1009 93 0 5.1 240 23:42 12.10.2019
6306 Rain 12 1008 87 0 2.6 220 23:23 12.10.2019
6307 Clouds 12 1008 87 0 5.1 230 22:59 12.10.2019
6308 Clouds 12 1008 87 0 5.1 230 22:40 12.10.2019
6309 Clouds 12 1008 93 0 2.1 220 22:22 12.10.2019
6310 Clouds 12 1008 93 0 5.1 230 21:58 12.10.2019
6311 Clouds 12 1008 93 0 5.1 230 21:40 12.10.2019
6312 Clouds 12 1008 93 0 5.1 230 21:40 12.10.2019
6313 Clouds 12 1007 87 0 2.6 230 21:21 12.10.2019
6314 Clouds 12 1007 87 0 4.6 250 20:54 12.10.2019
6315 Clouds 12 1007 87 0 4.6 250 20:54 12.10.2019
6316 Clouds 12 1007 87 0 4.6 250 20:54 12.10.2019
6317 Rain 13 1007 87 0 4.6 250 20:36 12.10.2019
6318 Rain 13 1007 87 0 3.6 240 20:18 12.10.2019
6319 Rain 13 1007 87 0 6.2 240 19:36 12.10.2019
6320 Rain 13 1007 87 0 3.1 230 19:18 12.10.2019
6321 Rain 13 1007 87 10000 6.2 250 18:44 12.10.2019
6322 Clouds 13 1006 82 10000 4.6 250 18:26 12.10.2019
6323 Clouds 13 1006 93 10000 7.2 250 17:46 12.10.2019
6324 Rain 13 1006 82 0 5.1 230 17:25 12.10.2019
6325 Clouds 13 1006 82 10000 8.2 250 16:59 12.10.2019
6326 Clouds 14 1006 82 10000 8.2 250 16:40 12.10.2019
6327 Clouds 13 1005 82 10000 5.7 230 16:21 12.10.2019
6328 Clouds 13 1006 87 10000 7.2 240 15:57 12.10.2019
6329 Clouds 13 1006 87 10000 7.2 240 15:38 12.10.2019
6330 Clouds 13 1005 82 10000 4.6 230 15:19 12.10.2019
6331 Clouds 13 1005 82 10000 6.7 230 14:41 12.10.2019
6332 Clouds 13 1005 82 10000 4.6 230 14:20 12.10.2019
6333 Clouds 14 1005 82 10000 8.7 250 13:52 12.10.2019
6334 Clouds 14 1007 76 10000 5.1 240 13:33 12.10.2019
6335 Rain 13 1005 82 10000 8.7 250 12:57 12.10.2019
6336 Rain 13 1005 82 10000 8.7 250 12:38 12.10.2019
6337 Clouds 13 1004 82 10000 5.7 230 12:20 12.10.2019
6338 Clouds 13 1004 82 10000 7.2 240 11:47 12.10.2019
6339 Rain 12 1003 76 10000 4.6 230 11:26 12.10.2019
6340 Rain 12 1003 82 10000 6.7 240 10:59 12.10.2019
6341 Rain 12 1003 82 10000 6.7 240 10:40 12.10.2019
6342 Rain 12 1002 87 10000 7.7 230 10:22 12.10.2019
6343 Rain 12 1003 87 10000 6.7 230 09:57 12.10.2019
6344 Rain 12 1003 87 10000 6.7 230 09:57 12.10.2019
6345 Rain 12 1003 87 10000 6.7 230 09:39 12.10.2019
6346 Rain 12 1002 87 10000 4.6 230 09:20 12.10.2019
6347 -273 0 0 0 0 0 08:56 12.10.2019
6348 Rain 12 1002 87 10000 7.2 240 08:55 12.10.2019
6349 Rain 11 1002 87 10000 7.2 240 08:36 12.10.2019
6350 Rain 11 1002 87 10000 4.6 230 08:18 12.10.2019
6351 Rain 12 1001 87 10000 3.6 220 07:33 12.10.2019
6352 Rain 12 1002 87 0 7.2 240 06:44 12.10.2019
6353 Rain 12 1001 82 0 8.2 240 05:46 12.10.2019
6354 Rain 13 1001 87 0 5.7 250 04:52 12.10.2019
6355 Clouds 13 1001 93 0 7.2 270 03:57 12.10.2019
6356 Rain 14 1000 93 0 7.7 270 02:57 12.10.2019
6357 Rain 14 999 93 0 7.7 250 01:36 12.10.2019
6358 Rain 14 999 100 0 8.2 250 00:59 12.10.2019
6359 Rain 14 999 100 0 8.2 250 00:39 12.10.2019
6360 Rain 14 999 93 0 11.8 270 23:57 11.10.2019
6361 Rain 14 999 93 0 11.8 270 23:39 11.10.2019
6362 Rain 14 999 93 3500 5.7 240 23:20 11.10.2019
6363 Rain 14 999 93 3500 5.7 240 23:20 11.10.2019
6364 Rain 14 999 93 0 11.8 240 22:40 11.10.2019
6365 Rain 14 998 93 4000 8.7 220 22:21 11.10.2019
6366 Rain 14 999 93 0 12.9 230 21:56 11.10.2019
6367 Rain 14 999 93 0 12.9 230 21:38 11.10.2019
6368 Rain 14 998 93 6000 7.2 220 21:20 11.10.2019
6369 Rain 14 999 93 0 12.9 240 20:44 11.10.2019
6370 Rain 14 1002 87 3500 7.2 220 20:26 11.10.2019
6371 Rain 14 1000 93 0 11.3 230 19:58 11.10.2019
6372 Rain 14 1000 93 0 11.3 230 19:39 11.10.2019
6373 Rain 14 998 93 7000 10.3 230 19:18 11.10.2019
6374 Rain 14 1000 93 1500 11.3 240 18:58 11.10.2019
6375 Rain 14 1000 93 2500 4.1 230 18:38 11.10.2019
6376 Rain 14 1000 93 2500 4.1 230 18:38 11.10.2019
6377 Rain 14 1001 93 1000 10.3 250 18:19 11.10.2019
6378 Rain 14 1001 93 8000 11.3 240 17:58 11.10.2019
6379 Rain 14 1001 93 8000 11.3 240 17:38 11.10.2019
6380 Rain 14 1001 93 8000 10.3 230 17:19 11.10.2019
6381 Rain 14 1001 93 3000 7.7 220 16:58 11.10.2019
6382 Rain 14 1001 93 3000 7.7 220 16:39 11.10.2019
6383 Rain 14 1001 93 8000 6.2 220 16:19 11.10.2019
6384 Rain 14 1002 93 10000 9.3 240 15:41 11.10.2019
6385 Rain 14 1002 93 10000 9.3 240 15:41 11.10.2019
6386 Rain 14 1002 93 10000 9.3 240 15:41 11.10.2019
6387 Rain 14 1004 87 4500 5.7 220 15:20 11.10.2019
6388 Rain 14 1003 93 9000 9.3 240 14:58 11.10.2019
6389 Rain 14 1003 93 9000 9.3 240 14:58 11.10.2019
6390 Rain 14 1003 93 9000 9.3 240 14:39 11.10.2019
6391 Rain 14 1002 93 6000 5.7 220 14:19 11.10.2019
6392 Rain 14 1003 93 4000 9.3 240 13:45 11.10.2019
6393 Rain 14 1006 93 10000 6.7 220 13:25 11.10.2019
6394 Rain 14 1003 93 6000 9.3 230 12:57 11.10.2019
6395 Rain 14 1003 93 6000 9.3 230 12:39 11.10.2019
6396 Rain 14 1003 87 10000 6.2 230 12:20 11.10.2019
6397 Rain 14 1004 87 6000 8.7 240 11:58 11.10.2019
6398 Rain 14 1004 87 6000 8.7 240 11:38 11.10.2019
6399 Rain 14 1004 87 6000 8.7 240 11:38 11.10.2019
6400 Clouds 14 1003 87 10000 5.1 240 11:20 11.10.2019
6401 Rain 14 1004 93 8000 8.7 250 10:55 11.10.2019
6402 Rain 14 1004 93 8000 8.7 250 10:55 11.10.2019
6403 Rain 14 1004 93 8000 8.7 250 10:36 11.10.2019
6404 Rain 13 1003 87 10000 5.1 240 10:18 11.10.2019
6405 Rain 13 1003 93 6000 11.8 270 09:42 11.10.2019
6406 Rain 13 1003 93 8000 11.8 270 09:21 11.10.2019
6407 Rain 13 1002 93 3000 11.3 230 08:59 11.10.2019
6408 Rain 12 1002 93 3000 11.3 230 08:38 11.10.2019
6409 Rain 12 1002 87 10000 7.2 220 08:20 11.10.2019
6410 Rain 12 1002 93 8000 10.3 210 07:53 11.10.2019
6411 Rain 12 1002 93 8000 10.3 210 07:34 11.10.2019
6412 Rain 12 1003 93 0 8.7 210 06:50 11.10.2019
6413 Rain 12 1003 87 0 6.2 220 06:25 11.10.2019
6414 Rain 12 1004 87 0 10.8 230 05:48 11.10.2019
6415 Rain 12 1003 87 0 6.2 210 05:30 11.10.2019
6416 Rain 12 1004 93 0 9.3 230 04:58 11.10.2019
6417 Rain 12 1005 93 0 8.7 220 03:40 11.10.2019
6418 Rain 11 1007 93 0 3.1 190 01:28 11.10.2019
6419 Rain 11 1007 87 0 5.1 210 00:41 11.10.2019
6420 Rain 11 1006 87 0 3.6 220 00:20 11.10.2019
6421 Rain 11 1006 87 0 3.6 220 00:20 11.10.2019
6422 Rain 11 1007 87 0 6.2 230 23:41 10.10.2019
6423 Rain 11 1006 87 0 4.1 230 23:20 10.10.2019
6424 Rain 11 1007 87 0 7.2 250 22:56 10.10.2019
6425 Rain 11 1007 87 0 7.2 250 22:36 10.10.2019
6426 Rain 11 1006 87 10000 3.6 230 22:18 10.10.2019
6427 Rain 11 1007 87 0 7.7 250 21:54 10.10.2019
6428 Clouds 11 1006 87 10000 3.1 230 21:36 10.10.2019
6429 Rain 11 1006 87 10000 4.1 230 21:18 10.10.2019
6430 Rain 11 1006 87 0 7.2 250 20:41 10.10.2019
6431 Clouds 11 1005 93 10000 4.1 240 20:20 10.10.2019
6432 Clouds 11 1005 93 10000 4.1 240 20:20 10.10.2019
6433 Clouds 11 1005 93 10000 4.1 240 20:20 10.10.2019
6434 Rain 11 1006 81 0 9.3 260 19:57 10.10.2019
6435 Rain 11 1006 81 0 9.3 260 19:39 10.10.2019
6436 Rain 11 1005 81 10000 5.1 240 19:19 10.10.2019
6437 Rain 12 1006 81 10000 10.3 260 18:54 10.10.2019
6438 Rain 12 1006 81 10000 10.3 260 18:36 10.10.2019
6439 Rain 12 1006 81 10000 10.3 260 18:36 10.10.2019
6440 Rain 12 1005 82 10000 4.1 240 18:18 10.10.2019
6441 Rain 13 1005 76 10000 10.8 260 17:41 10.10.2019
6442 Rain 13 1005 76 10000 10.8 260 17:41 10.10.2019
6443 Clouds 13 1004 82 10000 3.6 230 17:20 10.10.2019
6444 Clouds 13 1004 71 10000 7.7 250 16:58 10.10.2019
6445 Clouds 13 1004 71 10000 7.7 250 16:40 10.10.2019
6446 Rain 13 1004 76 10000 5.7 230 16:21 10.10.2019
6447 Rain 13 1004 76 8000 7.7 250 15:43 10.10.2019
6448 Rain 12 1005 81 10000 7.7 230 15:25 10.10.2019
6449 Rain 12 1004 81 10000 7.2 230 14:59 10.10.2019
6450 Rain 12 1004 81 10000 7.2 230 14:38 10.10.2019
6451 Rain 12 1004 81 10000 7.2 230 14:38 10.10.2019
6452 Rain 12 1005 87 10000 7.2 250 14:19 10.10.2019
6453 Thunderstorm 12 1004 81 8000 8.2 230 13:59 10.10.2019
6454 Thunderstorm 12 1004 81 8000 8.2 230 13:40 10.10.2019
6455 Rain 12 1003 82 10000 5.7 210 13:19 10.10.2019
6456 Rain 12 1003 82 10000 5.7 210 13:19 10.10.2019
6457 Rain 12 1004 81 10000 7.2 230 12:56 10.10.2019
6458 Rain 12 1004 81 10000 7.2 230 12:38 10.10.2019
6459 Rain 11 1003 82 10000 5.7 210 12:19 10.10.2019
6460 Rain 11 1003 87 10000 5.7 210 11:55 10.10.2019
6461 Rain 11 1003 87 10000 5.7 210 11:36 10.10.2019
6462 Rain 11 1003 81 10000 2.1 230 11:18 10.10.2019
6463 Rain 11 1003 87 10000 4.6 210 10:44 10.10.2019
6464 Rain 10 1003 93 10000 4.6 260 10:25 10.10.2019
6465 Rain 10 1003 93 6000 5.7 230 09:56 10.10.2019
6466 Rain 10 1003 93 6000 5.7 230 09:37 10.10.2019
6467 Rain 9 1001 87 10000 3.1 210 09:19 10.10.2019
6468 Clouds 9 1001 93 10000 5.1 220 08:41 10.10.2019
6469 Rain 9 1002 87 5000 7.2 230 08:23 10.10.2019
6470 Rain 9 1001 93 10000 5.7 220 07:58 10.10.2019
6471 Rain 9 1001 93 10000 5.7 220 07:40 10.10.2019
6472 Rain 9 1000 93 10000 3.6 210 07:20 10.10.2019
6473 Rain 9 1000 100 0 5.7 210 06:45 10.10.2019
6474 Rain 9 1002 93 5000 3.6 230 06:24 10.10.2019
6475 Rain 9 1000 87 0 3.1 200 05:24 10.10.2019
6476 Rain 9 1000 100 0 5.1 210 04:37 10.10.2019
6477 Rain 9 999 93 0 3.6 210 03:27 10.10.2019
6478 Rain 9 1000 93 0 4.6 210 01:42 10.10.2019
6479 Rain 9 999 87 0 3.6 200 01:24 10.10.2019
6480 Rain 9 1000 93 0 6.2 210 00:53 10.10.2019
6481 Rain 9 1000 93 0 5.1 210 00:21 10.10.2019
6482 Rain 9 1000 93 0 5.1 210 23:39 09.10.2019
6483 Rain 9 999 87 0 3.1 190 23:20 09.10.2019
6484 Rain 10 1000 93 0 4.6 220 22:44 09.10.2019
6485 Clouds 10 1000 93 10000 2.6 190 22:24 09.10.2019
6486 Clouds 10 1000 93 10000 2.6 190 21:59 09.10.2019
6487 Rain 10 1000 93 0 4.6 220 21:40 09.10.2019
6488 Rain 10 1000 87 10000 2.6 230 21:20 09.10.2019
6489 Rain 10 1000 93 0 3.6 250 20:56 09.10.2019
6490 Rain 10 1000 93 0 3.6 250 20:38 09.10.2019
6491 Rain 10 1000 93 0 3.6 250 20:38 09.10.2019
6492 Rain 11 1000 87 7000 4.1 230 20:19 09.10.2019
6493 Rain 11 1000 93 0 4.1 250 19:58 09.10.2019
6494 Rain 11 1000 93 0 4.1 250 19:39 09.10.2019
6495 Rain 11 1000 81 10000 3.1 200 19:20 09.10.2019
6496 Rain 12 1000 87 8000 5.7 220 18:38 09.10.2019
6497 Rain 12 1000 82 10000 3.6 200 18:20 09.10.2019
6498 Rain 13 1000 82 10000 5.7 230 17:57 09.10.2019
6499 Rain 13 1000 82 10000 5.7 230 17:37 09.10.2019
6500 Clouds 13 1000 82 10000 4.6 210 17:19 09.10.2019
6501 Clouds 13 1000 82 10000 5.7 230 16:55 09.10.2019
6502 Clouds 13 1000 82 10000 4.1 210 16:37 09.10.2019
6503 Rain 13 1001 82 10000 7.2 220 16:18 09.10.2019
6504 Rain 13 1001 82 10000 7.7 230 15:55 09.10.2019
6505 Rain 13 1001 82 10000 7.7 230 15:55 09.10.2019
6506 Rain 13 1001 82 10000 7.7 230 15:36 09.10.2019
6507 Clouds 13 1000 82 10000 4.6 210 15:18 09.10.2019
6508 Clouds 13 1001 82 10000 6.2 230 14:44 09.10.2019
6509 Clouds 13 1001 82 10000 5.1 210 14:18 09.10.2019
6510 Clouds 13 1001 82 10000 7.2 240 13:58 09.10.2019
6511 Rain 13 1001 82 10000 7.2 240 13:36 09.10.2019
6512 Clouds 13 1001 87 10000 4.6 200 13:18 09.10.2019
6513 Rain 13 1001 87 8000 7.2 230 12:42 09.10.2019
6514 Clouds 13 1001 87 10000 4.1 190 12:22 09.10.2019
6515 Clouds 13 1001 87 10000 4.1 190 12:22 09.10.2019
6516 Rain 12 1001 93 8000 5.7 220 11:58 09.10.2019
6517 Rain 12 1001 93 8000 5.7 220 11:39 09.10.2019
6518 Rain 12 1001 87 5000 3.6 200 11:20 09.10.2019
6519 Rain 12 1001 100 3000 5.7 210 10:58 09.10.2019
6520 Rain 12 1001 100 3000 5.7 210 10:40 09.10.2019
6521 Clouds 11 1001 87 10000 4.1 200 10:18 09.10.2019
6522 Clouds 11 1001 93 10000 6.7 210 09:43 09.10.2019
6523 Rain 11 1001 93 3500 1 240 09:20 09.10.2019
6524 Rain 11 1001 93 10000 6.7 210 08:57 09.10.2019
6525 Rain 10 1001 93 10000 6.7 210 08:37 09.10.2019
6526 Clouds 10 1001 93 10000 3.6 200 08:19 09.10.2019
6527 Rain 10 1001 87 10000 6.7 210 07:47 09.10.2019
6528 Rain 10 1000 87 10000 4.1 200 07:24 09.10.2019
6529 Rain 10 1000 93 10000 6.2 220 06:56 09.10.2019
6530 Clouds 10 1000 93 10000 3.6 210 06:34 09.10.2019
6531 Clouds 10 1000 93 10000 5.7 220 05:51 09.10.2019
6532 Rain 10 999 93 10000 4.1 230 04:41 09.10.2019
6533 Clouds 11 999 93 10000 4.1 220 03:43 09.10.2019
6534 Clouds 11 999 93 10000 4.1 220 03:43 09.10.2019
6535 Rain 12 999 87 0 6.7 230 02:27 09.10.2019
6536 Rain 11 999 93 0 4.1 210 01:22 09.10.2019
6537 Clouds 11 999 87 10000 5.7 220 00:59 09.10.2019
6538 Clouds 11 999 87 10000 5.7 220 00:40 09.10.2019
6539 Rain 11 999 87 0 3.1 190 00:22 09.10.2019
6540 Clouds 11 999 87 10000 6.2 210 23:58 08.10.2019
6541 Clouds 11 999 87 10000 6.2 210 23:38 08.10.2019
6542 Clouds 11 999 93 10000 2.6 190 23:18 08.10.2019
6543 Clouds 11 999 93 10000 2.6 190 23:18 08.10.2019
6544 Clouds 11 999 93 10000 5.7 220 22:55 08.10.2019
6545 Clouds 11 999 93 10000 5.7 220 22:36 08.10.2019
6546 Clouds 11 999 93 10000 2.6 180 22:18 08.10.2019
6547 Clouds 11 1000 93 10000 6.2 220 21:55 08.10.2019
6548 Rain 11 1000 93 10000 3.1 190 21:36 08.10.2019
6549 Rain 11 999 93 10000 3.1 210 21:18 08.10.2019
6550 Rain 11 1000 87 10000 5.1 220 20:54 08.10.2019
6551 Rain 11 1000 87 10000 5.1 220 20:36 08.10.2019
6552 Clouds 12 1000 87 10000 2.6 210 20:18 08.10.2019
6553 Clouds 12 1000 93 10000 6.2 230 19:41 08.10.2019
6554 Rain 12 1001 87 10000 3.1 230 19:23 08.10.2019
6555 Rain 12 1000 87 10000 10.3 290 18:59 08.10.2019
6556 Rain 12 1000 87 10000 10.3 290 18:40 08.10.2019
6557 Rain 13 999 76 10000 3.1 240 18:22 08.10.2019
6558 Rain 13 1000 76 10000 6.2 270 17:57 08.10.2019
6559 Rain 13 1000 76 10000 6.2 270 17:39 08.10.2019
6560 Rain 14 999 77 10000 3.1 250 17:18 08.10.2019
6561 Rain 14 1000 77 10000 7.7 280 16:55 08.10.2019
6562 Rain 14 1000 77 10000 7.7 280 16:37 08.10.2019
6563 Rain 14 1000 82 10000 3.6 240 16:18 08.10.2019
6564 Rain 14 1000 71 10000 3.6 310 15:38 08.10.2019
6565 Rain 15 999 77 10000 6.7 260 15:19 08.10.2019
6566 Rain 15 1000 77 10000 6.7 270 14:55 08.10.2019
6567 Clouds 15 1000 77 10000 6.7 270 14:37 08.10.2019
6568 Clouds 15 1000 72 10000 3.6 270 14:19 08.10.2019
6569 Rain 15 1000 82 10000 8.2 290 13:54 08.10.2019
6570 -273 0 0 0 0 0 13:54 08.10.2019
6571 Rain 15 1000 82 10000 8.2 290 13:36 08.10.2019
6572 Rain 15 1000 77 10000 5.1 280 13:18 08.10.2019
6573 Rain 15 1000 77 10000 11.3 290 12:40 08.10.2019
6574 Rain 14 1000 82 10000 4.6 280 12:20 08.10.2019
6575 Rain 14 1000 93 10000 7.2 300 11:57 08.10.2019
6576 Clouds 14 1000 93 10000 7.2 300 11:38 08.10.2019
6577 Clouds 13 999 87 10000 4.1 250 11:20 08.10.2019
6578 Rain 12 1000 93 9000 6.2 260 10:42 08.10.2019
6579 Rain 12 1000 93 6000 7.2 250 10:22 08.10.2019
6580 Mist 12 999 93 10000 4.1 230 09:59 08.10.2019
6581 Mist 11 1000 93 2000 6.7 210 09:40 08.10.2019
6582 Mist 11 1000 93 2000 6.7 210 09:40 08.10.2019
6583 Rain 11 1000 93 10000 5.1 200 09:22 08.10.2019
6584 Rain 10 1000 93 2000 7.2 200 08:45 08.10.2019
6585 Rain 10 1000 93 4000 4.6 170 08:25 08.10.2019
6586 Rain 9 1001 100 2000 9.3 190 07:57 08.10.2019
6587 Rain 9 1001 100 2000 9.3 190 07:38 08.10.2019
6588 Rain 9 1002 93 4000 5.1 160 07:19 08.10.2019
6589 Rain 9 1002 93 0 8.2 180 06:45 08.10.2019
6590 Rain 8 1003 93 6000 5.7 170 06:21 08.10.2019
6591 Rain 8 1004 93 0 7.7 180 05:43 08.10.2019
6592 Rain 8 1004 93 0 7.7 180 05:43 08.10.2019
6593 Rain 8 1004 93 10000 4.1 160 05:19 08.10.2019
6594 Rain 8 1007 87 10000 4.1 160 03:31 08.10.2019
6595 Rain 8 1008 81 0 5.1 170 02:43 08.10.2019
6596 Rain 8 1009 81 10000 4.6 150 02:25 08.10.2019
6597 Rain 8 1010 75 0 5.7 170 01:41 08.10.2019
6598 Rain 7 1011 75 0 6.2 170 00:56 08.10.2019
6599 Clear 7 1012 81 10000 4.1 150 00:25 08.10.2019
6600 Clouds 7 1012 87 0 5.1 160 23:58 07.10.2019
6601 Clouds 7 1012 87 0 5.1 160 23:38 07.10.2019
6602 Clear 7 1013 87 10000 3.6 130 23:19 07.10.2019
6603 Clouds 7 1014 87 0 4.6 160 22:55 07.10.2019
6604 Clouds 7 1014 87 0 4.6 160 22:37 07.10.2019
6605 Clear 7 1014 87 10000 3.6 130 22:18 07.10.2019
6606 Clouds 7 1015 87 0 4.6 150 21:54 07.10.2019
6607 Clouds 7 1015 87 0 4.6 150 21:36 07.10.2019
6608 Clear 7 1016 81 10000 3.1 140 21:18 07.10.2019
6609 Clouds 7 1016 87 0 4.6 150 20:55 07.10.2019
6610 Clouds 7 1016 87 0 4.6 150 20:37 07.10.2019
6611 Clear 7 1016 81 10000 2.6 140 20:18 07.10.2019
6612 Clouds 7 1016 87 0 3.6 140 19:42 07.10.2019
6613 Clear 8 1017 81 10000 2.1 130 19:21 07.10.2019
6614 Clouds 8 1017 81 0 3.1 150 18:59 07.10.2019
6615 Clouds 8 1017 81 0 3.1 150 18:41 07.10.2019
6616 Clouds 9 1018 75 10000 2.6 140 18:19 07.10.2019
6617 Clouds 9 1017 76 0 1.5 150 17:58 07.10.2019
6618 Clouds 10 1017 76 0 1.5 150 17:40 07.10.2019
6619 Clouds 10 1018 70 10000 4.6 120 17:18 07.10.2019
6620 Clouds 10 1018 71 0 3.1 150 16:44 07.10.2019
6621 Clouds 11 1019 66 10000 3.1 120 16:26 07.10.2019
6622 Clouds 11 1019 66 0 2.1 150 15:57 07.10.2019
6623 Clouds 11 1019 66 0 2.1 150 15:38 07.10.2019
6624 Clouds 11 1019 61 10000 1.5 180 15:20 07.10.2019
6625 Clouds 11 1020 61 0 1.5 50 14:41 07.10.2019
6626 Clouds 10 1020 61 10000 2.6 150 14:23 07.10.2019
6627 Clouds 10 1020 61 0 2.1 130 13:45 07.10.2019
6628 Clouds 10 1020 61 10000 2.1 100 13:21 07.10.2019
6629 Clouds 10 1021 61 0 2.6 130 12:58 07.10.2019
6630 Clouds 10 1021 61 0 2.6 130 12:40 07.10.2019
6631 Clouds 10 1021 57 10000 2.1 70 12:21 07.10.2019
6632 Clouds 9 1021 66 0 3.6 120 11:59 07.10.2019
6633 Clouds 9 1021 66 0 3.6 120 11:40 07.10.2019
6634 Clouds 9 1021 61 10000 2.1 90 11:21 07.10.2019
6635 Clouds 9 1021 76 0 2.1 100 10:58 07.10.2019
6636 Clouds 8 1021 76 0 2.1 100 10:39 07.10.2019
6637 Clouds 7 1022 75 10000 0.5 340 10:20 07.10.2019
6638 Fog 6 1022 93 0 1.5 70 09:40 07.10.2019
6639 Fog 5 1021 81 10000 2.49 72.918 09:22 07.10.2019
6640 Fog 4 1021 100 0 2.6 80 08:44 07.10.2019
6641 Fog 3 1021 86 10000 0.5 0 08:21 07.10.2019
6642 Fog 3 1021 93 0 3.6 100 07:59 07.10.2019
6643 Fog 3 1021 93 0 3.6 100 07:40 07.10.2019
6644 Fog 3 1021 86 10000 1 160 07:20 07.10.2019
6645 Fog 4 1021 100 0 4.1 100 06:44 07.10.2019
6646 Clear 4 1021 75 0 2.1 60 06:22 07.10.2019
6647 Fog 4 1021 75 0 3.1 50 05:27 07.10.2019
6648 Clear 5 1021 86 0 3.6 70 04:56 07.10.2019
6649 Clear 5 1021 75 0 2.6 70 04:20 07.10.2019
6650 Clear 5 1021 93 0 4.1 80 03:44 07.10.2019
6651 Clear 5 1021 75 0 4.1 70 03:18 07.10.2019
6652 Clear 6 1021 75 0 5.1 70 02:20 07.10.2019
6653 Clear 6 1021 87 0 3.6 60 01:47 07.10.2019
6654 Clear 6 1021 81 0 4.1 60 01:19 07.10.2019
6655 Clear 6 1020 93 0 4.1 90 00:38 07.10.2019
6656 Clear 6 1020 87 0 5.1 70 00:19 07.10.2019
6657 Clear 7 1020 87 0 3.1 90 23:42 06.10.2019
6658 Clear 7 1020 87 0 3.1 90 23:42 06.10.2019
6659 Clear 7 1020 87 0 3.1 90 23:42 06.10.2019
6660 Fog 6 1020 81 0 6.2 70 23:21 06.10.2019
6661 Fog 6 1020 81 0 3.6 70 22:59 06.10.2019
6662 Fog 6 1020 81 0 3.6 70 22:41 06.10.2019
6663 Clear 6 1020 81 0 6.2 70 22:22 06.10.2019
6664 Clear 6 1020 81 0 4.1 100 21:57 06.10.2019
6665 Clear 6 1020 81 0 4.1 100 21:38 06.10.2019
6666 Clear 6 1020 81 0 4.1 100 21:38 06.10.2019
6667 Clear 6 1020 81 0 4.1 100 21:38 06.10.2019
6668 Clouds 7 1020 81 0 6.7 70 21:19 06.10.2019
6669 Clouds 7 1019 81 0 5.1 90 20:58 06.10.2019
6670 Clouds 7 1019 81 0 5.1 90 20:40 06.10.2019
6671 Clouds 7 1020 81 10000 3.1 70 20:20 06.10.2019
6672 Clouds 7 1020 81 10000 3.1 70 20:20 06.10.2019
6673 Clouds 7 1019 75 0 4.1 110 19:57 06.10.2019
6674 Clouds 7 1019 75 0 4.1 110 19:37 06.10.2019
6675 Clouds 8 1019 76 10000 6.7 80 19:19 06.10.2019
6676 Clouds 8 1019 66 10000 5.1 120 18:57 06.10.2019
6677 Clouds 9 1019 66 10000 5.1 120 18:38 06.10.2019
6678 Clouds 9 1019 71 10000 6.2 80 18:19 06.10.2019
6679 Clouds 9 1019 71 10000 6.2 80 18:19 06.10.2019
6680 Clouds 10 1019 71 10000 5.7 90 17:57 06.10.2019
6681 Clouds 10 1019 71 10000 5.7 90 17:39 06.10.2019
6682 Clouds 10 1019 76 10000 4.6 80 17:19 06.10.2019
6683 Clouds 10 1019 71 10000 6.2 120 16:42 06.10.2019
6684 Clouds 10 1019 71 10000 6.2 90 16:24 06.10.2019
6685 Clouds 11 1019 71 10000 5.1 120 15:58 06.10.2019
6686 Clouds 11 1019 71 10000 5.1 120 15:39 06.10.2019
6687 Clouds 11 1020 71 10000 6.2 100 15:18 06.10.2019
6688 Clouds 11 1019 66 10000 5.7 130 14:43 06.10.2019
6689 Rain 11 1020 71 0 6.7 100 14:24 06.10.2019
6690 Clouds 11 1020 66 10000 4.6 110 13:58 06.10.2019
6691 Clouds 11 1020 66 10000 4.6 110 13:39 06.10.2019
6692 Rain 11 1021 76 0 5.7 90 13:20 06.10.2019
6693 Rain 10 1020 71 10000 4.1 100 12:57 06.10.2019
6694 Rain 10 1020 71 10000 4.1 100 12:39 06.10.2019
6695 Clouds 10 1021 76 0 5.1 120 12:20 06.10.2019
6696 Rain 10 1021 81 10000 3.6 120 11:57 06.10.2019
6697 Rain 10 1021 81 10000 3.6 120 11:38 06.10.2019
6698 Rain 9 1021 76 0 5.1 120 11:20 06.10.2019
6699 Rain 9 1021 87 10000 3.6 110 10:44 06.10.2019
6700 Rain 9 1021 87 10000 3.6 110 10:44 06.10.2019
6701 Clouds 8 1022 76 10000 4.1 130 10:25 06.10.2019
6702 Clouds 8 1021 93 10000 3.1 110 09:58 06.10.2019
6703 Clouds 8 1021 93 10000 3.1 110 09:39 06.10.2019
6704 Clouds 7 1021 76 0 4.1 100 09:18 06.10.2019
6705 Clouds 7 1021 87 10000 2.6 140 08:43 06.10.2019
6706 Clouds 7 1021 81 0 4.6 100 08:21 06.10.2019
6707 Clouds 7 1021 93 10000 3.1 160 07:56 06.10.2019
6708 Clouds 7 1022 87 10000 3.1 70 07:33 06.10.2019
6709 Clouds 7 1022 75 0 4.6 90 06:20 06.10.2019
6710 Clouds 7 1022 93 10000 2.1 160 05:34 06.10.2019
6711 Clouds 7 1022 100 10000 3.6 120 03:56 06.10.2019
6712 Clouds 7 1022 93 10000 2.6 130 02:46 06.10.2019
6713 Clouds 7 1022 75 0 3.1 90 02:27 06.10.2019
6714 Clouds 7 1022 93 10000 2.6 80 01:46 06.10.2019
6715 Clouds 7 1023 81 0 4.1 70 01:27 06.10.2019
6716 Clouds 7 1023 87 10000 3.1 70 00:57 06.10.2019
6717 Clouds 7 1023 75 0 3.1 70 00:28 06.10.2019
6718 Clouds 7 1023 87 10000 3.1 70 23:45 05.10.2019
6719 Clear 7 1023 70 0 4.6 50 23:23 05.10.2019
6720 Clouds 7 1023 75 10000 4.6 80 22:59 05.10.2019
6721 Clouds 7 1023 75 10000 4.6 80 22:40 05.10.2019
6722 Fog 7 1023 75 0 3.6 50 22:20 05.10.2019
6723 Fog 7 1022 81 10000 4.1 70 21:57 05.10.2019
6724 Fog 7 1022 81 10000 4.1 70 21:39 05.10.2019
6725 Fog 7 1022 65 0 4.6 50 21:20 05.10.2019
6726 Fog 7 1022 81 10000 5.1 70 20:56 05.10.2019
6727 Fog 7 1022 81 10000 5.1 70 20:38 05.10.2019
6728 Fog 7 1022 70 0 4.6 40 20:19 05.10.2019
6729 Fog 8 1021 81 10000 4.1 70 19:39 05.10.2019
6730 Clouds 8 1021 70 0 4.6 50 19:21 05.10.2019
6731 Clouds 9 1021 75 10000 4.1 70 18:57 05.10.2019
6732 Clouds 9 1021 75 10000 4.1 70 18:39 05.10.2019
6733 Rain 9 1021 66 0 5.1 50 18:20 05.10.2019
6734 Rain 9 1020 71 10000 2.6 80 17:56 05.10.2019
6735 Rain 10 1021 66 10000 4.6 50 17:37 05.10.2019
6736 Rain 10 1020 66 10000 4.6 50 17:19 05.10.2019
6737 Rain 10 1020 71 10000 2.6 70 16:42 05.10.2019
6738 Rain 10 1020 66 10000 4.6 50 16:22 05.10.2019
6739 Rain 10 1020 71 10000 3.1 70 15:58 05.10.2019
6740 Clouds 10 1020 71 10000 3.1 70 15:40 05.10.2019
6741 Rain 10 1020 71 10000 4.1 40 15:21 05.10.2019
6742 Rain 10 1020 71 10000 4.1 40 15:21 05.10.2019
6743 Clouds 10 1019 76 10000 3.6 60 14:58 05.10.2019
6744 Clouds 10 1019 76 10000 3.6 60 14:58 05.10.2019
6745 Clouds 10 1019 76 10000 3.6 60 14:40 05.10.2019
6746 Clouds 10 1019 76 10000 3.6 60 14:20 05.10.2019
6747 Clouds 10 1019 76 10000 4.1 60 13:42 05.10.2019
6748 Clouds 10 1019 76 10000 5.7 70 13:23 05.10.2019
6749 Clouds 10 1019 76 10000 3.6 70 12:57 05.10.2019
6750 Clouds 10 1019 76 10000 3.6 70 12:39 05.10.2019
6751 Clouds 10 1019 76 10000 3.6 70 12:39 05.10.2019
6752 Clouds 10 1019 76 10000 3.6 70 12:39 05.10.2019
6753 Clouds 10 1019 76 10000 5.7 60 12:18 05.10.2019
6754 Clouds 10 1018 76 10000 2.6 60 11:39 05.10.2019
6755 Clouds 10 1018 76 10000 6.2 50 11:19 05.10.2019
6756 Clouds 9 1018 81 10000 3.6 80 10:54 05.10.2019
6757 Clouds 9 1018 81 10000 3.6 80 10:36 05.10.2019
6758 Clouds 9 1017 87 10000 6.7 50 10:18 05.10.2019
6759 Clouds 9 1017 81 10000 3.6 70 09:39 05.10.2019
6760 Clouds 8 1016 81 10000 5.7 50 09:21 05.10.2019
6761 Clouds 8 1016 81 10000 4.1 70 08:42 05.10.2019
6762 Clouds 8 1015 87 10000 5.1 70 08:22 05.10.2019
6763 Clouds 8 1015 87 10000 5.1 70 07:59 05.10.2019
6764 Clouds 8 1015 87 10000 5.1 70 07:39 05.10.2019
6765 Clouds 8 1014 87 10000 6.2 60 07:20 05.10.2019
6766 Clouds 8 1014 87 10000 5.1 70 06:50 05.10.2019
6767 Clouds 8 1014 87 0 7.2 50 06:18 05.10.2019
6768 Rain 9 1013 87 10000 4.1 70 04:46 05.10.2019